<?xml version='1.0' encoding='UTF-8'?><gpx version="1.1" creator="JPX - https://github.com/jenetics/jpx" xmlns="http://www.topografix.com/GPX/1/1"><trk><trkseg><trkpt lat="40.8937283" lon="14.283708"><ele>80.0</ele><time>2026-04-20T12:30:21.246Z</time></trkpt><trkpt lat="40.8938319" lon="14.2878622"><ele>80.0</ele><time>2026-04-20T12:30:41.491Z</time></trkpt><trkpt lat="40.893985" lon="14.2880767"><ele>80.0</ele><time>2026-04-20T12:30:44.536Z</time></trkpt><trkpt lat="40.8938933" lon="14.288115"><ele>80.0</ele><time>2026-04-20T12:30:45.535Z</time></trkpt><trkpt lat="40.8938617" lon="14.2880117"><ele>80.0</ele><time>2026-04-20T12:30:49.536Z</time></trkpt><trkpt lat="40.8937767" lon="14.2879267"><ele>80.0</ele><time>2026-04-20T12:30:50.537Z</time></trkpt><trkpt lat="40.8938017" lon="14.2878467"><ele>80.0</ele><time>2026-04-20T12:31:01.534Z</time></trkpt><trkpt lat="40.89378" lon="14.2877567"><ele>80.0</ele><time>2026-04-20T12:31:08.534Z</time></trkpt><trkpt lat="40.8937433" lon="14.287675"><ele>80.0</ele><time>2026-04-20T12:31:12.532Z</time></trkpt><trkpt lat="40.8938017" lon="14.2876017"><ele>80.0</ele><time>2026-04-20T12:31:21.532Z</time></trkpt><trkpt lat="40.893805" lon="14.2874783"><ele>80.0</ele><time>2026-04-20T12:31:24.533Z</time></trkpt><trkpt lat="40.893795" lon="14.28738"><ele>80.0</ele><time>2026-04-20T12:31:26.533Z</time></trkpt><trkpt lat="40.893775" lon="14.2872717"><ele>80.0</ele><time>2026-04-20T12:31:28.533Z</time></trkpt><trkpt lat="40.89375" lon="14.2871717"><ele>80.0</ele><time>2026-04-20T12:31:30.533Z</time></trkpt><trkpt lat="40.8937317" lon="14.2870667"><ele>80.0</ele><time>2026-04-20T12:31:32.533Z</time></trkpt><trkpt lat="40.8937083" lon="14.2869533"><ele>80.0</ele><time>2026-04-20T12:31:34.534Z</time></trkpt><trkpt lat="40.8936767" lon="14.286845"><ele>80.0</ele><time>2026-04-20T12:31:36.534Z</time></trkpt><trkpt lat="40.8936467" lon="14.2867417"><ele>80.0</ele><time>2026-04-20T12:31:38.532Z</time></trkpt><trkpt lat="40.8936217" lon="14.28664"><ele>80.0</ele><time>2026-04-20T12:31:40.532Z</time></trkpt><trkpt lat="40.8936033" lon="14.2865517"><ele>80.0</ele><time>2026-04-20T12:31:42.534Z</time></trkpt><trkpt lat="40.8935683" lon="14.28646"><ele>80.0</ele><time>2026-04-20T12:31:43.535Z</time></trkpt><trkpt lat="40.8935283" lon="14.2863567"><ele>80.0</ele><time>2026-04-20T12:31:45.534Z</time></trkpt><trkpt lat="40.8935067" lon="14.286255"><ele>80.0</ele><time>2026-04-20T12:31:47.532Z</time></trkpt><trkpt lat="40.893455" lon="14.2861467"><ele>80.33333333333334</ele><time>2026-04-20T12:31:49.535Z</time></trkpt><trkpt lat="40.8934033" lon="14.2860417"><ele>80.66666666666667</ele><time>2026-04-20T12:31:51.532Z</time></trkpt><trkpt lat="40.8933483" lon="14.2859283"><ele>81.0</ele><time>2026-04-20T12:31:53.536Z</time></trkpt><trkpt lat="40.8933133" lon="14.28583"><ele>81.33333333333333</ele><time>2026-04-20T12:31:55.534Z</time></trkpt><trkpt lat="40.89327" lon="14.2857333"><ele>81.66666666666666</ele><time>2026-04-20T12:31:57.533Z</time></trkpt><trkpt lat="40.8932333" lon="14.2856383"><ele>82.0</ele><time>2026-04-20T12:31:59.534Z</time></trkpt><trkpt lat="40.893205" lon="14.285525"><ele>82.5</ele><time>2026-04-20T12:32:02.534Z</time></trkpt><trkpt lat="40.8931533" lon="14.285435"><ele>83.0</ele><time>2026-04-20T12:32:04.533Z</time></trkpt><trkpt lat="40.8931117" lon="14.2853617"><ele>83.5</ele><time>2026-04-20T12:32:06.533Z</time></trkpt><trkpt lat="40.8930717" lon="14.2852617"><ele>84.0</ele><time>2026-04-20T12:32:09.533Z</time></trkpt><trkpt lat="40.8930467" lon="14.2851517"><ele>84.5</ele><time>2026-04-20T12:32:11.533Z</time></trkpt><trkpt lat="40.8930217" lon="14.2850517"><ele>85.0</ele><time>2026-04-20T12:32:13.534Z</time></trkpt><trkpt lat="40.892955" lon="14.2849567"><ele>85.0</ele><time>2026-04-20T12:32:15.532Z</time></trkpt><trkpt lat="40.8929083" lon="14.2848"><ele>85.0</ele><time>2026-04-20T12:32:17.534Z</time></trkpt><trkpt lat="40.8928667" lon="14.2846933"><ele>85.0</ele><time>2026-04-20T12:32:19.534Z</time></trkpt><trkpt lat="40.8928333" lon="14.28462"><ele>85.0</ele><time>2026-04-20T12:32:21.532Z</time></trkpt><trkpt lat="40.89279" lon="14.2845467"><ele>85.0</ele><time>2026-04-20T12:32:23.534Z</time></trkpt><trkpt lat="40.8927283" lon="14.2844767"><ele>85.0</ele><time>2026-04-20T12:32:25.533Z</time></trkpt><trkpt lat="40.89265" lon="14.2844083"><ele>84.66666666666666</ele><time>2026-04-20T12:32:27.533Z</time></trkpt><trkpt lat="40.8925717" lon="14.284345"><ele>84.33333333333333</ele><time>2026-04-20T12:32:29.534Z</time></trkpt><trkpt lat="40.89251" lon="14.2842983"><ele>84.0</ele><time>2026-04-20T12:32:31.533Z</time></trkpt><trkpt lat="40.8924533" lon="14.28426"><ele>83.66666666666667</ele><time>2026-04-20T12:32:33.532Z</time></trkpt><trkpt lat="40.8923767" lon="14.284215"><ele>83.33333333333334</ele><time>2026-04-20T12:32:35.535Z</time></trkpt><trkpt lat="40.8923183" lon="14.2841317"><ele>83.0</ele><time>2026-04-20T12:32:37.535Z</time></trkpt><trkpt lat="40.8922883" lon="14.2840533"><ele>83.0</ele><time>2026-04-20T12:32:38.534Z</time></trkpt><trkpt lat="40.89226" lon="14.2839717"><ele>83.0</ele><time>2026-04-20T12:32:39.532Z</time></trkpt><trkpt lat="40.8922033" lon="14.2838633"><ele>83.0</ele><time>2026-04-20T12:32:41.536Z</time></trkpt><trkpt lat="40.892125" lon="14.28377"><ele>83.0</ele><time>2026-04-20T12:32:43.533Z</time></trkpt><trkpt lat="40.8920567" lon="14.2836733"><ele>83.0</ele><time>2026-04-20T12:32:45.533Z</time></trkpt><trkpt lat="40.89196" lon="14.2836"><ele>83.2</ele><time>2026-04-20T12:32:47.534Z</time></trkpt><trkpt lat="40.8918917" lon="14.2835583"><ele>83.4</ele><time>2026-04-20T12:32:49.533Z</time></trkpt><trkpt lat="40.8918233" lon="14.283505"><ele>83.60000000000001</ele><time>2026-04-20T12:32:51.533Z</time></trkpt><trkpt lat="40.8917417" lon="14.2834667"><ele>83.80000000000001</ele><time>2026-04-20T12:32:53.535Z</time></trkpt><trkpt lat="40.8916583" lon="14.2834467"><ele>84.0</ele><time>2026-04-20T12:32:54.535Z</time></trkpt><trkpt lat="40.891535" lon="14.28341"><ele>84.0</ele><time>2026-04-20T12:32:56.533Z</time></trkpt><trkpt lat="40.8914317" lon="14.2833833"><ele>84.0</ele><time>2026-04-20T12:32:58.535Z</time></trkpt><trkpt lat="40.8913483" lon="14.283355"><ele>84.0</ele><time>2026-04-20T12:33:00.534Z</time></trkpt><trkpt lat="40.8912667" lon="14.283345"><ele>84.0</ele><time>2026-04-20T12:33:02.533Z</time></trkpt><trkpt lat="40.891195" lon="14.2832883"><ele>84.0</ele><time>2026-04-20T12:33:04.534Z</time></trkpt><trkpt lat="40.891125" lon="14.2832167"><ele>84.0</ele><time>2026-04-20T12:33:06.533Z</time></trkpt><trkpt lat="40.89106" lon="14.2831783"><ele>84.0</ele><time>2026-04-20T12:33:08.533Z</time></trkpt><trkpt lat="40.8909983" lon="14.2831517"><ele>84.0</ele><time>2026-04-20T12:33:10.533Z</time></trkpt><trkpt lat="40.8909017" lon="14.2831333"><ele>84.0</ele><time>2026-04-20T12:33:13.533Z</time></trkpt><trkpt lat="40.8908017" lon="14.2830383"><ele>84.0</ele><time>2026-04-20T12:33:16.534Z</time></trkpt><trkpt lat="40.8907133" lon="14.282995"><ele>84.0</ele><time>2026-04-20T12:33:18.534Z</time></trkpt><trkpt lat="40.8905567" lon="14.2829633"><ele>84.0</ele><time>2026-04-20T12:33:20.535Z</time></trkpt><trkpt lat="40.8904717" lon="14.2829267"><ele>84.0</ele><time>2026-04-20T12:33:22.534Z</time></trkpt><trkpt lat="40.8903833" lon="14.282895"><ele>84.0</ele><time>2026-04-20T12:33:24.535Z</time></trkpt><trkpt lat="40.8902933" lon="14.2828833"><ele>84.0</ele><time>2026-04-20T12:33:26.533Z</time></trkpt><trkpt lat="40.8902167" lon="14.282815"><ele>84.0</ele><time>2026-04-20T12:33:29.534Z</time></trkpt><trkpt lat="40.8901483" lon="14.2827867"><ele>84.0</ele><time>2026-04-20T12:33:30.532Z</time></trkpt><trkpt lat="40.8900583" lon="14.2827433"><ele>84.0</ele><time>2026-04-20T12:33:32.533Z</time></trkpt><trkpt lat="40.8899717" lon="14.2827417"><ele>84.0</ele><time>2026-04-20T12:33:33.533Z</time></trkpt><trkpt lat="40.8899033" lon="14.28273"><ele>84.0</ele><time>2026-04-20T12:33:34.534Z</time></trkpt><trkpt lat="40.8897783" lon="14.282705"><ele>84.0</ele><time>2026-04-20T12:33:36.534Z</time></trkpt><trkpt lat="40.8896883" lon="14.2826667"><ele>84.0</ele><time>2026-04-20T12:33:38.533Z</time></trkpt><trkpt lat="40.8896267" lon="14.2825833"><ele>84.0</ele><time>2026-04-20T12:33:41.534Z</time></trkpt><trkpt lat="40.8895767" lon="14.2824883"><ele>84.0</ele><time>2026-04-20T12:33:45.532Z</time></trkpt><trkpt lat="40.889535" lon="14.2823917"><ele>84.0</ele><time>2026-04-20T12:33:48.533Z</time></trkpt><trkpt lat="40.8894933" lon="14.282315"><ele>84.0</ele><time>2026-04-20T12:33:50.533Z</time></trkpt><trkpt lat="40.8894367" lon="14.2822417"><ele>84.0</ele><time>2026-04-20T12:33:52.539Z</time></trkpt><trkpt lat="40.889395" lon="14.2821583"><ele>84.0</ele><time>2026-04-20T12:33:54.534Z</time></trkpt><trkpt lat="40.889365" lon="14.282055"><ele>84.33333333333333</ele><time>2026-04-20T12:33:56.533Z</time></trkpt><trkpt lat="40.889335" lon="14.281975"><ele>84.66666666666667</ele><time>2026-04-20T12:33:58.534Z</time></trkpt><trkpt lat="40.8892983" lon="14.2818917"><ele>85.0</ele><time>2026-04-20T12:34:00.532Z</time></trkpt><trkpt lat="40.889255" lon="14.2818133"><ele>85.33333333333334</ele><time>2026-04-20T12:34:02.533Z</time></trkpt><trkpt lat="40.8892133" lon="14.2816917"><ele>85.66666666666667</ele><time>2026-04-20T12:34:04.534Z</time></trkpt><trkpt lat="40.8891717" lon="14.2816133"><ele>86.0</ele><time>2026-04-20T12:34:06.536Z</time></trkpt><trkpt lat="40.8890917" lon="14.2815617"><ele>86.16666666666667</ele><time>2026-04-20T12:34:08.532Z</time></trkpt><trkpt lat="40.8890283" lon="14.2814733"><ele>86.33333333333334</ele><time>2026-04-20T12:34:10.532Z</time></trkpt><trkpt lat="40.8889717" lon="14.2814117"><ele>86.5</ele><time>2026-04-20T12:34:12.533Z</time></trkpt><trkpt lat="40.88889" lon="14.2813333"><ele>86.66666666666667</ele><time>2026-04-20T12:34:15.532Z</time></trkpt><trkpt lat="40.888825" lon="14.28128"><ele>86.83333333333333</ele><time>2026-04-20T12:34:17.533Z</time></trkpt><trkpt lat="40.8887783" lon="14.2812233"><ele>87.0</ele><time>2026-04-20T12:34:19.534Z</time></trkpt><trkpt lat="40.8887133" lon="14.2811367"><ele>86.6</ele><time>2026-04-20T12:34:22.534Z</time></trkpt><trkpt lat="40.8886733" lon="14.2810617"><ele>86.19999999999999</ele><time>2026-04-20T12:34:24.535Z</time></trkpt><trkpt lat="40.88863" lon="14.28096"><ele>85.8</ele><time>2026-04-20T12:34:26.534Z</time></trkpt><trkpt lat="40.8885817" lon="14.28085"><ele>85.4</ele><time>2026-04-20T12:34:28.534Z</time></trkpt><trkpt lat="40.8885283" lon="14.2807483"><ele>85.0</ele><time>2026-04-20T12:34:30.534Z</time></trkpt><trkpt lat="40.88846" lon="14.2806417"><ele>85.33333333333333</ele><time>2026-04-20T12:34:32.534Z</time></trkpt><trkpt lat="40.8884033" lon="14.2805617"><ele>85.66666666666666</ele><time>2026-04-20T12:34:34.534Z</time></trkpt><trkpt lat="40.8883517" lon="14.2804733"><ele>86.0</ele><time>2026-04-20T12:34:36.533Z</time></trkpt><trkpt lat="40.8883017" lon="14.2804017"><ele>86.33333333333333</ele><time>2026-04-20T12:34:38.533Z</time></trkpt><trkpt lat="40.8882583" lon="14.2803367"><ele>86.66666666666667</ele><time>2026-04-20T12:34:40.533Z</time></trkpt><trkpt lat="40.8882367" lon="14.2802533"><ele>87.0</ele><time>2026-04-20T12:34:44.535Z</time></trkpt><trkpt lat="40.8882133" lon="14.2800917"><ele>87.0</ele><time>2026-04-20T12:35:03.532Z</time></trkpt><trkpt lat="40.8881683" lon="14.2800083"><ele>87.0</ele><time>2026-04-20T12:35:06.534Z</time></trkpt><trkpt lat="40.888125" lon="14.27992"><ele>87.0</ele><time>2026-04-20T12:35:09.533Z</time></trkpt><trkpt lat="40.888095" lon="14.2798467"><ele>87.0</ele><time>2026-04-20T12:35:11.533Z</time></trkpt><trkpt lat="40.8880383" lon="14.2797433"><ele>87.0</ele><time>2026-04-20T12:35:14.532Z</time></trkpt><trkpt lat="40.8879883" lon="14.279635"><ele>87.0</ele><time>2026-04-20T12:35:17.534Z</time></trkpt><trkpt lat="40.8879417" lon="14.2795367"><ele>87.0</ele><time>2026-04-20T12:35:20.532Z</time></trkpt><trkpt lat="40.887885" lon="14.2794467"><ele>87.0</ele><time>2026-04-20T12:35:23.534Z</time></trkpt><trkpt lat="40.8878433" lon="14.2793817"><ele>87.0</ele><time>2026-04-20T12:35:25.534Z</time></trkpt><trkpt lat="40.8877883" lon="14.2793017"><ele>87.0</ele><time>2026-04-20T12:35:28.534Z</time></trkpt><trkpt lat="40.887745" lon="14.27923"><ele>87.0</ele><time>2026-04-20T12:35:30.533Z</time></trkpt><trkpt lat="40.887705" lon="14.27916"><ele>87.0</ele><time>2026-04-20T12:35:32.535Z</time></trkpt><trkpt lat="40.8876617" lon="14.2790883"><ele>87.0</ele><time>2026-04-20T12:35:34.535Z</time></trkpt><trkpt lat="40.8876183" lon="14.2790133"><ele>87.16666666666667</ele><time>2026-04-20T12:35:36.533Z</time></trkpt><trkpt lat="40.8875783" lon="14.2789433"><ele>87.33333333333333</ele><time>2026-04-20T12:35:38.535Z</time></trkpt><trkpt lat="40.887535" lon="14.2788683"><ele>87.5</ele><time>2026-04-20T12:35:40.534Z</time></trkpt><trkpt lat="40.8874867" lon="14.278785"><ele>87.66666666666666</ele><time>2026-04-20T12:35:42.534Z</time></trkpt><trkpt lat="40.8874433" lon="14.278705"><ele>87.83333333333333</ele><time>2026-04-20T12:35:44.533Z</time></trkpt><trkpt lat="40.887405" lon="14.2786083"><ele>88.0</ele><time>2026-04-20T12:35:46.535Z</time></trkpt><trkpt lat="40.88736" lon="14.27852"><ele>88.0</ele><time>2026-04-20T12:35:48.534Z</time></trkpt><trkpt lat="40.8873183" lon="14.2784283"><ele>88.0</ele><time>2026-04-20T12:35:50.533Z</time></trkpt><trkpt lat="40.887275" lon="14.2783233"><ele>88.0</ele><time>2026-04-20T12:35:52.534Z</time></trkpt><trkpt lat="40.88723" lon="14.2782233"><ele>88.0</ele><time>2026-04-20T12:35:54.534Z</time></trkpt><trkpt lat="40.887195" lon="14.2781467"><ele>88.0</ele><time>2026-04-20T12:35:56.532Z</time></trkpt><trkpt lat="40.8871383" lon="14.278055"><ele>88.0</ele><time>2026-04-20T12:35:59.534Z</time></trkpt><trkpt lat="40.8871017" lon="14.2779867"><ele>88.0</ele><time>2026-04-20T12:36:01.535Z</time></trkpt><trkpt lat="40.8870567" lon="14.2778983"><ele>88.0</ele><time>2026-04-20T12:36:03.534Z</time></trkpt><trkpt lat="40.887015" lon="14.277815"><ele>88.0</ele><time>2026-04-20T12:36:05.534Z</time></trkpt><trkpt lat="40.8869517" lon="14.277715"><ele>88.0</ele><time>2026-04-20T12:36:08.533Z</time></trkpt><trkpt lat="40.88692" lon="14.2776317"><ele>88.0</ele><time>2026-04-20T12:36:10.534Z</time></trkpt><trkpt lat="40.8868883" lon="14.277555"><ele>88.0</ele><time>2026-04-20T12:36:12.534Z</time></trkpt><trkpt lat="40.886845" lon="14.2774633"><ele>88.0</ele><time>2026-04-20T12:36:14.533Z</time></trkpt><trkpt lat="40.8867967" lon="14.2773783"><ele>88.0</ele><time>2026-04-20T12:36:16.532Z</time></trkpt><trkpt lat="40.8867483" lon="14.2772867"><ele>88.0</ele><time>2026-04-20T12:36:18.535Z</time></trkpt><trkpt lat="40.8866883" lon="14.277185"><ele>88.0</ele><time>2026-04-20T12:36:20.534Z</time></trkpt><trkpt lat="40.886635" lon="14.2770917"><ele>88.0</ele><time>2026-04-20T12:36:22.535Z</time></trkpt><trkpt lat="40.8865733" lon="14.2769933"><ele>88.0</ele><time>2026-04-20T12:36:24.535Z</time></trkpt><trkpt lat="40.8865133" lon="14.276895"><ele>88.0</ele><time>2026-04-20T12:36:26.534Z</time></trkpt><trkpt lat="40.8864583" lon="14.276795"><ele>88.0</ele><time>2026-04-20T12:36:28.533Z</time></trkpt><trkpt lat="40.8864017" lon="14.2766933"><ele>88.0</ele><time>2026-04-20T12:36:30.534Z</time></trkpt><trkpt lat="40.8863467" lon="14.2765967"><ele>88.0</ele><time>2026-04-20T12:36:32.533Z</time></trkpt><trkpt lat="40.8863" lon="14.276495"><ele>88.0</ele><time>2026-04-20T12:36:34.534Z</time></trkpt><trkpt lat="40.8862533" lon="14.27639"><ele>88.33333333333333</ele><time>2026-04-20T12:36:36.534Z</time></trkpt><trkpt lat="40.8862017" lon="14.2763033"><ele>88.66666666666666</ele><time>2026-04-20T12:36:38.532Z</time></trkpt><trkpt lat="40.886155" lon="14.2762283"><ele>89.0</ele><time>2026-04-20T12:36:40.534Z</time></trkpt><trkpt lat="40.8860983" lon="14.27614"><ele>89.33333333333333</ele><time>2026-04-20T12:36:43.534Z</time></trkpt><trkpt lat="40.886045" lon="14.2760517"><ele>89.66666666666667</ele><time>2026-04-20T12:36:46.534Z</time></trkpt><trkpt lat="40.8860067" lon="14.2759633"><ele>90.0</ele><time>2026-04-20T12:36:48.535Z</time></trkpt><trkpt lat="40.885965" lon="14.2758567"><ele>89.8</ele><time>2026-04-20T12:36:50.534Z</time></trkpt><trkpt lat="40.885925" lon="14.2757517"><ele>89.6</ele><time>2026-04-20T12:36:52.534Z</time></trkpt><trkpt lat="40.88588" lon="14.2756517"><ele>89.4</ele><time>2026-04-20T12:36:54.535Z</time></trkpt><trkpt lat="40.8858233" lon="14.2755433"><ele>89.2</ele><time>2026-04-20T12:36:56.534Z</time></trkpt><trkpt lat="40.8857533" lon="14.2754617"><ele>89.0</ele><time>2026-04-20T12:36:58.536Z</time></trkpt><trkpt lat="40.885685" lon="14.27539"><ele>89.6</ele><time>2026-04-20T12:37:00.534Z</time></trkpt><trkpt lat="40.8856133" lon="14.27532"><ele>90.2</ele><time>2026-04-20T12:37:02.534Z</time></trkpt><trkpt lat="40.8855367" lon="14.2752517"><ele>90.8</ele><time>2026-04-20T12:37:04.533Z</time></trkpt><trkpt lat="40.8854483" lon="14.27518"><ele>91.39999999999999</ele><time>2026-04-20T12:37:06.534Z</time></trkpt><trkpt lat="40.885365" lon="14.2751033"><ele>92.0</ele><time>2026-04-20T12:37:08.535Z</time></trkpt><trkpt lat="40.885285" lon="14.2750233"><ele>92.0</ele><time>2026-04-20T12:37:10.535Z</time></trkpt><trkpt lat="40.8851983" lon="14.2749433"><ele>92.0</ele><time>2026-04-20T12:37:12.534Z</time></trkpt><trkpt lat="40.8851133" lon="14.2748517"><ele>92.0</ele><time>2026-04-20T12:37:14.534Z</time></trkpt><trkpt lat="40.88503" lon="14.2747667"><ele>92.0</ele><time>2026-04-20T12:37:16.534Z</time></trkpt><trkpt lat="40.884955" lon="14.2746883"><ele>92.0</ele><time>2026-04-20T12:37:18.534Z</time></trkpt><trkpt lat="40.88488" lon="14.27461"><ele>91.83333333333334</ele><time>2026-04-20T12:37:20.535Z</time></trkpt><trkpt lat="40.8848083" lon="14.27453"><ele>91.66666666666667</ele><time>2026-04-20T12:37:22.533Z</time></trkpt><trkpt lat="40.8847333" lon="14.2744567"><ele>91.5</ele><time>2026-04-20T12:37:24.536Z</time></trkpt><trkpt lat="40.884665" lon="14.27438"><ele>91.33333333333333</ele><time>2026-04-20T12:37:26.538Z</time></trkpt><trkpt lat="40.884595" lon="14.2743133"><ele>91.16666666666666</ele><time>2026-04-20T12:37:28.532Z</time></trkpt><trkpt lat="40.8845233" lon="14.2742517"><ele>91.0</ele><time>2026-04-20T12:37:30.535Z</time></trkpt><trkpt lat="40.8844433" lon="14.2741833"><ele>91.0</ele><time>2026-04-20T12:37:32.533Z</time></trkpt><trkpt lat="40.88438" lon="14.2741067"><ele>91.0</ele><time>2026-04-20T12:37:34.54Z</time></trkpt><trkpt lat="40.884325" lon="14.274035"><ele>91.0</ele><time>2026-04-20T12:37:36.531Z</time></trkpt><trkpt lat="40.8842333" lon="14.27392"><ele>91.0</ele><time>2026-04-20T12:37:39.533Z</time></trkpt><trkpt lat="40.8841683" lon="14.2738483"><ele>91.0</ele><time>2026-04-20T12:37:41.532Z</time></trkpt><trkpt lat="40.8841167" lon="14.2737517"><ele>91.5</ele><time>2026-04-20T12:37:43.531Z</time></trkpt><trkpt lat="40.8840533" lon="14.27366"><ele>92.0</ele><time>2026-04-20T12:37:45.532Z</time></trkpt><trkpt lat="40.8839733" lon="14.2736"><ele>92.5</ele><time>2026-04-20T12:37:47.531Z</time></trkpt><trkpt lat="40.883905" lon="14.27353"><ele>93.0</ele><time>2026-04-20T12:37:49.54Z</time></trkpt><trkpt lat="40.88383" lon="14.2734717"><ele>93.5</ele><time>2026-04-20T12:37:51.532Z</time></trkpt><trkpt lat="40.8837517" lon="14.2734267"><ele>94.0</ele><time>2026-04-20T12:37:53.532Z</time></trkpt><trkpt lat="40.883675" lon="14.27337"><ele>94.0</ele><time>2026-04-20T12:37:55.534Z</time></trkpt><trkpt lat="40.88361" lon="14.2733083"><ele>94.0</ele><time>2026-04-20T12:37:57.532Z</time></trkpt><trkpt lat="40.8835433" lon="14.2732317"><ele>94.0</ele><time>2026-04-20T12:37:59.533Z</time></trkpt><trkpt lat="40.8834783" lon="14.27316"><ele>94.0</ele><time>2026-04-20T12:38:01.532Z</time></trkpt><trkpt lat="40.8834017" lon="14.273085"><ele>94.0</ele><time>2026-04-20T12:38:03.532Z</time></trkpt><trkpt lat="40.8833267" lon="14.2730067"><ele>94.0</ele><time>2026-04-20T12:38:05.531Z</time></trkpt><trkpt lat="40.88326" lon="14.2729483"><ele>94.33333333333333</ele><time>2026-04-20T12:38:07.532Z</time></trkpt><trkpt lat="40.8831917" lon="14.2729"><ele>94.66666666666666</ele><time>2026-04-20T12:38:09.531Z</time></trkpt><trkpt lat="40.8831283" lon="14.2728417"><ele>95.0</ele><time>2026-04-20T12:38:11.532Z</time></trkpt><trkpt lat="40.8830583" lon="14.2727633"><ele>95.33333333333333</ele><time>2026-04-20T12:38:13.532Z</time></trkpt><trkpt lat="40.8829983" lon="14.272695"><ele>95.66666666666667</ele><time>2026-04-20T12:38:15.533Z</time></trkpt><trkpt lat="40.8829367" lon="14.2726317"><ele>96.0</ele><time>2026-04-20T12:38:17.533Z</time></trkpt><trkpt lat="40.8828667" lon="14.2725683"><ele>96.0</ele><time>2026-04-20T12:38:19.532Z</time></trkpt><trkpt lat="40.8828017" lon="14.2725067"><ele>96.0</ele><time>2026-04-20T12:38:21.534Z</time></trkpt><trkpt lat="40.882735" lon="14.2724383"><ele>96.0</ele><time>2026-04-20T12:38:23.533Z</time></trkpt><trkpt lat="40.8826567" lon="14.2723683"><ele>96.0</ele><time>2026-04-20T12:38:25.531Z</time></trkpt><trkpt lat="40.8825867" lon="14.2723033"><ele>96.0</ele><time>2026-04-20T12:38:27.531Z</time></trkpt><trkpt lat="40.8825033" lon="14.27223"><ele>96.0</ele><time>2026-04-20T12:38:29.533Z</time></trkpt><trkpt lat="40.882435" lon="14.2721583"><ele>95.33333333333333</ele><time>2026-04-20T12:38:31.532Z</time></trkpt><trkpt lat="40.8823683" lon="14.2720983"><ele>94.66666666666667</ele><time>2026-04-20T12:38:33.531Z</time></trkpt><trkpt lat="40.88233" lon="14.2720283"><ele>94.0</ele><time>2026-04-20T12:38:35.533Z</time></trkpt><trkpt lat="40.8823183" lon="14.2719167"><ele>93.33333333333334</ele><time>2026-04-20T12:38:38.532Z</time></trkpt><trkpt lat="40.8823133" lon="14.2718333"><ele>92.66666666666667</ele><time>2026-04-20T12:38:40.532Z</time></trkpt><trkpt lat="40.8822417" lon="14.2717433"><ele>92.0</ele><time>2026-04-20T12:38:43.532Z</time></trkpt><trkpt lat="40.8821633" lon="14.271695"><ele>92.0</ele><time>2026-04-20T12:38:45.535Z</time></trkpt><trkpt lat="40.88207" lon="14.271665"><ele>92.0</ele><time>2026-04-20T12:38:47.531Z</time></trkpt><trkpt lat="40.8819867" lon="14.2716433"><ele>92.0</ele><time>2026-04-20T12:38:49.532Z</time></trkpt><trkpt lat="40.88191" lon="14.2716"><ele>92.0</ele><time>2026-04-20T12:38:51.531Z</time></trkpt><trkpt lat="40.881845" lon="14.2715333"><ele>92.0</ele><time>2026-04-20T12:38:53.535Z</time></trkpt><trkpt lat="40.8817667" lon="14.2714383"><ele>92.16666666666667</ele><time>2026-04-20T12:38:55.535Z</time></trkpt><trkpt lat="40.8816917" lon="14.2713567"><ele>92.33333333333334</ele><time>2026-04-20T12:38:57.54Z</time></trkpt><trkpt lat="40.8816283" lon="14.2713067"><ele>92.5</ele><time>2026-04-20T12:38:58.534Z</time></trkpt><trkpt lat="40.88153" lon="14.2712117"><ele>92.66666666666667</ele><time>2026-04-20T12:39:00.533Z</time></trkpt><trkpt lat="40.881475" lon="14.2711667"><ele>92.83333333333333</ele><time>2026-04-20T12:39:01.533Z</time></trkpt><trkpt lat="40.8814117" lon="14.27112"><ele>93.0</ele><time>2026-04-20T12:39:02.534Z</time></trkpt><trkpt lat="40.8813483" lon="14.27109"><ele>93.0</ele><time>2026-04-20T12:39:03.531Z</time></trkpt><trkpt lat="40.88122" lon="14.2710617"><ele>93.0</ele><time>2026-04-20T12:39:05.532Z</time></trkpt><trkpt lat="40.8811483" lon="14.2710433"><ele>93.0</ele><time>2026-04-20T12:39:06.532Z</time></trkpt><trkpt lat="40.88108" lon="14.2710333"><ele>93.0</ele><time>2026-04-20T12:39:07.532Z</time></trkpt><trkpt lat="40.8810133" lon="14.27102"><ele>93.0</ele><time>2026-04-20T12:39:08.532Z</time></trkpt><trkpt lat="40.8809467" lon="14.2710033"><ele>93.0</ele><time>2026-04-20T12:39:09.531Z</time></trkpt><trkpt lat="40.8808767" lon="14.2709933"><ele>92.83333333333333</ele><time>2026-04-20T12:39:10.533Z</time></trkpt><trkpt lat="40.8808067" lon="14.2709833"><ele>92.66666666666667</ele><time>2026-04-20T12:39:11.531Z</time></trkpt><trkpt lat="40.8807367" lon="14.2709783"><ele>92.5</ele><time>2026-04-20T12:39:12.531Z</time></trkpt><trkpt lat="40.8806667" lon="14.2709717"><ele>92.33333333333334</ele><time>2026-04-20T12:39:13.532Z</time></trkpt><trkpt lat="40.8806" lon="14.270965"><ele>92.16666666666667</ele><time>2026-04-20T12:39:14.534Z</time></trkpt><trkpt lat="40.880535" lon="14.270955"><ele>92.0</ele><time>2026-04-20T12:39:15.533Z</time></trkpt><trkpt lat="40.8804083" lon="14.2709533"><ele>92.0</ele><time>2026-04-20T12:39:17.532Z</time></trkpt><trkpt lat="40.880345" lon="14.2709483"><ele>92.0</ele><time>2026-04-20T12:39:18.531Z</time></trkpt><trkpt lat="40.88023" lon="14.27094"><ele>92.0</ele><time>2026-04-20T12:39:20.532Z</time></trkpt><trkpt lat="40.88013" lon="14.2709483"><ele>92.0</ele><time>2026-04-20T12:39:22.532Z</time></trkpt><trkpt lat="40.880035" lon="14.2709367"><ele>92.0</ele><time>2026-04-20T12:39:24.533Z</time></trkpt><trkpt lat="40.8799283" lon="14.2709067"><ele>91.0</ele><time>2026-04-20T12:39:26.532Z</time></trkpt><trkpt lat="40.8798083" lon="14.2708833"><ele>90.0</ele><time>2026-04-20T12:39:28.532Z</time></trkpt><trkpt lat="40.8796917" lon="14.2708533"><ele>89.0</ele><time>2026-04-20T12:39:30.532Z</time></trkpt><trkpt lat="40.8795717" lon="14.2708267"><ele>88.0</ele><time>2026-04-20T12:39:32.532Z</time></trkpt><trkpt lat="40.8794517" lon="14.2708067"><ele>88.0</ele><time>2026-04-20T12:39:34.532Z</time></trkpt><trkpt lat="40.87936" lon="14.270805"><ele>88.0</ele><time>2026-04-20T12:39:36.533Z</time></trkpt><trkpt lat="40.8792967" lon="14.270815"><ele>88.0</ele><time>2026-04-20T12:39:38.532Z</time></trkpt><trkpt lat="40.8792333" lon="14.2707983"><ele>88.0</ele><time>2026-04-20T12:39:40.532Z</time></trkpt><trkpt lat="40.8791567" lon="14.2707733"><ele>88.0</ele><time>2026-04-20T12:39:42.534Z</time></trkpt><trkpt lat="40.87907" lon="14.2707583"><ele>88.0</ele><time>2026-04-20T12:39:44.531Z</time></trkpt><trkpt lat="40.87897" lon="14.2707167"><ele>87.66666666666666</ele><time>2026-04-20T12:39:46.533Z</time></trkpt><trkpt lat="40.8788567" lon="14.27069"><ele>87.33333333333333</ele><time>2026-04-20T12:39:48.532Z</time></trkpt><trkpt lat="40.8787333" lon="14.2706683"><ele>87.0</ele><time>2026-04-20T12:39:50.532Z</time></trkpt><trkpt lat="40.8786667" lon="14.2706517"><ele>86.66666666666667</ele><time>2026-04-20T12:39:51.531Z</time></trkpt><trkpt lat="40.8786017" lon="14.27064"><ele>86.33333333333334</ele><time>2026-04-20T12:39:52.534Z</time></trkpt><trkpt lat="40.8785383" lon="14.27062"><ele>86.0</ele><time>2026-04-20T12:39:53.532Z</time></trkpt><trkpt lat="40.87847" lon="14.2706033"><ele>87.00000000000001</ele><time>2026-04-20T12:39:54.532Z</time></trkpt><trkpt lat="40.8784017" lon="14.2705833"><ele>88.0</ele><time>2026-04-20T12:39:55.531Z</time></trkpt><trkpt lat="40.8783317" lon="14.2705683"><ele>89.0</ele><time>2026-04-20T12:39:56.532Z</time></trkpt><trkpt lat="40.87826" lon="14.270555"><ele>90.0</ele><time>2026-04-20T12:39:57.532Z</time></trkpt><trkpt lat="40.8781883" lon="14.2705417"><ele>91.0</ele><time>2026-04-20T12:39:58.533Z</time></trkpt><trkpt lat="40.8781117" lon="14.2705283"><ele>92.00000000000001</ele><time>2026-04-20T12:39:59.532Z</time></trkpt><trkpt lat="40.8780367" lon="14.2705167"><ele>93.0</ele><time>2026-04-20T12:40:00.532Z</time></trkpt><trkpt lat="40.87796" lon="14.2705033"><ele>93.0</ele><time>2026-04-20T12:40:01.532Z</time></trkpt><trkpt lat="40.8778817" lon="14.270495"><ele>93.0</ele><time>2026-04-20T12:40:02.532Z</time></trkpt><trkpt lat="40.8778" lon="14.270485"><ele>93.0</ele><time>2026-04-20T12:40:03.533Z</time></trkpt><trkpt lat="40.8777233" lon="14.2704633"><ele>93.0</ele><time>2026-04-20T12:40:04.532Z</time></trkpt><trkpt lat="40.877645" lon="14.2704433"><ele>93.0</ele><time>2026-04-20T12:40:05.531Z</time></trkpt><trkpt lat="40.877565" lon="14.2704283"><ele>93.0</ele><time>2026-04-20T12:40:06.534Z</time></trkpt><trkpt lat="40.87748" lon="14.270415"><ele>91.83333333333333</ele><time>2026-04-20T12:40:07.531Z</time></trkpt><trkpt lat="40.8774" lon="14.2704067"><ele>90.66666666666667</ele><time>2026-04-20T12:40:08.532Z</time></trkpt><trkpt lat="40.8773217" lon="14.2703967"><ele>89.5</ele><time>2026-04-20T12:40:09.532Z</time></trkpt><trkpt lat="40.8772383" lon="14.2703867"><ele>88.33333333333334</ele><time>2026-04-20T12:40:10.532Z</time></trkpt><trkpt lat="40.87716" lon="14.270385"><ele>87.16666666666667</ele><time>2026-04-20T12:40:11.532Z</time></trkpt><trkpt lat="40.8770817" lon="14.2703733"><ele>86.0</ele><time>2026-04-20T12:40:12.531Z</time></trkpt><trkpt lat="40.877" lon="14.270365"><ele>86.0</ele><time>2026-04-20T12:40:13.532Z</time></trkpt><trkpt lat="40.8769183" lon="14.2703517"><ele>86.0</ele><time>2026-04-20T12:40:14.532Z</time></trkpt><trkpt lat="40.876835" lon="14.2703383"><ele>86.0</ele><time>2026-04-20T12:40:15.532Z</time></trkpt><trkpt lat="40.8767517" lon="14.27033"><ele>86.0</ele><time>2026-04-20T12:40:16.531Z</time></trkpt><trkpt lat="40.8766667" lon="14.2703167"><ele>86.0</ele><time>2026-04-20T12:40:17.533Z</time></trkpt><trkpt lat="40.8765867" lon="14.2703"><ele>86.0</ele><time>2026-04-20T12:40:18.531Z</time></trkpt><trkpt lat="40.8765017" lon="14.2702833"><ele>84.33333333333334</ele><time>2026-04-20T12:40:19.533Z</time></trkpt><trkpt lat="40.8764133" lon="14.2702717"><ele>82.66666666666667</ele><time>2026-04-20T12:40:20.532Z</time></trkpt><trkpt lat="40.876325" lon="14.27027"><ele>81.0</ele><time>2026-04-20T12:40:21.532Z</time></trkpt><trkpt lat="40.8762467" lon="14.2702533"><ele>79.33333333333333</ele><time>2026-04-20T12:40:22.531Z</time></trkpt><trkpt lat="40.8761783" lon="14.27024"><ele>77.66666666666666</ele><time>2026-04-20T12:40:23.537Z</time></trkpt><trkpt lat="40.8760633" lon="14.27022"><ele>76.0</ele><time>2026-04-20T12:40:25.532Z</time></trkpt><trkpt lat="40.8759783" lon="14.27019"><ele>76.0</ele><time>2026-04-20T12:40:27.531Z</time></trkpt><trkpt lat="40.8759233" lon="14.27014"><ele>76.0</ele><time>2026-04-20T12:40:29.533Z</time></trkpt><trkpt lat="40.8759133" lon="14.2700433"><ele>76.0</ele><time>2026-04-20T12:40:31.532Z</time></trkpt><trkpt lat="40.8759333" lon="14.2699233"><ele>76.0</ele><time>2026-04-20T12:40:33.532Z</time></trkpt><trkpt lat="40.87595" lon="14.2697983"><ele>76.0</ele><time>2026-04-20T12:40:35.533Z</time></trkpt><trkpt lat="40.8759633" lon="14.2696717"><ele>76.0</ele><time>2026-04-20T12:40:37.532Z</time></trkpt><trkpt lat="40.8759717" lon="14.2695383"><ele>75.2</ele><time>2026-04-20T12:40:39.532Z</time></trkpt><trkpt lat="40.8759683" lon="14.2694017"><ele>74.39999999999999</ele><time>2026-04-20T12:40:41.532Z</time></trkpt><trkpt lat="40.87598" lon="14.2692767"><ele>73.6</ele><time>2026-04-20T12:40:43.532Z</time></trkpt><trkpt lat="40.876015" lon="14.26914"><ele>72.8</ele><time>2026-04-20T12:40:45.533Z</time></trkpt><trkpt lat="40.87604" lon="14.26902"><ele>72.0</ele><time>2026-04-20T12:40:47.533Z</time></trkpt><trkpt lat="40.8760367" lon="14.2688617"><ele>71.28571428571429</ele><time>2026-04-20T12:40:49.532Z</time></trkpt><trkpt lat="40.876035" lon="14.2687767"><ele>70.57142857142857</ele><time>2026-04-20T12:40:50.532Z</time></trkpt><trkpt lat="40.8760267" lon="14.26868"><ele>69.85714285714286</ele><time>2026-04-20T12:40:51.532Z</time></trkpt><trkpt lat="40.8760217" lon="14.2685867"><ele>69.14285714285714</ele><time>2026-04-20T12:40:52.533Z</time></trkpt><trkpt lat="40.876015" lon="14.26849"><ele>68.42857142857143</ele><time>2026-04-20T12:40:53.532Z</time></trkpt><trkpt lat="40.8760067" lon="14.2683967"><ele>67.71428571428572</ele><time>2026-04-20T12:40:54.532Z</time></trkpt><trkpt lat="40.876005" lon="14.2682983"><ele>67.0</ele><time>2026-04-20T12:40:55.532Z</time></trkpt><trkpt lat="40.8760017" lon="14.2682033"><ele>66.0</ele><time>2026-04-20T12:40:56.531Z</time></trkpt><trkpt lat="40.8759983" lon="14.268105"><ele>65.0</ele><time>2026-04-20T12:40:57.532Z</time></trkpt><trkpt lat="40.8759967" lon="14.2680017"><ele>64.0</ele><time>2026-04-20T12:40:58.53Z</time></trkpt><trkpt lat="40.8759883" lon="14.2678983"><ele>63.0</ele><time>2026-04-20T12:40:59.532Z</time></trkpt><trkpt lat="40.8759733" lon="14.2678117"><ele>61.99999999999999</ele><time>2026-04-20T12:41:00.533Z</time></trkpt><trkpt lat="40.8759533" lon="14.2677267"><ele>61.0</ele><time>2026-04-20T12:41:01.532Z</time></trkpt><trkpt lat="40.8759233" lon="14.2676217"><ele>60.666666666666664</ele><time>2026-04-20T12:41:02.532Z</time></trkpt><trkpt lat="40.875895" lon="14.2675233"><ele>60.33333333333333</ele><time>2026-04-20T12:41:03.532Z</time></trkpt><trkpt lat="40.875855" lon="14.2674217"><ele>60.0</ele><time>2026-04-20T12:41:04.531Z</time></trkpt><trkpt lat="40.875815" lon="14.2673117"><ele>59.66666666666667</ele><time>2026-04-20T12:41:05.533Z</time></trkpt><trkpt lat="40.87577" lon="14.2671983"><ele>59.333333333333336</ele><time>2026-04-20T12:41:06.531Z</time></trkpt><trkpt lat="40.875735" lon="14.2670833"><ele>59.0</ele><time>2026-04-20T12:41:07.537Z</time></trkpt><trkpt lat="40.8757017" lon="14.266965"><ele>57.66666666666667</ele><time>2026-04-20T12:41:08.533Z</time></trkpt><trkpt lat="40.875675" lon="14.2668383"><ele>56.333333333333336</ele><time>2026-04-20T12:41:09.533Z</time></trkpt><trkpt lat="40.8756517" lon="14.266725"><ele>55.0</ele><time>2026-04-20T12:41:10.532Z</time></trkpt><trkpt lat="40.8756333" lon="14.266625"><ele>53.66666666666667</ele><time>2026-04-20T12:41:11.532Z</time></trkpt><trkpt lat="40.8756133" lon="14.266525"><ele>52.333333333333336</ele><time>2026-04-20T12:41:12.533Z</time></trkpt><trkpt lat="40.8755983" lon="14.2664333"><ele>51.0</ele><time>2026-04-20T12:41:13.533Z</time></trkpt><trkpt lat="40.875585" lon="14.2663067"><ele>51.0</ele><time>2026-04-20T12:41:14.533Z</time></trkpt><trkpt lat="40.8755667" lon="14.2661983"><ele>51.0</ele><time>2026-04-20T12:41:15.532Z</time></trkpt><trkpt lat="40.87554" lon="14.266105"><ele>51.0</ele><time>2026-04-20T12:41:16.533Z</time></trkpt><trkpt lat="40.8755183" lon="14.2660133"><ele>51.0</ele><time>2026-04-20T12:41:17.532Z</time></trkpt><trkpt lat="40.8754967" lon="14.2659217"><ele>51.0</ele><time>2026-04-20T12:41:18.535Z</time></trkpt><trkpt lat="40.875465" lon="14.26577"><ele>51.0</ele><time>2026-04-20T12:41:20.534Z</time></trkpt><trkpt lat="40.875435" lon="14.2656867"><ele>50.833333333333336</ele><time>2026-04-20T12:41:22.534Z</time></trkpt><trkpt lat="40.8753933" lon="14.2655833"><ele>50.66666666666667</ele><time>2026-04-20T12:41:24.533Z</time></trkpt><trkpt lat="40.875375" lon="14.2654967"><ele>50.5</ele><time>2026-04-20T12:41:26.533Z</time></trkpt><trkpt lat="40.8753417" lon="14.2654217"><ele>50.333333333333336</ele><time>2026-04-20T12:41:28.534Z</time></trkpt><trkpt lat="40.8752667" lon="14.26535"><ele>50.16666666666667</ele><time>2026-04-20T12:41:30.535Z</time></trkpt><trkpt lat="40.8751783" lon="14.2652917"><ele>50.0</ele><time>2026-04-20T12:41:32.534Z</time></trkpt><trkpt lat="40.875095" lon="14.2652383"><ele>49.50000000000001</ele><time>2026-04-20T12:41:34.534Z</time></trkpt><trkpt lat="40.8749883" lon="14.2651933"><ele>49.0</ele><time>2026-04-20T12:41:36.535Z</time></trkpt><trkpt lat="40.87491" lon="14.2651517"><ele>48.5</ele><time>2026-04-20T12:41:38.537Z</time></trkpt><trkpt lat="40.874835" lon="14.2651183"><ele>48.0</ele><time>2026-04-20T12:41:40.533Z</time></trkpt><trkpt lat="40.8747517" lon="14.2650833"><ele>47.5</ele><time>2026-04-20T12:41:42.534Z</time></trkpt><trkpt lat="40.8746733" lon="14.2650433"><ele>47.0</ele><time>2026-04-20T12:41:44.533Z</time></trkpt><trkpt lat="40.8745933" lon="14.265"><ele>47.0</ele><time>2026-04-20T12:41:46.533Z</time></trkpt><trkpt lat="40.8745217" lon="14.2649567"><ele>47.0</ele><time>2026-04-20T12:41:48.533Z</time></trkpt><trkpt lat="40.8744383" lon="14.2649333"><ele>47.0</ele><time>2026-04-20T12:41:50.533Z</time></trkpt><trkpt lat="40.8743517" lon="14.264895"><ele>47.0</ele><time>2026-04-20T12:41:52.534Z</time></trkpt><trkpt lat="40.8742667" lon="14.2648583"><ele>47.0</ele><time>2026-04-20T12:41:54.534Z</time></trkpt><trkpt lat="40.8741767" lon="14.2648233"><ele>47.0</ele><time>2026-04-20T12:41:56.534Z</time></trkpt><trkpt lat="40.874085" lon="14.2647967"><ele>46.8</ele><time>2026-04-20T12:41:58.534Z</time></trkpt><trkpt lat="40.8739967" lon="14.264775"><ele>46.6</ele><time>2026-04-20T12:42:00.534Z</time></trkpt><trkpt lat="40.8738933" lon="14.264775"><ele>46.4</ele><time>2026-04-20T12:42:02.533Z</time></trkpt><trkpt lat="40.8737917" lon="14.2648"><ele>46.199999999999996</ele><time>2026-04-20T12:42:04.534Z</time></trkpt><trkpt lat="40.8736817" lon="14.26482"><ele>46.0</ele><time>2026-04-20T12:42:06.534Z</time></trkpt><trkpt lat="40.8735833" lon="14.264835"><ele>46.0</ele><time>2026-04-20T12:42:08.532Z</time></trkpt><trkpt lat="40.8734817" lon="14.264835"><ele>46.0</ele><time>2026-04-20T12:42:10.538Z</time></trkpt><trkpt lat="40.8733683" lon="14.2648567"><ele>46.0</ele><time>2026-04-20T12:42:12.534Z</time></trkpt><trkpt lat="40.8732783" lon="14.2648833"><ele>46.0</ele><time>2026-04-20T12:42:14.533Z</time></trkpt><trkpt lat="40.8732217" lon="14.2649217"><ele>46.0</ele><time>2026-04-20T12:42:16.535Z</time></trkpt><trkpt lat="40.87315" lon="14.264985"><ele>46.16666666666667</ele><time>2026-04-20T12:42:19.538Z</time></trkpt><trkpt lat="40.8730733" lon="14.2650367"><ele>46.333333333333336</ele><time>2026-04-20T12:42:22.534Z</time></trkpt><trkpt lat="40.873015" lon="14.26513"><ele>46.5</ele><time>2026-04-20T12:42:31.534Z</time></trkpt><trkpt lat="40.87296" lon="14.265175"><ele>46.666666666666664</ele><time>2026-04-20T12:42:33.533Z</time></trkpt><trkpt lat="40.87291" lon="14.2652533"><ele>46.83333333333333</ele><time>2026-04-20T12:42:35.534Z</time></trkpt><trkpt lat="40.8728467" lon="14.2653317"><ele>47.0</ele><time>2026-04-20T12:42:37.535Z</time></trkpt><trkpt lat="40.872765" lon="14.26539"><ele>47.0</ele><time>2026-04-20T12:42:39.533Z</time></trkpt><trkpt lat="40.8726867" lon="14.2654417"><ele>47.0</ele><time>2026-04-20T12:42:41.533Z</time></trkpt><trkpt lat="40.8725917" lon="14.2654633"><ele>47.0</ele><time>2026-04-20T12:42:43.535Z</time></trkpt><trkpt lat="40.8725" lon="14.2654333"><ele>47.0</ele><time>2026-04-20T12:42:45.534Z</time></trkpt><trkpt lat="40.8724417" lon="14.265365"><ele>47.0</ele><time>2026-04-20T12:42:47.535Z</time></trkpt><trkpt lat="40.87239" lon="14.265265"><ele>47.0</ele><time>2026-04-20T12:42:49.533Z</time></trkpt><trkpt lat="40.87237" lon="14.26517"><ele>46.57142857142857</ele><time>2026-04-20T12:42:51.534Z</time></trkpt><trkpt lat="40.8723267" lon="14.26509"><ele>46.14285714285714</ele><time>2026-04-20T12:42:53.535Z</time></trkpt><trkpt lat="40.872275" lon="14.2650267"><ele>45.714285714285715</ele><time>2026-04-20T12:42:55.534Z</time></trkpt><trkpt lat="40.8722117" lon="14.2649883"><ele>45.285714285714285</ele><time>2026-04-20T12:42:57.532Z</time></trkpt><trkpt lat="40.8721383" lon="14.2649633"><ele>44.857142857142854</ele><time>2026-04-20T12:42:59.533Z</time></trkpt><trkpt lat="40.8720617" lon="14.2649667"><ele>44.42857142857143</ele><time>2026-04-20T12:43:01.534Z</time></trkpt><trkpt lat="40.87199" lon="14.2649717"><ele>44.0</ele><time>2026-04-20T12:43:03.533Z</time></trkpt><trkpt lat="40.8719133" lon="14.2649883"><ele>44.0</ele><time>2026-04-20T12:43:05.533Z</time></trkpt><trkpt lat="40.871835" lon="14.2650083"><ele>44.0</ele><time>2026-04-20T12:43:07.533Z</time></trkpt><trkpt lat="40.8717633" lon="14.2650133"><ele>44.0</ele><time>2026-04-20T12:43:09.535Z</time></trkpt><trkpt lat="40.8716667" lon="14.2649733"><ele>44.0</ele><time>2026-04-20T12:43:12.534Z</time></trkpt><trkpt lat="40.8716033" lon="14.26491"><ele>44.0</ele><time>2026-04-20T12:43:14.532Z</time></trkpt><trkpt lat="40.87155" lon="14.264855"><ele>44.0</ele><time>2026-04-20T12:43:16.532Z</time></trkpt><trkpt lat="40.8715083" lon="14.264765"><ele>45.285714285714285</ele><time>2026-04-20T12:43:18.533Z</time></trkpt><trkpt lat="40.87146" lon="14.2646967"><ele>46.57142857142857</ele><time>2026-04-20T12:43:20.533Z</time></trkpt><trkpt lat="40.8714217" lon="14.26463"><ele>47.85714285714286</ele><time>2026-04-20T12:43:22.534Z</time></trkpt><trkpt lat="40.8713917" lon="14.2645417"><ele>49.14285714285714</ele><time>2026-04-20T12:43:24.533Z</time></trkpt><trkpt lat="40.8713533" lon="14.2644533"><ele>50.42857142857142</ele><time>2026-04-20T12:43:26.533Z</time></trkpt><trkpt lat="40.871305" lon="14.26436"><ele>51.714285714285715</ele><time>2026-04-20T12:43:29.533Z</time></trkpt><trkpt lat="40.871275" lon="14.2642667"><ele>53.0</ele><time>2026-04-20T12:43:32.534Z</time></trkpt><trkpt lat="40.871245" lon="14.26418"><ele>53.0</ele><time>2026-04-20T12:43:36.534Z</time></trkpt><trkpt lat="40.8712367" lon="14.2640633"><ele>53.0</ele><time>2026-04-20T12:43:39.534Z</time></trkpt><trkpt lat="40.8712033" lon="14.2639067"><ele>53.0</ele><time>2026-04-20T12:43:42.533Z</time></trkpt><trkpt lat="40.87119" lon="14.26381"><ele>53.0</ele><time>2026-04-20T12:43:44.533Z</time></trkpt><trkpt lat="40.8711717" lon="14.2637017"><ele>53.0</ele><time>2026-04-20T12:43:46.534Z</time></trkpt><trkpt lat="40.8711617" lon="14.26359"><ele>54.00000000000001</ele><time>2026-04-20T12:43:48.533Z</time></trkpt><trkpt lat="40.8711583" lon="14.2634733"><ele>55.0</ele><time>2026-04-20T12:43:50.537Z</time></trkpt><trkpt lat="40.8711733" lon="14.26336"><ele>56.0</ele><time>2026-04-20T12:43:52.534Z</time></trkpt><trkpt lat="40.8711283" lon="14.2632783"><ele>57.0</ele><time>2026-04-20T12:43:54.536Z</time></trkpt><trkpt lat="40.871095" lon="14.2631883"><ele>58.00000000000001</ele><time>2026-04-20T12:43:57.534Z</time></trkpt><trkpt lat="40.871175" lon="14.2632183"><ele>59.0</ele><time>2026-04-20T12:44:02.532Z</time></trkpt><trkpt lat="40.87123" lon="14.26326"><ele>59.0</ele><time>2026-04-20T12:44:03.534Z</time></trkpt><trkpt lat="40.8713183" lon="14.2633267"><ele>59.00000000000001</ele><time>2026-04-20T12:44:04.532Z</time></trkpt><trkpt lat="40.8713717" lon="14.2633717"><ele>59.00000000000001</ele><time>2026-04-20T12:44:05.535Z</time></trkpt><trkpt lat="40.87148" lon="14.2634483"><ele>59.0</ele><time>2026-04-20T12:44:07.535Z</time></trkpt><trkpt lat="40.87158" lon="14.2635067"><ele>59.0</ele><time>2026-04-20T12:44:09.533Z</time></trkpt><trkpt lat="40.87167" lon="14.2635683"><ele>59.0</ele><time>2026-04-20T12:44:11.534Z</time></trkpt><trkpt lat="40.8717483" lon="14.26363"><ele>59.0</ele><time>2026-04-20T12:44:13.535Z</time></trkpt><trkpt lat="40.8718017" lon="14.2637"><ele>59.0</ele><time>2026-04-20T12:44:15.533Z</time></trkpt><trkpt lat="40.8718517" lon="14.263755"><ele>59.0</ele><time>2026-04-20T12:44:17.534Z</time></trkpt><trkpt lat="40.8719067" lon="14.2638133"><ele>59.0</ele><time>2026-04-20T12:44:19.533Z</time></trkpt><trkpt lat="40.871975" lon="14.2638583"><ele>59.0</ele><time>2026-04-20T12:44:21.533Z</time></trkpt><trkpt lat="40.8720433" lon="14.26388"><ele>59.0</ele><time>2026-04-20T12:44:23.534Z</time></trkpt><trkpt lat="40.8721033" lon="14.2639183"><ele>58.833333333333336</ele><time>2026-04-20T12:44:25.534Z</time></trkpt><trkpt lat="40.8721817" lon="14.26395"><ele>58.66666666666667</ele><time>2026-04-20T12:44:28.536Z</time></trkpt><trkpt lat="40.87227" lon="14.2639417"><ele>58.5</ele><time>2026-04-20T12:44:31.534Z</time></trkpt><trkpt lat="40.8723433" lon="14.263935"><ele>58.33333333333333</ele><time>2026-04-20T12:44:33.533Z</time></trkpt><trkpt lat="40.8724083" lon="14.263905"><ele>58.166666666666664</ele><time>2026-04-20T12:44:35.533Z</time></trkpt><trkpt lat="40.872475" lon="14.263855"><ele>58.0</ele><time>2026-04-20T12:44:37.533Z</time></trkpt><trkpt lat="40.8725517" lon="14.2638067"><ele>59.33333333333333</ele><time>2026-04-20T12:44:39.534Z</time></trkpt><trkpt lat="40.87263" lon="14.2637483"><ele>60.666666666666664</ele><time>2026-04-20T12:44:41.534Z</time></trkpt><trkpt lat="40.87269" lon="14.2636717"><ele>62.0</ele><time>2026-04-20T12:44:43.533Z</time></trkpt><trkpt lat="40.872755" lon="14.2636967"><ele>63.33333333333333</ele><time>2026-04-20T12:44:44.534Z</time></trkpt><trkpt lat="40.87283" lon="14.2636417"><ele>64.66666666666667</ele><time>2026-04-20T12:44:46.533Z</time></trkpt><trkpt lat="40.872885" lon="14.2635633"><ele>66.0</ele><time>2026-04-20T12:44:48.534Z</time></trkpt><trkpt lat="40.87293" lon="14.2634817"><ele>66.0</ele><time>2026-04-20T12:44:50.533Z</time></trkpt><trkpt lat="40.8729733" lon="14.2634133"><ele>66.0</ele><time>2026-04-20T12:44:52.534Z</time></trkpt><trkpt lat="40.87303" lon="14.2633617"><ele>66.0</ele><time>2026-04-20T12:44:54.533Z</time></trkpt><trkpt lat="40.873075" lon="14.26329"><ele>66.0</ele><time>2026-04-20T12:44:56.532Z</time></trkpt><trkpt lat="40.8731133" lon="14.2632033"><ele>66.0</ele><time>2026-04-20T12:44:58.532Z</time></trkpt><trkpt lat="40.873165" lon="14.263105"><ele>66.0</ele><time>2026-04-20T12:45:01.533Z</time></trkpt><trkpt lat="40.87323" lon="14.2630317"><ele>66.66666666666667</ele><time>2026-04-20T12:45:04.534Z</time></trkpt><trkpt lat="40.8732833" lon="14.26294"><ele>67.33333333333333</ele><time>2026-04-20T12:45:07.534Z</time></trkpt><trkpt lat="40.87335" lon="14.26294"><ele>68.0</ele><time>2026-04-20T12:45:09.533Z</time></trkpt><trkpt lat="40.8733517" lon="14.2628267"><ele>68.66666666666666</ele><time>2026-04-20T12:45:12.534Z</time></trkpt><trkpt lat="40.8733517" lon="14.2627367"><ele>69.33333333333333</ele><time>2026-04-20T12:45:14.535Z</time></trkpt><trkpt lat="40.873365" lon="14.2626333"><ele>70.0</ele><time>2026-04-20T12:45:18.536Z</time></trkpt><trkpt lat="40.8733717" lon="14.2625233"><ele>70.0</ele><time>2026-04-20T12:45:21.533Z</time></trkpt><trkpt lat="40.873375" lon="14.2624267"><ele>70.0</ele><time>2026-04-20T12:45:23.534Z</time></trkpt><trkpt lat="40.8734017" lon="14.2623183"><ele>70.0</ele><time>2026-04-20T12:45:25.535Z</time></trkpt><trkpt lat="40.8734417" lon="14.2622433"><ele>70.0</ele><time>2026-04-20T12:45:27.535Z</time></trkpt><trkpt lat="40.8734783" lon="14.2621683"><ele>70.0</ele><time>2026-04-20T12:45:29.533Z</time></trkpt><trkpt lat="40.8735567" lon="14.2621067"><ele>70.0</ele><time>2026-04-20T12:45:32.533Z</time></trkpt><trkpt lat="40.8736533" lon="14.2620983"><ele>70.42857142857143</ele><time>2026-04-20T12:45:35.534Z</time></trkpt><trkpt lat="40.8737133" lon="14.2621317"><ele>70.85714285714286</ele><time>2026-04-20T12:45:37.535Z</time></trkpt><trkpt lat="40.8737817" lon="14.2621683"><ele>71.28571428571428</ele><time>2026-04-20T12:45:39.534Z</time></trkpt><trkpt lat="40.8738567" lon="14.26223"><ele>71.71428571428572</ele><time>2026-04-20T12:45:42.534Z</time></trkpt><trkpt lat="40.8739083" lon="14.2622817"><ele>72.14285714285714</ele><time>2026-04-20T12:45:44.533Z</time></trkpt><trkpt lat="40.873955" lon="14.262355"><ele>72.57142857142857</ele><time>2026-04-20T12:45:46.533Z</time></trkpt><trkpt lat="40.87399" lon="14.2624317"><ele>73.0</ele><time>2026-04-20T12:45:48.534Z</time></trkpt><trkpt lat="40.8740583" lon="14.2625267"><ele>73.0</ele><time>2026-04-20T12:45:51.534Z</time></trkpt><trkpt lat="40.8741167" lon="14.2625867"><ele>73.0</ele><time>2026-04-20T12:45:53.534Z</time></trkpt><trkpt lat="40.87417" lon="14.2626467"><ele>73.0</ele><time>2026-04-20T12:45:55.536Z</time></trkpt><trkpt lat="40.874225" lon="14.2627167"><ele>73.0</ele><time>2026-04-20T12:45:57.533Z</time></trkpt><trkpt lat="40.8742817" lon="14.2627633"><ele>73.0</ele><time>2026-04-20T12:45:59.535Z</time></trkpt><trkpt lat="40.874335" lon="14.2628083"><ele>73.0</ele><time>2026-04-20T12:46:01.532Z</time></trkpt><trkpt lat="40.8743967" lon="14.26284"><ele>73.0</ele><time>2026-04-20T12:46:03.533Z</time></trkpt><trkpt lat="40.8744867" lon="14.2628467"><ele>71.83333333333333</ele><time>2026-04-20T12:46:06.533Z</time></trkpt><trkpt lat="40.8745533" lon="14.2628183"><ele>70.66666666666666</ele><time>2026-04-20T12:46:08.535Z</time></trkpt><trkpt lat="40.8746133" lon="14.2627317"><ele>69.5</ele><time>2026-04-20T12:46:11.533Z</time></trkpt><trkpt lat="40.8746333" lon="14.26265"><ele>68.33333333333333</ele><time>2026-04-20T12:46:13.533Z</time></trkpt><trkpt lat="40.8746467" lon="14.2625683"><ele>67.16666666666667</ele><time>2026-04-20T12:46:15.534Z</time></trkpt><trkpt lat="40.8746433" lon="14.2624533"><ele>66.0</ele><time>2026-04-20T12:46:18.536Z</time></trkpt><trkpt lat="40.8745983" lon="14.2623483"><ele>69.14285714285714</ele><time>2026-04-20T12:46:21.534Z</time></trkpt><trkpt lat="40.874535" lon="14.2622633"><ele>72.28571428571429</ele><time>2026-04-20T12:46:24.533Z</time></trkpt><trkpt lat="40.8744833" lon="14.262215"><ele>75.42857142857143</ele><time>2026-04-20T12:46:26.532Z</time></trkpt><trkpt lat="40.87443" lon="14.2621633"><ele>78.57142857142857</ele><time>2026-04-20T12:46:28.533Z</time></trkpt><trkpt lat="40.8743717" lon="14.2621117"><ele>81.71428571428571</ele><time>2026-04-20T12:46:30.533Z</time></trkpt><trkpt lat="40.8743" lon="14.26208"><ele>84.85714285714286</ele><time>2026-04-20T12:46:32.532Z</time></trkpt><trkpt lat="40.8742367" lon="14.2620483"><ele>88.0</ele><time>2026-04-20T12:46:34.535Z</time></trkpt><trkpt lat="40.87418" lon="14.26201"><ele>88.42857142857143</ele><time>2026-04-20T12:46:36.532Z</time></trkpt><trkpt lat="40.87412" lon="14.2619383"><ele>88.85714285714286</ele><time>2026-04-20T12:46:38.534Z</time></trkpt><trkpt lat="40.8740617" lon="14.261875"><ele>89.28571428571428</ele><time>2026-04-20T12:46:40.534Z</time></trkpt><trkpt lat="40.87401" lon="14.2617983"><ele>89.71428571428572</ele><time>2026-04-20T12:46:42.533Z</time></trkpt><trkpt lat="40.8739483" lon="14.2617467"><ele>90.14285714285714</ele><time>2026-04-20T12:46:44.535Z</time></trkpt><trkpt lat="40.873905" lon="14.2616683"><ele>90.57142857142857</ele><time>2026-04-20T12:46:46.534Z</time></trkpt><trkpt lat="40.8738667" lon="14.2616"><ele>91.0</ele><time>2026-04-20T12:46:48.535Z</time></trkpt><trkpt lat="40.87384" lon="14.2614883"><ele>92.5</ele><time>2026-04-20T12:46:51.534Z</time></trkpt><trkpt lat="40.8738267" lon="14.2613867"><ele>94.0</ele><time>2026-04-20T12:46:54.534Z</time></trkpt><trkpt lat="40.873845" lon="14.261275"><ele>95.5</ele><time>2026-04-20T12:46:57.532Z</time></trkpt><trkpt lat="40.8738567" lon="14.2611733"><ele>97.0</ele><time>2026-04-20T12:47:00.533Z</time></trkpt><trkpt lat="40.873845" lon="14.2610833"><ele>98.50000000000001</ele><time>2026-04-20T12:47:03.535Z</time></trkpt><trkpt lat="40.8738483" lon="14.2609883"><ele>100.0</ele><time>2026-04-20T12:47:05.534Z</time></trkpt><trkpt lat="40.8738567" lon="14.260885"><ele>100.00000000000001</ele><time>2026-04-20T12:47:07.536Z</time></trkpt><trkpt lat="40.87383" lon="14.260805"><ele>100.0</ele><time>2026-04-20T12:47:09.533Z</time></trkpt><trkpt lat="40.8737767" lon="14.2607083"><ele>100.0</ele><time>2026-04-20T12:47:12.533Z</time></trkpt><trkpt lat="40.87372" lon="14.2606617"><ele>100.0</ele><time>2026-04-20T12:47:14.534Z</time></trkpt><trkpt lat="40.8736667" lon="14.260615"><ele>100.00000000000001</ele><time>2026-04-20T12:47:16.533Z</time></trkpt><trkpt lat="40.87359" lon="14.2606383"><ele>100.0</ele><time>2026-04-20T12:47:19.534Z</time></trkpt><trkpt lat="40.87351" lon="14.2606767"><ele>100.00000000000001</ele><time>2026-04-20T12:47:22.535Z</time></trkpt><trkpt lat="40.8734517" lon="14.2607217"><ele>100.0</ele><time>2026-04-20T12:47:24.534Z</time></trkpt><trkpt lat="40.873385" lon="14.2607617"><ele>100.0</ele><time>2026-04-20T12:47:26.536Z</time></trkpt><trkpt lat="40.873325" lon="14.2607983"><ele>100.0</ele><time>2026-04-20T12:47:28.534Z</time></trkpt><trkpt lat="40.8732617" lon="14.2608467"><ele>100.0</ele><time>2026-04-20T12:47:30.535Z</time></trkpt><trkpt lat="40.8732067" lon="14.2609067"><ele>100.00000000000001</ele><time>2026-04-20T12:47:32.534Z</time></trkpt><trkpt lat="40.8731517" lon="14.2609717"><ele>100.0</ele><time>2026-04-20T12:47:34.535Z</time></trkpt><trkpt lat="40.8731033" lon="14.2610383"><ele>99.42857142857143</ele><time>2026-04-20T12:47:36.534Z</time></trkpt><trkpt lat="40.8730667" lon="14.2611133"><ele>98.85714285714286</ele><time>2026-04-20T12:47:38.535Z</time></trkpt><trkpt lat="40.8730333" lon="14.2611933"><ele>98.28571428571428</ele><time>2026-04-20T12:47:40.534Z</time></trkpt><trkpt lat="40.873005" lon="14.2612733"><ele>97.71428571428572</ele><time>2026-04-20T12:47:42.534Z</time></trkpt><trkpt lat="40.8729467" lon="14.2613417"><ele>97.14285714285714</ele><time>2026-04-20T12:47:44.532Z</time></trkpt><trkpt lat="40.8728683" lon="14.26138"><ele>96.57142857142857</ele><time>2026-04-20T12:47:46.534Z</time></trkpt><trkpt lat="40.8728017" lon="14.2613833"><ele>96.0</ele><time>2026-04-20T12:47:48.534Z</time></trkpt><trkpt lat="40.87271" lon="14.2613667"><ele>96.0</ele><time>2026-04-20T12:47:51.534Z</time></trkpt><trkpt lat="40.8726217" lon="14.26133"><ele>96.0</ele><time>2026-04-20T12:47:54.533Z</time></trkpt><trkpt lat="40.8725517" lon="14.2612517"><ele>96.0</ele><time>2026-04-20T12:47:57.533Z</time></trkpt><trkpt lat="40.8725217" lon="14.2611567"><ele>96.0</ele><time>2026-04-20T12:48:00.533Z</time></trkpt><trkpt lat="40.8725183" lon="14.26106"><ele>96.0</ele><time>2026-04-20T12:48:03.534Z</time></trkpt><trkpt lat="40.872535" lon="14.2609617"><ele>96.0</ele><time>2026-04-20T12:48:05.534Z</time></trkpt><trkpt lat="40.87256" lon="14.2608783"><ele>96.0</ele><time>2026-04-20T12:48:07.534Z</time></trkpt><trkpt lat="40.8725917" lon="14.260795"><ele>96.0</ele><time>2026-04-20T12:48:09.533Z</time></trkpt><trkpt lat="40.872625" lon="14.2607183"><ele>96.0</ele><time>2026-04-20T12:48:11.533Z</time></trkpt><trkpt lat="40.8726683" lon="14.2606133"><ele>96.0</ele><time>2026-04-20T12:48:14.533Z</time></trkpt><trkpt lat="40.8726983" lon="14.26054"><ele>96.0</ele><time>2026-04-20T12:48:16.535Z</time></trkpt><trkpt lat="40.8727467" lon="14.26044"><ele>96.0</ele><time>2026-04-20T12:48:19.534Z</time></trkpt><trkpt lat="40.8727783" lon="14.2603383"><ele>98.33333333333333</ele><time>2026-04-20T12:48:22.533Z</time></trkpt><trkpt lat="40.872785" lon="14.2602183"><ele>100.66666666666666</ele><time>2026-04-20T12:48:25.533Z</time></trkpt><trkpt lat="40.87277" lon="14.2601117"><ele>103.0</ele><time>2026-04-20T12:48:28.535Z</time></trkpt><trkpt lat="40.872745" lon="14.260005"><ele>105.33333333333333</ele><time>2026-04-20T12:48:31.534Z</time></trkpt><trkpt lat="40.8727117" lon="14.2598967"><ele>107.66666666666666</ele><time>2026-04-20T12:48:34.534Z</time></trkpt><trkpt lat="40.8726917" lon="14.259815"><ele>110.0</ele><time>2026-04-20T12:48:36.535Z</time></trkpt><trkpt lat="40.872655" lon="14.2597083"><ele>111.33333333333333</ele><time>2026-04-20T12:48:39.534Z</time></trkpt><trkpt lat="40.8726083" lon="14.2596267"><ele>112.66666666666666</ele><time>2026-04-20T12:48:42.534Z</time></trkpt><trkpt lat="40.8725633" lon="14.25953"><ele>114.0</ele><time>2026-04-20T12:48:45.534Z</time></trkpt><trkpt lat="40.87251" lon="14.2594383"><ele>115.33333333333334</ele><time>2026-04-20T12:48:48.535Z</time></trkpt><trkpt lat="40.8724517" lon="14.2593533"><ele>116.66666666666667</ele><time>2026-04-20T12:48:51.534Z</time></trkpt><trkpt lat="40.8724033" lon="14.259265"><ele>118.0</ele><time>2026-04-20T12:48:54.533Z</time></trkpt><trkpt lat="40.87234" lon="14.2591717"><ele>118.00000000000001</ele><time>2026-04-20T12:48:57.533Z</time></trkpt><trkpt lat="40.8723017" lon="14.2590867"><ele>118.0</ele><time>2026-04-20T12:48:59.534Z</time></trkpt><trkpt lat="40.8722467" lon="14.2590167"><ele>118.0</ele><time>2026-04-20T12:49:02.533Z</time></trkpt><trkpt lat="40.8721967" lon="14.2589383"><ele>118.0</ele><time>2026-04-20T12:49:07.534Z</time></trkpt><trkpt lat="40.8721533" lon="14.2588483"><ele>118.00000000000001</ele><time>2026-04-20T12:49:10.534Z</time></trkpt><trkpt lat="40.8720817" lon="14.2587633"><ele>118.0</ele><time>2026-04-20T12:49:13.534Z</time></trkpt><trkpt lat="40.8720217" lon="14.2587183"><ele>118.83333333333334</ele><time>2026-04-20T12:49:15.534Z</time></trkpt><trkpt lat="40.87196" lon="14.2586633"><ele>119.66666666666667</ele><time>2026-04-20T12:49:17.535Z</time></trkpt><trkpt lat="40.871895" lon="14.258615"><ele>120.5</ele><time>2026-04-20T12:49:19.534Z</time></trkpt><trkpt lat="40.8718233" lon="14.25858"><ele>121.33333333333334</ele><time>2026-04-20T12:49:21.532Z</time></trkpt><trkpt lat="40.87174" lon="14.258555"><ele>122.16666666666667</ele><time>2026-04-20T12:49:23.532Z</time></trkpt><trkpt lat="40.8716617" lon="14.25853"><ele>123.0</ele><time>2026-04-20T12:49:25.535Z</time></trkpt><trkpt lat="40.8715717" lon="14.2585233"><ele>123.0</ele><time>2026-04-20T12:49:27.535Z</time></trkpt><trkpt lat="40.8714817" lon="14.2585167"><ele>123.0</ele><time>2026-04-20T12:49:29.533Z</time></trkpt><trkpt lat="40.8713933" lon="14.2585133"><ele>123.0</ele><time>2026-04-20T12:49:31.532Z</time></trkpt><trkpt lat="40.87131" lon="14.2585083"><ele>123.0</ele><time>2026-04-20T12:49:33.533Z</time></trkpt><trkpt lat="40.8712283" lon="14.25848"><ele>123.0</ele><time>2026-04-20T12:49:35.533Z</time></trkpt><trkpt lat="40.87115" lon="14.2584333"><ele>123.0</ele><time>2026-04-20T12:49:37.532Z</time></trkpt><trkpt lat="40.87108" lon="14.2583683"><ele>123.0</ele><time>2026-04-20T12:49:39.532Z</time></trkpt><trkpt lat="40.8710117" lon="14.2583017"><ele>123.0</ele><time>2026-04-20T12:49:41.532Z</time></trkpt><trkpt lat="40.8709417" lon="14.2582317"><ele>123.0</ele><time>2026-04-20T12:49:43.533Z</time></trkpt><trkpt lat="40.8708783" lon="14.2581717"><ele>123.0</ele><time>2026-04-20T12:49:45.533Z</time></trkpt><trkpt lat="40.8708033" lon="14.2581367"><ele>123.0</ele><time>2026-04-20T12:49:47.533Z</time></trkpt><trkpt lat="40.8707333" lon="14.2581217"><ele>123.0</ele><time>2026-04-20T12:49:49.533Z</time></trkpt><trkpt lat="40.8706533" lon="14.2581067"><ele>123.5</ele><time>2026-04-20T12:49:51.532Z</time></trkpt><trkpt lat="40.87057" lon="14.2580867"><ele>124.0</ele><time>2026-04-20T12:49:53.532Z</time></trkpt><trkpt lat="40.8704867" lon="14.2580733"><ele>124.5</ele><time>2026-04-20T12:49:55.533Z</time></trkpt><trkpt lat="40.87041" lon="14.258055"><ele>125.0</ele><time>2026-04-20T12:49:57.534Z</time></trkpt><trkpt lat="40.87034" lon="14.2580317"><ele>125.5</ele><time>2026-04-20T12:49:59.532Z</time></trkpt><trkpt lat="40.87028" lon="14.25796"><ele>126.0</ele><time>2026-04-20T12:50:01.533Z</time></trkpt><trkpt lat="40.8702467" lon="14.2578717"><ele>126.0</ele><time>2026-04-20T12:50:03.534Z</time></trkpt><trkpt lat="40.8702333" lon="14.2577633"><ele>126.0</ele><time>2026-04-20T12:50:05.533Z</time></trkpt><trkpt lat="40.8702417" lon="14.2576417"><ele>126.0</ele><time>2026-04-20T12:50:07.535Z</time></trkpt><trkpt lat="40.87027" lon="14.2575267"><ele>126.0</ele><time>2026-04-20T12:50:09.532Z</time></trkpt><trkpt lat="40.8703" lon="14.2574217"><ele>126.0</ele><time>2026-04-20T12:50:11.533Z</time></trkpt><trkpt lat="40.87034" lon="14.2573267"><ele>126.0</ele><time>2026-04-20T12:50:13.533Z</time></trkpt><trkpt lat="40.8703583" lon="14.2572183"><ele>127.33333333333333</ele><time>2026-04-20T12:50:15.538Z</time></trkpt><trkpt lat="40.8703667" lon="14.2571083"><ele>128.66666666666666</ele><time>2026-04-20T12:50:17.534Z</time></trkpt><trkpt lat="40.8703667" lon="14.25699"><ele>130.0</ele><time>2026-04-20T12:50:19.533Z</time></trkpt><trkpt lat="40.870355" lon="14.2568683"><ele>131.33333333333331</ele><time>2026-04-20T12:50:21.533Z</time></trkpt><trkpt lat="40.8703133" lon="14.2567533"><ele>132.66666666666666</ele><time>2026-04-20T12:50:23.533Z</time></trkpt><trkpt lat="40.8702667" lon="14.2566583"><ele>134.0</ele><time>2026-04-20T12:50:25.532Z</time></trkpt><trkpt lat="40.8702" lon="14.25657"><ele>134.0</ele><time>2026-04-20T12:50:27.534Z</time></trkpt><trkpt lat="40.8701283" lon="14.2564967"><ele>134.0</ele><time>2026-04-20T12:50:29.534Z</time></trkpt><trkpt lat="40.8700633" lon="14.256435"><ele>134.0</ele><time>2026-04-20T12:50:31.536Z</time></trkpt><trkpt lat="40.8699983" lon="14.2563617"><ele>134.0</ele><time>2026-04-20T12:50:33.535Z</time></trkpt><trkpt lat="40.8699217" lon="14.2563283"><ele>134.0</ele><time>2026-04-20T12:50:35.536Z</time></trkpt><trkpt lat="40.86985" lon="14.2562733"><ele>134.0</ele><time>2026-04-20T12:50:37.534Z</time></trkpt><trkpt lat="40.8697767" lon="14.2562233"><ele>133.83333333333331</ele><time>2026-04-20T12:50:39.534Z</time></trkpt><trkpt lat="40.8697183" lon="14.25617"><ele>133.66666666666666</ele><time>2026-04-20T12:50:41.533Z</time></trkpt><trkpt lat="40.8696583" lon="14.2560783"><ele>133.5</ele><time>2026-04-20T12:50:44.536Z</time></trkpt><trkpt lat="40.86963" lon="14.2559733"><ele>133.33333333333334</ele><time>2026-04-20T12:50:46.533Z</time></trkpt><trkpt lat="40.8696167" lon="14.2558617"><ele>133.16666666666669</ele><time>2026-04-20T12:50:48.534Z</time></trkpt><trkpt lat="40.86963" lon="14.2557517"><ele>133.0</ele><time>2026-04-20T12:50:50.534Z</time></trkpt><trkpt lat="40.8696583" lon="14.2556533"><ele>133.0</ele><time>2026-04-20T12:50:52.535Z</time></trkpt><trkpt lat="40.869685" lon="14.25556"><ele>133.0</ele><time>2026-04-20T12:50:54.534Z</time></trkpt><trkpt lat="40.8697183" lon="14.2554583"><ele>133.0</ele><time>2026-04-20T12:50:56.534Z</time></trkpt><trkpt lat="40.8697533" lon="14.25535"><ele>133.0</ele><time>2026-04-20T12:50:58.534Z</time></trkpt><trkpt lat="40.86978" lon="14.2552383"><ele>133.0</ele><time>2026-04-20T12:51:00.535Z</time></trkpt><trkpt lat="40.8697867" lon="14.255135"><ele>133.0</ele><time>2026-04-20T12:51:02.535Z</time></trkpt><trkpt lat="40.8697783" lon="14.255025"><ele>133.0</ele><time>2026-04-20T12:51:04.532Z</time></trkpt><trkpt lat="40.8697333" lon="14.2548983"><ele>133.0</ele><time>2026-04-20T12:51:06.532Z</time></trkpt><trkpt lat="40.8696667" lon="14.254795"><ele>133.0</ele><time>2026-04-20T12:51:08.531Z</time></trkpt><trkpt lat="40.86959" lon="14.2547167"><ele>133.0</ele><time>2026-04-20T12:51:10.531Z</time></trkpt><trkpt lat="40.8694883" lon="14.25466"><ele>133.0</ele><time>2026-04-20T12:51:12.533Z</time></trkpt><trkpt lat="40.869385" lon="14.25462"><ele>134.4</ele><time>2026-04-20T12:51:14.535Z</time></trkpt><trkpt lat="40.8692933" lon="14.254565"><ele>135.8</ele><time>2026-04-20T12:51:16.534Z</time></trkpt><trkpt lat="40.8692067" lon="14.2545133"><ele>137.2</ele><time>2026-04-20T12:51:18.535Z</time></trkpt><trkpt lat="40.8691283" lon="14.2544583"><ele>138.6</ele><time>2026-04-20T12:51:20.533Z</time></trkpt><trkpt lat="40.8690617" lon="14.2543867"><ele>140.0</ele><time>2026-04-20T12:51:22.533Z</time></trkpt><trkpt lat="40.868995" lon="14.2543117"><ele>140.0</ele><time>2026-04-20T12:51:24.533Z</time></trkpt><trkpt lat="40.8689383" lon="14.2541967"><ele>140.0</ele><time>2026-04-20T12:51:26.531Z</time></trkpt><trkpt lat="40.8688667" lon="14.25414"><ele>140.0</ele><time>2026-04-20T12:51:28.536Z</time></trkpt><trkpt lat="40.868795" lon="14.2540617"><ele>140.0</ele><time>2026-04-20T12:51:30.532Z</time></trkpt><trkpt lat="40.8687133" lon="14.2540067"><ele>140.0</ele><time>2026-04-20T12:51:32.533Z</time></trkpt><trkpt lat="40.868625" lon="14.2539583"><ele>141.2</ele><time>2026-04-20T12:51:34.533Z</time></trkpt><trkpt lat="40.8685317" lon="14.2539233"><ele>142.4</ele><time>2026-04-20T12:51:36.533Z</time></trkpt><trkpt lat="40.8684383" lon="14.2539117"><ele>143.6</ele><time>2026-04-20T12:51:38.531Z</time></trkpt><trkpt lat="40.8683367" lon="14.2539117"><ele>144.8</ele><time>2026-04-20T12:51:40.533Z</time></trkpt><trkpt lat="40.868245" lon="14.2539067"><ele>146.0</ele><time>2026-04-20T12:51:42.533Z</time></trkpt><trkpt lat="40.86815" lon="14.253885"><ele>146.0</ele><time>2026-04-20T12:51:44.533Z</time></trkpt><trkpt lat="40.86806" lon="14.2538467"><ele>146.0</ele><time>2026-04-20T12:51:46.532Z</time></trkpt><trkpt lat="40.86799" lon="14.2537717"><ele>146.0</ele><time>2026-04-20T12:51:48.532Z</time></trkpt><trkpt lat="40.8679367" lon="14.2537033"><ele>146.0</ele><time>2026-04-20T12:51:50.533Z</time></trkpt><trkpt lat="40.8678967" lon="14.2536267"><ele>146.0</ele><time>2026-04-20T12:51:52.532Z</time></trkpt><trkpt lat="40.8678633" lon="14.25355"><ele>146.0</ele><time>2026-04-20T12:51:54.532Z</time></trkpt><trkpt lat="40.8678367" lon="14.2534533"><ele>146.0</ele><time>2026-04-20T12:51:56.532Z</time></trkpt><trkpt lat="40.8677867" lon="14.2533683"><ele>146.0</ele><time>2026-04-20T12:51:58.532Z</time></trkpt><trkpt lat="40.8677317" lon="14.2532683"><ele>146.0</ele><time>2026-04-20T12:52:00.533Z</time></trkpt><trkpt lat="40.8676517" lon="14.253205"><ele>146.0</ele><time>2026-04-20T12:52:02.532Z</time></trkpt><trkpt lat="40.86757" lon="14.253165"><ele>146.0</ele><time>2026-04-20T12:52:04.533Z</time></trkpt><trkpt lat="40.867485" lon="14.253145"><ele>146.0</ele><time>2026-04-20T12:52:06.532Z</time></trkpt><trkpt lat="40.8673967" lon="14.2531333"><ele>146.0</ele><time>2026-04-20T12:52:08.533Z</time></trkpt><trkpt lat="40.8673033" lon="14.2531417"><ele>146.0</ele><time>2026-04-20T12:52:10.534Z</time></trkpt><trkpt lat="40.86721" lon="14.2531417"><ele>146.0</ele><time>2026-04-20T12:52:12.534Z</time></trkpt><trkpt lat="40.86713" lon="14.2531417"><ele>146.0</ele><time>2026-04-20T12:52:14.533Z</time></trkpt><trkpt lat="40.86705" lon="14.2531283"><ele>146.0</ele><time>2026-04-20T12:52:16.532Z</time></trkpt><trkpt lat="40.866965" lon="14.2531117"><ele>146.0</ele><time>2026-04-20T12:52:18.534Z</time></trkpt><trkpt lat="40.8668833" lon="14.2531"><ele>146.0</ele><time>2026-04-20T12:52:20.533Z</time></trkpt><trkpt lat="40.8668033" lon="14.2530933"><ele>146.0</ele><time>2026-04-20T12:52:22.533Z</time></trkpt><trkpt lat="40.8667233" lon="14.2530767"><ele>146.0</ele><time>2026-04-20T12:52:24.532Z</time></trkpt><trkpt lat="40.8666467" lon="14.253065"><ele>146.0</ele><time>2026-04-20T12:52:26.533Z</time></trkpt><trkpt lat="40.8665733" lon="14.2530433"><ele>146.0</ele><time>2026-04-20T12:52:28.533Z</time></trkpt><trkpt lat="40.8665133" lon="14.2529917"><ele>146.0</ele><time>2026-04-20T12:52:30.534Z</time></trkpt><trkpt lat="40.8664617" lon="14.2529433"><ele>146.0</ele><time>2026-04-20T12:52:32.532Z</time></trkpt><trkpt lat="40.8664083" lon="14.2528933"><ele>145.85714285714286</ele><time>2026-04-20T12:52:34.534Z</time></trkpt><trkpt lat="40.866335" lon="14.252815"><ele>145.71428571428572</ele><time>2026-04-20T12:52:37.534Z</time></trkpt><trkpt lat="40.8662817" lon="14.252755"><ele>145.57142857142858</ele><time>2026-04-20T12:52:39.534Z</time></trkpt><trkpt lat="40.866235" lon="14.252685"><ele>145.42857142857144</ele><time>2026-04-20T12:52:41.534Z</time></trkpt><trkpt lat="40.8661883" lon="14.2526133"><ele>145.2857142857143</ele><time>2026-04-20T12:52:43.534Z</time></trkpt><trkpt lat="40.866125" lon="14.252565"><ele>145.14285714285714</ele><time>2026-04-20T12:52:45.533Z</time></trkpt><trkpt lat="40.8660667" lon="14.252605"><ele>145.0</ele><time>2026-04-20T12:52:48.532Z</time></trkpt><trkpt lat="40.8659967" lon="14.2526867"><ele>145.66666666666669</ele><time>2026-04-20T12:52:51.533Z</time></trkpt><trkpt lat="40.8659317" lon="14.2527333"><ele>146.33333333333334</ele><time>2026-04-20T12:52:53.534Z</time></trkpt><trkpt lat="40.865875" lon="14.2527933"><ele>147.0</ele><time>2026-04-20T12:52:55.533Z</time></trkpt><trkpt lat="40.8658083" lon="14.25285"><ele>147.66666666666666</ele><time>2026-04-20T12:52:57.537Z</time></trkpt><trkpt lat="40.8657383" lon="14.2529133"><ele>148.33333333333331</ele><time>2026-04-20T12:52:59.532Z</time></trkpt><trkpt lat="40.865665" lon="14.252995"><ele>149.0</ele><time>2026-04-20T12:53:01.533Z</time></trkpt><trkpt lat="40.865565" lon="14.2530633"><ele>149.0</ele><time>2026-04-20T12:53:03.532Z</time></trkpt><trkpt lat="40.865505" lon="14.2530917"><ele>149.0</ele><time>2026-04-20T12:53:04.533Z</time></trkpt><trkpt lat="40.8654083" lon="14.2531483"><ele>149.0</ele><time>2026-04-20T12:53:06.533Z</time></trkpt><trkpt lat="40.86534" lon="14.253195"><ele>149.0</ele><time>2026-04-20T12:53:08.533Z</time></trkpt><trkpt lat="40.8652717" lon="14.2532733"><ele>149.0</ele><time>2026-04-20T12:53:10.533Z</time></trkpt><trkpt lat="40.8651917" lon="14.2533817"><ele>149.16666666666666</ele><time>2026-04-20T12:53:12.533Z</time></trkpt><trkpt lat="40.8651217" lon="14.2534767"><ele>149.33333333333331</ele><time>2026-04-20T12:53:14.533Z</time></trkpt><trkpt lat="40.86506" lon="14.2535767"><ele>149.5</ele><time>2026-04-20T12:53:16.533Z</time></trkpt><trkpt lat="40.865015" lon="14.2536433"><ele>149.66666666666666</ele><time>2026-04-20T12:53:18.532Z</time></trkpt><trkpt lat="40.8649583" lon="14.2537017"><ele>149.83333333333334</ele><time>2026-04-20T12:53:22.545Z</time></trkpt><trkpt lat="40.8648917" lon="14.2537867"><ele>150.0</ele><time>2026-04-20T12:53:26.535Z</time></trkpt><trkpt lat="40.8648183" lon="14.2538367"><ele>149.2</ele><time>2026-04-20T12:53:28.534Z</time></trkpt><trkpt lat="40.86473" lon="14.2538583"><ele>148.4</ele><time>2026-04-20T12:53:30.535Z</time></trkpt><trkpt lat="40.86464" lon="14.25386"><ele>147.6</ele><time>2026-04-20T12:53:32.535Z</time></trkpt><trkpt lat="40.8645483" lon="14.2538533"><ele>146.8</ele><time>2026-04-20T12:53:34.537Z</time></trkpt><trkpt lat="40.8644483" lon="14.2538433"><ele>146.0</ele><time>2026-04-20T12:53:36.535Z</time></trkpt><trkpt lat="40.8643433" lon="14.2538117"><ele>142.5</ele><time>2026-04-20T12:53:38.536Z</time></trkpt><trkpt lat="40.86427" lon="14.2537983"><ele>139.0</ele><time>2026-04-20T12:53:40.536Z</time></trkpt><trkpt lat="40.8642033" lon="14.2537817"><ele>135.5</ele><time>2026-04-20T12:53:42.536Z</time></trkpt><trkpt lat="40.8641233" lon="14.253735"><ele>132.0</ele><time>2026-04-20T12:53:45.535Z</time></trkpt><trkpt lat="40.8640617" lon="14.2536683"><ele>128.5</ele><time>2026-04-20T12:53:47.535Z</time></trkpt><trkpt lat="40.8640133" lon="14.2535517"><ele>125.0</ele><time>2026-04-20T12:53:49.536Z</time></trkpt><trkpt lat="40.8639517" lon="14.253455"><ele>125.0</ele><time>2026-04-20T12:53:51.534Z</time></trkpt><trkpt lat="40.863875" lon="14.2533433"><ele>125.0</ele><time>2026-04-20T12:53:53.536Z</time></trkpt><trkpt lat="40.8637917" lon="14.253225"><ele>125.0</ele><time>2026-04-20T12:53:55.537Z</time></trkpt><trkpt lat="40.8637183" lon="14.2531033"><ele>125.0</ele><time>2026-04-20T12:53:57.535Z</time></trkpt><trkpt lat="40.8636517" lon="14.2530033"><ele>125.2</ele><time>2026-04-20T12:53:59.535Z</time></trkpt><trkpt lat="40.8635917" lon="14.2529133"><ele>125.4</ele><time>2026-04-20T12:54:01.535Z</time></trkpt><trkpt lat="40.8635233" lon="14.252815"><ele>125.6</ele><time>2026-04-20T12:54:03.534Z</time></trkpt><trkpt lat="40.8634583" lon="14.2527333"><ele>125.8</ele><time>2026-04-20T12:54:05.536Z</time></trkpt><trkpt lat="40.8634017" lon="14.2526383"><ele>126.0</ele><time>2026-04-20T12:54:07.535Z</time></trkpt><trkpt lat="40.8633417" lon="14.2525283"><ele>124.16666666666667</ele><time>2026-04-20T12:54:09.533Z</time></trkpt><trkpt lat="40.8632767" lon="14.252455"><ele>122.33333333333334</ele><time>2026-04-20T12:54:11.536Z</time></trkpt><trkpt lat="40.863235" lon="14.252375"><ele>120.5</ele><time>2026-04-20T12:54:13.535Z</time></trkpt><trkpt lat="40.863185" lon="14.2522883"><ele>118.66666666666667</ele><time>2026-04-20T12:54:15.533Z</time></trkpt><trkpt lat="40.8631367" lon="14.252195"><ele>116.83333333333334</ele><time>2026-04-20T12:54:17.534Z</time></trkpt><trkpt lat="40.8630833" lon="14.2521233"><ele>115.0</ele><time>2026-04-20T12:54:19.536Z</time></trkpt><trkpt lat="40.8630067" lon="14.25204"><ele>113.4</ele><time>2026-04-20T12:54:22.536Z</time></trkpt><trkpt lat="40.8629183" lon="14.2519883"><ele>111.8</ele><time>2026-04-20T12:54:25.535Z</time></trkpt><trkpt lat="40.8628233" lon="14.2519883"><ele>110.19999999999999</ele><time>2026-04-20T12:54:27.535Z</time></trkpt><trkpt lat="40.8627267" lon="14.2519733"><ele>108.6</ele><time>2026-04-20T12:54:29.536Z</time></trkpt><trkpt lat="40.8626283" lon="14.2519867"><ele>107.0</ele><time>2026-04-20T12:54:31.535Z</time></trkpt><trkpt lat="40.8625483" lon="14.252025"><ele>106.39999999999999</ele><time>2026-04-20T12:54:33.535Z</time></trkpt><trkpt lat="40.8624733" lon="14.252125"><ele>105.79999999999998</ele><time>2026-04-20T12:54:35.537Z</time></trkpt><trkpt lat="40.8623917" lon="14.252235"><ele>105.2</ele><time>2026-04-20T12:54:37.534Z</time></trkpt><trkpt lat="40.8623333" lon="14.2523333"><ele>104.6</ele><time>2026-04-20T12:54:39.535Z</time></trkpt><trkpt lat="40.8622417" lon="14.2524017"><ele>104.0</ele><time>2026-04-20T12:54:41.535Z</time></trkpt><trkpt lat="40.8621733" lon="14.2524567"><ele>104.0</ele><time>2026-04-20T12:54:43.536Z</time></trkpt><trkpt lat="40.862105" lon="14.2524933"><ele>104.0</ele><time>2026-04-20T12:54:45.535Z</time></trkpt><trkpt lat="40.862035" lon="14.252525"><ele>104.0</ele><time>2026-04-20T12:54:47.536Z</time></trkpt><trkpt lat="40.8619617" lon="14.2525383"><ele>104.0</ele><time>2026-04-20T12:54:49.536Z</time></trkpt><trkpt lat="40.8618933" lon="14.25257"><ele>104.0</ele><time>2026-04-20T12:54:51.534Z</time></trkpt><trkpt lat="40.86183" lon="14.2526"><ele>104.0</ele><time>2026-04-20T12:54:53.535Z</time></trkpt><trkpt lat="40.8617617" lon="14.2526283"><ele>104.0</ele><time>2026-04-20T12:54:55.535Z</time></trkpt><trkpt lat="40.8617017" lon="14.25267"><ele>101.99999999999999</ele><time>2026-04-20T12:54:57.536Z</time></trkpt><trkpt lat="40.8616317" lon="14.252735"><ele>100.0</ele><time>2026-04-20T12:55:00.535Z</time></trkpt><trkpt lat="40.86158" lon="14.2527867"><ele>98.0</ele><time>2026-04-20T12:55:02.535Z</time></trkpt><trkpt lat="40.86152" lon="14.25282"><ele>96.0</ele><time>2026-04-20T12:55:04.536Z</time></trkpt><trkpt lat="40.8614467" lon="14.2528433"><ele>94.0</ele><time>2026-04-20T12:55:06.535Z</time></trkpt><trkpt lat="40.8613733" lon="14.2528667"><ele>92.0</ele><time>2026-04-20T12:55:08.535Z</time></trkpt><trkpt lat="40.8612883" lon="14.2528883"><ele>92.0</ele><time>2026-04-20T12:55:10.535Z</time></trkpt><trkpt lat="40.8612" lon="14.2528917"><ele>92.0</ele><time>2026-04-20T12:55:12.536Z</time></trkpt><trkpt lat="40.8611233" lon="14.2528883"><ele>92.0</ele><time>2026-04-20T12:55:14.536Z</time></trkpt><trkpt lat="40.8610583" lon="14.2528967"><ele>92.0</ele><time>2026-04-20T12:55:16.537Z</time></trkpt><trkpt lat="40.8609767" lon="14.252905"><ele>92.0</ele><time>2026-04-20T12:55:18.535Z</time></trkpt><trkpt lat="40.860905" lon="14.2528983"><ele>92.0</ele><time>2026-04-20T12:55:20.536Z</time></trkpt><trkpt lat="40.860835" lon="14.2528683"><ele>88.71428571428572</ele><time>2026-04-20T12:55:23.536Z</time></trkpt><trkpt lat="40.8608083" lon="14.2527917"><ele>85.42857142857142</ele><time>2026-04-20T12:55:25.535Z</time></trkpt><trkpt lat="40.8607917" lon="14.2527017"><ele>82.14285714285714</ele><time>2026-04-20T12:55:27.535Z</time></trkpt><trkpt lat="40.8607883" lon="14.2526033"><ele>78.85714285714286</ele><time>2026-04-20T12:55:30.534Z</time></trkpt><trkpt lat="40.86075" lon="14.2525117"><ele>75.57142857142858</ele><time>2026-04-20T12:55:33.536Z</time></trkpt><trkpt lat="40.86072" lon="14.2524117"><ele>72.28571428571429</ele><time>2026-04-20T12:55:36.536Z</time></trkpt><trkpt lat="40.8606833" lon="14.25234"><ele>69.0</ele><time>2026-04-20T12:55:38.536Z</time></trkpt><trkpt lat="40.8606433" lon="14.2522533"><ele>68.66666666666667</ele><time>2026-04-20T12:55:40.536Z</time></trkpt><trkpt lat="40.8605983" lon="14.2521733"><ele>68.33333333333333</ele><time>2026-04-20T12:55:42.536Z</time></trkpt><trkpt lat="40.860535" lon="14.2521333"><ele>68.0</ele><time>2026-04-20T12:55:45.535Z</time></trkpt><trkpt lat="40.86053" lon="14.252"><ele>67.66666666666666</ele><time>2026-04-20T12:55:53.536Z</time></trkpt><trkpt lat="40.8605633" lon="14.2519033"><ele>67.33333333333333</ele><time>2026-04-20T12:55:56.535Z</time></trkpt><trkpt lat="40.860585" lon="14.2518017"><ele>67.0</ele><time>2026-04-20T12:55:59.536Z</time></trkpt><trkpt lat="40.8605733" lon="14.2516867"><ele>67.0</ele><time>2026-04-20T12:56:03.535Z</time></trkpt><trkpt lat="40.86059" lon="14.2515933"><ele>67.0</ele><time>2026-04-20T12:56:06.534Z</time></trkpt><trkpt lat="40.8605967" lon="14.2514867"><ele>67.0</ele><time>2026-04-20T12:56:09.537Z</time></trkpt><trkpt lat="40.8605883" lon="14.2513767"><ele>67.0</ele><time>2026-04-20T12:56:13.534Z</time></trkpt><trkpt lat="40.860555" lon="14.25128"><ele>67.0</ele><time>2026-04-20T12:56:16.536Z</time></trkpt><trkpt lat="40.8605217" lon="14.2511683"><ele>67.0</ele><time>2026-04-20T12:56:19.538Z</time></trkpt><trkpt lat="40.8604867" lon="14.2510917"><ele>67.66666666666666</ele><time>2026-04-20T12:56:21.535Z</time></trkpt><trkpt lat="40.86044" lon="14.2510117"><ele>68.33333333333333</ele><time>2026-04-20T12:56:23.536Z</time></trkpt><trkpt lat="40.86038" lon="14.250915"><ele>69.0</ele><time>2026-04-20T12:56:25.538Z</time></trkpt><trkpt lat="40.8603367" lon="14.2508167"><ele>69.66666666666667</ele><time>2026-04-20T12:56:27.536Z</time></trkpt><trkpt lat="40.8603167" lon="14.2507133"><ele>70.33333333333334</ele><time>2026-04-20T12:56:29.536Z</time></trkpt><trkpt lat="40.8602867" lon="14.2506117"><ele>71.0</ele><time>2026-04-20T12:56:31.535Z</time></trkpt><trkpt lat="40.86026" lon="14.25052"><ele>69.39999999999999</ele><time>2026-04-20T12:56:33.535Z</time></trkpt><trkpt lat="40.8602217" lon="14.2504367"><ele>67.8</ele><time>2026-04-20T12:56:35.535Z</time></trkpt><trkpt lat="40.8600817" lon="14.2503467"><ele>66.19999999999999</ele><time>2026-04-20T12:56:38.535Z</time></trkpt><trkpt lat="40.8600333" lon="14.2502867"><ele>64.6</ele><time>2026-04-20T12:56:41.535Z</time></trkpt><trkpt lat="40.8599733" lon="14.2503183"><ele>63.0</ele><time>2026-04-20T12:56:45.535Z</time></trkpt><trkpt lat="40.8598917" lon="14.2503717"><ele>63.0</ele><time>2026-04-20T12:56:48.535Z</time></trkpt><trkpt lat="40.8598267" lon="14.250405"><ele>63.0</ele><time>2026-04-20T12:56:50.536Z</time></trkpt><trkpt lat="40.8597533" lon="14.25048"><ele>63.0</ele><time>2026-04-20T12:56:53.536Z</time></trkpt><trkpt lat="40.8596717" lon="14.2505267"><ele>63.0</ele><time>2026-04-20T12:56:56.536Z</time></trkpt><trkpt lat="40.8596033" lon="14.2505583"><ele>63.0</ele><time>2026-04-20T12:56:59.535Z</time></trkpt><trkpt lat="40.8595333" lon="14.250595"><ele>63.0</ele><time>2026-04-20T12:57:03.534Z</time></trkpt><trkpt lat="40.8594633" lon="14.25056"><ele>63.0</ele><time>2026-04-20T12:57:07.535Z</time></trkpt><trkpt lat="40.859535" lon="14.250575"><ele>63.0</ele><time>2026-04-20T12:57:14.534Z</time></trkpt><trkpt lat="40.8596083" lon="14.250555"><ele>63.0</ele><time>2026-04-20T12:57:18.536Z</time></trkpt><trkpt lat="40.8596517" lon="14.2504867"><ele>63.0</ele><time>2026-04-20T12:57:38.535Z</time></trkpt><trkpt lat="40.859705" lon="14.25042"><ele>63.0</ele><time>2026-04-20T12:57:43.536Z</time></trkpt><trkpt lat="40.859765" lon="14.2503817"><ele>63.0</ele><time>2026-04-20T12:57:46.534Z</time></trkpt><trkpt lat="40.85982" lon="14.25034"><ele>63.0</ele><time>2026-04-20T12:57:48.534Z</time></trkpt><trkpt lat="40.8598783" lon="14.25029"><ele>63.0</ele><time>2026-04-20T12:57:51.536Z</time></trkpt><trkpt lat="40.859945" lon="14.2502417"><ele>63.0</ele><time>2026-04-20T12:57:55.535Z</time></trkpt><trkpt lat="40.86" lon="14.2501983"><ele>63.0</ele><time>2026-04-20T12:57:59.535Z</time></trkpt><trkpt lat="40.8600633" lon="14.2502667"><ele>63.0</ele><time>2026-04-20T12:58:04.536Z</time></trkpt><trkpt lat="40.8601033" lon="14.2503383"><ele>63.0</ele><time>2026-04-20T12:58:06.533Z</time></trkpt><trkpt lat="40.86014" lon="14.250415"><ele>63.0</ele><time>2026-04-20T12:58:08.534Z</time></trkpt><trkpt lat="40.8601733" lon="14.2504933"><ele>63.0</ele><time>2026-04-20T12:58:10.535Z</time></trkpt><trkpt lat="40.8602283" lon="14.25056"><ele>64.33333333333333</ele><time>2026-04-20T12:58:12.534Z</time></trkpt><trkpt lat="40.8602583" lon="14.250635"><ele>65.66666666666667</ele><time>2026-04-20T12:58:14.534Z</time></trkpt><trkpt lat="40.86029" lon="14.25071"><ele>67.0</ele><time>2026-04-20T12:58:16.536Z</time></trkpt><trkpt lat="40.8603383" lon="14.250785"><ele>68.33333333333334</ele><time>2026-04-20T12:58:19.535Z</time></trkpt><trkpt lat="40.8603883" lon="14.2508883"><ele>69.66666666666667</ele><time>2026-04-20T12:58:22.534Z</time></trkpt><trkpt lat="40.8604267" lon="14.2509933"><ele>71.0</ele><time>2026-04-20T12:58:25.535Z</time></trkpt><trkpt lat="40.8604717" lon="14.25109"><ele>71.0</ele><time>2026-04-20T12:58:28.535Z</time></trkpt><trkpt lat="40.8605517" lon="14.2511683"><ele>71.0</ele><time>2026-04-20T12:58:31.536Z</time></trkpt><trkpt lat="40.8605933" lon="14.2512717"><ele>71.0</ele><time>2026-04-20T12:58:34.536Z</time></trkpt><trkpt lat="40.86064" lon="14.2513633"><ele>71.0</ele><time>2026-04-20T12:58:37.533Z</time></trkpt><trkpt lat="40.8606683" lon="14.251465"><ele>71.0</ele><time>2026-04-20T12:58:40.535Z</time></trkpt><trkpt lat="40.8606617" lon="14.2515783"><ele>71.0</ele><time>2026-04-20T12:58:43.535Z</time></trkpt><trkpt lat="40.860655" lon="14.2516917"><ele>70.71428571428571</ele><time>2026-04-20T12:58:46.535Z</time></trkpt><trkpt lat="40.86067" lon="14.2517883"><ele>70.42857142857142</ele><time>2026-04-20T12:58:49.536Z</time></trkpt><trkpt lat="40.8606833" lon="14.2518833"><ele>70.14285714285714</ele><time>2026-04-20T12:58:52.535Z</time></trkpt><trkpt lat="40.8606733" lon="14.2519717"><ele>69.85714285714286</ele><time>2026-04-20T12:58:55.535Z</time></trkpt><trkpt lat="40.86063" lon="14.2520667"><ele>69.57142857142858</ele><time>2026-04-20T12:58:59.536Z</time></trkpt><trkpt lat="40.8606317" lon="14.2521517"><ele>69.28571428571429</ele><time>2026-04-20T12:59:02.536Z</time></trkpt><trkpt lat="40.86067" lon="14.2522433"><ele>69.0</ele><time>2026-04-20T12:59:05.536Z</time></trkpt><trkpt lat="40.8607083" lon="14.2523117"><ele>69.0</ele><time>2026-04-20T12:59:09.536Z</time></trkpt><trkpt lat="40.8607633" lon="14.2523783"><ele>69.0</ele><time>2026-04-20T12:59:14.535Z</time></trkpt><trkpt lat="40.8608317" lon="14.2523967"><ele>69.0</ele><time>2026-04-20T12:59:19.536Z</time></trkpt><trkpt lat="40.86089" lon="14.2524517"><ele>69.0</ele><time>2026-04-20T12:59:24.536Z</time></trkpt><trkpt lat="40.8609567" lon="14.2525017"><ele>69.0</ele><time>2026-04-20T12:59:29.536Z</time></trkpt><trkpt lat="40.861015" lon="14.25254"><ele>69.0</ele><time>2026-04-20T12:59:34.535Z</time></trkpt><trkpt lat="40.8610483" lon="14.2526267"><ele>69.0</ele><time>2026-04-20T12:59:38.534Z</time></trkpt><trkpt lat="40.8610917" lon="14.2527167"><ele>72.28571428571429</ele><time>2026-04-20T12:59:44.534Z</time></trkpt><trkpt lat="40.8611317" lon="14.25279"><ele>75.57142857142858</ele><time>2026-04-20T12:59:49.534Z</time></trkpt><trkpt lat="40.861155" lon="14.2528817"><ele>78.85714285714286</ele><time>2026-04-20T12:59:56.536Z</time></trkpt><trkpt lat="40.8611567" lon="14.252975"><ele>82.14285714285714</ele><time>2026-04-20T13:00:00.535Z</time></trkpt><trkpt lat="40.86121" lon="14.2529117"><ele>85.42857142857142</ele><time>2026-04-20T13:00:06.534Z</time></trkpt><trkpt lat="40.8612717" lon="14.25288"><ele>88.71428571428572</ele><time>2026-04-20T13:00:12.536Z</time></trkpt><trkpt lat="40.8613333" lon="14.2528567"><ele>92.0</ele><time>2026-04-20T13:00:17.536Z</time></trkpt><trkpt lat="40.8614083" lon="14.2528483"><ele>92.0</ele><time>2026-04-20T13:00:21.535Z</time></trkpt><trkpt lat="40.8614717" lon="14.2528617"><ele>92.0</ele><time>2026-04-20T13:00:25.534Z</time></trkpt><trkpt lat="40.86155" lon="14.2528367"><ele>92.0</ele><time>2026-04-20T13:00:30.534Z</time></trkpt><trkpt lat="40.8616217" lon="14.2528117"><ele>92.0</ele><time>2026-04-20T13:00:35.544Z</time></trkpt><trkpt lat="40.8616717" lon="14.2527533"><ele>92.0</ele><time>2026-04-20T13:00:39.535Z</time></trkpt><trkpt lat="40.8617133" lon="14.2526833"><ele>92.0</ele><time>2026-04-20T13:00:43.535Z</time></trkpt><trkpt lat="40.86176" lon="14.252625"><ele>92.0</ele><time>2026-04-20T13:00:47.534Z</time></trkpt><trkpt lat="40.8618367" lon="14.2526267"><ele>93.71428571428572</ele><time>2026-04-20T13:00:51.534Z</time></trkpt><trkpt lat="40.8619067" lon="14.2526033"><ele>95.42857142857142</ele><time>2026-04-20T13:00:56.534Z</time></trkpt><trkpt lat="40.861975" lon="14.252585"><ele>97.14285714285714</ele><time>2026-04-20T13:01:00.534Z</time></trkpt><trkpt lat="40.8620433" lon="14.25256"><ele>98.85714285714286</ele><time>2026-04-20T13:01:04.567Z</time></trkpt><trkpt lat="40.8621117" lon="14.2525367"><ele>100.57142857142858</ele><time>2026-04-20T13:01:08.533Z</time></trkpt><trkpt lat="40.8621783" lon="14.2525033"><ele>102.28571428571428</ele><time>2026-04-20T13:01:12.535Z</time></trkpt><trkpt lat="40.8622433" lon="14.252475"><ele>104.0</ele><time>2026-04-20T13:01:17.535Z</time></trkpt><trkpt lat="40.862295" lon="14.2524217"><ele>104.0</ele><time>2026-04-20T13:01:21.533Z</time></trkpt><trkpt lat="40.8623333" lon="14.2523367"><ele>104.0</ele><time>2026-04-20T13:01:26.534Z</time></trkpt><trkpt lat="40.8623417" lon="14.2522367"><ele>104.0</ele><time>2026-04-20T13:01:32.533Z</time></trkpt><trkpt lat="40.86237" lon="14.25216"><ele>104.0</ele><time>2026-04-20T13:01:36.535Z</time></trkpt><trkpt lat="40.8623867" lon="14.2520733"><ele>104.0</ele><time>2026-04-20T13:01:41.534Z</time></trkpt><trkpt lat="40.8624233" lon="14.2520017"><ele>104.0</ele><time>2026-04-20T13:01:45.534Z</time></trkpt><trkpt lat="40.8624583" lon="14.25193"><ele>104.0</ele><time>2026-04-20T13:01:49.536Z</time></trkpt><trkpt lat="40.86248" lon="14.25185"><ele>104.6</ele><time>2026-04-20T13:01:55.534Z</time></trkpt><trkpt lat="40.8625367" lon="14.2518083"><ele>105.2</ele><time>2026-04-20T13:01:59.534Z</time></trkpt><trkpt lat="40.8626167" lon="14.251775"><ele>105.79999999999998</ele><time>2026-04-20T13:02:03.534Z</time></trkpt><trkpt lat="40.8627567" lon="14.2518483"><ele>106.39999999999999</ele><time>2026-04-20T13:02:11.535Z</time></trkpt><trkpt lat="40.8628117" lon="14.2519117"><ele>107.0</ele><time>2026-04-20T13:02:14.533Z</time></trkpt><trkpt lat="40.8628617" lon="14.2520117"><ele>107.00000000000001</ele><time>2026-04-20T13:02:17.535Z</time></trkpt><trkpt lat="40.8629033" lon="14.252105"><ele>107.0</ele><time>2026-04-20T13:02:20.535Z</time></trkpt><trkpt lat="40.8629567" lon="14.25217"><ele>107.0</ele><time>2026-04-20T13:02:25.534Z</time></trkpt><trkpt lat="40.8629683" lon="14.252255"><ele>107.0</ele><time>2026-04-20T13:02:28.535Z</time></trkpt><trkpt lat="40.862995" lon="14.2523467"><ele>107.0</ele><time>2026-04-20T13:02:33.534Z</time></trkpt><trkpt lat="40.86304" lon="14.25242"><ele>107.00000000000001</ele><time>2026-04-20T13:02:37.535Z</time></trkpt><trkpt lat="40.863085" lon="14.25249"><ele>107.0</ele><time>2026-04-20T13:02:41.533Z</time></trkpt><trkpt lat="40.8631217" lon="14.25257"><ele>108.14285714285715</ele><time>2026-04-20T13:02:48.534Z</time></trkpt><trkpt lat="40.8631617" lon="14.2526367"><ele>109.28571428571428</ele><time>2026-04-20T13:02:53.534Z</time></trkpt><trkpt lat="40.8632267" lon="14.2526833"><ele>110.42857142857142</ele><time>2026-04-20T13:02:57.533Z</time></trkpt><trkpt lat="40.8633017" lon="14.2527183"><ele>111.57142857142857</ele><time>2026-04-20T13:03:00.534Z</time></trkpt><trkpt lat="40.8633667" lon="14.2527783"><ele>112.71428571428571</ele><time>2026-04-20T13:03:05.534Z</time></trkpt><trkpt lat="40.86343" lon="14.252835"><ele>113.85714285714285</ele><time>2026-04-20T13:03:11.534Z</time></trkpt><trkpt lat="40.8634833" lon="14.2529"><ele>114.99999999999999</ele><time>2026-04-20T13:03:15.533Z</time></trkpt><trkpt lat="40.8635333" lon="14.2529667"><ele>116.42857142857142</ele><time>2026-04-20T13:03:19.535Z</time></trkpt><trkpt lat="40.863585" lon="14.2530217"><ele>117.85714285714286</ele><time>2026-04-20T13:03:24.534Z</time></trkpt><trkpt lat="40.86361" lon="14.253105"><ele>119.28571428571428</ele><time>2026-04-20T13:03:29.535Z</time></trkpt><trkpt lat="40.8636317" lon="14.2531883"><ele>120.71428571428571</ele><time>2026-04-20T13:03:34.533Z</time></trkpt><trkpt lat="40.863695" lon="14.2532333"><ele>122.14285714285714</ele><time>2026-04-20T13:03:38.533Z</time></trkpt><trkpt lat="40.86374" lon="14.2532917"><ele>123.57142857142857</ele><time>2026-04-20T13:03:42.534Z</time></trkpt><trkpt lat="40.863785" lon="14.2533517"><ele>125.0</ele><time>2026-04-20T13:03:46.536Z</time></trkpt><trkpt lat="40.8638367" lon="14.253405"><ele>125.0</ele><time>2026-04-20T13:03:51.532Z</time></trkpt><trkpt lat="40.8638767" lon="14.25347"><ele>125.0</ele><time>2026-04-20T13:03:55.535Z</time></trkpt><trkpt lat="40.86392" lon="14.253555"><ele>125.0</ele><time>2026-04-20T13:04:01.536Z</time></trkpt><trkpt lat="40.8639967" lon="14.2535917"><ele>125.0</ele><time>2026-04-20T13:04:05.535Z</time></trkpt><trkpt lat="40.864065" lon="14.2536433"><ele>125.0</ele><time>2026-04-20T13:04:10.534Z</time></trkpt><trkpt lat="40.86412" lon="14.253705"><ele>125.0</ele><time>2026-04-20T13:04:15.535Z</time></trkpt><trkpt lat="40.8641833" lon="14.2537567"><ele>125.0</ele><time>2026-04-20T13:04:18.535Z</time></trkpt><trkpt lat="40.8642233" lon="14.253825"><ele>128.5</ele><time>2026-04-20T13:04:22.534Z</time></trkpt><trkpt lat="40.8642817" lon="14.2538733"><ele>132.0</ele><time>2026-04-20T13:04:27.534Z</time></trkpt><trkpt lat="40.8643467" lon="14.253895"><ele>135.5</ele><time>2026-04-20T13:04:32.535Z</time></trkpt><trkpt lat="40.86442" lon="14.2538583"><ele>139.0</ele><time>2026-04-20T13:04:38.533Z</time></trkpt><trkpt lat="40.8644917" lon="14.2538333"><ele>142.5</ele><time>2026-04-20T13:04:43.536Z</time></trkpt><trkpt lat="40.8645817" lon="14.2537917"><ele>146.0</ele><time>2026-04-20T13:04:49.536Z</time></trkpt><trkpt lat="40.8646667" lon="14.2538033"><ele>146.0</ele><time>2026-04-20T13:04:54.536Z</time></trkpt><trkpt lat="40.8647417" lon="14.253775"><ele>146.0</ele><time>2026-04-20T13:04:58.534Z</time></trkpt><trkpt lat="40.8648067" lon="14.2537167"><ele>146.0</ele><time>2026-04-20T13:05:01.534Z</time></trkpt><trkpt lat="40.86486" lon="14.2536583"><ele>146.0</ele><time>2026-04-20T13:05:04.536Z</time></trkpt><trkpt lat="40.864925" lon="14.2536217"><ele>146.0</ele><time>2026-04-20T13:05:08.534Z</time></trkpt><trkpt lat="40.8649817" lon="14.253565"><ele>146.0</ele><time>2026-04-20T13:05:13.536Z</time></trkpt><trkpt lat="40.8650267" lon="14.2535033"><ele>146.0</ele><time>2026-04-20T13:05:17.534Z</time></trkpt><trkpt lat="40.8650833" lon="14.2534417"><ele>146.0</ele><time>2026-04-20T13:05:21.534Z</time></trkpt><trkpt lat="40.865145" lon="14.2534183"><ele>146.0</ele><time>2026-04-20T13:05:24.535Z</time></trkpt><trkpt lat="40.8650933" lon="14.253495"><ele>146.0</ele><time>2026-04-20T13:05:40.536Z</time></trkpt><trkpt lat="40.865025" lon="14.25352"><ele>146.0</ele><time>2026-04-20T13:05:44.535Z</time></trkpt><trkpt lat="40.8649667" lon="14.2535633"><ele>146.0</ele><time>2026-04-20T13:05:47.536Z</time></trkpt><trkpt lat="40.8649117" lon="14.2536067"><ele>146.0</ele><time>2026-04-20T13:05:50.535Z</time></trkpt><trkpt lat="40.8648683" lon="14.2536683"><ele>146.0</ele><time>2026-04-20T13:05:53.535Z</time></trkpt><trkpt lat="40.8648167" lon="14.2537267"><ele>146.0</ele><time>2026-04-20T13:05:56.536Z</time></trkpt><trkpt lat="40.864745" lon="14.25379"><ele>146.0</ele><time>2026-04-20T13:05:59.535Z</time></trkpt><trkpt lat="40.8646933" lon="14.2538567"><ele>146.0</ele><time>2026-04-20T13:06:01.535Z</time></trkpt><trkpt lat="40.8646417" lon="14.2539383"><ele>146.0</ele><time>2026-04-20T13:06:03.536Z</time></trkpt><trkpt lat="40.8646067" lon="14.2540233"><ele>146.0</ele><time>2026-04-20T13:06:05.536Z</time></trkpt><trkpt lat="40.8645767" lon="14.2541117"><ele>146.0</ele><time>2026-04-20T13:06:07.535Z</time></trkpt><trkpt lat="40.86457" lon="14.254215"><ele>146.0</ele><time>2026-04-20T13:06:09.535Z</time></trkpt><trkpt lat="40.8645717" lon="14.2543267"><ele>146.0</ele><time>2026-04-20T13:06:12.535Z</time></trkpt><trkpt lat="40.864645" lon="14.25446"><ele>146.0</ele><time>2026-04-20T13:06:14.535Z</time></trkpt><trkpt lat="40.86467" lon="14.2545567"><ele>146.0</ele><time>2026-04-20T13:06:16.535Z</time></trkpt><trkpt lat="40.8646833" lon="14.2546567"><ele>146.0</ele><time>2026-04-20T13:06:18.535Z</time></trkpt><trkpt lat="40.8647" lon="14.25476"><ele>146.0</ele><time>2026-04-20T13:06:20.538Z</time></trkpt><trkpt lat="40.864705" lon="14.25486"><ele>145.28571428571428</ele><time>2026-04-20T13:07:46.532Z</time></trkpt><trkpt lat="40.864735" lon="14.2549567"><ele>144.57142857142858</ele><time>2026-04-20T13:07:50.534Z</time></trkpt><trkpt lat="40.864765" lon="14.25504"><ele>143.85714285714286</ele><time>2026-04-20T13:07:53.533Z</time></trkpt><trkpt lat="40.8647967" lon="14.25512"><ele>143.14285714285714</ele><time>2026-04-20T13:07:56.534Z</time></trkpt><trkpt lat="40.86483" lon="14.2552"><ele>142.42857142857142</ele><time>2026-04-20T13:07:59.532Z</time></trkpt><trkpt lat="40.8648583" lon="14.2553117"><ele>141.71428571428572</ele><time>2026-04-20T13:08:03.532Z</time></trkpt><trkpt lat="40.864845" lon="14.2554017"><ele>141.0</ele><time>2026-04-20T13:08:05.532Z</time></trkpt><trkpt lat="40.8648517" lon="14.2554967"><ele>141.0</ele><time>2026-04-20T13:08:07.532Z</time></trkpt><trkpt lat="40.8648417" lon="14.2555917"><ele>141.0</ele><time>2026-04-20T13:08:09.532Z</time></trkpt><trkpt lat="40.8648183" lon="14.2556967"><ele>141.0</ele><time>2026-04-20T13:08:11.532Z</time></trkpt><trkpt lat="40.8647933" lon="14.2558017"><ele>141.0</ele><time>2026-04-20T13:08:13.532Z</time></trkpt><trkpt lat="40.8647767" lon="14.2559167"><ele>141.0</ele><time>2026-04-20T13:08:15.533Z</time></trkpt><trkpt lat="40.8647683" lon="14.2560317"><ele>141.0</ele><time>2026-04-20T13:08:17.533Z</time></trkpt><trkpt lat="40.8647517" lon="14.25615"><ele>139.5</ele><time>2026-04-20T13:08:19.531Z</time></trkpt><trkpt lat="40.864735" lon="14.2562683"><ele>138.0</ele><time>2026-04-20T13:08:21.531Z</time></trkpt><trkpt lat="40.8646967" lon="14.2563883"><ele>136.5</ele><time>2026-04-20T13:08:23.534Z</time></trkpt><trkpt lat="40.8646517" lon="14.2564817"><ele>135.0</ele><time>2026-04-20T13:08:25.532Z</time></trkpt><trkpt lat="40.8646283" lon="14.256585"><ele>133.5</ele><time>2026-04-20T13:08:27.533Z</time></trkpt><trkpt lat="40.8645867" lon="14.2566533"><ele>132.0</ele><time>2026-04-20T13:08:29.533Z</time></trkpt><trkpt lat="40.8646033" lon="14.256755"><ele>131.16666666666666</ele><time>2026-04-20T13:08:52.532Z</time></trkpt><trkpt lat="40.8645967" lon="14.2568583"><ele>130.33333333333334</ele><time>2026-04-20T13:08:55.533Z</time></trkpt><trkpt lat="40.8645733" lon="14.2569467"><ele>129.5</ele><time>2026-04-20T13:08:57.533Z</time></trkpt><trkpt lat="40.86455" lon="14.2570433"><ele>128.66666666666669</ele><time>2026-04-20T13:08:59.533Z</time></trkpt><trkpt lat="40.864485" lon="14.25716"><ele>127.83333333333334</ele><time>2026-04-20T13:09:01.532Z</time></trkpt><trkpt lat="40.8644233" lon="14.2572833"><ele>127.0</ele><time>2026-04-20T13:09:03.535Z</time></trkpt><trkpt lat="40.8643483" lon="14.2573783"><ele>128.5</ele><time>2026-04-20T13:09:05.533Z</time></trkpt><trkpt lat="40.864275" lon="14.25746"><ele>130.0</ele><time>2026-04-20T13:09:07.533Z</time></trkpt><trkpt lat="40.8642017" lon="14.25754"><ele>131.5</ele><time>2026-04-20T13:09:09.538Z</time></trkpt><trkpt lat="40.8641517" lon="14.2575967"><ele>133.0</ele><time>2026-04-20T13:09:11.533Z</time></trkpt><trkpt lat="40.8640783" lon="14.2575783"><ele>134.5</ele><time>2026-04-20T13:09:14.533Z</time></trkpt><trkpt lat="40.864005" lon="14.2575217"><ele>136.0</ele><time>2026-04-20T13:09:18.534Z</time></trkpt><trkpt lat="40.8639567" lon="14.2574533"><ele>136.0</ele><time>2026-04-20T13:09:21.533Z</time></trkpt><trkpt lat="40.8638917" lon="14.2574017"><ele>136.0</ele><time>2026-04-20T13:09:24.533Z</time></trkpt><trkpt lat="40.86383" lon="14.2573667"><ele>136.0</ele><time>2026-04-20T13:09:26.534Z</time></trkpt><trkpt lat="40.8637467" lon="14.257335"><ele>136.0</ele><time>2026-04-20T13:09:29.533Z</time></trkpt><trkpt lat="40.8636517" lon="14.2573217"><ele>136.0</ele><time>2026-04-20T13:09:32.534Z</time></trkpt><trkpt lat="40.863585" lon="14.257355"><ele>136.0</ele><time>2026-04-20T13:09:34.533Z</time></trkpt><trkpt lat="40.8635333" lon="14.2574083"><ele>135.99999999999997</ele><time>2026-04-20T13:09:36.534Z</time></trkpt><trkpt lat="40.863515" lon="14.257495"><ele>136.0</ele><time>2026-04-20T13:09:38.535Z</time></trkpt><trkpt lat="40.8635017" lon="14.2575867"><ele>136.0</ele><time>2026-04-20T13:09:40.534Z</time></trkpt><trkpt lat="40.8635033" lon="14.2576767"><ele>136.0</ele><time>2026-04-20T13:09:42.534Z</time></trkpt><trkpt lat="40.863495" lon="14.2577667"><ele>136.0</ele><time>2026-04-20T13:09:44.534Z</time></trkpt><trkpt lat="40.8634333" lon="14.2578183"><ele>135.99999999999997</ele><time>2026-04-20T13:09:48.533Z</time></trkpt><trkpt lat="40.8635017" lon="14.257785"><ele>136.0</ele><time>2026-04-20T13:09:57.533Z</time></trkpt><trkpt lat="40.8634317" lon="14.25778"><ele>134.33333333333334</ele><time>2026-04-20T13:11:06.534Z</time></trkpt><trkpt lat="40.8633467" lon="14.25781"><ele>132.66666666666669</ele><time>2026-04-20T13:11:08.532Z</time></trkpt><trkpt lat="40.8632633" lon="14.2578333"><ele>131.0</ele><time>2026-04-20T13:11:10.533Z</time></trkpt><trkpt lat="40.863175" lon="14.2578183"><ele>129.33333333333334</ele><time>2026-04-20T13:11:12.533Z</time></trkpt><trkpt lat="40.8630933" lon="14.257755"><ele>127.66666666666667</ele><time>2026-04-20T13:11:14.533Z</time></trkpt><trkpt lat="40.8630317" lon="14.2576767"><ele>126.0</ele><time>2026-04-20T13:11:16.533Z</time></trkpt><trkpt lat="40.8629817" lon="14.2575967"><ele>126.0</ele><time>2026-04-20T13:11:18.532Z</time></trkpt><trkpt lat="40.862935" lon="14.257515"><ele>126.0</ele><time>2026-04-20T13:11:21.533Z</time></trkpt><trkpt lat="40.86286" lon="14.25747"><ele>126.0</ele><time>2026-04-20T13:11:23.534Z</time></trkpt><trkpt lat="40.8627833" lon="14.2574083"><ele>126.0</ele><time>2026-04-20T13:11:26.534Z</time></trkpt><trkpt lat="40.86274" lon="14.2573083"><ele>126.0</ele><time>2026-04-20T13:11:28.535Z</time></trkpt><trkpt lat="40.8627183" lon="14.2572033"><ele>126.0</ele><time>2026-04-20T13:11:29.532Z</time></trkpt><trkpt lat="40.86267" lon="14.257105"><ele>124.33333333333333</ele><time>2026-04-20T13:11:31.533Z</time></trkpt><trkpt lat="40.8626067" lon="14.2570283"><ele>122.66666666666666</ele><time>2026-04-20T13:11:33.531Z</time></trkpt><trkpt lat="40.8625417" lon="14.2569917"><ele>121.0</ele><time>2026-04-20T13:11:35.534Z</time></trkpt><trkpt lat="40.8624983" lon="14.2570667"><ele>119.33333333333333</ele><time>2026-04-20T13:11:37.533Z</time></trkpt><trkpt lat="40.8625017" lon="14.2571767"><ele>117.66666666666666</ele><time>2026-04-20T13:11:40.532Z</time></trkpt><trkpt lat="40.8625367" lon="14.2572917"><ele>116.0</ele><time>2026-04-20T13:11:42.532Z</time></trkpt><trkpt lat="40.8625767" lon="14.2573783"><ele>118.0</ele><time>2026-04-20T13:11:43.535Z</time></trkpt><trkpt lat="40.862615" lon="14.257455"><ele>120.0</ele><time>2026-04-20T13:11:44.533Z</time></trkpt><trkpt lat="40.862675" lon="14.2575867"><ele>122.0</ele><time>2026-04-20T13:11:46.532Z</time></trkpt><trkpt lat="40.8627083" lon="14.2577283"><ele>124.0</ele><time>2026-04-20T13:11:48.533Z</time></trkpt><trkpt lat="40.8627433" lon="14.2578583"><ele>126.0</ele><time>2026-04-20T13:11:50.534Z</time></trkpt><trkpt lat="40.862775" lon="14.2579717"><ele>126.0</ele><time>2026-04-20T13:11:52.532Z</time></trkpt><trkpt lat="40.8628017" lon="14.2580683"><ele>126.0</ele><time>2026-04-20T13:11:54.533Z</time></trkpt><trkpt lat="40.862835" lon="14.2581467"><ele>126.0</ele><time>2026-04-20T13:11:56.533Z</time></trkpt><trkpt lat="40.86284" lon="14.258265"><ele>126.0</ele><time>2026-04-20T13:11:59.532Z</time></trkpt><trkpt lat="40.8627933" lon="14.2583417"><ele>126.0</ele><time>2026-04-20T13:12:01.533Z</time></trkpt><trkpt lat="40.8627317" lon="14.2583883"><ele>126.0</ele><time>2026-04-20T13:12:03.533Z</time></trkpt><trkpt lat="40.8626483" lon="14.258395"><ele>122.0</ele><time>2026-04-20T13:12:06.534Z</time></trkpt><trkpt lat="40.8625917" lon="14.258305"><ele>118.0</ele><time>2026-04-20T13:12:08.533Z</time></trkpt><trkpt lat="40.8625267" lon="14.2582017"><ele>114.0</ele><time>2026-04-20T13:12:10.535Z</time></trkpt><trkpt lat="40.862455" lon="14.25807"><ele>110.0</ele><time>2026-04-20T13:12:12.534Z</time></trkpt><trkpt lat="40.8623933" lon="14.257955"><ele>106.0</ele><time>2026-04-20T13:12:14.532Z</time></trkpt><trkpt lat="40.8623267" lon="14.2578467"><ele>106.0</ele><time>2026-04-20T13:12:16.533Z</time></trkpt><trkpt lat="40.8622633" lon="14.2577433"><ele>106.0</ele><time>2026-04-20T13:12:18.532Z</time></trkpt><trkpt lat="40.86223" lon="14.25767"><ele>106.0</ele><time>2026-04-20T13:12:20.533Z</time></trkpt><trkpt lat="40.86225" lon="14.2577583"><ele>106.0</ele><time>2026-04-20T13:12:28.532Z</time></trkpt><trkpt lat="40.8622767" lon="14.25784"><ele>106.0</ele><time>2026-04-20T13:12:30.533Z</time></trkpt><trkpt lat="40.8623017" lon="14.2579217"><ele>106.0</ele><time>2026-04-20T13:12:32.534Z</time></trkpt><trkpt lat="40.86234" lon="14.25801"><ele>106.0</ele><time>2026-04-20T13:12:34.532Z</time></trkpt><trkpt lat="40.86238" lon="14.258105"><ele>104.33333333333334</ele><time>2026-04-20T13:12:36.532Z</time></trkpt><trkpt lat="40.8624133" lon="14.2582"><ele>102.66666666666667</ele><time>2026-04-20T13:12:38.532Z</time></trkpt><trkpt lat="40.86245" lon="14.2582883"><ele>101.0</ele><time>2026-04-20T13:12:40.533Z</time></trkpt><trkpt lat="40.8624983" lon="14.25838"><ele>99.33333333333334</ele><time>2026-04-20T13:12:43.533Z</time></trkpt><trkpt lat="40.8624283" lon="14.2583683"><ele>97.66666666666667</ele><time>2026-04-20T13:12:50.532Z</time></trkpt><trkpt lat="40.86234" lon="14.258345"><ele>96.0</ele><time>2026-04-20T13:12:53.535Z</time></trkpt><trkpt lat="40.862275" lon="14.2583217"><ele>96.0</ele><time>2026-04-20T13:12:55.533Z</time></trkpt><trkpt lat="40.8622183" lon="14.2583583"><ele>96.0</ele><time>2026-04-20T13:12:57.534Z</time></trkpt><trkpt lat="40.8621433" lon="14.2583783"><ele>96.0</ele><time>2026-04-20T13:12:59.534Z</time></trkpt><trkpt lat="40.8620617" lon="14.258325"><ele>96.0</ele><time>2026-04-20T13:13:01.533Z</time></trkpt><trkpt lat="40.86198" lon="14.258245"><ele>96.0</ele><time>2026-04-20T13:13:03.533Z</time></trkpt><trkpt lat="40.861905" lon="14.25816"><ele>96.0</ele><time>2026-04-20T13:13:05.533Z</time></trkpt><trkpt lat="40.861885" lon="14.25808"><ele>97.66666666666667</ele><time>2026-04-20T13:13:06.533Z</time></trkpt><trkpt lat="40.8618383" lon="14.2579567"><ele>99.33333333333334</ele><time>2026-04-20T13:13:08.532Z</time></trkpt><trkpt lat="40.861785" lon="14.257855"><ele>101.0</ele><time>2026-04-20T13:13:10.534Z</time></trkpt><trkpt lat="40.8617383" lon="14.2577617"><ele>102.66666666666667</ele><time>2026-04-20T13:13:12.532Z</time></trkpt><trkpt lat="40.8616917" lon="14.2576933"><ele>104.33333333333334</ele><time>2026-04-20T13:13:14.533Z</time></trkpt><trkpt lat="40.8616283" lon="14.2576317"><ele>106.0</ele><time>2026-04-20T13:13:17.533Z</time></trkpt><trkpt lat="40.8615467" lon="14.257625"><ele>100.83333333333334</ele><time>2026-04-20T13:13:19.532Z</time></trkpt><trkpt lat="40.8614717" lon="14.2576283"><ele>95.66666666666667</ele><time>2026-04-20T13:13:22.533Z</time></trkpt><trkpt lat="40.861405" lon="14.25756"><ele>90.5</ele><time>2026-04-20T13:13:25.536Z</time></trkpt><trkpt lat="40.861355" lon="14.2574583"><ele>85.33333333333334</ele><time>2026-04-20T13:13:27.534Z</time></trkpt><trkpt lat="40.8612917" lon="14.2573717"><ele>80.16666666666667</ele><time>2026-04-20T13:13:29.534Z</time></trkpt><trkpt lat="40.8612417" lon="14.2573033"><ele>75.0</ele><time>2026-04-20T13:13:31.533Z</time></trkpt><trkpt lat="40.86115" lon="14.2572617"><ele>75.0</ele><time>2026-04-20T13:13:34.534Z</time></trkpt><trkpt lat="40.861085" lon="14.2572567"><ele>75.0</ele><time>2026-04-20T13:13:36.534Z</time></trkpt><trkpt lat="40.861015" lon="14.2573433"><ele>75.0</ele><time>2026-04-20T13:13:39.534Z</time></trkpt><trkpt lat="40.8609267" lon="14.2573933"><ele>75.0</ele><time>2026-04-20T13:13:41.534Z</time></trkpt><trkpt lat="40.8608667" lon="14.257455"><ele>75.0</ele><time>2026-04-20T13:13:43.534Z</time></trkpt><trkpt lat="40.8608333" lon="14.2575383"><ele>75.0</ele><time>2026-04-20T13:13:45.533Z</time></trkpt><trkpt lat="40.8608017" lon="14.257615"><ele>73.83333333333333</ele><time>2026-04-20T13:13:47.534Z</time></trkpt><trkpt lat="40.8607633" lon="14.2576883"><ele>72.66666666666667</ele><time>2026-04-20T13:13:49.534Z</time></trkpt><trkpt lat="40.8607083" lon="14.2577483"><ele>71.5</ele><time>2026-04-20T13:13:51.533Z</time></trkpt><trkpt lat="40.8606367" lon="14.2577817"><ele>70.33333333333334</ele><time>2026-04-20T13:13:53.533Z</time></trkpt><trkpt lat="40.8605717" lon="14.2578083"><ele>69.16666666666667</ele><time>2026-04-20T13:13:55.534Z</time></trkpt><trkpt lat="40.8604967" lon="14.2577883"><ele>68.0</ele><time>2026-04-20T13:13:57.532Z</time></trkpt><trkpt lat="40.8604083" lon="14.2578283"><ele>68.0</ele><time>2026-04-20T13:14:00.535Z</time></trkpt><trkpt lat="40.8603233" lon="14.2578267"><ele>68.0</ele><time>2026-04-20T13:14:03.532Z</time></trkpt><trkpt lat="40.8602015" lon="14.2579922"><ele>68.0</ele><time>2026-04-20T13:14:13.751Z</time></trkpt><trkpt lat="40.8601683" lon="14.2579033"><ele>68.0</ele><time>2026-04-20T13:14:29.532Z</time></trkpt><trkpt lat="40.8601406" lon="14.2578257"><ele>68.0</ele><time>2026-04-20T13:14:52.557Z</time></trkpt><trkpt lat="40.8600882" lon="14.2578762"><ele>68.0</ele><time>2026-04-20T13:15:00.562Z</time></trkpt><trkpt lat="40.8602049" lon="14.2578147"><ele>68.0</ele><time>2026-04-20T13:15:18.659Z</time></trkpt><trkpt lat="40.86046" lon="14.2577667"><ele>68.0</ele><time>2026-04-20T13:15:20.533Z</time></trkpt><trkpt lat="40.8605" lon="14.2576967"><ele>68.0</ele><time>2026-04-20T13:15:21.533Z</time></trkpt><trkpt lat="40.8605833" lon="14.2576367"><ele>68.0</ele><time>2026-04-20T13:15:23.533Z</time></trkpt><trkpt lat="40.8606717" lon="14.2576367"><ele>68.0</ele><time>2026-04-20T13:15:25.533Z</time></trkpt><trkpt lat="40.860735" lon="14.257665"><ele>68.0</ele><time>2026-04-20T13:15:27.532Z</time></trkpt><trkpt lat="40.8608217" lon="14.25764"><ele>68.0</ele><time>2026-04-20T13:15:30.531Z</time></trkpt><trkpt lat="40.8608867" lon="14.25764"><ele>68.0</ele><time>2026-04-20T13:15:33.532Z</time></trkpt><trkpt lat="40.8609333" lon="14.2577017"><ele>68.0</ele><time>2026-04-20T13:15:37.535Z</time></trkpt><trkpt lat="40.8609217" lon="14.257565"><ele>68.0</ele><time>2026-04-20T13:15:40.533Z</time></trkpt><trkpt lat="40.86088" lon="14.25745"><ele>68.0</ele><time>2026-04-20T13:15:42.533Z</time></trkpt><trkpt lat="40.8608133" lon="14.2573533"><ele>68.0</ele><time>2026-04-20T13:15:44.532Z</time></trkpt><trkpt lat="40.8607617" lon="14.2572583"><ele>68.0</ele><time>2026-04-20T13:15:46.533Z</time></trkpt><trkpt lat="40.8607217" lon="14.2571817"><ele>67.83333333333334</ele><time>2026-04-20T13:15:48.531Z</time></trkpt><trkpt lat="40.8606483" lon="14.2571617"><ele>67.66666666666667</ele><time>2026-04-20T13:15:51.531Z</time></trkpt><trkpt lat="40.8605567" lon="14.25709"><ele>67.5</ele><time>2026-04-20T13:15:54.533Z</time></trkpt><trkpt lat="40.8604783" lon="14.2570683"><ele>67.33333333333333</ele><time>2026-04-20T13:15:56.533Z</time></trkpt><trkpt lat="40.86041" lon="14.2570417"><ele>67.16666666666666</ele><time>2026-04-20T13:15:58.533Z</time></trkpt><trkpt lat="40.8603533" lon="14.2569933"><ele>67.0</ele><time>2026-04-20T13:16:02.534Z</time></trkpt><trkpt lat="40.8604217" lon="14.2569217"><ele>67.0</ele><time>2026-04-20T13:16:10.533Z</time></trkpt><trkpt lat="40.8604967" lon="14.25692"><ele>67.0</ele><time>2026-04-20T13:16:12.532Z</time></trkpt><trkpt lat="40.8605833" lon="14.25695"><ele>67.0</ele><time>2026-04-20T13:16:15.533Z</time></trkpt><trkpt lat="40.8606367" lon="14.2570033"><ele>67.0</ele><time>2026-04-20T13:16:17.534Z</time></trkpt><trkpt lat="40.8607067" lon="14.2570883"><ele>67.0</ele><time>2026-04-20T13:16:20.531Z</time></trkpt><trkpt lat="40.8606483" lon="14.2570517"><ele>67.0</ele><time>2026-04-20T13:16:27.533Z</time></trkpt><trkpt lat="40.8605333" lon="14.2570267"><ele>67.0</ele><time>2026-04-20T13:16:29.533Z</time></trkpt><trkpt lat="40.860465" lon="14.2570183"><ele>67.0</ele><time>2026-04-20T13:16:30.533Z</time></trkpt><trkpt lat="40.8603833" lon="14.2570767"><ele>67.0</ele><time>2026-04-20T13:16:32.531Z</time></trkpt><trkpt lat="40.8603033" lon="14.2571517"><ele>67.0</ele><time>2026-04-20T13:16:34.533Z</time></trkpt><trkpt lat="40.8602267" lon="14.257215"><ele>67.0</ele><time>2026-04-20T13:16:36.533Z</time></trkpt><trkpt lat="40.8601417" lon="14.2572883"><ele>66.66666666666666</ele><time>2026-04-20T13:16:38.531Z</time></trkpt><trkpt lat="40.860095" lon="14.2573767"><ele>66.33333333333333</ele><time>2026-04-20T13:16:40.533Z</time></trkpt><trkpt lat="40.8600417" lon="14.2574683"><ele>66.0</ele><time>2026-04-20T13:16:43.535Z</time></trkpt><trkpt lat="40.8599717" lon="14.2575283"><ele>65.66666666666667</ele><time>2026-04-20T13:16:45.534Z</time></trkpt><trkpt lat="40.8598933" lon="14.2575767"><ele>65.33333333333334</ele><time>2026-04-20T13:16:47.533Z</time></trkpt><trkpt lat="40.8598283" lon="14.25761"><ele>65.0</ele><time>2026-04-20T13:16:50.534Z</time></trkpt><trkpt lat="40.8598517" lon="14.2577017"><ele>65.0</ele><time>2026-04-20T13:16:56.533Z</time></trkpt><trkpt lat="40.8598867" lon="14.2575583"><ele>65.0</ele><time>2026-04-20T13:17:09.533Z</time></trkpt><trkpt lat="40.8598717" lon="14.2574533"><ele>65.0</ele><time>2026-04-20T13:17:13.534Z</time></trkpt><trkpt lat="40.8599083" lon="14.25737"><ele>65.0</ele><time>2026-04-20T13:17:15.534Z</time></trkpt><trkpt lat="40.85995" lon="14.257245"><ele>65.0</ele><time>2026-04-20T13:17:18.534Z</time></trkpt><trkpt lat="40.8599983" lon="14.25718"><ele>65.0</ele><time>2026-04-20T13:17:20.533Z</time></trkpt><trkpt lat="40.8600717" lon="14.257205"><ele>65.33333333333334</ele><time>2026-04-20T13:17:23.534Z</time></trkpt><trkpt lat="40.8601417" lon="14.2572467"><ele>65.66666666666667</ele><time>2026-04-20T13:17:25.533Z</time></trkpt><trkpt lat="40.8601617" lon="14.2571667"><ele>66.0</ele><time>2026-04-20T13:17:28.533Z</time></trkpt><trkpt lat="40.8601767" lon="14.257065"><ele>66.33333333333333</ele><time>2026-04-20T13:17:31.534Z</time></trkpt><trkpt lat="40.86024" lon="14.257005"><ele>66.66666666666666</ele><time>2026-04-20T13:17:34.536Z</time></trkpt><trkpt lat="40.8602717" lon="14.2569217"><ele>67.0</ele><time>2026-04-20T13:17:37.534Z</time></trkpt><trkpt lat="40.860415" lon="14.2569833"><ele>67.0</ele><time>2026-04-20T13:17:45.535Z</time></trkpt><trkpt lat="40.8605117" lon="14.2571683"><ele>67.0</ele><time>2026-04-20T13:17:47.538Z</time></trkpt><trkpt lat="40.8605867" lon="14.2573267"><ele>67.0</ele><time>2026-04-20T13:17:50.532Z</time></trkpt><trkpt lat="40.8605367" lon="14.25714"><ele>67.0</ele><time>2026-04-20T13:17:58.534Z</time></trkpt><trkpt lat="40.860465" lon="14.2570483"><ele>67.0</ele><time>2026-04-20T13:18:00.535Z</time></trkpt><trkpt lat="40.86041" lon="14.25699"><ele>67.0</ele><time>2026-04-20T13:18:03.535Z</time></trkpt><trkpt lat="40.860385" lon="14.2568983"><ele>67.0</ele><time>2026-04-20T13:18:06.534Z</time></trkpt><trkpt lat="40.860365" lon="14.2567983"><ele>67.0</ele><time>2026-04-20T13:18:10.534Z</time></trkpt><trkpt lat="40.8603583" lon="14.2567067"><ele>67.0</ele><time>2026-04-20T13:18:12.534Z</time></trkpt><trkpt lat="40.8604017" lon="14.2566333"><ele>67.0</ele><time>2026-04-20T13:18:15.534Z</time></trkpt><trkpt lat="40.8604683" lon="14.2566567"><ele>67.0</ele><time>2026-04-20T13:18:18.533Z</time></trkpt><trkpt lat="40.8605233" lon="14.2567267"><ele>67.0</ele><time>2026-04-20T13:18:20.532Z</time></trkpt><trkpt lat="40.8605883" lon="14.2568133"><ele>67.0</ele><time>2026-04-20T13:18:22.533Z</time></trkpt><trkpt lat="40.8606367" lon="14.256895"><ele>67.0</ele><time>2026-04-20T13:18:24.535Z</time></trkpt><trkpt lat="40.8606983" lon="14.257025"><ele>67.0</ele><time>2026-04-20T13:18:27.533Z</time></trkpt><trkpt lat="40.8607283" lon="14.2571317"><ele>67.0</ele><time>2026-04-20T13:18:29.539Z</time></trkpt><trkpt lat="40.860775" lon="14.2571917"><ele>67.0</ele><time>2026-04-20T13:18:31.536Z</time></trkpt><trkpt lat="40.8608233" lon="14.257265"><ele>67.0</ele><time>2026-04-20T13:18:34.537Z</time></trkpt><trkpt lat="40.860935" lon="14.257185"><ele>67.0</ele><time>2026-04-20T13:18:55.534Z</time></trkpt><trkpt lat="40.8609967" lon="14.2571233"><ele>67.0</ele><time>2026-04-20T13:18:57.535Z</time></trkpt><trkpt lat="40.8610617" lon="14.2570817"><ele>67.0</ele><time>2026-04-20T13:19:00.534Z</time></trkpt><trkpt lat="40.8611483" lon="14.2570717"><ele>68.33333333333333</ele><time>2026-04-20T13:19:03.535Z</time></trkpt><trkpt lat="40.861215" lon="14.2570967"><ele>69.66666666666666</ele><time>2026-04-20T13:19:05.537Z</time></trkpt><trkpt lat="40.8612917" lon="14.25712"><ele>71.0</ele><time>2026-04-20T13:19:07.537Z</time></trkpt><trkpt lat="40.8613533" lon="14.2571833"><ele>72.33333333333333</ele><time>2026-04-20T13:19:11.535Z</time></trkpt><trkpt lat="40.8614033" lon="14.2572883"><ele>73.66666666666667</ele><time>2026-04-20T13:19:12.537Z</time></trkpt><trkpt lat="40.861455" lon="14.2573467"><ele>75.0</ele><time>2026-04-20T13:19:15.535Z</time></trkpt><trkpt lat="40.8614683" lon="14.25746"><ele>75.0</ele><time>2026-04-20T13:19:18.535Z</time></trkpt><trkpt lat="40.861515" lon="14.25755"><ele>75.0</ele><time>2026-04-20T13:19:22.536Z</time></trkpt><trkpt lat="40.8615867" lon="14.257605"><ele>75.0</ele><time>2026-04-20T13:19:25.536Z</time></trkpt><trkpt lat="40.8616433" lon="14.25769"><ele>75.0</ele><time>2026-04-20T13:19:27.534Z</time></trkpt><trkpt lat="40.861675" lon="14.257765"><ele>75.0</ele><time>2026-04-20T13:19:29.535Z</time></trkpt><trkpt lat="40.86173" lon="14.2578633"><ele>75.0</ele><time>2026-04-20T13:19:33.534Z</time></trkpt><trkpt lat="40.86178" lon="14.2579183"><ele>78.5</ele><time>2026-04-20T13:19:35.535Z</time></trkpt><trkpt lat="40.8618617" lon="14.2579617"><ele>82.0</ele><time>2026-04-20T13:19:37.533Z</time></trkpt><trkpt lat="40.8619183" lon="14.2580367"><ele>85.5</ele><time>2026-04-20T13:19:40.534Z</time></trkpt><trkpt lat="40.8619367" lon="14.2581217"><ele>89.0</ele><time>2026-04-20T13:19:45.535Z</time></trkpt><trkpt lat="40.8619867" lon="14.25818"><ele>92.5</ele><time>2026-04-20T13:19:49.535Z</time></trkpt><trkpt lat="40.861995" lon="14.25828"><ele>96.0</ele><time>2026-04-20T13:19:54.535Z</time></trkpt><trkpt lat="40.862085" lon="14.2581517"><ele>95.99999999999999</ele><time>2026-04-20T13:20:01.535Z</time></trkpt><trkpt lat="40.86214" lon="14.2581"><ele>96.0</ele><time>2026-04-20T13:20:03.534Z</time></trkpt><trkpt lat="40.8622033" lon="14.2581033"><ele>96.0</ele><time>2026-04-20T13:20:06.534Z</time></trkpt><trkpt lat="40.862275" lon="14.2581117"><ele>96.0</ele><time>2026-04-20T13:20:10.534Z</time></trkpt><trkpt lat="40.862335" lon="14.2581933"><ele>96.0</ele><time>2026-04-20T13:20:13.534Z</time></trkpt><trkpt lat="40.8622733" lon="14.25815"><ele>95.99999999999999</ele><time>2026-04-20T13:20:33.534Z</time></trkpt><trkpt lat="40.8622367" lon="14.2580517"><ele>96.0</ele><time>2026-04-20T13:20:41.534Z</time></trkpt><trkpt lat="40.86221" lon="14.2579733"><ele>97.66666666666667</ele><time>2026-04-20T13:20:46.533Z</time></trkpt><trkpt lat="40.8621633" lon="14.25788"><ele>99.33333333333334</ele><time>2026-04-20T13:20:50.534Z</time></trkpt><trkpt lat="40.8621317" lon="14.2578"><ele>101.0</ele><time>2026-04-20T13:20:54.534Z</time></trkpt><trkpt lat="40.8621433" lon="14.2576667"><ele>102.66666666666667</ele><time>2026-04-20T13:21:07.534Z</time></trkpt><trkpt lat="40.8622117" lon="14.2577383"><ele>104.33333333333334</ele><time>2026-04-20T13:21:17.535Z</time></trkpt><trkpt lat="40.8622533" lon="14.2578017"><ele>106.0</ele><time>2026-04-20T13:21:21.535Z</time></trkpt><trkpt lat="40.862295" lon="14.25787"><ele>106.00000000000001</ele><time>2026-04-20T13:21:25.535Z</time></trkpt><trkpt lat="40.8623333" lon="14.2579583"><ele>106.0</ele><time>2026-04-20T13:21:29.535Z</time></trkpt><trkpt lat="40.86239" lon="14.2580383"><ele>106.0</ele><time>2026-04-20T13:21:33.534Z</time></trkpt><trkpt lat="40.8624467" lon="14.258095"><ele>106.0</ele><time>2026-04-20T13:21:36.533Z</time></trkpt><trkpt lat="40.8624983" lon="14.2581683"><ele>106.00000000000001</ele><time>2026-04-20T13:21:39.534Z</time></trkpt><trkpt lat="40.8625417" lon="14.2582367"><ele>106.0</ele><time>2026-04-20T13:21:42.534Z</time></trkpt><trkpt lat="40.86262" lon="14.25827"><ele>107.0</ele><time>2026-04-20T13:21:48.536Z</time></trkpt><trkpt lat="40.862705" lon="14.2582617"><ele>108.0</ele><time>2026-04-20T13:21:51.536Z</time></trkpt><trkpt lat="40.86275" lon="14.2581967"><ele>109.0</ele><time>2026-04-20T13:21:56.536Z</time></trkpt><trkpt lat="40.8627633" lon="14.25811"><ele>110.0</ele><time>2026-04-20T13:22:02.536Z</time></trkpt><trkpt lat="40.8627767" lon="14.258025"><ele>111.0</ele><time>2026-04-20T13:22:07.535Z</time></trkpt><trkpt lat="40.86274" lon="14.2579383"><ele>112.0</ele><time>2026-04-20T13:22:13.534Z</time></trkpt><trkpt lat="40.8627017" lon="14.2578383"><ele>113.0</ele><time>2026-04-20T13:22:17.536Z</time></trkpt><trkpt lat="40.862675" lon="14.2577567"><ele>113.42857142857143</ele><time>2026-04-20T13:22:20.535Z</time></trkpt><trkpt lat="40.8626467" lon="14.25768"><ele>113.85714285714286</ele><time>2026-04-20T13:22:23.533Z</time></trkpt><trkpt lat="40.8626133" lon="14.2575867"><ele>114.28571428571429</ele><time>2026-04-20T13:22:27.534Z</time></trkpt><trkpt lat="40.8625817" lon="14.2575117"><ele>114.71428571428572</ele><time>2026-04-20T13:22:31.535Z</time></trkpt><trkpt lat="40.8625533" lon="14.2574267"><ele>115.14285714285714</ele><time>2026-04-20T13:22:35.534Z</time></trkpt><trkpt lat="40.86253" lon="14.2573467"><ele>115.57142857142858</ele><time>2026-04-20T13:22:38.532Z</time></trkpt><trkpt lat="40.8625067" lon="14.2572517"><ele>116.00000000000001</ele><time>2026-04-20T13:22:42.536Z</time></trkpt><trkpt lat="40.8625017" lon="14.2571583"><ele>116.00000000000001</ele><time>2026-04-20T13:22:46.535Z</time></trkpt><trkpt lat="40.8625383" lon="14.2570867"><ele>116.0</ele><time>2026-04-20T13:22:49.535Z</time></trkpt><trkpt lat="40.86258" lon="14.2570083"><ele>116.00000000000001</ele><time>2026-04-20T13:22:53.535Z</time></trkpt><trkpt lat="40.8626517" lon="14.2570267"><ele>116.00000000000001</ele><time>2026-04-20T13:23:00.535Z</time></trkpt><trkpt lat="40.8626933" lon="14.2571017"><ele>116.0</ele><time>2026-04-20T13:23:03.533Z</time></trkpt><trkpt lat="40.862735" lon="14.25717"><ele>116.00000000000001</ele><time>2026-04-20T13:23:06.535Z</time></trkpt><trkpt lat="40.8627733" lon="14.2572517"><ele>116.00000000000001</ele><time>2026-04-20T13:23:10.534Z</time></trkpt><trkpt lat="40.8628" lon="14.2573333"><ele>117.66666666666666</ele><time>2026-04-20T13:23:13.535Z</time></trkpt><trkpt lat="40.8628467" lon="14.25741"><ele>119.33333333333333</ele><time>2026-04-20T13:23:16.535Z</time></trkpt><trkpt lat="40.8629" lon="14.2574767"><ele>121.0</ele><time>2026-04-20T13:23:19.535Z</time></trkpt><trkpt lat="40.862945" lon="14.25756"><ele>122.66666666666666</ele><time>2026-04-20T13:23:23.533Z</time></trkpt><trkpt lat="40.8629883" lon="14.25766"><ele>124.33333333333333</ele><time>2026-04-20T13:23:26.533Z</time></trkpt><trkpt lat="40.8630383" lon="14.25776"><ele>126.0</ele><time>2026-04-20T13:23:29.536Z</time></trkpt><trkpt lat="40.86309" lon="14.2578467"><ele>126.0</ele><time>2026-04-20T13:23:32.536Z</time></trkpt><trkpt lat="40.86317" lon="14.2578867"><ele>126.0</ele><time>2026-04-20T13:23:35.535Z</time></trkpt><trkpt lat="40.8632517" lon="14.2578833"><ele>126.0</ele><time>2026-04-20T13:23:38.535Z</time></trkpt><trkpt lat="40.863315" lon="14.2578733"><ele>126.0</ele><time>2026-04-20T13:23:40.533Z</time></trkpt><trkpt lat="40.8633933" lon="14.2578483"><ele>126.0</ele><time>2026-04-20T13:23:43.536Z</time></trkpt><trkpt lat="40.863465" lon="14.257815"><ele>126.0</ele><time>2026-04-20T13:23:47.536Z</time></trkpt><trkpt lat="40.8635067" lon="14.2577333"><ele>127.42857142857143</ele><time>2026-04-20T13:23:52.533Z</time></trkpt><trkpt lat="40.8635067" lon="14.25765"><ele>128.85714285714286</ele><time>2026-04-20T13:23:56.533Z</time></trkpt><trkpt lat="40.863505" lon="14.2575433"><ele>130.28571428571428</ele><time>2026-04-20T13:24:00.536Z</time></trkpt><trkpt lat="40.8635117" lon="14.2574467"><ele>131.71428571428572</ele><time>2026-04-20T13:24:04.534Z</time></trkpt><trkpt lat="40.8635767" lon="14.257395"><ele>133.14285714285714</ele><time>2026-04-20T13:24:07.533Z</time></trkpt><trkpt lat="40.863635" lon="14.2573567"><ele>134.57142857142856</ele><time>2026-04-20T13:24:09.536Z</time></trkpt><trkpt lat="40.8637167" lon="14.25732"><ele>136.0</ele><time>2026-04-20T13:24:12.533Z</time></trkpt><trkpt lat="40.8638117" lon="14.2572667"><ele>135.99999999999997</ele><time>2026-04-20T13:24:15.536Z</time></trkpt><trkpt lat="40.8638917" lon="14.2572383"><ele>136.0</ele><time>2026-04-20T13:24:17.534Z</time></trkpt><trkpt lat="40.86395" lon="14.2572933"><ele>136.0</ele><time>2026-04-20T13:24:20.535Z</time></trkpt><trkpt lat="40.8640033" lon="14.257375"><ele>136.0</ele><time>2026-04-20T13:24:23.536Z</time></trkpt><trkpt lat="40.864045" lon="14.2574433"><ele>136.0</ele><time>2026-04-20T13:24:25.536Z</time></trkpt><trkpt lat="40.8641067" lon="14.2574617"><ele>135.99999999999997</ele><time>2026-04-20T13:24:33.534Z</time></trkpt><trkpt lat="40.8641483" lon="14.2573933"><ele>136.0</ele><time>2026-04-20T13:24:36.533Z</time></trkpt><trkpt lat="40.864215" lon="14.2573283"><ele>137.33333333333334</ele><time>2026-04-20T13:24:39.533Z</time></trkpt><trkpt lat="40.8642767" lon="14.2572667"><ele>138.66666666666669</ele><time>2026-04-20T13:24:42.535Z</time></trkpt><trkpt lat="40.8643283" lon="14.2572"><ele>140.0</ele><time>2026-04-20T13:24:45.535Z</time></trkpt><trkpt lat="40.864375" lon="14.2571367"><ele>141.33333333333334</ele><time>2026-04-20T13:24:48.532Z</time></trkpt><trkpt lat="40.8644283" lon="14.2570567"><ele>142.66666666666666</ele><time>2026-04-20T13:24:51.534Z</time></trkpt><trkpt lat="40.864475" lon="14.2569633"><ele>144.0</ele><time>2026-04-20T13:24:53.536Z</time></trkpt><trkpt lat="40.8645317" lon="14.25686"><ele>142.0</ele><time>2026-04-20T13:24:55.536Z</time></trkpt><trkpt lat="40.864585" lon="14.2567383"><ele>140.0</ele><time>2026-04-20T13:24:57.534Z</time></trkpt><trkpt lat="40.8646333" lon="14.2566333"><ele>138.0</ele><time>2026-04-20T13:24:59.536Z</time></trkpt><trkpt lat="40.8646767" lon="14.25655"><ele>136.0</ele><time>2026-04-20T13:25:01.536Z</time></trkpt><trkpt lat="40.8647283" lon="14.2564733"><ele>134.0</ele><time>2026-04-20T13:25:03.536Z</time></trkpt><trkpt lat="40.8647683" lon="14.2564017"><ele>132.0</ele><time>2026-04-20T13:25:05.534Z</time></trkpt><trkpt lat="40.8647883" lon="14.25629"><ele>132.0</ele><time>2026-04-20T13:25:08.536Z</time></trkpt><trkpt lat="40.8647967" lon="14.25617"><ele>132.0</ele><time>2026-04-20T13:25:11.536Z</time></trkpt><trkpt lat="40.8647983" lon="14.2560833"><ele>132.0</ele><time>2026-04-20T13:25:13.535Z</time></trkpt><trkpt lat="40.8648033" lon="14.2559933"><ele>132.0</ele><time>2026-04-20T13:25:15.534Z</time></trkpt><trkpt lat="40.8648217" lon="14.2558983"><ele>132.0</ele><time>2026-04-20T13:25:17.534Z</time></trkpt><trkpt lat="40.86484" lon="14.25581"><ele>132.0</ele><time>2026-04-20T13:25:19.536Z</time></trkpt><trkpt lat="40.864855" lon="14.2557167"><ele>132.0</ele><time>2026-04-20T13:25:21.534Z</time></trkpt><trkpt lat="40.86487" lon="14.2556233"><ele>133.5</ele><time>2026-04-20T13:25:23.535Z</time></trkpt><trkpt lat="40.864875" lon="14.2555317"><ele>135.0</ele><time>2026-04-20T13:25:25.534Z</time></trkpt><trkpt lat="40.8648783" lon="14.2554417"><ele>136.5</ele><time>2026-04-20T13:25:27.535Z</time></trkpt><trkpt lat="40.8648833" lon="14.2553233"><ele>138.0</ele><time>2026-04-20T13:25:30.536Z</time></trkpt><trkpt lat="40.8648583" lon="14.2552083"><ele>139.5</ele><time>2026-04-20T13:25:33.533Z</time></trkpt><trkpt lat="40.8648467" lon="14.2551217"><ele>141.0</ele><time>2026-04-20T13:25:36.536Z</time></trkpt><trkpt lat="40.8648717" lon="14.25524"><ele>141.0</ele><time>2026-04-20T13:25:46.536Z</time></trkpt><trkpt lat="40.864885" lon="14.255355"><ele>141.0</ele><time>2026-04-20T13:25:49.536Z</time></trkpt><trkpt lat="40.8648817" lon="14.2554833"><ele>141.0</ele><time>2026-04-20T13:25:52.536Z</time></trkpt><trkpt lat="40.86487" lon="14.25558"><ele>141.0</ele><time>2026-04-20T13:25:54.536Z</time></trkpt><trkpt lat="40.864855" lon="14.255665"><ele>141.0</ele><time>2026-04-20T13:25:56.535Z</time></trkpt><trkpt lat="40.8648667" lon="14.2557533"><ele>141.0</ele><time>2026-04-20T13:26:26.535Z</time></trkpt><trkpt lat="40.8648667" lon="14.255905"><ele>139.5</ele><time>2026-04-20T13:27:27.534Z</time></trkpt><trkpt lat="40.864855" lon="14.255995"><ele>138.0</ele><time>2026-04-20T13:27:30.534Z</time></trkpt><trkpt lat="40.864835" lon="14.2561217"><ele>136.5</ele><time>2026-04-20T13:27:33.535Z</time></trkpt><trkpt lat="40.864815" lon="14.2562367"><ele>135.0</ele><time>2026-04-20T13:27:35.536Z</time></trkpt><trkpt lat="40.8647917" lon="14.2563667"><ele>133.5</ele><time>2026-04-20T13:27:37.538Z</time></trkpt><trkpt lat="40.864755" lon="14.256435"><ele>132.0</ele><time>2026-04-20T13:27:38.535Z</time></trkpt><trkpt lat="40.86469" lon="14.2565633"><ele>131.16666666666666</ele><time>2026-04-20T13:27:40.536Z</time></trkpt><trkpt lat="40.8646433" lon="14.2567233"><ele>130.33333333333334</ele><time>2026-04-20T13:27:42.535Z</time></trkpt><trkpt lat="40.8646233" lon="14.25681"><ele>129.5</ele><time>2026-04-20T13:27:43.535Z</time></trkpt><trkpt lat="40.8646" lon="14.2568933"><ele>128.66666666666669</ele><time>2026-04-20T13:27:44.535Z</time></trkpt><trkpt lat="40.86458" lon="14.25698"><ele>127.83333333333334</ele><time>2026-04-20T13:27:45.535Z</time></trkpt><trkpt lat="40.8645467" lon="14.2570683"><ele>127.0</ele><time>2026-04-20T13:27:46.535Z</time></trkpt><trkpt lat="40.8645" lon="14.2571533"><ele>127.00000000000001</ele><time>2026-04-20T13:27:47.536Z</time></trkpt><trkpt lat="40.8644567" lon="14.2572233"><ele>127.0</ele><time>2026-04-20T13:27:48.535Z</time></trkpt><trkpt lat="40.86442" lon="14.2573333"><ele>127.0</ele><time>2026-04-20T13:27:50.536Z</time></trkpt><trkpt lat="40.8643633" lon="14.2574117"><ele>127.0</ele><time>2026-04-20T13:27:52.536Z</time></trkpt><trkpt lat="40.8642933" lon="14.2574883"><ele>127.00000000000001</ele><time>2026-04-20T13:27:54.534Z</time></trkpt><trkpt lat="40.864245" lon="14.25758"><ele>127.0</ele><time>2026-04-20T13:27:56.535Z</time></trkpt><trkpt lat="40.8642033" lon="14.2576433"><ele>128.28571428571428</ele><time>2026-04-20T13:27:58.535Z</time></trkpt><trkpt lat="40.8641583" lon="14.2577367"><ele>129.57142857142856</ele><time>2026-04-20T13:28:01.535Z</time></trkpt><trkpt lat="40.8641" lon="14.2576767"><ele>130.85714285714283</ele><time>2026-04-20T13:28:16.533Z</time></trkpt><trkpt lat="40.8640933" lon="14.2575717"><ele>132.14285714285714</ele><time>2026-04-20T13:28:21.535Z</time></trkpt><trkpt lat="40.8640583" lon="14.2574883"><ele>133.42857142857142</ele><time>2026-04-20T13:28:27.534Z</time></trkpt><trkpt lat="40.8640017" lon="14.2574267"><ele>134.7142857142857</ele><time>2026-04-20T13:28:30.536Z</time></trkpt><trkpt lat="40.8639617" lon="14.2573617"><ele>136.0</ele><time>2026-04-20T13:28:32.536Z</time></trkpt><trkpt lat="40.8639033" lon="14.2573183"><ele>135.99999999999997</ele><time>2026-04-20T13:28:34.535Z</time></trkpt><trkpt lat="40.86384" lon="14.2572917"><ele>136.0</ele><time>2026-04-20T13:28:36.536Z</time></trkpt><trkpt lat="40.8637767" lon="14.2572983"><ele>136.0</ele><time>2026-04-20T13:28:38.535Z</time></trkpt><trkpt lat="40.8637183" lon="14.2573333"><ele>136.0</ele><time>2026-04-20T13:28:40.535Z</time></trkpt><trkpt lat="40.8636383" lon="14.2573633"><ele>136.0</ele><time>2026-04-20T13:28:42.534Z</time></trkpt><trkpt lat="40.8635683" lon="14.257415"><ele>135.99999999999997</ele><time>2026-04-20T13:28:44.535Z</time></trkpt><trkpt lat="40.8635383" lon="14.2575"><ele>136.0</ele><time>2026-04-20T13:28:46.534Z</time></trkpt><trkpt lat="40.863525" lon="14.2576117"><ele>136.0</ele><time>2026-04-20T13:28:48.534Z</time></trkpt><trkpt lat="40.8635" lon="14.2577283"><ele>136.0</ele><time>2026-04-20T13:28:50.535Z</time></trkpt><trkpt lat="40.8634367" lon="14.2578083"><ele>136.0</ele><time>2026-04-20T13:28:52.532Z</time></trkpt><trkpt lat="40.8633417" lon="14.2578683"><ele>136.0</ele><time>2026-04-20T13:28:54.535Z</time></trkpt><trkpt lat="40.8632267" lon="14.2578833"><ele>136.0</ele><time>2026-04-20T13:28:56.534Z</time></trkpt><trkpt lat="40.863125" lon="14.257845"><ele>133.5</ele><time>2026-04-20T13:28:58.536Z</time></trkpt><trkpt lat="40.8630383" lon="14.2577467"><ele>131.0</ele><time>2026-04-20T13:29:00.536Z</time></trkpt><trkpt lat="40.86296" lon="14.2576283"><ele>128.5</ele><time>2026-04-20T13:29:02.536Z</time></trkpt><trkpt lat="40.8629" lon="14.25751"><ele>126.0</ele><time>2026-04-20T13:29:04.534Z</time></trkpt><trkpt lat="40.8628367" lon="14.2573867"><ele>124.33333333333333</ele><time>2026-04-20T13:29:06.535Z</time></trkpt><trkpt lat="40.8627683" lon="14.2572683"><ele>122.66666666666666</ele><time>2026-04-20T13:29:08.535Z</time></trkpt><trkpt lat="40.8627083" lon="14.25718"><ele>121.0</ele><time>2026-04-20T13:29:10.536Z</time></trkpt><trkpt lat="40.86266" lon="14.2570883"><ele>119.33333333333333</ele><time>2026-04-20T13:29:12.534Z</time></trkpt><trkpt lat="40.8625867" lon="14.257035"><ele>117.66666666666666</ele><time>2026-04-20T13:29:15.534Z</time></trkpt><trkpt lat="40.8625167" lon="14.2570583"><ele>116.0</ele><time>2026-04-20T13:29:17.535Z</time></trkpt><trkpt lat="40.86247" lon="14.2571483"><ele>115.99999999999999</ele><time>2026-04-20T13:29:19.534Z</time></trkpt><trkpt lat="40.8625017" lon="14.2572733"><ele>116.0</ele><time>2026-04-20T13:29:21.534Z</time></trkpt><trkpt lat="40.86253" lon="14.25735"><ele>116.0</ele><time>2026-04-20T13:29:22.535Z</time></trkpt><trkpt lat="40.862555" lon="14.257435"><ele>116.0</ele><time>2026-04-20T13:29:23.536Z</time></trkpt><trkpt lat="40.86258" lon="14.2575133"><ele>115.99999999999999</ele><time>2026-04-20T13:29:24.536Z</time></trkpt><trkpt lat="40.8626267" lon="14.2576583"><ele>116.0</ele><time>2026-04-20T13:29:26.534Z</time></trkpt><trkpt lat="40.8626633" lon="14.2577933"><ele>115.49999999999999</ele><time>2026-04-20T13:29:28.535Z</time></trkpt><trkpt lat="40.8626883" lon="14.2579133"><ele>115.0</ele><time>2026-04-20T13:29:30.534Z</time></trkpt><trkpt lat="40.86271" lon="14.25802"><ele>114.5</ele><time>2026-04-20T13:29:32.536Z</time></trkpt><trkpt lat="40.862735" lon="14.258115"><ele>114.0</ele><time>2026-04-20T13:29:34.537Z</time></trkpt><trkpt lat="40.8627667" lon="14.2581967"><ele>113.49999999999999</ele><time>2026-04-20T13:29:36.536Z</time></trkpt><trkpt lat="40.8627867" lon="14.258325"><ele>113.0</ele><time>2026-04-20T13:29:39.535Z</time></trkpt><trkpt lat="40.8627417" lon="14.2583983"><ele>113.0</ele><time>2026-04-20T13:29:41.535Z</time></trkpt><trkpt lat="40.8626533" lon="14.2583817"><ele>113.00000000000001</ele><time>2026-04-20T13:29:44.535Z</time></trkpt><trkpt lat="40.8625967" lon="14.2582933"><ele>113.00000000000001</ele><time>2026-04-20T13:29:46.536Z</time></trkpt><trkpt lat="40.8625317" lon="14.2581717"><ele>113.0</ele><time>2026-04-20T13:29:48.536Z</time></trkpt><trkpt lat="40.862475" lon="14.258055"><ele>113.0</ele><time>2026-04-20T13:29:50.534Z</time></trkpt><trkpt lat="40.8624267" lon="14.2579483"><ele>111.83333333333333</ele><time>2026-04-20T13:29:52.536Z</time></trkpt><trkpt lat="40.8623967" lon="14.2578667"><ele>110.66666666666666</ele><time>2026-04-20T13:29:54.536Z</time></trkpt><trkpt lat="40.8623583" lon="14.2577867"><ele>109.5</ele><time>2026-04-20T13:29:56.534Z</time></trkpt><trkpt lat="40.862315" lon="14.2577"><ele>108.33333333333334</ele><time>2026-04-20T13:29:58.535Z</time></trkpt><trkpt lat="40.86227" lon="14.2576167"><ele>107.16666666666667</ele><time>2026-04-20T13:30:00.536Z</time></trkpt><trkpt lat="40.8622267" lon="14.257525"><ele>106.0</ele><time>2026-04-20T13:30:03.534Z</time></trkpt><trkpt lat="40.8622233" lon="14.2576317"><ele>106.00000000000001</ele><time>2026-04-20T13:30:09.536Z</time></trkpt><trkpt lat="40.8622583" lon="14.2577233"><ele>106.0</ele><time>2026-04-20T13:30:10.535Z</time></trkpt><trkpt lat="40.8622883" lon="14.25781"><ele>106.0</ele><time>2026-04-20T13:30:11.536Z</time></trkpt><trkpt lat="40.8623217" lon="14.2578967"><ele>106.0</ele><time>2026-04-20T13:30:12.536Z</time></trkpt><trkpt lat="40.8623517" lon="14.2579783"><ele>106.00000000000001</ele><time>2026-04-20T13:30:13.534Z</time></trkpt><trkpt lat="40.8623983" lon="14.258115"><ele>106.0</ele><time>2026-04-20T13:30:15.533Z</time></trkpt><trkpt lat="40.8624467" lon="14.2582317"><ele>104.33333333333334</ele><time>2026-04-20T13:30:17.534Z</time></trkpt><trkpt lat="40.8624933" lon="14.258325"><ele>102.66666666666667</ele><time>2026-04-20T13:30:19.535Z</time></trkpt><trkpt lat="40.8624433" lon="14.2583933"><ele>101.0</ele><time>2026-04-20T13:30:25.536Z</time></trkpt><trkpt lat="40.8623717" lon="14.258375"><ele>99.33333333333334</ele><time>2026-04-20T13:30:27.534Z</time></trkpt><trkpt lat="40.8622767" lon="14.25837"><ele>97.66666666666667</ele><time>2026-04-20T13:30:29.535Z</time></trkpt><trkpt lat="40.8621733" lon="14.2583517"><ele>96.0</ele><time>2026-04-20T13:30:31.536Z</time></trkpt><trkpt lat="40.8620767" lon="14.2582917"><ele>96.0</ele><time>2026-04-20T13:30:33.533Z</time></trkpt><trkpt lat="40.862" lon="14.25818"><ele>96.0</ele><time>2026-04-20T13:30:35.536Z</time></trkpt><trkpt lat="40.8619617" lon="14.258105"><ele>96.0</ele><time>2026-04-20T13:30:36.535Z</time></trkpt><trkpt lat="40.8619317" lon="14.2580283"><ele>96.0</ele><time>2026-04-20T13:30:37.535Z</time></trkpt><trkpt lat="40.8618717" lon="14.2578933"><ele>96.0</ele><time>2026-04-20T13:30:39.535Z</time></trkpt><trkpt lat="40.8618" lon="14.25778"><ele>92.5</ele><time>2026-04-20T13:30:41.535Z</time></trkpt><trkpt lat="40.8617467" lon="14.2577033"><ele>89.0</ele><time>2026-04-20T13:30:43.535Z</time></trkpt><trkpt lat="40.861665" lon="14.2576283"><ele>85.5</ele><time>2026-04-20T13:30:46.535Z</time></trkpt><trkpt lat="40.8615933" lon="14.2576233"><ele>82.0</ele><time>2026-04-20T13:30:48.535Z</time></trkpt><trkpt lat="40.8615283" lon="14.2576083"><ele>78.5</ele><time>2026-04-20T13:30:53.537Z</time></trkpt><trkpt lat="40.861495" lon="14.2575217"><ele>75.0</ele><time>2026-04-20T13:30:56.534Z</time></trkpt><trkpt lat="40.8614617" lon="14.2574317"><ele>75.0</ele><time>2026-04-20T13:30:58.535Z</time></trkpt><trkpt lat="40.86141" lon="14.2573517"><ele>75.0</ele><time>2026-04-20T13:31:00.536Z</time></trkpt><trkpt lat="40.861355" lon="14.2572767"><ele>75.0</ele><time>2026-04-20T13:31:02.535Z</time></trkpt><trkpt lat="40.8612717" lon="14.25725"><ele>75.0</ele><time>2026-04-20T13:31:04.535Z</time></trkpt><trkpt lat="40.861205" lon="14.2572467"><ele>75.0</ele><time>2026-04-20T13:31:06.536Z</time></trkpt><trkpt lat="40.8611267" lon="14.2572717"><ele>75.0</ele><time>2026-04-20T13:31:08.535Z</time></trkpt><trkpt lat="40.86107" lon="14.257355"><ele>75.0</ele><time>2026-04-20T13:31:10.533Z</time></trkpt><trkpt lat="40.86102" lon="14.2574467"><ele>75.0</ele><time>2026-04-20T13:31:12.535Z</time></trkpt><trkpt lat="40.8609633" lon="14.2574967"><ele>75.0</ele><time>2026-04-20T13:31:19.535Z</time></trkpt><trkpt lat="40.8609317" lon="14.25742"><ele>75.0</ele><time>2026-04-20T13:31:21.535Z</time></trkpt><trkpt lat="40.860895" lon="14.2573483"><ele>75.0</ele><time>2026-04-20T13:31:23.536Z</time></trkpt><trkpt lat="40.8608267" lon="14.2572833"><ele>75.0</ele><time>2026-04-20T13:31:25.536Z</time></trkpt><trkpt lat="40.86076" lon="14.257205"><ele>73.66666666666667</ele><time>2026-04-20T13:31:27.533Z</time></trkpt><trkpt lat="40.8606967" lon="14.2571183"><ele>72.33333333333333</ele><time>2026-04-20T13:31:29.535Z</time></trkpt><trkpt lat="40.860625" lon="14.2570233"><ele>71.0</ele><time>2026-04-20T13:31:31.536Z</time></trkpt><trkpt lat="40.8605717" lon="14.2569283"><ele>69.66666666666666</ele><time>2026-04-20T13:31:33.535Z</time></trkpt><trkpt lat="40.8605167" lon="14.256845"><ele>68.33333333333333</ele><time>2026-04-20T13:31:35.537Z</time></trkpt><trkpt lat="40.86047" lon="14.2567617"><ele>67.0</ele><time>2026-04-20T13:31:37.535Z</time></trkpt><trkpt lat="40.8604417" lon="14.2566767"><ele>67.0</ele><time>2026-04-20T13:31:39.537Z</time></trkpt><trkpt lat="40.8604133" lon="14.2566"><ele>67.0</ele><time>2026-04-20T13:31:41.535Z</time></trkpt><trkpt lat="40.8603633" lon="14.256535"><ele>67.0</ele><time>2026-04-20T13:31:44.536Z</time></trkpt><trkpt lat="40.8602933" lon="14.2565267"><ele>67.0</ele><time>2026-04-20T13:31:48.535Z</time></trkpt><trkpt lat="40.86039" lon="14.2566017"><ele>67.0</ele><time>2026-04-20T13:32:14.535Z</time></trkpt><trkpt lat="40.860435" lon="14.2566633"><ele>67.0</ele><time>2026-04-20T13:32:15.535Z</time></trkpt><trkpt lat="40.860485" lon="14.2567317"><ele>67.0</ele><time>2026-04-20T13:32:16.535Z</time></trkpt><trkpt lat="40.860555" lon="14.25685"><ele>67.0</ele><time>2026-04-20T13:32:18.533Z</time></trkpt><trkpt lat="40.860605" lon="14.2569433"><ele>67.0</ele><time>2026-04-20T13:32:20.536Z</time></trkpt><trkpt lat="40.8606483" lon="14.2570317"><ele>67.0</ele><time>2026-04-20T13:32:24.536Z</time></trkpt><trkpt lat="40.8605717" lon="14.25698"><ele>67.0</ele><time>2026-04-20T13:32:42.535Z</time></trkpt><trkpt lat="40.8604767" lon="14.2569167"><ele>67.0</ele><time>2026-04-20T13:32:44.537Z</time></trkpt><trkpt lat="40.860355" lon="14.2569283"><ele>67.0</ele><time>2026-04-20T13:32:46.535Z</time></trkpt><trkpt lat="40.8602467" lon="14.2569733"><ele>67.0</ele><time>2026-04-20T13:32:48.535Z</time></trkpt><trkpt lat="40.8601633" lon="14.2570117"><ele>67.0</ele><time>2026-04-20T13:32:50.535Z</time></trkpt><trkpt lat="40.8600917" lon="14.2570583"><ele>67.0</ele><time>2026-04-20T13:32:52.537Z</time></trkpt><trkpt lat="40.8600033" lon="14.2570917"><ele>66.83333333333333</ele><time>2026-04-20T13:32:54.536Z</time></trkpt><trkpt lat="40.85991" lon="14.2571017"><ele>66.66666666666666</ele><time>2026-04-20T13:32:56.535Z</time></trkpt><trkpt lat="40.8598383" lon="14.257165"><ele>66.5</ele><time>2026-04-20T13:32:59.537Z</time></trkpt><trkpt lat="40.859785" lon="14.2572183"><ele>66.33333333333333</ele><time>2026-04-20T13:33:01.536Z</time></trkpt><trkpt lat="40.8597383" lon="14.2573117"><ele>66.16666666666667</ele><time>2026-04-20T13:33:03.538Z</time></trkpt><trkpt lat="40.8596833" lon="14.2573917"><ele>66.0</ele><time>2026-04-20T13:33:06.536Z</time></trkpt><trkpt lat="40.8596167" lon="14.2573433"><ele>66.0</ele><time>2026-04-20T13:33:12.538Z</time></trkpt><trkpt lat="40.8595683" lon="14.2572383"><ele>66.0</ele><time>2026-04-20T13:33:15.538Z</time></trkpt><trkpt lat="40.8595433" lon="14.25716"><ele>66.0</ele><time>2026-04-20T13:33:17.539Z</time></trkpt><trkpt lat="40.8594967" lon="14.25707"><ele>66.0</ele><time>2026-04-20T13:33:19.535Z</time></trkpt><trkpt lat="40.8594533" lon="14.256985"><ele>66.0</ele><time>2026-04-20T13:33:21.535Z</time></trkpt><trkpt lat="40.8594167" lon="14.2569"><ele>66.0</ele><time>2026-04-20T13:33:23.536Z</time></trkpt><trkpt lat="40.859375" lon="14.256825"><ele>66.0</ele><time>2026-04-20T13:33:25.536Z</time></trkpt><trkpt lat="40.85932" lon="14.25675"><ele>66.0</ele><time>2026-04-20T13:33:27.536Z</time></trkpt><trkpt lat="40.85927" lon="14.2566633"><ele>66.0</ele><time>2026-04-20T13:33:29.537Z</time></trkpt><trkpt lat="40.85923" lon="14.2565717"><ele>66.0</ele><time>2026-04-20T13:33:31.536Z</time></trkpt><trkpt lat="40.8591967" lon="14.2564817"><ele>66.0</ele><time>2026-04-20T13:33:33.536Z</time></trkpt><trkpt lat="40.8591617" lon="14.2563933"><ele>66.0</ele><time>2026-04-20T13:33:35.535Z</time></trkpt><trkpt lat="40.8591167" lon="14.2563217"><ele>66.0</ele><time>2026-04-20T13:33:37.535Z</time></trkpt><trkpt lat="40.859065" lon="14.2562533"><ele>66.0</ele><time>2026-04-20T13:33:39.536Z</time></trkpt><trkpt lat="40.859025" lon="14.2561733"><ele>66.0</ele><time>2026-04-20T13:33:41.537Z</time></trkpt><trkpt lat="40.8589867" lon="14.25609"><ele>66.0</ele><time>2026-04-20T13:33:43.537Z</time></trkpt><trkpt lat="40.858945" lon="14.2560017"><ele>66.0</ele><time>2026-04-20T13:33:45.537Z</time></trkpt><trkpt lat="40.85891" lon="14.2558833"><ele>66.0</ele><time>2026-04-20T13:33:47.535Z</time></trkpt><trkpt lat="40.8588717" lon="14.2557817"><ele>66.0</ele><time>2026-04-20T13:33:49.537Z</time></trkpt><trkpt lat="40.85884" lon="14.2556917"><ele>66.0</ele><time>2026-04-20T13:33:51.535Z</time></trkpt><trkpt lat="40.858815" lon="14.2556017"><ele>66.0</ele><time>2026-04-20T13:33:53.538Z</time></trkpt><trkpt lat="40.85876" lon="14.2555133"><ele>66.0</ele><time>2026-04-20T13:33:55.538Z</time></trkpt><trkpt lat="40.8587167" lon="14.2554167"><ele>66.0</ele><time>2026-04-20T13:33:57.537Z</time></trkpt><trkpt lat="40.8586433" lon="14.2553483"><ele>66.0</ele><time>2026-04-20T13:33:59.537Z</time></trkpt><trkpt lat="40.85854" lon="14.2553167"><ele>66.0</ele><time>2026-04-20T13:34:01.537Z</time></trkpt><trkpt lat="40.85846" lon="14.2553533"><ele>66.0</ele><time>2026-04-20T13:34:03.534Z</time></trkpt><trkpt lat="40.8584083" lon="14.2554083"><ele>66.0</ele><time>2026-04-20T13:34:05.536Z</time></trkpt><trkpt lat="40.8583933" lon="14.2554967"><ele>66.0</ele><time>2026-04-20T13:34:07.536Z</time></trkpt><trkpt lat="40.8583933" lon="14.2556017"><ele>66.0</ele><time>2026-04-20T13:34:09.535Z</time></trkpt><trkpt lat="40.85841" lon="14.255755"><ele>66.0</ele><time>2026-04-20T13:34:11.535Z</time></trkpt><trkpt lat="40.858425" lon="14.2559017"><ele>63.8</ele><time>2026-04-20T13:34:13.536Z</time></trkpt><trkpt lat="40.8584233" lon="14.2560217"><ele>61.599999999999994</ele><time>2026-04-20T13:34:15.534Z</time></trkpt><trkpt lat="40.8584017" lon="14.256105"><ele>59.4</ele><time>2026-04-20T13:34:17.536Z</time></trkpt><trkpt lat="40.8583367" lon="14.2561617"><ele>57.2</ele><time>2026-04-20T13:34:21.535Z</time></trkpt><trkpt lat="40.8582567" lon="14.2560583"><ele>55.0</ele><time>2026-04-20T13:34:24.537Z</time></trkpt><trkpt lat="40.8582033" lon="14.255915"><ele>55.0</ele><time>2026-04-20T13:34:26.536Z</time></trkpt><trkpt lat="40.858155" lon="14.2558017"><ele>55.0</ele><time>2026-04-20T13:34:28.535Z</time></trkpt><trkpt lat="40.8580617" lon="14.25579"><ele>55.0</ele><time>2026-04-20T13:34:31.536Z</time></trkpt><trkpt lat="40.8579783" lon="14.2558367"><ele>55.0</ele><time>2026-04-20T13:34:33.536Z</time></trkpt><trkpt lat="40.8578817" lon="14.25589"><ele>55.0</ele><time>2026-04-20T13:34:35.536Z</time></trkpt><trkpt lat="40.857775" lon="14.2559567"><ele>55.0</ele><time>2026-04-20T13:34:37.535Z</time></trkpt><trkpt lat="40.8576733" lon="14.25601"><ele>55.0</ele><time>2026-04-20T13:34:39.536Z</time></trkpt><trkpt lat="40.857565" lon="14.2560517"><ele>55.0</ele><time>2026-04-20T13:34:41.537Z</time></trkpt><trkpt lat="40.8574917" lon="14.25607"><ele>55.0</ele><time>2026-04-20T13:34:43.536Z</time></trkpt><trkpt lat="40.85742" lon="14.2560967"><ele>55.0</ele><time>2026-04-20T13:34:47.535Z</time></trkpt><trkpt lat="40.857345" lon="14.2560233"><ele>54.6</ele><time>2026-04-20T13:34:50.534Z</time></trkpt><trkpt lat="40.85728" lon="14.255955"><ele>54.2</ele><time>2026-04-20T13:34:52.536Z</time></trkpt><trkpt lat="40.8572217" lon="14.25588"><ele>53.8</ele><time>2026-04-20T13:34:54.535Z</time></trkpt><trkpt lat="40.8571667" lon="14.25579"><ele>53.4</ele><time>2026-04-20T13:34:56.535Z</time></trkpt><trkpt lat="40.85711" lon="14.2556683"><ele>53.0</ele><time>2026-04-20T13:34:58.535Z</time></trkpt><trkpt lat="40.8570433" lon="14.25556"><ele>52.599999999999994</ele><time>2026-04-20T13:35:00.536Z</time></trkpt><trkpt lat="40.8569617" lon="14.2554533"><ele>52.199999999999996</ele><time>2026-04-20T13:35:02.537Z</time></trkpt><trkpt lat="40.8569167" lon="14.25539"><ele>51.8</ele><time>2026-04-20T13:35:03.536Z</time></trkpt><trkpt lat="40.8568617" lon="14.2553483"><ele>51.4</ele><time>2026-04-20T13:35:04.534Z</time></trkpt><trkpt lat="40.8567733" lon="14.2552483"><ele>51.0</ele><time>2026-04-20T13:35:06.534Z</time></trkpt><trkpt lat="40.8567117" lon="14.2551417"><ele>50.666666666666664</ele><time>2026-04-20T13:35:08.534Z</time></trkpt><trkpt lat="40.8566767" lon="14.2550133"><ele>50.33333333333333</ele><time>2026-04-20T13:35:10.534Z</time></trkpt><trkpt lat="40.8566283" lon="14.2549267"><ele>50.0</ele><time>2026-04-20T13:35:12.534Z</time></trkpt><trkpt lat="40.8567" lon="14.2549067"><ele>49.666666666666664</ele><time>2026-04-20T13:35:16.534Z</time></trkpt><trkpt lat="40.8567617" lon="14.2548367"><ele>49.33333333333333</ele><time>2026-04-20T13:35:18.534Z</time></trkpt><trkpt lat="40.8568217" lon="14.2547567"><ele>49.0</ele><time>2026-04-20T13:35:20.534Z</time></trkpt><trkpt lat="40.8568833" lon="14.25466"><ele>48.6</ele><time>2026-04-20T13:35:22.536Z</time></trkpt><trkpt lat="40.8569417" lon="14.2545633"><ele>48.2</ele><time>2026-04-20T13:35:24.535Z</time></trkpt><trkpt lat="40.8570117" lon="14.25446"><ele>47.800000000000004</ele><time>2026-04-20T13:35:26.536Z</time></trkpt><trkpt lat="40.8570917" lon="14.2543717"><ele>47.400000000000006</ele><time>2026-04-20T13:35:28.534Z</time></trkpt><trkpt lat="40.8571683" lon="14.25428"><ele>47.0</ele><time>2026-04-20T13:35:30.535Z</time></trkpt><trkpt lat="40.8572317" lon="14.2542017"><ele>47.0</ele><time>2026-04-20T13:35:32.535Z</time></trkpt><trkpt lat="40.8572733" lon="14.254115"><ele>47.0</ele><time>2026-04-20T13:35:34.535Z</time></trkpt><trkpt lat="40.8573017" lon="14.254025"><ele>47.0</ele><time>2026-04-20T13:35:36.534Z</time></trkpt><trkpt lat="40.85733" lon="14.253935"><ele>47.0</ele><time>2026-04-20T13:35:38.534Z</time></trkpt><trkpt lat="40.8573483" lon="14.25384"><ele>47.0</ele><time>2026-04-20T13:35:40.534Z</time></trkpt><trkpt lat="40.857365" lon="14.253755"><ele>47.0</ele><time>2026-04-20T13:35:42.534Z</time></trkpt><trkpt lat="40.857375" lon="14.2536567"><ele>47.0</ele><time>2026-04-20T13:35:44.536Z</time></trkpt><trkpt lat="40.8573817" lon="14.2535617"><ele>46.6</ele><time>2026-04-20T13:35:46.535Z</time></trkpt><trkpt lat="40.8574" lon="14.2534517"><ele>46.2</ele><time>2026-04-20T13:35:48.535Z</time></trkpt><trkpt lat="40.85741" lon="14.2533383"><ele>45.8</ele><time>2026-04-20T13:35:50.535Z</time></trkpt><trkpt lat="40.8574183" lon="14.253225"><ele>45.4</ele><time>2026-04-20T13:35:52.535Z</time></trkpt><trkpt lat="40.8574317" lon="14.2531017"><ele>45.0</ele><time>2026-04-20T13:35:54.534Z</time></trkpt><trkpt lat="40.857455" lon="14.252975"><ele>46.0</ele><time>2026-04-20T13:35:56.534Z</time></trkpt><trkpt lat="40.85747" lon="14.2528567"><ele>47.0</ele><time>2026-04-20T13:35:58.536Z</time></trkpt><trkpt lat="40.8574933" lon="14.25274"><ele>48.0</ele><time>2026-04-20T13:36:00.536Z</time></trkpt><trkpt lat="40.8575183" lon="14.252625"><ele>49.0</ele><time>2026-04-20T13:36:02.536Z</time></trkpt><trkpt lat="40.85754" lon="14.2525117"><ele>50.0</ele><time>2026-04-20T13:36:04.536Z</time></trkpt><trkpt lat="40.8575467" lon="14.252385"><ele>51.4</ele><time>2026-04-20T13:36:06.535Z</time></trkpt><trkpt lat="40.85757" lon="14.252265"><ele>52.8</ele><time>2026-04-20T13:36:08.534Z</time></trkpt><trkpt lat="40.8575867" lon="14.2521433"><ele>54.2</ele><time>2026-04-20T13:36:10.537Z</time></trkpt><trkpt lat="40.857585" lon="14.2520267"><ele>55.6</ele><time>2026-04-20T13:36:12.535Z</time></trkpt><trkpt lat="40.8576217" lon="14.2518833"><ele>57.0</ele><time>2026-04-20T13:36:14.535Z</time></trkpt><trkpt lat="40.85767" lon="14.2517567"><ele>57.0</ele><time>2026-04-20T13:36:16.536Z</time></trkpt><trkpt lat="40.85771" lon="14.2516717"><ele>57.0</ele><time>2026-04-20T13:36:18.536Z</time></trkpt><trkpt lat="40.85777" lon="14.2516017"><ele>57.0</ele><time>2026-04-20T13:36:20.536Z</time></trkpt><trkpt lat="40.857835" lon="14.2515517"><ele>57.0</ele><time>2026-04-20T13:36:22.534Z</time></trkpt><trkpt lat="40.857895" lon="14.2514983"><ele>57.0</ele><time>2026-04-20T13:36:24.534Z</time></trkpt><trkpt lat="40.85795" lon="14.2514533"><ele>57.0</ele><time>2026-04-20T13:36:26.535Z</time></trkpt><trkpt lat="40.85802" lon="14.2513933"><ele>57.2</ele><time>2026-04-20T13:36:28.535Z</time></trkpt><trkpt lat="40.8581017" lon="14.2513483"><ele>57.400000000000006</ele><time>2026-04-20T13:36:30.535Z</time></trkpt><trkpt lat="40.85819" lon="14.2512917"><ele>57.599999999999994</ele><time>2026-04-20T13:36:32.536Z</time></trkpt><trkpt lat="40.8582783" lon="14.2512367"><ele>57.8</ele><time>2026-04-20T13:36:34.534Z</time></trkpt><trkpt lat="40.8583667" lon="14.2512083"><ele>58.0</ele><time>2026-04-20T13:36:36.534Z</time></trkpt><trkpt lat="40.8584617" lon="14.2511733"><ele>57.0</ele><time>2026-04-20T13:36:38.534Z</time></trkpt><trkpt lat="40.8585633" lon="14.251135"><ele>56.0</ele><time>2026-04-20T13:36:40.536Z</time></trkpt><trkpt lat="40.85866" lon="14.2510933"><ele>55.0</ele><time>2026-04-20T13:36:42.536Z</time></trkpt><trkpt lat="40.8587533" lon="14.25103"><ele>54.0</ele><time>2026-04-20T13:36:44.535Z</time></trkpt><trkpt lat="40.8588483" lon="14.2509583"><ele>53.0</ele><time>2026-04-20T13:36:46.536Z</time></trkpt><trkpt lat="40.8589367" lon="14.2508683"><ele>53.0</ele><time>2026-04-20T13:36:48.536Z</time></trkpt><trkpt lat="40.859015" lon="14.2507883"><ele>53.0</ele><time>2026-04-20T13:36:50.536Z</time></trkpt><trkpt lat="40.85909" lon="14.2506917"><ele>53.0</ele><time>2026-04-20T13:36:52.536Z</time></trkpt><trkpt lat="40.8591783" lon="14.2505967"><ele>53.0</ele><time>2026-04-20T13:36:54.535Z</time></trkpt><trkpt lat="40.8592383" lon="14.2504983"><ele>53.0</ele><time>2026-04-20T13:36:56.535Z</time></trkpt><trkpt lat="40.8592917" lon="14.250415"><ele>54.66666666666667</ele><time>2026-04-20T13:36:58.536Z</time></trkpt><trkpt lat="40.8593417" lon="14.2503517"><ele>56.333333333333336</ele><time>2026-04-20T13:37:00.535Z</time></trkpt><trkpt lat="40.85939" lon="14.2502683"><ele>58.0</ele><time>2026-04-20T13:37:02.535Z</time></trkpt><trkpt lat="40.859435" lon="14.2501683"><ele>59.66666666666667</ele><time>2026-04-20T13:37:04.536Z</time></trkpt><trkpt lat="40.8594667" lon="14.2500617"><ele>61.333333333333336</ele><time>2026-04-20T13:37:06.535Z</time></trkpt><trkpt lat="40.85949" lon="14.24995"><ele>63.0</ele><time>2026-04-20T13:37:08.536Z</time></trkpt><trkpt lat="40.859495" lon="14.249835"><ele>64.33333333333333</ele><time>2026-04-20T13:37:10.535Z</time></trkpt><trkpt lat="40.8594983" lon="14.2497283"><ele>65.66666666666667</ele><time>2026-04-20T13:37:12.534Z</time></trkpt><trkpt lat="40.85948" lon="14.2496467"><ele>67.0</ele><time>2026-04-20T13:37:16.536Z</time></trkpt><trkpt lat="40.85943" lon="14.249555"><ele>68.33333333333334</ele><time>2026-04-20T13:37:20.534Z</time></trkpt><trkpt lat="40.8593883" lon="14.2494783"><ele>69.66666666666667</ele><time>2026-04-20T13:37:22.534Z</time></trkpt><trkpt lat="40.859355" lon="14.249405"><ele>71.0</ele><time>2026-04-20T13:37:24.534Z</time></trkpt><trkpt lat="40.8593383" lon="14.2492833"><ele>71.0</ele><time>2026-04-20T13:37:27.535Z</time></trkpt><trkpt lat="40.8593633" lon="14.2491817"><ele>71.0</ele><time>2026-04-20T13:37:29.534Z</time></trkpt><trkpt lat="40.8593867" lon="14.249085"><ele>71.0</ele><time>2026-04-20T13:37:31.536Z</time></trkpt><trkpt lat="40.8593883" lon="14.2489683"><ele>71.0</ele><time>2026-04-20T13:37:33.536Z</time></trkpt><trkpt lat="40.8593883" lon="14.2488467"><ele>71.0</ele><time>2026-04-20T13:37:35.536Z</time></trkpt><trkpt lat="40.8593767" lon="14.2487383"><ele>71.0</ele><time>2026-04-20T13:37:37.535Z</time></trkpt><trkpt lat="40.8593583" lon="14.2486117"><ele>70.83333333333334</ele><time>2026-04-20T13:37:39.533Z</time></trkpt><trkpt lat="40.8593483" lon="14.2484683"><ele>70.66666666666667</ele><time>2026-04-20T13:37:41.535Z</time></trkpt><trkpt lat="40.85933" lon="14.2483333"><ele>70.5</ele><time>2026-04-20T13:37:43.535Z</time></trkpt><trkpt lat="40.85931" lon="14.248225"><ele>70.33333333333333</ele><time>2026-04-20T13:37:45.534Z</time></trkpt><trkpt lat="40.85929" lon="14.2481317"><ele>70.16666666666666</ele><time>2026-04-20T13:37:48.535Z</time></trkpt><trkpt lat="40.859255" lon="14.2480517"><ele>70.0</ele><time>2026-04-20T13:37:51.534Z</time></trkpt><trkpt lat="40.8592233" lon="14.247965"><ele>69.0</ele><time>2026-04-20T13:37:53.536Z</time></trkpt><trkpt lat="40.85919" lon="14.2478417"><ele>68.0</ele><time>2026-04-20T13:37:56.535Z</time></trkpt><trkpt lat="40.8591783" lon="14.2477383"><ele>67.0</ele><time>2026-04-20T13:37:58.536Z</time></trkpt><trkpt lat="40.8591617" lon="14.2476333"><ele>66.0</ele><time>2026-04-20T13:38:00.536Z</time></trkpt><trkpt lat="40.8591233" lon="14.2475283"><ele>65.0</ele><time>2026-04-20T13:38:02.536Z</time></trkpt><trkpt lat="40.8590933" lon="14.2474117"><ele>64.0</ele><time>2026-04-20T13:38:04.534Z</time></trkpt><trkpt lat="40.8590717" lon="14.2472983"><ele>64.33333333333333</ele><time>2026-04-20T13:38:06.534Z</time></trkpt><trkpt lat="40.8590433" lon="14.2472"><ele>64.66666666666666</ele><time>2026-04-20T13:38:08.535Z</time></trkpt><trkpt lat="40.8590217" lon="14.2470917"><ele>65.0</ele><time>2026-04-20T13:38:10.534Z</time></trkpt><trkpt lat="40.8590083" lon="14.2469767"><ele>65.33333333333333</ele><time>2026-04-20T13:38:12.534Z</time></trkpt><trkpt lat="40.85901" lon="14.2468817"><ele>65.66666666666667</ele><time>2026-04-20T13:38:14.534Z</time></trkpt><trkpt lat="40.8590067" lon="14.2467867"><ele>66.0</ele><time>2026-04-20T13:38:16.533Z</time></trkpt><trkpt lat="40.859" lon="14.2466567"><ele>66.0</ele><time>2026-04-20T13:38:18.536Z</time></trkpt><trkpt lat="40.858975" lon="14.2465233"><ele>66.0</ele><time>2026-04-20T13:38:20.535Z</time></trkpt><trkpt lat="40.858955" lon="14.246415"><ele>66.0</ele><time>2026-04-20T13:38:22.535Z</time></trkpt><trkpt lat="40.8589367" lon="14.2463067"><ele>66.0</ele><time>2026-04-20T13:38:24.536Z</time></trkpt><trkpt lat="40.8589233" lon="14.246205"><ele>66.0</ele><time>2026-04-20T13:38:26.536Z</time></trkpt><trkpt lat="40.8588933" lon="14.2461133"><ele>66.0</ele><time>2026-04-20T13:38:28.534Z</time></trkpt><trkpt lat="40.8588583" lon="14.24602"><ele>66.33333333333333</ele><time>2026-04-20T13:38:30.534Z</time></trkpt><trkpt lat="40.858805" lon="14.245935"><ele>66.66666666666667</ele><time>2026-04-20T13:38:32.535Z</time></trkpt><trkpt lat="40.8587433" lon="14.2458617"><ele>67.0</ele><time>2026-04-20T13:38:34.536Z</time></trkpt><trkpt lat="40.858665" lon="14.2457883"><ele>67.33333333333334</ele><time>2026-04-20T13:38:36.534Z</time></trkpt><trkpt lat="40.8585767" lon="14.24573"><ele>67.66666666666667</ele><time>2026-04-20T13:38:38.534Z</time></trkpt><trkpt lat="40.8585017" lon="14.2456783"><ele>68.0</ele><time>2026-04-20T13:38:40.535Z</time></trkpt><trkpt lat="40.8584333" lon="14.2456333"><ele>67.66666666666667</ele><time>2026-04-20T13:38:42.534Z</time></trkpt><trkpt lat="40.85833" lon="14.2455983"><ele>67.33333333333334</ele><time>2026-04-20T13:38:44.536Z</time></trkpt><trkpt lat="40.8582533" lon="14.245535"><ele>67.0</ele><time>2026-04-20T13:38:46.535Z</time></trkpt><trkpt lat="40.85819" lon="14.2454683"><ele>66.66666666666667</ele><time>2026-04-20T13:38:48.534Z</time></trkpt><trkpt lat="40.85813" lon="14.2454117"><ele>66.33333333333333</ele><time>2026-04-20T13:38:50.537Z</time></trkpt><trkpt lat="40.85807" lon="14.2453483"><ele>66.0</ele><time>2026-04-20T13:38:55.536Z</time></trkpt><trkpt lat="40.8581367" lon="14.245325"><ele>66.0</ele><time>2026-04-20T13:39:02.536Z</time></trkpt><trkpt lat="40.858185" lon="14.2452633"><ele>66.0</ele><time>2026-04-20T13:39:04.535Z</time></trkpt><trkpt lat="40.8582567" lon="14.24517"><ele>66.0</ele><time>2026-04-20T13:39:06.535Z</time></trkpt><trkpt lat="40.85834" lon="14.245065"><ele>66.0</ele><time>2026-04-20T13:39:08.535Z</time></trkpt><trkpt lat="40.8583883" lon="14.244995"><ele>66.0</ele><time>2026-04-20T13:39:09.533Z</time></trkpt><trkpt lat="40.8584767" lon="14.2448933"><ele>67.2</ele><time>2026-04-20T13:39:11.533Z</time></trkpt><trkpt lat="40.858545" lon="14.244795"><ele>68.39999999999999</ele><time>2026-04-20T13:39:13.535Z</time></trkpt><trkpt lat="40.85859" lon="14.2447317"><ele>69.6</ele><time>2026-04-20T13:39:14.537Z</time></trkpt><trkpt lat="40.858675" lon="14.2446333"><ele>70.8</ele><time>2026-04-20T13:39:16.535Z</time></trkpt><trkpt lat="40.85875" lon="14.2445267"><ele>72.0</ele><time>2026-04-20T13:39:18.537Z</time></trkpt><trkpt lat="40.858825" lon="14.244435"><ele>72.0</ele><time>2026-04-20T13:39:20.537Z</time></trkpt><trkpt lat="40.8588983" lon="14.2443467"><ele>72.0</ele><time>2026-04-20T13:39:22.535Z</time></trkpt><trkpt lat="40.8589533" lon="14.244245"><ele>72.0</ele><time>2026-04-20T13:39:24.534Z</time></trkpt><trkpt lat="40.8589767" lon="14.2441633"><ele>72.0</ele><time>2026-04-20T13:39:25.536Z</time></trkpt><trkpt lat="40.859" lon="14.2440183"><ele>72.0</ele><time>2026-04-20T13:39:27.536Z</time></trkpt><trkpt lat="40.8590083" lon="14.2438817"><ele>72.4</ele><time>2026-04-20T13:39:29.535Z</time></trkpt><trkpt lat="40.8589883" lon="14.2437483"><ele>72.80000000000001</ele><time>2026-04-20T13:39:31.536Z</time></trkpt><trkpt lat="40.8589767" lon="14.2436083"><ele>73.2</ele><time>2026-04-20T13:39:33.535Z</time></trkpt><trkpt lat="40.8589617" lon="14.243465"><ele>73.60000000000001</ele><time>2026-04-20T13:39:35.537Z</time></trkpt><trkpt lat="40.8589467" lon="14.243335"><ele>74.0</ele><time>2026-04-20T13:39:37.536Z</time></trkpt><trkpt lat="40.8589383" lon="14.2432267"><ele>74.4</ele><time>2026-04-20T13:39:39.536Z</time></trkpt><trkpt lat="40.8589433" lon="14.2431183"><ele>74.80000000000001</ele><time>2026-04-20T13:39:41.534Z</time></trkpt><trkpt lat="40.8589517" lon="14.2430117"><ele>75.19999999999999</ele><time>2026-04-20T13:39:43.535Z</time></trkpt><trkpt lat="40.8589933" lon="14.2428717"><ele>75.6</ele><time>2026-04-20T13:39:45.536Z</time></trkpt><trkpt lat="40.8590217" lon="14.2427767"><ele>76.0</ele><time>2026-04-20T13:39:47.537Z</time></trkpt><trkpt lat="40.8590767" lon="14.24267"><ele>76.0</ele><time>2026-04-20T13:39:49.535Z</time></trkpt><trkpt lat="40.859095" lon="14.24259"><ele>76.0</ele><time>2026-04-20T13:39:50.536Z</time></trkpt><trkpt lat="40.859" lon="14.242455"><ele>76.0</ele><time>2026-04-20T13:40:04.536Z</time></trkpt><trkpt lat="40.8589367" lon="14.24239"><ele>76.0</ele><time>2026-04-20T13:40:08.535Z</time></trkpt><trkpt lat="40.8588717" lon="14.2423067"><ele>76.0</ele><time>2026-04-20T13:40:12.536Z</time></trkpt><trkpt lat="40.858805" lon="14.2422517"><ele>75.66666666666666</ele><time>2026-04-20T13:40:15.535Z</time></trkpt><trkpt lat="40.8587317" lon="14.2422067"><ele>75.33333333333333</ele><time>2026-04-20T13:40:19.536Z</time></trkpt><trkpt lat="40.8586767" lon="14.24216"><ele>75.0</ele><time>2026-04-20T13:40:23.535Z</time></trkpt><trkpt lat="40.8585717" lon="14.2421533"><ele>74.66666666666667</ele><time>2026-04-20T13:40:25.534Z</time></trkpt><trkpt lat="40.8585217" lon="14.242095"><ele>74.33333333333334</ele><time>2026-04-20T13:40:28.535Z</time></trkpt><trkpt lat="40.8584933" lon="14.2420167"><ele>74.0</ele><time>2026-04-20T13:40:32.536Z</time></trkpt><trkpt lat="40.858455" lon="14.24194"><ele>76.16666666666667</ele><time>2026-04-20T13:40:36.534Z</time></trkpt><trkpt lat="40.858395" lon="14.241885"><ele>78.33333333333334</ele><time>2026-04-20T13:40:40.534Z</time></trkpt><trkpt lat="40.858325" lon="14.241845"><ele>80.5</ele><time>2026-04-20T13:40:43.536Z</time></trkpt><trkpt lat="40.8582767" lon="14.2417667"><ele>82.66666666666667</ele><time>2026-04-20T13:40:46.535Z</time></trkpt><trkpt lat="40.858205" lon="14.241705"><ele>84.83333333333333</ele><time>2026-04-20T13:40:49.535Z</time></trkpt><trkpt lat="40.8581617" lon="14.2416367"><ele>87.0</ele><time>2026-04-20T13:40:52.534Z</time></trkpt><trkpt lat="40.8581067" lon="14.2415683"><ele>87.0</ele><time>2026-04-20T13:40:56.535Z</time></trkpt><trkpt lat="40.8580467" lon="14.24152"><ele>87.0</ele><time>2026-04-20T13:41:02.535Z</time></trkpt><trkpt lat="40.8580683" lon="14.241605"><ele>87.0</ele><time>2026-04-20T13:41:17.536Z</time></trkpt><trkpt lat="40.8581333" lon="14.241665"><ele>87.0</ele><time>2026-04-20T13:41:22.534Z</time></trkpt><trkpt lat="40.8582017" lon="14.2417567"><ele>87.0</ele><time>2026-04-20T13:41:26.536Z</time></trkpt><trkpt lat="40.8582417" lon="14.241835"><ele>87.0</ele><time>2026-04-20T13:41:28.535Z</time></trkpt><trkpt lat="40.8582933" lon="14.2419233"><ele>87.0</ele><time>2026-04-20T13:41:30.536Z</time></trkpt><trkpt lat="40.8583417" lon="14.242005"><ele>87.0</ele><time>2026-04-20T13:41:32.535Z</time></trkpt><trkpt lat="40.8583783" lon="14.2420767"><ele>87.0</ele><time>2026-04-20T13:41:34.535Z</time></trkpt><trkpt lat="40.85841" lon="14.24215"><ele>87.0</ele><time>2026-04-20T13:41:36.534Z</time></trkpt><trkpt lat="40.8584433" lon="14.242225"><ele>87.0</ele><time>2026-04-20T13:41:38.533Z</time></trkpt><trkpt lat="40.858505" lon="14.24231"><ele>87.0</ele><time>2026-04-20T13:41:40.535Z</time></trkpt><trkpt lat="40.85856" lon="14.242365"><ele>87.0</ele><time>2026-04-20T13:41:42.536Z</time></trkpt><trkpt lat="40.8585767" lon="14.2424717"><ele>87.28571428571428</ele><time>2026-04-20T13:41:45.535Z</time></trkpt><trkpt lat="40.8585717" lon="14.2425783"><ele>87.57142857142857</ele><time>2026-04-20T13:41:48.535Z</time></trkpt><trkpt lat="40.8585233" lon="14.2426383"><ele>87.85714285714286</ele><time>2026-04-20T13:41:50.536Z</time></trkpt><trkpt lat="40.8584717" lon="14.24271"><ele>88.14285714285714</ele><time>2026-04-20T13:41:52.536Z</time></trkpt><trkpt lat="40.8584267" lon="14.242785"><ele>88.42857142857143</ele><time>2026-04-20T13:41:54.536Z</time></trkpt><trkpt lat="40.8583817" lon="14.2428467"><ele>88.71428571428571</ele><time>2026-04-20T13:41:56.535Z</time></trkpt><trkpt lat="40.8583183" lon="14.2429083"><ele>89.0</ele><time>2026-04-20T13:41:59.536Z</time></trkpt><trkpt lat="40.85823" lon="14.242885"><ele>89.0</ele><time>2026-04-20T13:42:05.537Z</time></trkpt><trkpt lat="40.858185" lon="14.2428033"><ele>89.0</ele><time>2026-04-20T13:42:07.537Z</time></trkpt><trkpt lat="40.8581333" lon="14.242725"><ele>89.0</ele><time>2026-04-20T13:42:09.538Z</time></trkpt><trkpt lat="40.8580867" lon="14.2426417"><ele>89.0</ele><time>2026-04-20T13:42:11.535Z</time></trkpt><trkpt lat="40.8580183" lon="14.2425683"><ele>89.0</ele><time>2026-04-20T13:42:13.536Z</time></trkpt><trkpt lat="40.8579367" lon="14.2425217"><ele>89.0</ele><time>2026-04-20T13:42:15.535Z</time></trkpt><trkpt lat="40.8578883" lon="14.2424517"><ele>89.0</ele><time>2026-04-20T13:42:17.535Z</time></trkpt><trkpt lat="40.857835" lon="14.242365"><ele>89.0</ele><time>2026-04-20T13:42:20.538Z</time></trkpt><trkpt lat="40.8577933" lon="14.2422783"><ele>89.0</ele><time>2026-04-20T13:42:23.537Z</time></trkpt><trkpt lat="40.857705" lon="14.242205"><ele>89.0</ele><time>2026-04-20T13:42:26.538Z</time></trkpt><trkpt lat="40.8576367" lon="14.2421217"><ele>89.0</ele><time>2026-04-20T13:42:29.537Z</time></trkpt><trkpt lat="40.8575733" lon="14.2421233"><ele>89.0</ele><time>2026-04-20T13:42:31.537Z</time></trkpt><trkpt lat="40.8574917" lon="14.2421617"><ele>90.83333333333334</ele><time>2026-04-20T13:42:34.537Z</time></trkpt><trkpt lat="40.8574267" lon="14.24222"><ele>92.66666666666667</ele><time>2026-04-20T13:42:37.538Z</time></trkpt><trkpt lat="40.8573783" lon="14.242285"><ele>94.5</ele><time>2026-04-20T13:42:40.538Z</time></trkpt><trkpt lat="40.857315" lon="14.2423667"><ele>96.33333333333334</ele><time>2026-04-20T13:42:43.535Z</time></trkpt><trkpt lat="40.8572783" lon="14.2424467"><ele>98.16666666666667</ele><time>2026-04-20T13:42:45.534Z</time></trkpt><trkpt lat="40.85722" lon="14.2425017"><ele>100.0</ele><time>2026-04-20T13:42:47.536Z</time></trkpt><trkpt lat="40.8571567" lon="14.2425567"><ele>100.00000000000001</ele><time>2026-04-20T13:42:49.535Z</time></trkpt><trkpt lat="40.857095" lon="14.2426267"><ele>100.0</ele><time>2026-04-20T13:42:51.536Z</time></trkpt><trkpt lat="40.8570417" lon="14.2426933"><ele>100.0</ele><time>2026-04-20T13:42:53.536Z</time></trkpt><trkpt lat="40.8569833" lon="14.242765"><ele>100.0</ele><time>2026-04-20T13:42:55.538Z</time></trkpt><trkpt lat="40.8569183" lon="14.242825"><ele>100.00000000000001</ele><time>2026-04-20T13:42:57.535Z</time></trkpt><trkpt lat="40.856845" lon="14.2429"><ele>100.0</ele><time>2026-04-20T13:42:59.536Z</time></trkpt><trkpt lat="40.8567967" lon="14.2429617"><ele>100.71428571428572</ele><time>2026-04-20T13:43:01.536Z</time></trkpt><trkpt lat="40.856745" lon="14.2430517"><ele>101.42857142857143</ele><time>2026-04-20T13:43:04.536Z</time></trkpt><trkpt lat="40.8566817" lon="14.2430683"><ele>102.14285714285714</ele><time>2026-04-20T13:43:13.536Z</time></trkpt><trkpt lat="40.8566817" lon="14.2429767"><ele>102.85714285714286</ele><time>2026-04-20T13:43:19.538Z</time></trkpt><trkpt lat="40.8566317" lon="14.2429217"><ele>103.57142857142857</ele><time>2026-04-20T13:43:24.536Z</time></trkpt><trkpt lat="40.8565667" lon="14.2428533"><ele>104.28571428571429</ele><time>2026-04-20T13:43:28.536Z</time></trkpt><trkpt lat="40.8565317" lon="14.2427833"><ele>105.0</ele><time>2026-04-20T13:43:31.536Z</time></trkpt><trkpt lat="40.8564883" lon="14.24271"><ele>105.0</ele><time>2026-04-20T13:43:34.536Z</time></trkpt><trkpt lat="40.8564417" lon="14.24263"><ele>105.0</ele><time>2026-04-20T13:43:37.534Z</time></trkpt><trkpt lat="40.8563767" lon="14.2425583"><ele>105.0</ele><time>2026-04-20T13:43:40.536Z</time></trkpt><trkpt lat="40.856335" lon="14.2424867"><ele>105.0</ele><time>2026-04-20T13:43:42.536Z</time></trkpt><trkpt lat="40.8562767" lon="14.2424"><ele>105.0</ele><time>2026-04-20T13:43:45.536Z</time></trkpt><trkpt lat="40.8562217" lon="14.2423417"><ele>105.0</ele><time>2026-04-20T13:43:47.537Z</time></trkpt><trkpt lat="40.8561717" lon="14.2422733"><ele>105.71428571428571</ele><time>2026-04-20T13:43:49.536Z</time></trkpt><trkpt lat="40.8561533" lon="14.2421583"><ele>106.42857142857143</ele><time>2026-04-20T13:43:51.535Z</time></trkpt><trkpt lat="40.856115" lon="14.24207"><ele>107.14285714285714</ele><time>2026-04-20T13:43:53.536Z</time></trkpt><trkpt lat="40.85609" lon="14.2419767"><ele>107.85714285714286</ele><time>2026-04-20T13:43:55.537Z</time></trkpt><trkpt lat="40.8560717" lon="14.24189"><ele>108.57142857142857</ele><time>2026-04-20T13:43:57.536Z</time></trkpt><trkpt lat="40.8560533" lon="14.241805"><ele>109.28571428571428</ele><time>2026-04-20T13:43:59.536Z</time></trkpt><trkpt lat="40.85604" lon="14.2417133"><ele>110.0</ele><time>2026-04-20T13:44:01.535Z</time></trkpt><trkpt lat="40.8559733" lon="14.2416517"><ele>110.33333333333333</ele><time>2026-04-20T13:44:04.537Z</time></trkpt><trkpt lat="40.8559167" lon="14.2416033"><ele>110.66666666666666</ele><time>2026-04-20T13:44:07.536Z</time></trkpt><trkpt lat="40.8558333" lon="14.2415717"><ele>111.0</ele><time>2026-04-20T13:44:10.536Z</time></trkpt><trkpt lat="40.8557633" lon="14.2415467"><ele>111.33333333333334</ele><time>2026-04-20T13:44:13.535Z</time></trkpt><trkpt lat="40.8556883" lon="14.24151"><ele>111.66666666666667</ele><time>2026-04-20T13:44:16.536Z</time></trkpt><trkpt lat="40.8556" lon="14.2414767"><ele>112.0</ele><time>2026-04-20T13:44:19.536Z</time></trkpt><trkpt lat="40.85553" lon="14.2414517"><ele>113.16666666666667</ele><time>2026-04-20T13:44:21.534Z</time></trkpt><trkpt lat="40.8554567" lon="14.2414383"><ele>114.33333333333334</ele><time>2026-04-20T13:44:23.535Z</time></trkpt><trkpt lat="40.8553833" lon="14.2414017"><ele>115.5</ele><time>2026-04-20T13:44:25.535Z</time></trkpt><trkpt lat="40.855295" lon="14.2413583"><ele>116.66666666666666</ele><time>2026-04-20T13:44:28.535Z</time></trkpt><trkpt lat="40.8552317" lon="14.24132"><ele>117.83333333333333</ele><time>2026-04-20T13:44:30.535Z</time></trkpt><trkpt lat="40.8551633" lon="14.2412867"><ele>119.0</ele><time>2026-04-20T13:44:32.534Z</time></trkpt><trkpt lat="40.8550767" lon="14.2412583"><ele>119.14285714285714</ele><time>2026-04-20T13:44:34.535Z</time></trkpt><trkpt lat="40.85501" lon="14.2412483"><ele>119.28571428571428</ele><time>2026-04-20T13:44:36.534Z</time></trkpt><trkpt lat="40.8549467" lon="14.2412467"><ele>119.42857142857143</ele><time>2026-04-20T13:44:38.534Z</time></trkpt><trkpt lat="40.8548633" lon="14.2412267"><ele>119.57142857142857</ele><time>2026-04-20T13:44:41.535Z</time></trkpt><trkpt lat="40.85479" lon="14.2412017"><ele>119.71428571428571</ele><time>2026-04-20T13:44:44.534Z</time></trkpt><trkpt lat="40.854725" lon="14.2412033"><ele>119.85714285714286</ele><time>2026-04-20T13:44:47.534Z</time></trkpt><trkpt lat="40.8546833" lon="14.2411217"><ele>120.0</ele><time>2026-04-20T13:44:50.534Z</time></trkpt><trkpt lat="40.8546733" lon="14.24103"><ele>120.0</ele><time>2026-04-20T13:44:53.537Z</time></trkpt><trkpt lat="40.8546967" lon="14.2409417"><ele>120.0</ele><time>2026-04-20T13:44:56.535Z</time></trkpt><trkpt lat="40.8547317" lon="14.2408667"><ele>120.0</ele><time>2026-04-20T13:44:59.535Z</time></trkpt><trkpt lat="40.8547417" lon="14.24076"><ele>120.0</ele><time>2026-04-20T13:45:02.535Z</time></trkpt><trkpt lat="40.854755" lon="14.2406517"><ele>120.0</ele><time>2026-04-20T13:45:05.535Z</time></trkpt><trkpt lat="40.8547717" lon="14.2405383"><ele>120.0</ele><time>2026-04-20T13:45:08.536Z</time></trkpt><trkpt lat="40.8547767" lon="14.2404383"><ele>120.66666666666667</ele><time>2026-04-20T13:45:11.534Z</time></trkpt><trkpt lat="40.8547767" lon="14.2403117"><ele>121.33333333333334</ele><time>2026-04-20T13:45:14.534Z</time></trkpt><trkpt lat="40.8547833" lon="14.240185"><ele>122.0</ele><time>2026-04-20T13:45:17.535Z</time></trkpt><trkpt lat="40.8547767" lon="14.2400933"><ele>122.66666666666667</ele><time>2026-04-20T13:45:19.535Z</time></trkpt><trkpt lat="40.8547767" lon="14.2399967"><ele>123.33333333333334</ele><time>2026-04-20T13:45:21.535Z</time></trkpt><trkpt lat="40.8547833" lon="14.23989"><ele>124.0</ele><time>2026-04-20T13:45:23.535Z</time></trkpt><trkpt lat="40.85478" lon="14.239795"><ele>124.0</ele><time>2026-04-20T13:45:25.533Z</time></trkpt><trkpt lat="40.85479" lon="14.2396733"><ele>124.0</ele><time>2026-04-20T13:45:27.534Z</time></trkpt><trkpt lat="40.854815" lon="14.239545"><ele>124.0</ele><time>2026-04-20T13:45:29.535Z</time></trkpt><trkpt lat="40.8548367" lon="14.23943"><ele>124.0</ele><time>2026-04-20T13:45:31.536Z</time></trkpt><trkpt lat="40.8548367" lon="14.2393167"><ele>124.0</ele><time>2026-04-20T13:45:33.535Z</time></trkpt><trkpt lat="40.8548433" lon="14.239205"><ele>124.00000000000001</ele><time>2026-04-20T13:45:35.535Z</time></trkpt><trkpt lat="40.854855" lon="14.23909"><ele>124.0</ele><time>2026-04-20T13:45:37.534Z</time></trkpt><trkpt lat="40.85486" lon="14.2389833"><ele>124.0</ele><time>2026-04-20T13:45:39.534Z</time></trkpt><trkpt lat="40.8548683" lon="14.2388883"><ele>124.0</ele><time>2026-04-20T13:45:41.534Z</time></trkpt><trkpt lat="40.854865" lon="14.2388"><ele>124.00000000000001</ele><time>2026-04-20T13:45:43.536Z</time></trkpt><trkpt lat="40.8548617" lon="14.238685"><ele>124.0</ele><time>2026-04-20T13:45:46.534Z</time></trkpt><trkpt lat="40.8548617" lon="14.2385833"><ele>124.50000000000001</ele><time>2026-04-20T13:45:49.535Z</time></trkpt><trkpt lat="40.854875" lon="14.2384583"><ele>125.0</ele><time>2026-04-20T13:45:52.534Z</time></trkpt><trkpt lat="40.8549033" lon="14.238345"><ele>125.5</ele><time>2026-04-20T13:45:55.535Z</time></trkpt><trkpt lat="40.8549367" lon="14.23823"><ele>126.0</ele><time>2026-04-20T13:45:58.535Z</time></trkpt><trkpt lat="40.8549667" lon="14.2381533"><ele>126.50000000000001</ele><time>2026-04-20T13:46:00.534Z</time></trkpt><trkpt lat="40.8550117" lon="14.23807"><ele>127.0</ele><time>2026-04-20T13:46:02.536Z</time></trkpt><trkpt lat="40.855065" lon="14.2379817"><ele>128.5</ele><time>2026-04-20T13:46:04.536Z</time></trkpt><trkpt lat="40.8551117" lon="14.2379067"><ele>130.0</ele><time>2026-04-20T13:46:06.535Z</time></trkpt><trkpt lat="40.8551567" lon="14.2378333"><ele>131.5</ele><time>2026-04-20T13:46:08.534Z</time></trkpt><trkpt lat="40.85521" lon="14.237755"><ele>133.0</ele><time>2026-04-20T13:46:11.536Z</time></trkpt><trkpt lat="40.8552467" lon="14.23766"><ele>134.5</ele><time>2026-04-20T13:46:14.534Z</time></trkpt><trkpt lat="40.8552883" lon="14.2375683"><ele>136.0</ele><time>2026-04-20T13:46:17.535Z</time></trkpt><trkpt lat="40.8552933" lon="14.2374817"><ele>136.33333333333334</ele><time>2026-04-20T13:46:20.534Z</time></trkpt><trkpt lat="40.8552783" lon="14.2373817"><ele>136.66666666666669</ele><time>2026-04-20T13:46:23.536Z</time></trkpt><trkpt lat="40.855255" lon="14.2372833"><ele>137.0</ele><time>2026-04-20T13:46:27.534Z</time></trkpt><trkpt lat="40.85524" lon="14.2371917"><ele>137.33333333333334</ele><time>2026-04-20T13:46:31.533Z</time></trkpt><trkpt lat="40.8552067" lon="14.2371133"><ele>137.66666666666666</ele><time>2026-04-20T13:46:34.535Z</time></trkpt><trkpt lat="40.8551433" lon="14.2370467"><ele>138.0</ele><time>2026-04-20T13:46:37.533Z</time></trkpt><trkpt lat="40.8550633" lon="14.237035"><ele>139.66666666666666</ele><time>2026-04-20T13:46:40.537Z</time></trkpt><trkpt lat="40.85498" lon="14.23703"><ele>141.33333333333334</ele><time>2026-04-20T13:46:43.534Z</time></trkpt><trkpt lat="40.8548933" lon="14.2370083"><ele>143.0</ele><time>2026-04-20T13:46:46.534Z</time></trkpt><trkpt lat="40.8548083" lon="14.2370267"><ele>144.66666666666669</ele><time>2026-04-20T13:46:49.534Z</time></trkpt><trkpt lat="40.85474" lon="14.2370317"><ele>146.33333333333334</ele><time>2026-04-20T13:46:51.535Z</time></trkpt><trkpt lat="40.854665" lon="14.2370433"><ele>148.0</ele><time>2026-04-20T13:46:54.535Z</time></trkpt><trkpt lat="40.8546017" lon="14.2370733"><ele>148.0</ele><time>2026-04-20T13:46:56.535Z</time></trkpt><trkpt lat="40.8545483" lon="14.23712"><ele>148.0</ele><time>2026-04-20T13:46:58.535Z</time></trkpt><trkpt lat="40.8544717" lon="14.2371683"><ele>148.0</ele><time>2026-04-20T13:47:01.535Z</time></trkpt><trkpt lat="40.8544017" lon="14.237195"><ele>148.0</ele><time>2026-04-20T13:47:04.535Z</time></trkpt><trkpt lat="40.8543333" lon="14.23717"><ele>148.0</ele><time>2026-04-20T13:47:07.535Z</time></trkpt><trkpt lat="40.8542667" lon="14.237105"><ele>148.0</ele><time>2026-04-20T13:47:10.535Z</time></trkpt><trkpt lat="40.85421" lon="14.23702"><ele>148.33333333333334</ele><time>2026-04-20T13:47:13.535Z</time></trkpt><trkpt lat="40.8541683" lon="14.2369533"><ele>148.66666666666669</ele><time>2026-04-20T13:47:16.535Z</time></trkpt><trkpt lat="40.85413" lon="14.23687"><ele>149.0</ele><time>2026-04-20T13:47:19.533Z</time></trkpt><trkpt lat="40.854105" lon="14.23677"><ele>149.33333333333334</ele><time>2026-04-20T13:47:22.536Z</time></trkpt><trkpt lat="40.8540817" lon="14.2366467"><ele>149.66666666666666</ele><time>2026-04-20T13:47:25.534Z</time></trkpt><trkpt lat="40.854065" lon="14.236565"><ele>150.0</ele><time>2026-04-20T13:47:27.534Z</time></trkpt><trkpt lat="40.8540217" lon="14.2364683"><ele>150.83333333333334</ele><time>2026-04-20T13:47:30.536Z</time></trkpt><trkpt lat="40.854" lon="14.23639"><ele>151.66666666666666</ele><time>2026-04-20T13:47:32.535Z</time></trkpt><trkpt lat="40.853985" lon="14.236295"><ele>152.5</ele><time>2026-04-20T13:47:34.536Z</time></trkpt><trkpt lat="40.8539683" lon="14.2362117"><ele>153.33333333333331</ele><time>2026-04-20T13:47:36.536Z</time></trkpt><trkpt lat="40.8539517" lon="14.2361083"><ele>154.16666666666666</ele><time>2026-04-20T13:47:39.534Z</time></trkpt><trkpt lat="40.853965" lon="14.235985"><ele>155.0</ele><time>2026-04-20T13:47:42.534Z</time></trkpt><trkpt lat="40.85397" lon="14.2358667"><ele>155.0</ele><time>2026-04-20T13:47:45.535Z</time></trkpt><trkpt lat="40.853955" lon="14.2357567"><ele>155.0</ele><time>2026-04-20T13:47:48.536Z</time></trkpt><trkpt lat="40.8538767" lon="14.235695"><ele>155.0</ele><time>2026-04-20T13:47:52.536Z</time></trkpt><trkpt lat="40.8538083" lon="14.2356567"><ele>155.0</ele><time>2026-04-20T13:47:55.533Z</time></trkpt><trkpt lat="40.853755" lon="14.2355833"><ele>155.0</ele><time>2026-04-20T13:47:59.535Z</time></trkpt><trkpt lat="40.8536917" lon="14.235585"><ele>155.0</ele><time>2026-04-20T13:48:02.535Z</time></trkpt><trkpt lat="40.8536333" lon="14.235545"><ele>155.0</ele><time>2026-04-20T13:48:21.534Z</time></trkpt><trkpt lat="40.8537017" lon="14.2355183"><ele>155.0</ele><time>2026-04-20T13:48:25.535Z</time></trkpt><trkpt lat="40.8537617" lon="14.235555"><ele>155.0</ele><time>2026-04-20T13:48:28.534Z</time></trkpt><trkpt lat="40.85382" lon="14.2355883"><ele>155.0</ele><time>2026-04-20T13:48:30.535Z</time></trkpt><trkpt lat="40.8538967" lon="14.2356167"><ele>155.0</ele><time>2026-04-20T13:48:32.534Z</time></trkpt><trkpt lat="40.8539767" lon="14.2356533"><ele>155.0</ele><time>2026-04-20T13:48:34.535Z</time></trkpt><trkpt lat="40.85407" lon="14.2356133"><ele>155.85714285714286</ele><time>2026-04-20T13:48:37.533Z</time></trkpt><trkpt lat="40.854135" lon="14.2355717"><ele>156.71428571428572</ele><time>2026-04-20T13:48:39.535Z</time></trkpt><trkpt lat="40.8541967" lon="14.235545"><ele>157.57142857142856</ele><time>2026-04-20T13:48:41.538Z</time></trkpt><trkpt lat="40.8542633" lon="14.235525"><ele>158.42857142857144</ele><time>2026-04-20T13:48:43.535Z</time></trkpt><trkpt lat="40.8543267" lon="14.2355067"><ele>159.28571428571428</ele><time>2026-04-20T13:48:45.536Z</time></trkpt><trkpt lat="40.8543883" lon="14.2354867"><ele>160.14285714285714</ele><time>2026-04-20T13:48:47.535Z</time></trkpt><trkpt lat="40.8544583" lon="14.2354717"><ele>161.0</ele><time>2026-04-20T13:48:49.535Z</time></trkpt><trkpt lat="40.8545233" lon="14.2354433"><ele>161.0</ele><time>2026-04-20T13:48:51.535Z</time></trkpt><trkpt lat="40.854595" lon="14.23542"><ele>161.0</ele><time>2026-04-20T13:48:53.536Z</time></trkpt><trkpt lat="40.8546583" lon="14.2353817"><ele>161.0</ele><time>2026-04-20T13:48:55.536Z</time></trkpt><trkpt lat="40.854725" lon="14.23536"><ele>161.0</ele><time>2026-04-20T13:48:57.534Z</time></trkpt><trkpt lat="40.8547933" lon="14.2353467"><ele>161.0</ele><time>2026-04-20T13:48:59.536Z</time></trkpt><trkpt lat="40.85488" lon="14.2353233"><ele>161.0</ele><time>2026-04-20T13:49:02.535Z</time></trkpt><trkpt lat="40.8549567" lon="14.235305"><ele>161.0</ele><time>2026-04-20T13:49:05.535Z</time></trkpt><trkpt lat="40.8550367" lon="14.235255"><ele>159.83333333333331</ele><time>2026-04-20T13:49:08.535Z</time></trkpt><trkpt lat="40.8551233" lon="14.2352117"><ele>158.66666666666666</ele><time>2026-04-20T13:49:11.536Z</time></trkpt><trkpt lat="40.8551917" lon="14.2351483"><ele>157.5</ele><time>2026-04-20T13:49:14.534Z</time></trkpt><trkpt lat="40.8552333" lon="14.235085"><ele>156.33333333333334</ele><time>2026-04-20T13:49:16.536Z</time></trkpt><trkpt lat="40.855275" lon="14.234995"><ele>155.16666666666669</ele><time>2026-04-20T13:49:19.533Z</time></trkpt><trkpt lat="40.8553167" lon="14.2348933"><ele>154.0</ele><time>2026-04-20T13:49:22.535Z</time></trkpt><trkpt lat="40.8553533" lon="14.2348017"><ele>156.83333333333334</ele><time>2026-04-20T13:49:25.535Z</time></trkpt><trkpt lat="40.85539" lon="14.2346933"><ele>159.66666666666669</ele><time>2026-04-20T13:49:28.535Z</time></trkpt><trkpt lat="40.855435" lon="14.2345983"><ele>162.5</ele><time>2026-04-20T13:49:31.537Z</time></trkpt><trkpt lat="40.8554367" lon="14.2344917"><ele>165.33333333333334</ele><time>2026-04-20T13:49:34.536Z</time></trkpt><trkpt lat="40.8554167" lon="14.234385"><ele>168.16666666666666</ele><time>2026-04-20T13:49:37.536Z</time></trkpt><trkpt lat="40.85538" lon="14.23427"><ele>171.0</ele><time>2026-04-20T13:49:40.535Z</time></trkpt><trkpt lat="40.8553317" lon="14.23417"><ele>170.99999999999997</ele><time>2026-04-20T13:49:43.536Z</time></trkpt><trkpt lat="40.8552717" lon="14.2341033"><ele>171.0</ele><time>2026-04-20T13:49:46.536Z</time></trkpt><trkpt lat="40.8552183" lon="14.2340483"><ele>171.0</ele><time>2026-04-20T13:49:48.535Z</time></trkpt><trkpt lat="40.8551633" lon="14.2339983"><ele>171.0</ele><time>2026-04-20T13:49:50.536Z</time></trkpt><trkpt lat="40.8550967" lon="14.2339533"><ele>171.0</ele><time>2026-04-20T13:49:52.536Z</time></trkpt><trkpt lat="40.8550317" lon="14.233915"><ele>170.99999999999997</ele><time>2026-04-20T13:49:54.536Z</time></trkpt><trkpt lat="40.85497" lon="14.23388"><ele>171.0</ele><time>2026-04-20T13:49:56.534Z</time></trkpt><trkpt lat="40.8549067" lon="14.2338833"><ele>171.42857142857142</ele><time>2026-04-20T13:49:58.536Z</time></trkpt><trkpt lat="40.8548367" lon="14.23389"><ele>171.85714285714286</ele><time>2026-04-20T13:50:00.534Z</time></trkpt><trkpt lat="40.8547717" lon="14.2339233"><ele>172.28571428571428</ele><time>2026-04-20T13:50:02.534Z</time></trkpt><trkpt lat="40.8547117" lon="14.2339567"><ele>172.71428571428572</ele><time>2026-04-20T13:50:04.534Z</time></trkpt><trkpt lat="40.854625" lon="14.2339917"><ele>173.14285714285714</ele><time>2026-04-20T13:50:07.538Z</time></trkpt><trkpt lat="40.8545617" lon="14.2340317"><ele>173.57142857142856</ele><time>2026-04-20T13:50:09.535Z</time></trkpt><trkpt lat="40.85449" lon="14.2340767"><ele>174.0</ele><time>2026-04-20T13:50:12.535Z</time></trkpt><trkpt lat="40.8544067" lon="14.2340817"><ele>174.0</ele><time>2026-04-20T13:50:15.536Z</time></trkpt><trkpt lat="40.854335" lon="14.234115"><ele>174.0</ele><time>2026-04-20T13:50:18.535Z</time></trkpt><trkpt lat="40.85427" lon="14.2341717"><ele>174.0</ele><time>2026-04-20T13:50:20.536Z</time></trkpt><trkpt lat="40.8542033" lon="14.2341333"><ele>174.0</ele><time>2026-04-20T13:50:23.536Z</time></trkpt><trkpt lat="40.85413" lon="14.2340867"><ele>174.0</ele><time>2026-04-20T13:50:26.534Z</time></trkpt><trkpt lat="40.8540517" lon="14.2340333"><ele>174.0</ele><time>2026-04-20T13:50:29.536Z</time></trkpt><trkpt lat="40.8539917" lon="14.2339917"><ele>174.83333333333334</ele><time>2026-04-20T13:50:31.536Z</time></trkpt><trkpt lat="40.85394" lon="14.2339333"><ele>175.66666666666666</ele><time>2026-04-20T13:50:33.536Z</time></trkpt><trkpt lat="40.8538767" lon="14.2338567"><ele>176.5</ele><time>2026-04-20T13:50:36.535Z</time></trkpt><trkpt lat="40.8538117" lon="14.2337983"><ele>177.33333333333331</ele><time>2026-04-20T13:51:07.536Z</time></trkpt><trkpt lat="40.85377" lon="14.2337183"><ele>178.16666666666666</ele><time>2026-04-20T13:51:12.536Z</time></trkpt><trkpt lat="40.8537217" lon="14.2336617"><ele>179.0</ele><time>2026-04-20T13:51:15.535Z</time></trkpt><trkpt lat="40.85368" lon="14.2335483"><ele>179.0</ele><time>2026-04-20T13:51:18.535Z</time></trkpt><trkpt lat="40.8536667" lon="14.2334533"><ele>179.0</ele><time>2026-04-20T13:51:20.536Z</time></trkpt><trkpt lat="40.853665" lon="14.2333383"><ele>179.0</ele><time>2026-04-20T13:51:22.535Z</time></trkpt><trkpt lat="40.8536683" lon="14.2332217"><ele>179.0</ele><time>2026-04-20T13:51:24.537Z</time></trkpt><trkpt lat="40.8536583" lon="14.23311"><ele>179.0</ele><time>2026-04-20T13:51:26.536Z</time></trkpt><trkpt lat="40.8536667" lon="14.232995"><ele>179.0</ele><time>2026-04-20T13:51:28.536Z</time></trkpt><trkpt lat="40.853685" lon="14.2328717"><ele>179.5</ele><time>2026-04-20T13:51:30.535Z</time></trkpt><trkpt lat="40.8537" lon="14.2327533"><ele>180.0</ele><time>2026-04-20T13:51:32.535Z</time></trkpt><trkpt lat="40.8537017" lon="14.2326417"><ele>180.5</ele><time>2026-04-20T13:51:34.537Z</time></trkpt><trkpt lat="40.85371" lon="14.232525"><ele>181.0</ele><time>2026-04-20T13:51:36.536Z</time></trkpt><trkpt lat="40.85371" lon="14.2324083"><ele>181.5</ele><time>2026-04-20T13:51:38.536Z</time></trkpt><trkpt lat="40.85371" lon="14.2322917"><ele>182.0</ele><time>2026-04-20T13:51:40.537Z</time></trkpt><trkpt lat="40.85373" lon="14.23217"><ele>183.0</ele><time>2026-04-20T13:51:42.536Z</time></trkpt><trkpt lat="40.8537283" lon="14.2320317"><ele>184.0</ele><time>2026-04-20T13:51:44.536Z</time></trkpt><trkpt lat="40.8537467" lon="14.2319017"><ele>185.0</ele><time>2026-04-20T13:51:46.536Z</time></trkpt><trkpt lat="40.853765" lon="14.2317633"><ele>186.0</ele><time>2026-04-20T13:51:48.535Z</time></trkpt><trkpt lat="40.85377" lon="14.2316583"><ele>187.0</ele><time>2026-04-20T13:51:50.535Z</time></trkpt><trkpt lat="40.8537833" lon="14.2315767"><ele>187.83333333333334</ele><time>2026-04-20T13:51:52.535Z</time></trkpt><trkpt lat="40.85379" lon="14.231465"><ele>188.66666666666669</ele><time>2026-04-20T13:51:55.537Z</time></trkpt><trkpt lat="40.853795" lon="14.2313467"><ele>189.5</ele><time>2026-04-20T13:51:58.535Z</time></trkpt><trkpt lat="40.8537783" lon="14.231235"><ele>190.33333333333334</ele><time>2026-04-20T13:52:01.534Z</time></trkpt><trkpt lat="40.853735" lon="14.2311283"><ele>191.16666666666666</ele><time>2026-04-20T13:52:04.536Z</time></trkpt><trkpt lat="40.8537117" lon="14.2310267"><ele>192.0</ele><time>2026-04-20T13:52:07.535Z</time></trkpt><trkpt lat="40.8536933" lon="14.2309283"><ele>192.0</ele><time>2026-04-20T13:52:11.535Z</time></trkpt><trkpt lat="40.853675" lon="14.2308217"><ele>192.0</ele><time>2026-04-20T13:52:15.535Z</time></trkpt><trkpt lat="40.8536417" lon="14.2307"><ele>192.0</ele><time>2026-04-20T13:52:18.536Z</time></trkpt><trkpt lat="40.8535967" lon="14.23061"><ele>192.0</ele><time>2026-04-20T13:52:21.536Z</time></trkpt><trkpt lat="40.8535717" lon="14.2305267"><ele>192.0</ele><time>2026-04-20T13:52:24.537Z</time></trkpt><trkpt lat="40.8535483" lon="14.2304217"><ele>192.0</ele><time>2026-04-20T13:52:28.535Z</time></trkpt><trkpt lat="40.85354" lon="14.2303083"><ele>192.14285714285714</ele><time>2026-04-20T13:52:31.538Z</time></trkpt><trkpt lat="40.85353" lon="14.2302183"><ele>192.28571428571428</ele><time>2026-04-20T13:52:33.536Z</time></trkpt><trkpt lat="40.8535317" lon="14.2301183"><ele>192.42857142857144</ele><time>2026-04-20T13:52:35.535Z</time></trkpt><trkpt lat="40.8535617" lon="14.230025"><ele>192.57142857142856</ele><time>2026-04-20T13:52:37.535Z</time></trkpt><trkpt lat="40.8535967" lon="14.229945"><ele>192.71428571428572</ele><time>2026-04-20T13:52:39.535Z</time></trkpt><trkpt lat="40.85365" lon="14.2298933"><ele>192.85714285714286</ele><time>2026-04-20T13:52:41.537Z</time></trkpt><trkpt lat="40.853705" lon="14.2298467"><ele>193.0</ele><time>2026-04-20T13:52:43.535Z</time></trkpt><trkpt lat="40.8537617" lon="14.2298033"><ele>193.00000000000003</ele><time>2026-04-20T13:52:46.535Z</time></trkpt><trkpt lat="40.8538217" lon="14.22975"><ele>193.0</ele><time>2026-04-20T13:52:49.535Z</time></trkpt><trkpt lat="40.8538817" lon="14.2297"><ele>193.0</ele><time>2026-04-20T13:52:52.536Z</time></trkpt><trkpt lat="40.853945" lon="14.2296633"><ele>193.0</ele><time>2026-04-20T13:52:55.535Z</time></trkpt><trkpt lat="40.8540133" lon="14.229625"><ele>193.0</ele><time>2026-04-20T13:52:58.537Z</time></trkpt><trkpt lat="40.854065" lon="14.2295633"><ele>193.00000000000003</ele><time>2026-04-20T13:53:01.536Z</time></trkpt><trkpt lat="40.8541217" lon="14.2295083"><ele>193.0</ele><time>2026-04-20T13:53:05.537Z</time></trkpt><trkpt lat="40.8541583" lon="14.22944"><ele>192.99999999999997</ele><time>2026-04-20T13:53:08.535Z</time></trkpt><trkpt lat="40.8541967" lon="14.229345"><ele>193.0</ele><time>2026-04-20T13:53:11.534Z</time></trkpt><trkpt lat="40.854265" lon="14.2292383"><ele>193.0</ele><time>2026-04-20T13:53:14.534Z</time></trkpt><trkpt lat="40.8543233" lon="14.229205"><ele>193.0</ele><time>2026-04-20T13:53:16.534Z</time></trkpt><trkpt lat="40.8543917" lon="14.22913"><ele>192.99999999999997</ele><time>2026-04-20T13:53:19.535Z</time></trkpt><trkpt lat="40.8544583" lon="14.2290467"><ele>193.0</ele><time>2026-04-20T13:53:22.534Z</time></trkpt><trkpt lat="40.8545017" lon="14.2289783"><ele>194.57142857142858</ele><time>2026-04-20T13:53:24.535Z</time></trkpt><trkpt lat="40.8545367" lon="14.2288967"><ele>196.14285714285714</ele><time>2026-04-20T13:53:26.534Z</time></trkpt><trkpt lat="40.8545917" lon="14.2288217"><ele>197.71428571428572</ele><time>2026-04-20T13:53:29.536Z</time></trkpt><trkpt lat="40.8546617" lon="14.2288"><ele>199.28571428571428</ele><time>2026-04-20T13:53:31.538Z</time></trkpt><trkpt lat="40.854735" lon="14.2287833"><ele>200.85714285714286</ele><time>2026-04-20T13:53:33.535Z</time></trkpt><trkpt lat="40.8547617" lon="14.2287"><ele>202.42857142857144</ele><time>2026-04-20T13:53:35.535Z</time></trkpt><trkpt lat="40.854815" lon="14.2286267"><ele>204.0</ele><time>2026-04-20T13:53:37.534Z</time></trkpt><trkpt lat="40.8548583" lon="14.2285633"><ele>204.0</ele><time>2026-04-20T13:53:39.536Z</time></trkpt><trkpt lat="40.8549183" lon="14.2285017"><ele>204.0</ele><time>2026-04-20T13:53:42.536Z</time></trkpt><trkpt lat="40.8549817" lon="14.2284867"><ele>204.0</ele><time>2026-04-20T13:53:46.536Z</time></trkpt><trkpt lat="40.855055" lon="14.2284683"><ele>204.0</ele><time>2026-04-20T13:53:49.535Z</time></trkpt><trkpt lat="40.8551183" lon="14.2284783"><ele>204.0</ele><time>2026-04-20T13:53:51.534Z</time></trkpt><trkpt lat="40.855185" lon="14.22842"><ele>204.0</ele><time>2026-04-20T13:53:54.536Z</time></trkpt><trkpt lat="40.8552467" lon="14.228365"><ele>204.0</ele><time>2026-04-20T13:53:57.535Z</time></trkpt><trkpt lat="40.8553233" lon="14.2283117"><ele>205.0</ele><time>2026-04-20T13:54:00.536Z</time></trkpt><trkpt lat="40.8553833" lon="14.2282783"><ele>206.0</ele><time>2026-04-20T13:54:02.537Z</time></trkpt><trkpt lat="40.8554567" lon="14.2282717"><ele>207.0</ele><time>2026-04-20T13:54:04.536Z</time></trkpt><trkpt lat="40.8555417" lon="14.2282933"><ele>208.0</ele><time>2026-04-20T13:54:06.536Z</time></trkpt><trkpt lat="40.855625" lon="14.2283033"><ele>209.0</ele><time>2026-04-20T13:54:08.535Z</time></trkpt><trkpt lat="40.855705" lon="14.2283317"><ele>210.0</ele><time>2026-04-20T13:54:10.536Z</time></trkpt><trkpt lat="40.85577" lon="14.22837"><ele>210.0</ele><time>2026-04-20T13:54:12.536Z</time></trkpt><trkpt lat="40.8558683" lon="14.228415"><ele>210.0</ele><time>2026-04-20T13:54:15.536Z</time></trkpt><trkpt lat="40.8559433" lon="14.22842"><ele>210.0</ele><time>2026-04-20T13:54:17.538Z</time></trkpt><trkpt lat="40.8560133" lon="14.228405"><ele>210.0</ele><time>2026-04-20T13:54:19.537Z</time></trkpt><trkpt lat="40.85608" lon="14.22835"><ele>210.0</ele><time>2026-04-20T13:54:23.536Z</time></trkpt><trkpt lat="40.8560217" lon="14.2284367"><ele>210.0</ele><time>2026-04-20T13:54:31.535Z</time></trkpt><trkpt lat="40.8559517" lon="14.2285267"><ele>210.0</ele><time>2026-04-20T13:54:33.534Z</time></trkpt><trkpt lat="40.8558817" lon="14.2285967"><ele>210.0</ele><time>2026-04-20T13:54:36.536Z</time></trkpt><trkpt lat="40.85585" lon="14.228695"><ele>210.0</ele><time>2026-04-20T13:54:37.535Z</time></trkpt><trkpt lat="40.8558017" lon="14.2287517"><ele>210.0</ele><time>2026-04-20T13:54:39.535Z</time></trkpt><trkpt lat="40.85573" lon="14.228815"><ele>210.0</ele><time>2026-04-20T13:54:41.536Z</time></trkpt><trkpt lat="40.8556617" lon="14.2288317"><ele>210.0</ele><time>2026-04-20T13:54:43.536Z</time></trkpt><trkpt lat="40.8555533" lon="14.2288683"><ele>210.0</ele><time>2026-04-20T13:54:45.535Z</time></trkpt><trkpt lat="40.855485" lon="14.2289417"><ele>210.0</ele><time>2026-04-20T13:54:47.537Z</time></trkpt><trkpt lat="40.8554083" lon="14.2290017"><ele>210.0</ele><time>2026-04-20T13:54:49.536Z</time></trkpt><trkpt lat="40.8553517" lon="14.2290983"><ele>210.0</ele><time>2026-04-20T13:54:51.535Z</time></trkpt><trkpt lat="40.8552683" lon="14.22916"><ele>210.0</ele><time>2026-04-20T13:54:53.536Z</time></trkpt><trkpt lat="40.8551967" lon="14.229255"><ele>211.2</ele><time>2026-04-20T13:54:55.536Z</time></trkpt><trkpt lat="40.8551683" lon="14.2293467"><ele>212.4</ele><time>2026-04-20T13:54:57.535Z</time></trkpt><trkpt lat="40.8552033" lon="14.2295433"><ele>213.60000000000002</ele><time>2026-04-20T13:54:59.536Z</time></trkpt><trkpt lat="40.8552067" lon="14.2296367"><ele>214.8</ele><time>2026-04-20T13:55:01.537Z</time></trkpt><trkpt lat="40.85524" lon="14.22972"><ele>216.0</ele><time>2026-04-20T13:55:02.539Z</time></trkpt><trkpt lat="40.8552633" lon="14.2298417"><ele>216.33333333333334</ele><time>2026-04-20T13:55:04.536Z</time></trkpt><trkpt lat="40.85529" lon="14.2299567"><ele>216.66666666666669</ele><time>2026-04-20T13:55:06.535Z</time></trkpt><trkpt lat="40.8552483" lon="14.2300267"><ele>217.0</ele><time>2026-04-20T13:55:07.536Z</time></trkpt><trkpt lat="40.8552533" lon="14.2301533"><ele>217.33333333333334</ele><time>2026-04-20T13:55:09.536Z</time></trkpt><trkpt lat="40.85528" lon="14.2302617"><ele>217.66666666666669</ele><time>2026-04-20T13:55:11.535Z</time></trkpt><trkpt lat="40.8553083" lon="14.2303583"><ele>218.0</ele><time>2026-04-20T13:55:13.534Z</time></trkpt><trkpt lat="40.8553433" lon="14.230465"><ele>218.00000000000003</ele><time>2026-04-20T13:55:15.534Z</time></trkpt><trkpt lat="40.85538" lon="14.2305467"><ele>218.0</ele><time>2026-04-20T13:55:17.536Z</time></trkpt><trkpt lat="40.8554267" lon="14.2306417"><ele>218.0</ele><time>2026-04-20T13:55:19.536Z</time></trkpt><trkpt lat="40.8554717" lon="14.2307233"><ele>218.0</ele><time>2026-04-20T13:55:21.534Z</time></trkpt><trkpt lat="40.8555267" lon="14.2307917"><ele>218.00000000000003</ele><time>2026-04-20T13:55:23.534Z</time></trkpt><trkpt lat="40.855575" lon="14.2308517"><ele>218.0</ele><time>2026-04-20T13:55:25.536Z</time></trkpt><trkpt lat="40.8556283" lon="14.23092"><ele>218.00000000000003</ele><time>2026-04-20T13:55:27.535Z</time></trkpt><trkpt lat="40.8556833" lon="14.2309917"><ele>218.0</ele><time>2026-04-20T13:55:29.534Z</time></trkpt><trkpt lat="40.8557433" lon="14.2310633"><ele>218.0</ele><time>2026-04-20T13:55:31.536Z</time></trkpt><trkpt lat="40.8558033" lon="14.23113"><ele>218.0</ele><time>2026-04-20T13:55:33.534Z</time></trkpt><trkpt lat="40.8558633" lon="14.2312"><ele>218.00000000000003</ele><time>2026-04-20T13:55:35.535Z</time></trkpt><trkpt lat="40.8559217" lon="14.2312733"><ele>218.0</ele><time>2026-04-20T13:55:37.535Z</time></trkpt><trkpt lat="40.8559883" lon="14.2313467"><ele>217.83333333333334</ele><time>2026-04-20T13:55:39.535Z</time></trkpt><trkpt lat="40.856045" lon="14.23142"><ele>217.66666666666669</ele><time>2026-04-20T13:55:41.534Z</time></trkpt><trkpt lat="40.8560983" lon="14.2315"><ele>217.5</ele><time>2026-04-20T13:55:43.535Z</time></trkpt><trkpt lat="40.8561667" lon="14.2315633"><ele>217.33333333333331</ele><time>2026-04-20T13:55:45.535Z</time></trkpt><trkpt lat="40.8562433" lon="14.2316083"><ele>217.16666666666666</ele><time>2026-04-20T13:55:47.533Z</time></trkpt><trkpt lat="40.856325" lon="14.2316517"><ele>217.0</ele><time>2026-04-20T13:55:49.536Z</time></trkpt><trkpt lat="40.8564233" lon="14.2316667"><ele>216.99999999999997</ele><time>2026-04-20T13:55:51.533Z</time></trkpt><trkpt lat="40.85651" lon="14.231655"><ele>217.0</ele><time>2026-04-20T13:55:53.535Z</time></trkpt><trkpt lat="40.8565967" lon="14.23162"><ele>217.0</ele><time>2026-04-20T13:55:55.536Z</time></trkpt><trkpt lat="40.85668" lon="14.231565"><ele>217.0</ele><time>2026-04-20T13:55:57.534Z</time></trkpt><trkpt lat="40.85674" lon="14.2314867"><ele>216.99999999999997</ele><time>2026-04-20T13:55:59.536Z</time></trkpt><trkpt lat="40.85681" lon="14.2314067"><ele>217.0</ele><time>2026-04-20T13:56:01.533Z</time></trkpt><trkpt lat="40.8568717" lon="14.2313267"><ele>218.99999999999997</ele><time>2026-04-20T13:56:03.533Z</time></trkpt><trkpt lat="40.856925" lon="14.2312583"><ele>221.0</ele><time>2026-04-20T13:56:05.534Z</time></trkpt><trkpt lat="40.856975" lon="14.2311617"><ele>223.0</ele><time>2026-04-20T13:56:07.535Z</time></trkpt><trkpt lat="40.857025" lon="14.2310633"><ele>225.0</ele><time>2026-04-20T13:56:09.533Z</time></trkpt><trkpt lat="40.8570767" lon="14.2309633"><ele>226.99999999999997</ele><time>2026-04-20T13:56:11.534Z</time></trkpt><trkpt lat="40.8571233" lon="14.2308667"><ele>229.0</ele><time>2026-04-20T13:56:13.535Z</time></trkpt><trkpt lat="40.8571667" lon="14.2307967"><ele>228.99999999999997</ele><time>2026-04-20T13:56:15.536Z</time></trkpt><trkpt lat="40.8572117" lon="14.23073"><ele>229.0</ele><time>2026-04-20T13:56:17.536Z</time></trkpt><trkpt lat="40.8572683" lon="14.2306417"><ele>229.0</ele><time>2026-04-20T13:56:20.534Z</time></trkpt><trkpt lat="40.8573217" lon="14.2305683"><ele>229.0</ele><time>2026-04-20T13:56:23.535Z</time></trkpt><trkpt lat="40.8573533" lon="14.2304883"><ele>228.99999999999997</ele><time>2026-04-20T13:56:26.535Z</time></trkpt><trkpt lat="40.8573767" lon="14.23039"><ele>229.0</ele><time>2026-04-20T13:56:30.535Z</time></trkpt><trkpt lat="40.857345" lon="14.230305"><ele>229.66666666666666</ele><time>2026-04-20T13:56:33.534Z</time></trkpt><trkpt lat="40.857295" lon="14.2302133"><ele>230.33333333333331</ele><time>2026-04-20T13:56:37.536Z</time></trkpt><trkpt lat="40.8572317" lon="14.2301717"><ele>231.0</ele><time>2026-04-20T13:56:40.534Z</time></trkpt><trkpt lat="40.8571583" lon="14.2301517"><ele>231.66666666666669</ele><time>2026-04-20T13:56:43.534Z</time></trkpt><trkpt lat="40.85707" lon="14.23014"><ele>232.33333333333334</ele><time>2026-04-20T13:56:46.534Z</time></trkpt><trkpt lat="40.8570083" lon="14.2301733"><ele>233.0</ele><time>2026-04-20T13:56:49.535Z</time></trkpt><trkpt lat="40.85694" lon="14.2302133"><ele>233.00000000000003</ele><time>2026-04-20T13:56:52.536Z</time></trkpt><trkpt lat="40.85685" lon="14.2302367"><ele>233.0</ele><time>2026-04-20T13:56:55.536Z</time></trkpt><trkpt lat="40.8567667" lon="14.2302467"><ele>233.0</ele><time>2026-04-20T13:56:58.535Z</time></trkpt><trkpt lat="40.8566917" lon="14.2302267"><ele>233.0</ele><time>2026-04-20T13:57:01.537Z</time></trkpt><trkpt lat="40.856635" lon="14.23018"><ele>233.00000000000003</ele><time>2026-04-20T13:57:03.535Z</time></trkpt><trkpt lat="40.85658" lon="14.23011"><ele>233.0</ele><time>2026-04-20T13:57:06.534Z</time></trkpt><trkpt lat="40.8565633" lon="14.229965"><ele>232.85714285714286</ele><time>2026-04-20T13:57:09.534Z</time></trkpt><trkpt lat="40.8565733" lon="14.22987"><ele>232.71428571428572</ele><time>2026-04-20T13:57:11.535Z</time></trkpt><trkpt lat="40.856605" lon="14.2297833"><ele>232.57142857142858</ele><time>2026-04-20T13:57:13.535Z</time></trkpt><trkpt lat="40.8566583" lon="14.22971"><ele>232.42857142857144</ele><time>2026-04-20T13:57:15.533Z</time></trkpt><trkpt lat="40.8567083" lon="14.22964"><ele>232.28571428571428</ele><time>2026-04-20T13:57:17.535Z</time></trkpt><trkpt lat="40.856755" lon="14.2295667"><ele>232.14285714285717</ele><time>2026-04-20T13:57:19.535Z</time></trkpt><trkpt lat="40.8568017" lon="14.2294933"><ele>232.00000000000003</ele><time>2026-04-20T13:57:21.534Z</time></trkpt><trkpt lat="40.85686" lon="14.2294317"><ele>231.99999999999997</ele><time>2026-04-20T13:57:23.536Z</time></trkpt><trkpt lat="40.85692" lon="14.229365"><ele>232.0</ele><time>2026-04-20T13:57:25.534Z</time></trkpt><trkpt lat="40.8569733" lon="14.2292917"><ele>232.0</ele><time>2026-04-20T13:57:27.535Z</time></trkpt><trkpt lat="40.85703" lon="14.229225"><ele>232.0</ele><time>2026-04-20T13:57:29.537Z</time></trkpt><trkpt lat="40.8570783" lon="14.2291583"><ele>231.99999999999997</ele><time>2026-04-20T13:57:31.534Z</time></trkpt><trkpt lat="40.8571317" lon="14.2290783"><ele>232.0</ele><time>2026-04-20T13:57:33.534Z</time></trkpt><trkpt lat="40.8571833" lon="14.22901"><ele>232.14285714285717</ele><time>2026-04-20T13:57:35.535Z</time></trkpt><trkpt lat="40.857225" lon="14.22894"><ele>232.28571428571428</ele><time>2026-04-20T13:57:37.534Z</time></trkpt><trkpt lat="40.8572617" lon="14.2288617"><ele>232.42857142857144</ele><time>2026-04-20T13:57:39.535Z</time></trkpt><trkpt lat="40.8573067" lon="14.22879"><ele>232.57142857142858</ele><time>2026-04-20T13:57:41.534Z</time></trkpt><trkpt lat="40.8573583" lon="14.2287217"><ele>232.71428571428572</ele><time>2026-04-20T13:57:43.535Z</time></trkpt><trkpt lat="40.8574133" lon="14.2286617"><ele>232.85714285714286</ele><time>2026-04-20T13:57:45.536Z</time></trkpt><trkpt lat="40.85746" lon="14.2285933"><ele>233.0</ele><time>2026-04-20T13:57:47.535Z</time></trkpt><trkpt lat="40.8575033" lon="14.2285283"><ele>233.0</ele><time>2026-04-20T13:57:49.535Z</time></trkpt><trkpt lat="40.8575417" lon="14.2284517"><ele>233.0</ele><time>2026-04-20T13:57:51.534Z</time></trkpt><trkpt lat="40.857585" lon="14.2283833"><ele>233.0</ele><time>2026-04-20T13:57:53.535Z</time></trkpt><trkpt lat="40.8576283" lon="14.2282983"><ele>233.0</ele><time>2026-04-20T13:57:55.535Z</time></trkpt><trkpt lat="40.8576667" lon="14.22823"><ele>233.0</ele><time>2026-04-20T13:57:57.534Z</time></trkpt><trkpt lat="40.8577083" lon="14.2281517"><ele>233.0</ele><time>2026-04-20T13:57:59.536Z</time></trkpt><trkpt lat="40.8577567" lon="14.2280783"><ele>233.0</ele><time>2026-04-20T13:58:01.535Z</time></trkpt><trkpt lat="40.8578217" lon="14.227995"><ele>233.42857142857144</ele><time>2026-04-20T13:58:04.534Z</time></trkpt><trkpt lat="40.8578667" lon="14.2279267"><ele>233.85714285714283</ele><time>2026-04-20T13:58:06.535Z</time></trkpt><trkpt lat="40.85791" lon="14.22785"><ele>234.28571428571428</ele><time>2026-04-20T13:58:08.534Z</time></trkpt><trkpt lat="40.8579483" lon="14.2277833"><ele>234.71428571428572</ele><time>2026-04-20T13:58:10.536Z</time></trkpt><trkpt lat="40.85801" lon="14.2277433"><ele>235.14285714285717</ele><time>2026-04-20T13:58:12.535Z</time></trkpt><trkpt lat="40.8580667" lon="14.2277"><ele>235.57142857142856</ele><time>2026-04-20T13:58:14.535Z</time></trkpt><trkpt lat="40.8581583" lon="14.2276567"><ele>236.0</ele><time>2026-04-20T13:58:17.535Z</time></trkpt><trkpt lat="40.8582083" lon="14.2276017"><ele>236.00000000000003</ele><time>2026-04-20T13:58:19.536Z</time></trkpt><trkpt lat="40.8582883" lon="14.2275383"><ele>236.0</ele><time>2026-04-20T13:58:22.534Z</time></trkpt><trkpt lat="40.8583783" lon="14.2275483"><ele>236.0</ele><time>2026-04-20T13:58:24.535Z</time></trkpt><trkpt lat="40.8584617" lon="14.227535"><ele>236.0</ele><time>2026-04-20T13:58:26.536Z</time></trkpt><trkpt lat="40.8585233" lon="14.227495"><ele>236.00000000000003</ele><time>2026-04-20T13:58:28.535Z</time></trkpt><trkpt lat="40.858605" lon="14.2274467"><ele>236.0</ele><time>2026-04-20T13:58:31.536Z</time></trkpt><trkpt lat="40.85869" lon="14.2273917"><ele>237.28571428571428</ele><time>2026-04-20T13:58:34.535Z</time></trkpt><trkpt lat="40.85874" lon="14.2273367"><ele>238.57142857142858</ele><time>2026-04-20T13:58:36.535Z</time></trkpt><trkpt lat="40.8587883" lon="14.227275"><ele>239.85714285714286</ele><time>2026-04-20T13:58:38.536Z</time></trkpt><trkpt lat="40.8588283" lon="14.227205"><ele>241.14285714285714</ele><time>2026-04-20T13:58:40.535Z</time></trkpt><trkpt lat="40.8588483" lon="14.227115"><ele>242.42857142857144</ele><time>2026-04-20T13:58:42.535Z</time></trkpt><trkpt lat="40.8588733" lon="14.2270283"><ele>243.71428571428572</ele><time>2026-04-20T13:58:44.535Z</time></trkpt><trkpt lat="40.8588783" lon="14.226945"><ele>245.0</ele><time>2026-04-20T13:58:46.535Z</time></trkpt><trkpt lat="40.8588733" lon="14.2268567"><ele>245.00000000000003</ele><time>2026-04-20T13:58:48.535Z</time></trkpt><trkpt lat="40.85888" lon="14.2267367"><ele>245.0</ele><time>2026-04-20T13:58:51.536Z</time></trkpt><trkpt lat="40.858855" lon="14.2266283"><ele>245.0</ele><time>2026-04-20T13:58:54.534Z</time></trkpt><trkpt lat="40.858795" lon="14.226535"><ele>245.0</ele><time>2026-04-20T13:58:57.534Z</time></trkpt><trkpt lat="40.8587517" lon="14.2264667"><ele>245.00000000000003</ele><time>2026-04-20T13:58:59.536Z</time></trkpt><trkpt lat="40.8587117" lon="14.2264017"><ele>245.0</ele><time>2026-04-20T13:59:01.535Z</time></trkpt><trkpt lat="40.8586767" lon="14.2263183"><ele>245.00000000000003</ele><time>2026-04-20T13:59:03.536Z</time></trkpt><trkpt lat="40.8586333" lon="14.226205"><ele>245.0</ele><time>2026-04-20T13:59:06.536Z</time></trkpt><trkpt lat="40.8586033" lon="14.22612"><ele>245.0</ele><time>2026-04-20T13:59:08.536Z</time></trkpt><trkpt lat="40.8585817" lon="14.2260217"><ele>245.0</ele><time>2026-04-20T13:59:10.535Z</time></trkpt><trkpt lat="40.8585733" lon="14.225915"><ele>245.00000000000003</ele><time>2026-04-20T13:59:12.535Z</time></trkpt><trkpt lat="40.8585733" lon="14.2258033"><ele>245.0</ele><time>2026-04-20T13:59:14.533Z</time></trkpt><trkpt lat="40.8585733" lon="14.225695"><ele>244.8</ele><time>2026-04-20T13:59:16.534Z</time></trkpt><trkpt lat="40.85858" lon="14.225575"><ele>244.6</ele><time>2026-04-20T13:59:18.534Z</time></trkpt><trkpt lat="40.8585867" lon="14.225445"><ele>244.39999999999998</ele><time>2026-04-20T13:59:20.534Z</time></trkpt><trkpt lat="40.8585983" lon="14.2253317"><ele>244.2</ele><time>2026-04-20T13:59:22.535Z</time></trkpt><trkpt lat="40.8586083" lon="14.2252017"><ele>244.0</ele><time>2026-04-20T13:59:24.535Z</time></trkpt><trkpt lat="40.85862" lon="14.2250867"><ele>243.99999999999997</ele><time>2026-04-20T13:59:26.536Z</time></trkpt><trkpt lat="40.858645" lon="14.2249767"><ele>244.0</ele><time>2026-04-20T13:59:28.534Z</time></trkpt><trkpt lat="40.8586633" lon="14.2248833"><ele>244.0</ele><time>2026-04-20T13:59:30.536Z</time></trkpt><trkpt lat="40.858695" lon="14.2248"><ele>244.0</ele><time>2026-04-20T13:59:32.535Z</time></trkpt><trkpt lat="40.858725" lon="14.2246867"><ele>243.99999999999997</ele><time>2026-04-20T13:59:35.535Z</time></trkpt><trkpt lat="40.8587533" lon="14.22461"><ele>244.0</ele><time>2026-04-20T13:59:37.535Z</time></trkpt><trkpt lat="40.85879" lon="14.2245367"><ele>244.4285714285714</ele><time>2026-04-20T13:59:39.535Z</time></trkpt><trkpt lat="40.8588367" lon="14.2244633"><ele>244.85714285714283</ele><time>2026-04-20T13:59:41.534Z</time></trkpt><trkpt lat="40.858875" lon="14.2243883"><ele>245.28571428571428</ele><time>2026-04-20T13:59:43.533Z</time></trkpt><trkpt lat="40.8589233" lon="14.2243167"><ele>245.7142857142857</ele><time>2026-04-20T13:59:45.535Z</time></trkpt><trkpt lat="40.8589767" lon="14.2242517"><ele>246.1428571428571</ele><time>2026-04-20T13:59:47.535Z</time></trkpt><trkpt lat="40.859045" lon="14.2241933"><ele>246.57142857142858</ele><time>2026-04-20T13:59:49.533Z</time></trkpt><trkpt lat="40.8591017" lon="14.2241333"><ele>247.0</ele><time>2026-04-20T13:59:51.534Z</time></trkpt><trkpt lat="40.8591617" lon="14.2240833"><ele>247.0</ele><time>2026-04-20T13:59:53.536Z</time></trkpt><trkpt lat="40.8592117" lon="14.2240267"><ele>247.0</ele><time>2026-04-20T13:59:55.533Z</time></trkpt><trkpt lat="40.8592733" lon="14.2239817"><ele>247.0</ele><time>2026-04-20T13:59:57.534Z</time></trkpt><trkpt lat="40.859335" lon="14.2239467"><ele>247.0</ele><time>2026-04-20T13:59:59.535Z</time></trkpt><trkpt lat="40.859395" lon="14.22392"><ele>247.0</ele><time>2026-04-20T14:00:01.533Z</time></trkpt><trkpt lat="40.859455" lon="14.2238917"><ele>247.0</ele><time>2026-04-20T14:00:03.534Z</time></trkpt><trkpt lat="40.8595383" lon="14.2238617"><ele>247.0</ele><time>2026-04-20T14:00:06.534Z</time></trkpt><trkpt lat="40.859625" lon="14.22382"><ele>248.49999999999997</ele><time>2026-04-20T14:00:09.535Z</time></trkpt><trkpt lat="40.8597067" lon="14.2237867"><ele>250.0</ele><time>2026-04-20T14:00:12.535Z</time></trkpt><trkpt lat="40.859785" lon="14.2237467"><ele>251.5</ele><time>2026-04-20T14:00:15.536Z</time></trkpt><trkpt lat="40.85986" lon="14.2236783"><ele>253.0</ele><time>2026-04-20T14:00:18.536Z</time></trkpt><trkpt lat="40.8599117" lon="14.22362"><ele>254.49999999999997</ele><time>2026-04-20T14:00:20.535Z</time></trkpt><trkpt lat="40.8599633" lon="14.2235617"><ele>256.0</ele><time>2026-04-20T14:00:22.535Z</time></trkpt><trkpt lat="40.860005" lon="14.2234967"><ele>255.99999999999997</ele><time>2026-04-20T14:00:24.536Z</time></trkpt><trkpt lat="40.8600583" lon="14.22341"><ele>256.0</ele><time>2026-04-20T14:00:27.535Z</time></trkpt><trkpt lat="40.8601" lon="14.2233133"><ele>256.0</ele><time>2026-04-20T14:00:30.536Z</time></trkpt><trkpt lat="40.86011" lon="14.2231967"><ele>256.0</ele><time>2026-04-20T14:00:33.535Z</time></trkpt><trkpt lat="40.8601083" lon="14.2230817"><ele>255.99999999999997</ele><time>2026-04-20T14:00:36.536Z</time></trkpt><trkpt lat="40.8601017" lon="14.222995"><ele>256.0</ele><time>2026-04-20T14:00:38.536Z</time></trkpt><trkpt lat="40.8600717" lon="14.2229133"><ele>255.99999999999997</ele><time>2026-04-20T14:00:40.534Z</time></trkpt><trkpt lat="40.8600533" lon="14.2228183"><ele>256.0</ele><time>2026-04-20T14:00:42.536Z</time></trkpt><trkpt lat="40.860045" lon="14.2227133"><ele>256.0</ele><time>2026-04-20T14:00:44.535Z</time></trkpt><trkpt lat="40.8600283" lon="14.2226117"><ele>256.0</ele><time>2026-04-20T14:00:46.534Z</time></trkpt><trkpt lat="40.8600117" lon="14.2225017"><ele>255.99999999999997</ele><time>2026-04-20T14:00:48.536Z</time></trkpt><trkpt lat="40.8599967" lon="14.22239"><ele>256.0</ele><time>2026-04-20T14:00:50.537Z</time></trkpt><trkpt lat="40.8599733" lon="14.22227"><ele>257.40000000000003</ele><time>2026-04-20T14:00:52.536Z</time></trkpt><trkpt lat="40.859965" lon="14.2221533"><ele>258.8</ele><time>2026-04-20T14:00:54.534Z</time></trkpt><trkpt lat="40.8599867" lon="14.22203"><ele>260.20000000000005</ele><time>2026-04-20T14:00:56.535Z</time></trkpt><trkpt lat="40.8600233" lon="14.22192"><ele>261.6</ele><time>2026-04-20T14:00:58.532Z</time></trkpt><trkpt lat="40.86009" lon="14.2218317"><ele>263.0</ele><time>2026-04-20T14:01:00.536Z</time></trkpt><trkpt lat="40.8601783" lon="14.2217567"><ele>264.0</ele><time>2026-04-20T14:01:02.533Z</time></trkpt><trkpt lat="40.86027" lon="14.221695"><ele>265.0</ele><time>2026-04-20T14:01:04.535Z</time></trkpt><trkpt lat="40.8603633" lon="14.221655"><ele>266.0</ele><time>2026-04-20T14:01:06.536Z</time></trkpt><trkpt lat="40.86045" lon="14.2216817"><ele>267.0</ele><time>2026-04-20T14:01:08.535Z</time></trkpt><trkpt lat="40.8605417" lon="14.221735"><ele>268.0</ele><time>2026-04-20T14:01:10.535Z</time></trkpt><trkpt lat="40.8606317" lon="14.2217867"><ele>268.0</ele><time>2026-04-20T14:01:12.533Z</time></trkpt><trkpt lat="40.860715" lon="14.2218017"><ele>268.0</ele><time>2026-04-20T14:01:14.535Z</time></trkpt><trkpt lat="40.8607783" lon="14.2217817"><ele>268.0</ele><time>2026-04-20T14:01:16.534Z</time></trkpt><trkpt lat="40.8608383" lon="14.2216983"><ele>268.0</ele><time>2026-04-20T14:01:19.534Z</time></trkpt><trkpt lat="40.860895" lon="14.2216067"><ele>268.0</ele><time>2026-04-20T14:01:22.535Z</time></trkpt><trkpt lat="40.860935" lon="14.221505"><ele>268.0</ele><time>2026-04-20T14:01:25.536Z</time></trkpt><trkpt lat="40.8609783" lon="14.2213983"><ele>268.8571428571429</ele><time>2026-04-20T14:01:28.535Z</time></trkpt><trkpt lat="40.861005" lon="14.221315"><ele>269.7142857142857</ele><time>2026-04-20T14:01:30.535Z</time></trkpt><trkpt lat="40.8610383" lon="14.22123"><ele>270.57142857142856</ele><time>2026-04-20T14:01:32.534Z</time></trkpt><trkpt lat="40.861065" lon="14.2211333"><ele>271.42857142857144</ele><time>2026-04-20T14:01:34.534Z</time></trkpt><trkpt lat="40.86109" lon="14.221045"><ele>272.2857142857143</ele><time>2026-04-20T14:01:36.536Z</time></trkpt><trkpt lat="40.8610933" lon="14.220945"><ele>273.14285714285717</ele><time>2026-04-20T14:01:38.535Z</time></trkpt><trkpt lat="40.86112" lon="14.220865"><ele>274.0</ele><time>2026-04-20T14:01:40.536Z</time></trkpt><trkpt lat="40.8611717" lon="14.22076"><ele>274.0</ele><time>2026-04-20T14:01:43.535Z</time></trkpt><trkpt lat="40.86123" lon="14.220705"><ele>274.0</ele><time>2026-04-20T14:01:45.534Z</time></trkpt><trkpt lat="40.8612733" lon="14.2206233"><ele>274.0</ele><time>2026-04-20T14:01:47.535Z</time></trkpt><trkpt lat="40.8613133" lon="14.2205483"><ele>274.0</ele><time>2026-04-20T14:01:49.535Z</time></trkpt><trkpt lat="40.8613533" lon="14.2204683"><ele>274.0</ele><time>2026-04-20T14:01:51.534Z</time></trkpt><trkpt lat="40.8614133" lon="14.2203867"><ele>274.0</ele><time>2026-04-20T14:01:53.535Z</time></trkpt><trkpt lat="40.861465" lon="14.2202733"><ele>274.4</ele><time>2026-04-20T14:01:55.535Z</time></trkpt><trkpt lat="40.8615217" lon="14.2201767"><ele>274.79999999999995</ele><time>2026-04-20T14:01:57.533Z</time></trkpt><trkpt lat="40.8615883" lon="14.2200817"><ele>275.20000000000005</ele><time>2026-04-20T14:01:59.535Z</time></trkpt><trkpt lat="40.8616683" lon="14.22003"><ele>275.6</ele><time>2026-04-20T14:02:01.535Z</time></trkpt><trkpt lat="40.8617217" lon="14.2199133"><ele>276.0</ele><time>2026-04-20T14:02:03.535Z</time></trkpt><trkpt lat="40.861785" lon="14.2198083"><ele>277.0</ele><time>2026-04-20T14:02:05.535Z</time></trkpt><trkpt lat="40.8618467" lon="14.2197183"><ele>278.0</ele><time>2026-04-20T14:02:07.534Z</time></trkpt><trkpt lat="40.8619267" lon="14.2196433"><ele>279.0</ele><time>2026-04-20T14:02:09.535Z</time></trkpt><trkpt lat="40.861995" lon="14.2196033"><ele>280.0</ele><time>2026-04-20T14:02:11.536Z</time></trkpt><trkpt lat="40.86205" lon="14.2195433"><ele>281.0</ele><time>2026-04-20T14:02:13.535Z</time></trkpt><trkpt lat="40.8620867" lon="14.2194667"><ele>282.0</ele><time>2026-04-20T14:02:15.536Z</time></trkpt><trkpt lat="40.862135" lon="14.2194117"><ele>282.0</ele><time>2026-04-20T14:02:17.536Z</time></trkpt><trkpt lat="40.8621767" lon="14.2193017"><ele>282.0</ele><time>2026-04-20T14:02:20.535Z</time></trkpt><trkpt lat="40.8621183" lon="14.21915"><ele>282.0</ele><time>2026-04-20T14:02:23.535Z</time></trkpt><trkpt lat="40.8620567" lon="14.21907"><ele>282.0</ele><time>2026-04-20T14:02:28.534Z</time></trkpt><trkpt lat="40.86198" lon="14.2190267"><ele>282.0</ele><time>2026-04-20T14:02:30.535Z</time></trkpt><trkpt lat="40.8619067" lon="14.2189817"><ele>281.6</ele><time>2026-04-20T14:02:32.536Z</time></trkpt><trkpt lat="40.8618267" lon="14.218925"><ele>281.2</ele><time>2026-04-20T14:02:34.536Z</time></trkpt><trkpt lat="40.8617417" lon="14.2189017"><ele>280.8</ele><time>2026-04-20T14:02:36.535Z</time></trkpt><trkpt lat="40.86163" lon="14.2188783"><ele>280.4</ele><time>2026-04-20T14:02:38.535Z</time></trkpt><trkpt lat="40.8615617" lon="14.218875"><ele>280.0</ele><time>2026-04-20T14:02:40.536Z</time></trkpt><trkpt lat="40.8614583" lon="14.2188133"><ele>279.3333333333333</ele><time>2026-04-20T14:02:42.541Z</time></trkpt><trkpt lat="40.8613917" lon="14.2187817"><ele>278.66666666666663</ele><time>2026-04-20T14:02:44.534Z</time></trkpt><trkpt lat="40.8613083" lon="14.2187683"><ele>278.0</ele><time>2026-04-20T14:02:47.534Z</time></trkpt><trkpt lat="40.8612317" lon="14.2187767"><ele>277.3333333333333</ele><time>2026-04-20T14:02:49.533Z</time></trkpt><trkpt lat="40.86116" lon="14.2187767"><ele>276.6666666666667</ele><time>2026-04-20T14:02:51.536Z</time></trkpt><trkpt lat="40.861075" lon="14.2187967"><ele>276.0</ele><time>2026-04-20T14:02:54.533Z</time></trkpt><trkpt lat="40.8609967" lon="14.218815"><ele>275.8</ele><time>2026-04-20T14:02:57.533Z</time></trkpt><trkpt lat="40.860915" lon="14.2187967"><ele>275.6</ele><time>2026-04-20T14:02:59.534Z</time></trkpt><trkpt lat="40.8608217" lon="14.2187867"><ele>275.4</ele><time>2026-04-20T14:03:01.533Z</time></trkpt><trkpt lat="40.8607233" lon="14.2187533"><ele>275.2</ele><time>2026-04-20T14:03:03.533Z</time></trkpt><trkpt lat="40.860625" lon="14.218725"><ele>275.0</ele><time>2026-04-20T14:03:05.534Z</time></trkpt><trkpt lat="40.8605183" lon="14.2187183"><ele>275.0</ele><time>2026-04-20T14:03:07.532Z</time></trkpt><trkpt lat="40.8604217" lon="14.21871"><ele>275.0</ele><time>2026-04-20T14:03:09.533Z</time></trkpt><trkpt lat="40.8603317" lon="14.218695"><ele>275.0</ele><time>2026-04-20T14:03:11.532Z</time></trkpt><trkpt lat="40.8602433" lon="14.2186483"><ele>275.0</ele><time>2026-04-20T14:03:14.533Z</time></trkpt><trkpt lat="40.8602183" lon="14.2185567"><ele>275.0</ele><time>2026-04-20T14:03:15.533Z</time></trkpt><trkpt lat="40.8602167" lon="14.2184367"><ele>275.0</ele><time>2026-04-20T14:03:17.535Z</time></trkpt><trkpt lat="40.8602117" lon="14.2182967"><ele>275.0</ele><time>2026-04-20T14:03:19.533Z</time></trkpt><trkpt lat="40.8602067" lon="14.2182083"><ele>275.0</ele><time>2026-04-20T14:03:20.532Z</time></trkpt><trkpt lat="40.8602183" lon="14.218125"><ele>275.0</ele><time>2026-04-20T14:03:21.532Z</time></trkpt><trkpt lat="40.8602333" lon="14.2180083"><ele>275.0</ele><time>2026-04-20T14:03:23.533Z</time></trkpt><trkpt lat="40.8601967" lon="14.2179283"><ele>275.0</ele><time>2026-04-20T14:03:27.532Z</time></trkpt><trkpt lat="40.8600833" lon="14.217915"><ele>275.0</ele><time>2026-04-20T14:03:30.532Z</time></trkpt><trkpt lat="40.8599567" lon="14.2179017"><ele>274.2857142857143</ele><time>2026-04-20T14:03:32.533Z</time></trkpt><trkpt lat="40.8598867" lon="14.2178983"><ele>273.57142857142856</ele><time>2026-04-20T14:03:33.535Z</time></trkpt><trkpt lat="40.8598167" lon="14.2178967"><ele>272.85714285714283</ele><time>2026-04-20T14:03:34.532Z</time></trkpt><trkpt lat="40.859745" lon="14.2178933"><ele>272.1428571428571</ele><time>2026-04-20T14:03:35.532Z</time></trkpt><trkpt lat="40.8596733" lon="14.217875"><ele>271.4285714285714</ele><time>2026-04-20T14:03:36.532Z</time></trkpt><trkpt lat="40.8596017" lon="14.2178533"><ele>270.7142857142857</ele><time>2026-04-20T14:03:37.533Z</time></trkpt><trkpt lat="40.8595233" lon="14.2178483"><ele>270.0</ele><time>2026-04-20T14:03:38.533Z</time></trkpt><trkpt lat="40.8594517" lon="14.217845"><ele>270.0</ele><time>2026-04-20T14:03:39.534Z</time></trkpt><trkpt lat="40.859375" lon="14.21784"><ele>270.0</ele><time>2026-04-20T14:03:40.533Z</time></trkpt><trkpt lat="40.8593" lon="14.2178367"><ele>270.0</ele><time>2026-04-20T14:03:41.532Z</time></trkpt><trkpt lat="40.859225" lon="14.2178383"><ele>270.0</ele><time>2026-04-20T14:03:42.532Z</time></trkpt><trkpt lat="40.859145" lon="14.2178367"><ele>270.0</ele><time>2026-04-20T14:03:43.534Z</time></trkpt><trkpt lat="40.8590617" lon="14.2178183"><ele>270.0</ele><time>2026-04-20T14:03:44.533Z</time></trkpt><trkpt lat="40.8589933" lon="14.2177967"><ele>267.8</ele><time>2026-04-20T14:03:45.537Z</time></trkpt><trkpt lat="40.8589067" lon="14.21776"><ele>265.6</ele><time>2026-04-20T14:03:47.535Z</time></trkpt><trkpt lat="40.8589317" lon="14.2176283"><ele>263.4</ele><time>2026-04-20T14:03:50.533Z</time></trkpt><trkpt lat="40.85899" lon="14.2175267"><ele>261.2</ele><time>2026-04-20T14:03:51.534Z</time></trkpt><trkpt lat="40.8590533" lon="14.2174233"><ele>259.0</ele><time>2026-04-20T14:03:52.535Z</time></trkpt><trkpt lat="40.8591117" lon="14.2173"><ele>259.0</ele><time>2026-04-20T14:03:53.535Z</time></trkpt><trkpt lat="40.8591383" lon="14.2171933"><ele>259.0</ele><time>2026-04-20T14:03:54.534Z</time></trkpt><trkpt lat="40.8591367" lon="14.2170917"><ele>259.0</ele><time>2026-04-20T14:03:55.535Z</time></trkpt><trkpt lat="40.8591033" lon="14.2169933"><ele>259.0</ele><time>2026-04-20T14:03:56.533Z</time></trkpt><trkpt lat="40.859065" lon="14.2168933"><ele>259.0</ele><time>2026-04-20T14:03:57.534Z</time></trkpt><trkpt lat="40.8590133" lon="14.2168133"><ele>259.0</ele><time>2026-04-20T14:03:58.533Z</time></trkpt><trkpt lat="40.8589567" lon="14.2167317"><ele>259.0</ele><time>2026-04-20T14:03:59.533Z</time></trkpt><trkpt lat="40.8589033" lon="14.2166533"><ele>259.0</ele><time>2026-04-20T14:04:00.533Z</time></trkpt><trkpt lat="40.8588417" lon="14.2165817"><ele>259.0</ele><time>2026-04-20T14:04:01.534Z</time></trkpt><trkpt lat="40.8587783" lon="14.2165283"><ele>259.0</ele><time>2026-04-20T14:04:02.532Z</time></trkpt><trkpt lat="40.8587133" lon="14.216485"><ele>259.0</ele><time>2026-04-20T14:04:03.533Z</time></trkpt><trkpt lat="40.858595" lon="14.2164517"><ele>259.0</ele><time>2026-04-20T14:04:05.534Z</time></trkpt><trkpt lat="40.8584917" lon="14.2165083"><ele>259.0</ele><time>2026-04-20T14:04:07.533Z</time></trkpt><trkpt lat="40.8584633" lon="14.216645"><ele>259.0</ele><time>2026-04-20T14:04:09.532Z</time></trkpt><trkpt lat="40.8585083" lon="14.2167817"><ele>259.0</ele><time>2026-04-20T14:04:11.533Z</time></trkpt><trkpt lat="40.8586167" lon="14.21688"><ele>259.0</ele><time>2026-04-20T14:04:13.534Z</time></trkpt><trkpt lat="40.8586867" lon="14.2169317"><ele>259.0</ele><time>2026-04-20T14:04:14.534Z</time></trkpt><trkpt lat="40.8587567" lon="14.2169883"><ele>259.0</ele><time>2026-04-20T14:04:15.534Z</time></trkpt><trkpt lat="40.85881" lon="14.2170667"><ele>259.0</ele><time>2026-04-20T14:04:16.534Z</time></trkpt><trkpt lat="40.8588417" lon="14.217155"><ele>259.0</ele><time>2026-04-20T14:04:17.533Z</time></trkpt><trkpt lat="40.858855" lon="14.2172583"><ele>259.0</ele><time>2026-04-20T14:04:18.533Z</time></trkpt><trkpt lat="40.8588533" lon="14.2173667"><ele>259.0</ele><time>2026-04-20T14:04:19.534Z</time></trkpt><trkpt lat="40.8588267" lon="14.2174683"><ele>259.0</ele><time>2026-04-20T14:04:20.532Z</time></trkpt><trkpt lat="40.8587867" lon="14.2175483"><ele>258.8</ele><time>2026-04-20T14:04:21.533Z</time></trkpt><trkpt lat="40.858725" lon="14.2175967"><ele>258.59999999999997</ele><time>2026-04-20T14:04:22.533Z</time></trkpt><trkpt lat="40.85863" lon="14.21759"><ele>258.4</ele><time>2026-04-20T14:04:23.533Z</time></trkpt><trkpt lat="40.8585367" lon="14.2175683"><ele>258.2</ele><time>2026-04-20T14:04:24.533Z</time></trkpt><trkpt lat="40.8584233" lon="14.2175"><ele>258.0</ele><time>2026-04-20T14:04:25.533Z</time></trkpt><trkpt lat="40.85832" lon="14.21746"><ele>255.60000000000002</ele><time>2026-04-20T14:04:26.532Z</time></trkpt><trkpt lat="40.858225" lon="14.21744"><ele>253.20000000000002</ele><time>2026-04-20T14:04:27.532Z</time></trkpt><trkpt lat="40.8581317" lon="14.2174433"><ele>250.8</ele><time>2026-04-20T14:04:28.534Z</time></trkpt><trkpt lat="40.85804" lon="14.2174567"><ele>248.4</ele><time>2026-04-20T14:04:29.532Z</time></trkpt><trkpt lat="40.8579417" lon="14.217475"><ele>246.0</ele><time>2026-04-20T14:04:30.533Z</time></trkpt><trkpt lat="40.8578533" lon="14.2175083"><ele>246.0</ele><time>2026-04-20T14:04:31.533Z</time></trkpt><trkpt lat="40.8577733" lon="14.217555"><ele>246.0</ele><time>2026-04-20T14:04:32.534Z</time></trkpt><trkpt lat="40.8577217" lon="14.217655"><ele>246.0</ele><time>2026-04-20T14:04:33.533Z</time></trkpt><trkpt lat="40.8576767" lon="14.21774"><ele>246.0</ele><time>2026-04-20T14:04:34.534Z</time></trkpt><trkpt lat="40.85765" lon="14.21783"><ele>246.0</ele><time>2026-04-20T14:04:35.533Z</time></trkpt><trkpt lat="40.8576633" lon="14.2179367"><ele>246.0</ele><time>2026-04-20T14:04:36.533Z</time></trkpt><trkpt lat="40.857695" lon="14.2180333"><ele>246.0</ele><time>2026-04-20T14:04:37.534Z</time></trkpt><trkpt lat="40.857735" lon="14.2181117"><ele>246.0</ele><time>2026-04-20T14:04:38.534Z</time></trkpt><trkpt lat="40.8577733" lon="14.2181817"><ele>246.0</ele><time>2026-04-20T14:04:39.532Z</time></trkpt><trkpt lat="40.8578033" lon="14.2182917"><ele>246.0</ele><time>2026-04-20T14:04:41.533Z</time></trkpt><trkpt lat="40.8577833" lon="14.2184433"><ele>246.0</ele><time>2026-04-20T14:04:43.534Z</time></trkpt><trkpt lat="40.8577633" lon="14.2185283"><ele>246.0</ele><time>2026-04-20T14:04:44.534Z</time></trkpt><trkpt lat="40.8577267" lon="14.2186"><ele>247.4</ele><time>2026-04-20T14:04:45.533Z</time></trkpt><trkpt lat="40.85768" lon="14.2186767"><ele>248.8</ele><time>2026-04-20T14:04:46.534Z</time></trkpt><trkpt lat="40.85759" lon="14.2187333"><ele>250.20000000000002</ele><time>2026-04-20T14:04:47.534Z</time></trkpt><trkpt lat="40.8575183" lon="14.2188067"><ele>251.60000000000002</ele><time>2026-04-20T14:04:48.536Z</time></trkpt><trkpt lat="40.8574133" lon="14.21885"><ele>253.0</ele><time>2026-04-20T14:04:49.534Z</time></trkpt><trkpt lat="40.85735" lon="14.2189083"><ele>251.00000000000003</ele><time>2026-04-20T14:04:50.532Z</time></trkpt><trkpt lat="40.857295" lon="14.2189683"><ele>249.0</ele><time>2026-04-20T14:04:51.533Z</time></trkpt><trkpt lat="40.8572283" lon="14.2190017"><ele>247.00000000000003</ele><time>2026-04-20T14:04:52.535Z</time></trkpt><trkpt lat="40.8571583" lon="14.2190117"><ele>245.00000000000003</ele><time>2026-04-20T14:04:53.536Z</time></trkpt><trkpt lat="40.8570917" lon="14.219"><ele>243.0</ele><time>2026-04-20T14:04:54.532Z</time></trkpt><trkpt lat="40.85703" lon="14.21896"><ele>241.00000000000003</ele><time>2026-04-20T14:04:55.532Z</time></trkpt><trkpt lat="40.856965" lon="14.2188917"><ele>239.00000000000003</ele><time>2026-04-20T14:04:56.533Z</time></trkpt><trkpt lat="40.8568883" lon="14.2188067"><ele>239.0</ele><time>2026-04-20T14:04:57.534Z</time></trkpt><trkpt lat="40.8568183" lon="14.2187433"><ele>238.99999999999997</ele><time>2026-04-20T14:04:58.532Z</time></trkpt><trkpt lat="40.85674" lon="14.2186983"><ele>238.99999999999997</ele><time>2026-04-20T14:04:59.534Z</time></trkpt><trkpt lat="40.85665" lon="14.2186683"><ele>239.0</ele><time>2026-04-20T14:05:00.533Z</time></trkpt><trkpt lat="40.8565533" lon="14.218675"><ele>239.0</ele><time>2026-04-20T14:05:01.535Z</time></trkpt><trkpt lat="40.8564567" lon="14.2187033"><ele>236.6</ele><time>2026-04-20T14:05:02.533Z</time></trkpt><trkpt lat="40.8563683" lon="14.2187283"><ele>234.2</ele><time>2026-04-20T14:05:03.534Z</time></trkpt><trkpt lat="40.8562817" lon="14.2187383"><ele>231.79999999999998</ele><time>2026-04-20T14:05:04.533Z</time></trkpt><trkpt lat="40.856195" lon="14.21871"><ele>229.39999999999998</ele><time>2026-04-20T14:05:05.534Z</time></trkpt><trkpt lat="40.856115" lon="14.218645"><ele>227.0</ele><time>2026-04-20T14:05:06.534Z</time></trkpt><trkpt lat="40.8560317" lon="14.218585"><ele>225.00000000000003</ele><time>2026-04-20T14:05:07.533Z</time></trkpt><trkpt lat="40.8559433" lon="14.2185183"><ele>223.0</ele><time>2026-04-20T14:05:08.533Z</time></trkpt><trkpt lat="40.855855" lon="14.21848"><ele>221.0</ele><time>2026-04-20T14:05:09.533Z</time></trkpt><trkpt lat="40.8557683" lon="14.21846"><ele>219.0</ele><time>2026-04-20T14:05:10.534Z</time></trkpt><trkpt lat="40.855685" lon="14.2184433"><ele>217.00000000000003</ele><time>2026-04-20T14:05:11.534Z</time></trkpt><trkpt lat="40.8556067" lon="14.2184183"><ele>215.0</ele><time>2026-04-20T14:05:12.535Z</time></trkpt><trkpt lat="40.8555367" lon="14.2183733"><ele>215.00000000000003</ele><time>2026-04-20T14:05:13.534Z</time></trkpt><trkpt lat="40.8554817" lon="14.2182967"><ele>215.0</ele><time>2026-04-20T14:05:14.534Z</time></trkpt><trkpt lat="40.85543" lon="14.2182"><ele>215.0</ele><time>2026-04-20T14:05:15.532Z</time></trkpt><trkpt lat="40.8553767" lon="14.2181167"><ele>215.0</ele><time>2026-04-20T14:05:16.534Z</time></trkpt><trkpt lat="40.8553133" lon="14.2180517"><ele>215.00000000000003</ele><time>2026-04-20T14:05:17.534Z</time></trkpt><trkpt lat="40.8552383" lon="14.218005"><ele>215.0</ele><time>2026-04-20T14:05:18.535Z</time></trkpt><trkpt lat="40.8551567" lon="14.2179733"><ele>213.6</ele><time>2026-04-20T14:05:19.533Z</time></trkpt><trkpt lat="40.8550683" lon="14.2179683"><ele>212.2</ele><time>2026-04-20T14:05:20.533Z</time></trkpt><trkpt lat="40.8549783" lon="14.2179867"><ele>210.8</ele><time>2026-04-20T14:05:21.533Z</time></trkpt><trkpt lat="40.854885" lon="14.2180183"><ele>209.4</ele><time>2026-04-20T14:05:22.534Z</time></trkpt><trkpt lat="40.8547983" lon="14.2180783"><ele>208.0</ele><time>2026-04-20T14:05:23.532Z</time></trkpt><trkpt lat="40.8547167" lon="14.2181517"><ele>208.0</ele><time>2026-04-20T14:05:24.534Z</time></trkpt><trkpt lat="40.85464" lon="14.2182267"><ele>208.0</ele><time>2026-04-20T14:05:25.532Z</time></trkpt><trkpt lat="40.8545617" lon="14.218305"><ele>208.0</ele><time>2026-04-20T14:05:26.532Z</time></trkpt><trkpt lat="40.8544833" lon="14.2183883"><ele>208.0</ele><time>2026-04-20T14:05:27.532Z</time></trkpt><trkpt lat="40.8544117" lon="14.2184833"><ele>208.0</ele><time>2026-04-20T14:05:28.533Z</time></trkpt><trkpt lat="40.8543467" lon="14.2185867"><ele>206.60000000000002</ele><time>2026-04-20T14:05:29.532Z</time></trkpt><trkpt lat="40.8542733" lon="14.2186917"><ele>205.20000000000002</ele><time>2026-04-20T14:05:30.536Z</time></trkpt><trkpt lat="40.854195" lon="14.2187883"><ele>203.8</ele><time>2026-04-20T14:05:31.534Z</time></trkpt><trkpt lat="40.8541183" lon="14.2188883"><ele>202.4</ele><time>2026-04-20T14:05:32.534Z</time></trkpt><trkpt lat="40.8540383" lon="14.2189833"><ele>201.0</ele><time>2026-04-20T14:05:33.532Z</time></trkpt><trkpt lat="40.8539633" lon="14.2190767"><ele>201.0</ele><time>2026-04-20T14:05:34.534Z</time></trkpt><trkpt lat="40.8538883" lon="14.2191667"><ele>201.0</ele><time>2026-04-20T14:05:35.534Z</time></trkpt><trkpt lat="40.8538133" lon="14.2192517"><ele>201.0</ele><time>2026-04-20T14:05:36.533Z</time></trkpt><trkpt lat="40.8537333" lon="14.219335"><ele>201.0</ele><time>2026-04-20T14:05:37.533Z</time></trkpt><trkpt lat="40.8536533" lon="14.2194133"><ele>201.0</ele><time>2026-04-20T14:05:38.533Z</time></trkpt><trkpt lat="40.8535767" lon="14.2194933"><ele>201.0</ele><time>2026-04-20T14:05:39.533Z</time></trkpt><trkpt lat="40.8535017" lon="14.2195783"><ele>201.0</ele><time>2026-04-20T14:05:40.533Z</time></trkpt><trkpt lat="40.8534317" lon="14.2196667"><ele>201.0</ele><time>2026-04-20T14:05:41.533Z</time></trkpt><trkpt lat="40.8533567" lon="14.2197433"><ele>201.0</ele><time>2026-04-20T14:05:42.532Z</time></trkpt><trkpt lat="40.8532783" lon="14.2198133"><ele>201.0</ele><time>2026-04-20T14:05:43.534Z</time></trkpt><trkpt lat="40.8532017" lon="14.219875"><ele>200.33333333333334</ele><time>2026-04-20T14:05:44.532Z</time></trkpt><trkpt lat="40.8531167" lon="14.2199117"><ele>199.66666666666669</ele><time>2026-04-20T14:05:45.534Z</time></trkpt><trkpt lat="40.8530383" lon="14.219935"><ele>199.0</ele><time>2026-04-20T14:05:46.532Z</time></trkpt><trkpt lat="40.8529717" lon="14.2199517"><ele>198.33333333333334</ele><time>2026-04-20T14:05:47.534Z</time></trkpt><trkpt lat="40.85287" lon="14.2199617"><ele>197.66666666666669</ele><time>2026-04-20T14:05:49.533Z</time></trkpt><trkpt lat="40.85279" lon="14.21994"><ele>197.0</ele><time>2026-04-20T14:05:51.535Z</time></trkpt><trkpt lat="40.8527117" lon="14.219925"><ele>197.0</ele><time>2026-04-20T14:05:53.533Z</time></trkpt><trkpt lat="40.8526267" lon="14.21984"><ele>197.0</ele><time>2026-04-20T14:05:55.533Z</time></trkpt><trkpt lat="40.85259" lon="14.2196917"><ele>197.0</ele><time>2026-04-20T14:05:57.534Z</time></trkpt><trkpt lat="40.8526033" lon="14.2195633"><ele>197.0</ele><time>2026-04-20T14:05:58.532Z</time></trkpt><trkpt lat="40.8526367" lon="14.21944"><ele>197.0</ele><time>2026-04-20T14:05:59.534Z</time></trkpt><trkpt lat="40.8526867" lon="14.2193167"><ele>196.8</ele><time>2026-04-20T14:06:00.532Z</time></trkpt><trkpt lat="40.85274" lon="14.2192"><ele>196.6</ele><time>2026-04-20T14:06:01.532Z</time></trkpt><trkpt lat="40.8528033" lon="14.219095"><ele>196.4</ele><time>2026-04-20T14:06:02.532Z</time></trkpt><trkpt lat="40.8528783" lon="14.2189917"><ele>196.20000000000002</ele><time>2026-04-20T14:06:03.534Z</time></trkpt><trkpt lat="40.852945" lon="14.2189083"><ele>196.0</ele><time>2026-04-20T14:06:04.533Z</time></trkpt><trkpt lat="40.8530267" lon="14.2188617"><ele>196.0</ele><time>2026-04-20T14:06:05.534Z</time></trkpt><trkpt lat="40.853135" lon="14.2188467"><ele>196.0</ele><time>2026-04-20T14:06:06.534Z</time></trkpt><trkpt lat="40.8532417" lon="14.2188533"><ele>196.0</ele><time>2026-04-20T14:06:07.533Z</time></trkpt><trkpt lat="40.8533417" lon="14.2188583"><ele>196.0</ele><time>2026-04-20T14:06:08.534Z</time></trkpt><trkpt lat="40.853435" lon="14.218855"><ele>196.0</ele><time>2026-04-20T14:06:09.532Z</time></trkpt><trkpt lat="40.85353" lon="14.2188417"><ele>195.99999999999997</ele><time>2026-04-20T14:06:10.534Z</time></trkpt><trkpt lat="40.8536117" lon="14.21881"><ele>196.0</ele><time>2026-04-20T14:06:11.535Z</time></trkpt><trkpt lat="40.8536783" lon="14.218765"><ele>196.0</ele><time>2026-04-20T14:06:12.535Z</time></trkpt><trkpt lat="40.8537317" lon="14.2187133"><ele>196.0</ele><time>2026-04-20T14:06:13.534Z</time></trkpt><trkpt lat="40.8538117" lon="14.2186267"><ele>195.99999999999997</ele><time>2026-04-20T14:06:15.533Z</time></trkpt><trkpt lat="40.853765" lon="14.21854"><ele>196.0</ele><time>2026-04-20T14:06:18.533Z</time></trkpt><trkpt lat="40.8536867" lon="14.2185133"><ele>196.0</ele><time>2026-04-20T14:06:19.533Z</time></trkpt><trkpt lat="40.8535733" lon="14.2185233"><ele>196.0</ele><time>2026-04-20T14:06:20.533Z</time></trkpt><trkpt lat="40.8534183" lon="14.2185067"><ele>196.0</ele><time>2026-04-20T14:06:21.533Z</time></trkpt><trkpt lat="40.8533033" lon="14.2184817"><ele>196.0</ele><time>2026-04-20T14:06:22.534Z</time></trkpt><trkpt lat="40.8532183" lon="14.2184883"><ele>195.16666666666666</ele><time>2026-04-20T14:06:23.532Z</time></trkpt><trkpt lat="40.8531367" lon="14.218495"><ele>194.33333333333331</ele><time>2026-04-20T14:06:24.532Z</time></trkpt><trkpt lat="40.85305" lon="14.2185067"><ele>193.5</ele><time>2026-04-20T14:06:25.532Z</time></trkpt><trkpt lat="40.8529717" lon="14.2185267"><ele>192.66666666666666</ele><time>2026-04-20T14:06:26.533Z</time></trkpt><trkpt lat="40.852885" lon="14.2185633"><ele>191.83333333333331</ele><time>2026-04-20T14:06:27.532Z</time></trkpt><trkpt lat="40.852815" lon="14.2185917"><ele>191.0</ele><time>2026-04-20T14:06:28.535Z</time></trkpt><trkpt lat="40.852745" lon="14.2186533"><ele>191.0</ele><time>2026-04-20T14:06:29.534Z</time></trkpt><trkpt lat="40.8526783" lon="14.2187233"><ele>191.0</ele><time>2026-04-20T14:06:30.533Z</time></trkpt><trkpt lat="40.8526217" lon="14.218795"><ele>191.0</ele><time>2026-04-20T14:06:31.533Z</time></trkpt><trkpt lat="40.8525567" lon="14.21887"><ele>191.0</ele><time>2026-04-20T14:06:32.534Z</time></trkpt><trkpt lat="40.8524983" lon="14.2189517"><ele>191.0</ele><time>2026-04-20T14:06:33.533Z</time></trkpt><trkpt lat="40.8524417" lon="14.2190533"><ele>191.0</ele><time>2026-04-20T14:06:34.534Z</time></trkpt><trkpt lat="40.8524033" lon="14.2191683"><ele>191.16666666666666</ele><time>2026-04-20T14:06:35.534Z</time></trkpt><trkpt lat="40.8523533" lon="14.2192617"><ele>191.33333333333331</ele><time>2026-04-20T14:06:36.535Z</time></trkpt><trkpt lat="40.8523067" lon="14.21936"><ele>191.5</ele><time>2026-04-20T14:06:37.533Z</time></trkpt><trkpt lat="40.8522683" lon="14.2194617"><ele>191.66666666666666</ele><time>2026-04-20T14:06:38.533Z</time></trkpt><trkpt lat="40.85224" lon="14.2195733"><ele>191.83333333333334</ele><time>2026-04-20T14:06:39.534Z</time></trkpt><trkpt lat="40.8522117" lon="14.219675"><ele>192.0</ele><time>2026-04-20T14:06:40.532Z</time></trkpt><trkpt lat="40.852185" lon="14.219765"><ele>192.6</ele><time>2026-04-20T14:06:41.533Z</time></trkpt><trkpt lat="40.8521717" lon="14.2198483"><ele>193.2</ele><time>2026-04-20T14:06:42.533Z</time></trkpt><trkpt lat="40.852135" lon="14.2199683"><ele>193.8</ele><time>2026-04-20T14:06:44.531Z</time></trkpt><trkpt lat="40.8520833" lon="14.2200833"><ele>194.4</ele><time>2026-04-20T14:06:46.532Z</time></trkpt><trkpt lat="40.85202" lon="14.2202083"><ele>195.0</ele><time>2026-04-20T14:06:48.534Z</time></trkpt><trkpt lat="40.8519483" lon="14.2203283"><ele>195.0</ele><time>2026-04-20T14:06:50.533Z</time></trkpt><trkpt lat="40.8518433" lon="14.2204217"><ele>195.0</ele><time>2026-04-20T14:06:52.531Z</time></trkpt><trkpt lat="40.85175" lon="14.2205383"><ele>195.0</ele><time>2026-04-20T14:06:54.532Z</time></trkpt><trkpt lat="40.8517" lon="14.2205967"><ele>195.0</ele><time>2026-04-20T14:06:55.531Z</time></trkpt><trkpt lat="40.8516517" lon="14.2206567"><ele>195.0</ele><time>2026-04-20T14:06:56.533Z</time></trkpt><trkpt lat="40.8515717" lon="14.220775"><ele>193.33333333333334</ele><time>2026-04-20T14:06:58.531Z</time></trkpt><trkpt lat="40.8514967" lon="14.2208767"><ele>191.66666666666666</ele><time>2026-04-20T14:07:00.531Z</time></trkpt><trkpt lat="40.8514267" lon="14.2209767"><ele>190.0</ele><time>2026-04-20T14:07:02.532Z</time></trkpt><trkpt lat="40.8513717" lon="14.22105"><ele>188.33333333333331</ele><time>2026-04-20T14:07:04.531Z</time></trkpt><trkpt lat="40.85131" lon="14.221115"><ele>186.66666666666666</ele><time>2026-04-20T14:07:07.533Z</time></trkpt><trkpt lat="40.8512317" lon="14.2211467"><ele>185.0</ele><time>2026-04-20T14:07:11.532Z</time></trkpt><trkpt lat="40.8511717" lon="14.2211867"><ele>185.0</ele><time>2026-04-20T14:07:40.534Z</time></trkpt><trkpt lat="40.8511983" lon="14.2212867"><ele>185.0</ele><time>2026-04-20T14:07:43.532Z</time></trkpt><trkpt lat="40.8512833" lon="14.221295"><ele>185.0</ele><time>2026-04-20T14:07:46.533Z</time></trkpt><trkpt lat="40.8513117" lon="14.221205"><ele>185.0</ele><time>2026-04-20T14:07:49.533Z</time></trkpt><trkpt lat="40.8513467" lon="14.22112"><ele>185.0</ele><time>2026-04-20T14:07:52.533Z</time></trkpt><trkpt lat="40.851395" lon="14.2210633"><ele>185.0</ele><time>2026-04-20T14:07:55.532Z</time></trkpt><trkpt lat="40.851455" lon="14.2209917"><ele>184.99999999999997</ele><time>2026-04-20T14:07:59.532Z</time></trkpt><trkpt lat="40.8515" lon="14.22093"><ele>185.0</ele><time>2026-04-20T14:08:02.534Z</time></trkpt><trkpt lat="40.8515567" lon="14.2208617"><ele>185.0</ele><time>2026-04-20T14:08:05.532Z</time></trkpt><trkpt lat="40.8516033" lon="14.2207883"><ele>185.0</ele><time>2026-04-20T14:08:07.534Z</time></trkpt><trkpt lat="40.851625" lon="14.2207067"><ele>185.0</ele><time>2026-04-20T14:08:09.532Z</time></trkpt><trkpt lat="40.8516767" lon="14.2206433"><ele>184.99999999999997</ele><time>2026-04-20T14:08:12.532Z</time></trkpt><trkpt lat="40.8517517" lon="14.220605"><ele>185.0</ele><time>2026-04-20T14:08:15.531Z</time></trkpt><trkpt lat="40.8518" lon="14.22054"><ele>186.66666666666666</ele><time>2026-04-20T14:08:18.532Z</time></trkpt><trkpt lat="40.8518383" lon="14.2204433"><ele>188.33333333333331</ele><time>2026-04-20T14:08:21.533Z</time></trkpt><trkpt lat="40.851885" lon="14.2203567"><ele>190.0</ele><time>2026-04-20T14:08:25.533Z</time></trkpt><trkpt lat="40.851935" lon="14.2203"><ele>191.66666666666666</ele><time>2026-04-20T14:08:28.534Z</time></trkpt><trkpt lat="40.85198" lon="14.2201867"><ele>193.33333333333334</ele><time>2026-04-20T14:08:31.534Z</time></trkpt><trkpt lat="40.8520217" lon="14.2201167"><ele>195.0</ele><time>2026-04-20T14:08:33.534Z</time></trkpt><trkpt lat="40.8520667" lon="14.2200567"><ele>195.0</ele><time>2026-04-20T14:08:35.533Z</time></trkpt><trkpt lat="40.852115" lon="14.21998"><ele>195.0</ele><time>2026-04-20T14:08:38.532Z</time></trkpt><trkpt lat="40.8521667" lon="14.21989"><ele>195.0</ele><time>2026-04-20T14:08:41.533Z</time></trkpt><trkpt lat="40.8522117" lon="14.2197917"><ele>195.0</ele><time>2026-04-20T14:08:44.533Z</time></trkpt><trkpt lat="40.8522633" lon="14.2197117"><ele>195.0</ele><time>2026-04-20T14:08:47.531Z</time></trkpt><trkpt lat="40.8523083" lon="14.219615"><ele>195.0</ele><time>2026-04-20T14:08:50.533Z</time></trkpt><trkpt lat="40.8523433" lon="14.2195367"><ele>194.5</ele><time>2026-04-20T14:08:53.534Z</time></trkpt><trkpt lat="40.8523667" lon="14.2194583"><ele>194.0</ele><time>2026-04-20T14:08:56.533Z</time></trkpt><trkpt lat="40.8524083" lon="14.2193617"><ele>193.5</ele><time>2026-04-20T14:09:00.532Z</time></trkpt><trkpt lat="40.8524617" lon="14.2192767"><ele>193.0</ele><time>2026-04-20T14:09:03.532Z</time></trkpt><trkpt lat="40.8525083" lon="14.2191767"><ele>192.5</ele><time>2026-04-20T14:09:06.533Z</time></trkpt><trkpt lat="40.85256" lon="14.21908"><ele>192.0</ele><time>2026-04-20T14:09:09.535Z</time></trkpt><trkpt lat="40.85262" lon="14.2190167"><ele>191.8</ele><time>2026-04-20T14:09:12.533Z</time></trkpt><trkpt lat="40.8526567" lon="14.218945"><ele>191.6</ele><time>2026-04-20T14:09:15.534Z</time></trkpt><trkpt lat="40.8527" lon="14.2188833"><ele>191.4</ele><time>2026-04-20T14:09:18.531Z</time></trkpt><trkpt lat="40.8527333" lon="14.2187967"><ele>191.20000000000002</ele><time>2026-04-20T14:09:22.532Z</time></trkpt><trkpt lat="40.8528283" lon="14.2186433"><ele>191.0</ele><time>2026-04-20T14:10:21.532Z</time></trkpt><trkpt lat="40.8528283" lon="14.2184967"><ele>191.0</ele><time>2026-04-20T14:10:58.535Z</time></trkpt><trkpt lat="40.852885" lon="14.218425"><ele>191.0</ele><time>2026-04-20T14:11:47.534Z</time></trkpt><trkpt lat="40.8529483" lon="14.2184683"><ele>191.0</ele><time>2026-04-20T14:11:50.533Z</time></trkpt><trkpt lat="40.8530333" lon="14.2185083"><ele>191.0</ele><time>2026-04-20T14:11:53.534Z</time></trkpt><trkpt lat="40.8531133" lon="14.2185783"><ele>191.0</ele><time>2026-04-20T14:11:55.535Z</time></trkpt><trkpt lat="40.8531833" lon="14.2186217"><ele>191.0</ele><time>2026-04-20T14:11:58.533Z</time></trkpt><trkpt lat="40.853255" lon="14.2186317"><ele>191.0</ele><time>2026-04-20T14:12:01.533Z</time></trkpt><trkpt lat="40.8533283" lon="14.21865"><ele>191.0</ele><time>2026-04-20T14:12:04.534Z</time></trkpt><trkpt lat="40.8533867" lon="14.2187317"><ele>191.0</ele><time>2026-04-20T14:12:06.534Z</time></trkpt><trkpt lat="40.8534167" lon="14.21882"><ele>191.0</ele><time>2026-04-20T14:12:08.535Z</time></trkpt><trkpt lat="40.85343" lon="14.2189133"><ele>191.0</ele><time>2026-04-20T14:12:10.535Z</time></trkpt><trkpt lat="40.8533583" lon="14.2188817"><ele>191.0</ele><time>2026-04-20T14:12:18.536Z</time></trkpt><trkpt lat="40.853295" lon="14.2188667"><ele>191.0</ele><time>2026-04-20T14:12:21.534Z</time></trkpt><trkpt lat="40.85322" lon="14.218835"><ele>191.0</ele><time>2026-04-20T14:12:24.536Z</time></trkpt><trkpt lat="40.8531433" lon="14.2188383"><ele>191.0</ele><time>2026-04-20T14:12:28.534Z</time></trkpt><trkpt lat="40.8530667" lon="14.2188133"><ele>191.0</ele><time>2026-04-20T14:12:30.534Z</time></trkpt><trkpt lat="40.8530033" lon="14.2188067"><ele>191.0</ele><time>2026-04-20T14:12:32.535Z</time></trkpt><trkpt lat="40.85292" lon="14.21881"><ele>191.0</ele><time>2026-04-20T14:12:36.536Z</time></trkpt><trkpt lat="40.8528467" lon="14.218855"><ele>191.0</ele><time>2026-04-20T14:12:39.535Z</time></trkpt><trkpt lat="40.8527983" lon="14.2189367"><ele>191.16666666666666</ele><time>2026-04-20T14:12:41.536Z</time></trkpt><trkpt lat="40.85275" lon="14.2190183"><ele>191.33333333333331</ele><time>2026-04-20T14:12:43.536Z</time></trkpt><trkpt lat="40.852705" lon="14.2190883"><ele>191.5</ele><time>2026-04-20T14:12:45.535Z</time></trkpt><trkpt lat="40.85264" lon="14.2191867"><ele>191.66666666666666</ele><time>2026-04-20T14:12:48.534Z</time></trkpt><trkpt lat="40.8526017" lon="14.2192967"><ele>191.83333333333334</ele><time>2026-04-20T14:12:50.536Z</time></trkpt><trkpt lat="40.8525517" lon="14.2193733"><ele>192.0</ele><time>2026-04-20T14:12:52.536Z</time></trkpt><trkpt lat="40.8525417" lon="14.2194583"><ele>191.99999999999997</ele><time>2026-04-20T14:12:54.535Z</time></trkpt><trkpt lat="40.852535" lon="14.2195533"><ele>192.0</ele><time>2026-04-20T14:12:56.534Z</time></trkpt><trkpt lat="40.8525633" lon="14.219655"><ele>192.0</ele><time>2026-04-20T14:12:58.535Z</time></trkpt><trkpt lat="40.8525767" lon="14.2197533"><ele>192.0</ele><time>2026-04-20T14:13:01.535Z</time></trkpt><trkpt lat="40.8526383" lon="14.2198283"><ele>192.0</ele><time>2026-04-20T14:13:04.535Z</time></trkpt><trkpt lat="40.852695" lon="14.2198717"><ele>191.99999999999997</ele><time>2026-04-20T14:13:06.534Z</time></trkpt><trkpt lat="40.85276" lon="14.2198933"><ele>192.0</ele><time>2026-04-20T14:13:08.535Z</time></trkpt><trkpt lat="40.8528267" lon="14.2199083"><ele>192.8</ele><time>2026-04-20T14:13:10.535Z</time></trkpt><trkpt lat="40.852905" lon="14.219895"><ele>193.6</ele><time>2026-04-20T14:13:12.536Z</time></trkpt><trkpt lat="40.852995" lon="14.2198767"><ele>194.4</ele><time>2026-04-20T14:13:14.536Z</time></trkpt><trkpt lat="40.8530883" lon="14.2198317"><ele>195.20000000000002</ele><time>2026-04-20T14:13:16.533Z</time></trkpt><trkpt lat="40.8531867" lon="14.21979"><ele>196.0</ele><time>2026-04-20T14:13:18.535Z</time></trkpt><trkpt lat="40.8532617" lon="14.2197483"><ele>195.99999999999997</ele><time>2026-04-20T14:13:20.535Z</time></trkpt><trkpt lat="40.8533333" lon="14.2197033"><ele>196.0</ele><time>2026-04-20T14:13:22.534Z</time></trkpt><trkpt lat="40.853405" lon="14.2196517"><ele>196.0</ele><time>2026-04-20T14:13:24.536Z</time></trkpt><trkpt lat="40.8534733" lon="14.2196"><ele>196.0</ele><time>2026-04-20T14:13:26.536Z</time></trkpt><trkpt lat="40.8535367" lon="14.2195483"><ele>195.99999999999997</ele><time>2026-04-20T14:13:28.536Z</time></trkpt><trkpt lat="40.8535917" lon="14.2194967"><ele>196.0</ele><time>2026-04-20T14:13:30.534Z</time></trkpt><trkpt lat="40.8536517" lon="14.2194083"><ele>196.71428571428572</ele><time>2026-04-20T14:13:33.535Z</time></trkpt><trkpt lat="40.8537117" lon="14.219355"><ele>197.42857142857144</ele><time>2026-04-20T14:13:35.534Z</time></trkpt><trkpt lat="40.8537867" lon="14.2192767"><ele>198.14285714285714</ele><time>2026-04-20T14:13:38.536Z</time></trkpt><trkpt lat="40.85384" lon="14.21922"><ele>198.85714285714286</ele><time>2026-04-20T14:13:40.535Z</time></trkpt><trkpt lat="40.8538933" lon="14.2191633"><ele>199.57142857142858</ele><time>2026-04-20T14:13:42.536Z</time></trkpt><trkpt lat="40.853945" lon="14.2191117"><ele>200.28571428571428</ele><time>2026-04-20T14:13:44.535Z</time></trkpt><trkpt lat="40.854" lon="14.2190533"><ele>201.0</ele><time>2026-04-20T14:13:46.536Z</time></trkpt><trkpt lat="40.8540517" lon="14.218995"><ele>200.28571428571428</ele><time>2026-04-20T14:13:48.536Z</time></trkpt><trkpt lat="40.8541183" lon="14.21892"><ele>199.57142857142858</ele><time>2026-04-20T14:13:51.534Z</time></trkpt><trkpt lat="40.85417" lon="14.2188583"><ele>198.85714285714286</ele><time>2026-04-20T14:13:54.534Z</time></trkpt><trkpt lat="40.85422" lon="14.2188"><ele>198.14285714285714</ele><time>2026-04-20T14:13:57.535Z</time></trkpt><trkpt lat="40.854275" lon="14.21874"><ele>197.42857142857144</ele><time>2026-04-20T14:14:00.536Z</time></trkpt><trkpt lat="40.8543267" lon="14.21868"><ele>196.71428571428572</ele><time>2026-04-20T14:14:03.536Z</time></trkpt><trkpt lat="40.8543783" lon="14.2186133"><ele>196.0</ele><time>2026-04-20T14:14:06.535Z</time></trkpt><trkpt lat="40.8544283" lon="14.218555"><ele>197.99999999999997</ele><time>2026-04-20T14:14:08.536Z</time></trkpt><trkpt lat="40.8544933" lon="14.2184833"><ele>200.0</ele><time>2026-04-20T14:14:11.537Z</time></trkpt><trkpt lat="40.8545617" lon="14.218405"><ele>202.0</ele><time>2026-04-20T14:14:14.534Z</time></trkpt><trkpt lat="40.854615" lon="14.2183433"><ele>204.0</ele><time>2026-04-20T14:14:17.537Z</time></trkpt><trkpt lat="40.8546867" lon="14.2182867"><ele>205.99999999999997</ele><time>2026-04-20T14:14:20.535Z</time></trkpt><trkpt lat="40.8547633" lon="14.2182117"><ele>208.0</ele><time>2026-04-20T14:14:23.536Z</time></trkpt><trkpt lat="40.8548083" lon="14.2181533"><ele>208.7142857142857</ele><time>2026-04-20T14:14:25.533Z</time></trkpt><trkpt lat="40.8548567" lon="14.2180983"><ele>209.42857142857144</ele><time>2026-04-20T14:14:27.534Z</time></trkpt><trkpt lat="40.854915" lon="14.2180467"><ele>210.14285714285714</ele><time>2026-04-20T14:14:29.536Z</time></trkpt><trkpt lat="40.8549767" lon="14.218015"><ele>210.85714285714283</ele><time>2026-04-20T14:14:31.535Z</time></trkpt><trkpt lat="40.8550467" lon="14.2179867"><ele>211.57142857142856</ele><time>2026-04-20T14:14:33.535Z</time></trkpt><trkpt lat="40.855115" lon="14.2179717"><ele>212.28571428571428</ele><time>2026-04-20T14:14:35.536Z</time></trkpt><trkpt lat="40.8551783" lon="14.2179683"><ele>213.0</ele><time>2026-04-20T14:14:37.536Z</time></trkpt><trkpt lat="40.8552583" lon="14.2180033"><ele>213.0</ele><time>2026-04-20T14:14:40.535Z</time></trkpt><trkpt lat="40.85534" lon="14.21805"><ele>213.0</ele><time>2026-04-20T14:14:43.536Z</time></trkpt><trkpt lat="40.8554133" lon="14.2181067"><ele>213.0</ele><time>2026-04-20T14:14:46.535Z</time></trkpt><trkpt lat="40.8554717" lon="14.2181983"><ele>213.0</ele><time>2026-04-20T14:14:49.538Z</time></trkpt><trkpt lat="40.85554" lon="14.2182933"><ele>213.0</ele><time>2026-04-20T14:14:52.535Z</time></trkpt><trkpt lat="40.855615" lon="14.2183483"><ele>213.0</ele><time>2026-04-20T14:14:55.535Z</time></trkpt><trkpt lat="40.85569" lon="14.218405"><ele>213.33333333333334</ele><time>2026-04-20T14:14:58.537Z</time></trkpt><trkpt lat="40.8557733" lon="14.2184283"><ele>213.66666666666669</ele><time>2026-04-20T14:15:01.537Z</time></trkpt><trkpt lat="40.8558533" lon="14.2184467"><ele>214.0</ele><time>2026-04-20T14:15:04.536Z</time></trkpt><trkpt lat="40.85593" lon="14.2184933"><ele>214.33333333333334</ele><time>2026-04-20T14:15:07.536Z</time></trkpt><trkpt lat="40.8560017" lon="14.2185567"><ele>214.66666666666669</ele><time>2026-04-20T14:15:10.535Z</time></trkpt><trkpt lat="40.856075" lon="14.2186017"><ele>215.0</ele><time>2026-04-20T14:15:13.535Z</time></trkpt><trkpt lat="40.8561267" lon="14.2186517"><ele>217.4</ele><time>2026-04-20T14:15:15.536Z</time></trkpt><trkpt lat="40.85621" lon="14.2187"><ele>219.8</ele><time>2026-04-20T14:15:18.535Z</time></trkpt><trkpt lat="40.8562883" lon="14.2187617"><ele>222.2</ele><time>2026-04-20T14:15:21.535Z</time></trkpt><trkpt lat="40.8563767" lon="14.21879"><ele>224.6</ele><time>2026-04-20T14:15:24.536Z</time></trkpt><trkpt lat="40.8564667" lon="14.218775"><ele>227.0</ele><time>2026-04-20T14:15:27.535Z</time></trkpt><trkpt lat="40.856545" lon="14.2187233"><ele>227.00000000000003</ele><time>2026-04-20T14:15:30.533Z</time></trkpt><trkpt lat="40.856605" lon="14.2186717"><ele>227.0</ele><time>2026-04-20T14:15:32.536Z</time></trkpt><trkpt lat="40.8566917" lon="14.2186533"><ele>227.0</ele><time>2026-04-20T14:15:35.538Z</time></trkpt><trkpt lat="40.8567567" lon="14.2186583"><ele>227.0</ele><time>2026-04-20T14:15:37.536Z</time></trkpt><trkpt lat="40.8568367" lon="14.2187017"><ele>227.00000000000003</ele><time>2026-04-20T14:15:40.535Z</time></trkpt><trkpt lat="40.8569033" lon="14.2187833"><ele>227.0</ele><time>2026-04-20T14:15:43.536Z</time></trkpt><trkpt lat="40.8569567" lon="14.2188783"><ele>228.83333333333334</ele><time>2026-04-20T14:15:46.537Z</time></trkpt><trkpt lat="40.8570183" lon="14.218955"><ele>230.66666666666669</ele><time>2026-04-20T14:15:49.536Z</time></trkpt><trkpt lat="40.8570983" lon="14.2189967"><ele>232.5</ele><time>2026-04-20T14:15:52.535Z</time></trkpt><trkpt lat="40.857185" lon="14.2189717"><ele>234.33333333333331</ele><time>2026-04-20T14:15:55.536Z</time></trkpt><trkpt lat="40.8572317" lon="14.218915"><ele>236.16666666666666</ele><time>2026-04-20T14:15:57.534Z</time></trkpt><trkpt lat="40.8572783" lon="14.2188583"><ele>238.0</ele><time>2026-04-20T14:15:59.535Z</time></trkpt><trkpt lat="40.8573483" lon="14.21879"><ele>238.16666666666666</ele><time>2026-04-20T14:16:02.535Z</time></trkpt><trkpt lat="40.8574167" lon="14.2187333"><ele>238.33333333333331</ele><time>2026-04-20T14:16:05.536Z</time></trkpt><trkpt lat="40.8574683" lon="14.2186683"><ele>238.5</ele><time>2026-04-20T14:16:08.536Z</time></trkpt><trkpt lat="40.8575317" lon="14.2186067"><ele>238.66666666666669</ele><time>2026-04-20T14:16:11.536Z</time></trkpt><trkpt lat="40.8575967" lon="14.2185333"><ele>238.83333333333334</ele><time>2026-04-20T14:16:14.537Z</time></trkpt><trkpt lat="40.8576633" lon="14.2184917"><ele>239.0</ele><time>2026-04-20T14:16:17.537Z</time></trkpt><trkpt lat="40.8577383" lon="14.2184533"><ele>240.16666666666669</ele><time>2026-04-20T14:16:20.537Z</time></trkpt><trkpt lat="40.8577967" lon="14.21838"><ele>241.33333333333334</ele><time>2026-04-20T14:16:23.536Z</time></trkpt><trkpt lat="40.8578583" lon="14.2183117"><ele>242.5</ele><time>2026-04-20T14:16:26.536Z</time></trkpt><trkpt lat="40.85789" lon="14.2182367"><ele>243.66666666666669</ele><time>2026-04-20T14:16:29.536Z</time></trkpt><trkpt lat="40.85793" lon="14.2181617"><ele>244.83333333333334</ele><time>2026-04-20T14:16:33.535Z</time></trkpt><trkpt lat="40.857935" lon="14.2180367"><ele>246.0</ele><time>2026-04-20T14:16:36.535Z</time></trkpt><trkpt lat="40.8579383" lon="14.21794"><ele>246.00000000000003</ele><time>2026-04-20T14:16:38.536Z</time></trkpt><trkpt lat="40.85796" lon="14.217855"><ele>246.0</ele><time>2026-04-20T14:16:40.535Z</time></trkpt><trkpt lat="40.8579967" lon="14.2177567"><ele>246.00000000000003</ele><time>2026-04-20T14:16:43.535Z</time></trkpt><trkpt lat="40.8580417" lon="14.2176983"><ele>246.00000000000003</ele><time>2026-04-20T14:16:46.536Z</time></trkpt><trkpt lat="40.858085" lon="14.2176233"><ele>246.0</ele><time>2026-04-20T14:16:51.534Z</time></trkpt><trkpt lat="40.8581083" lon="14.2175417"><ele>246.00000000000003</ele><time>2026-04-20T14:16:55.536Z</time></trkpt><trkpt lat="40.8581883" lon="14.21752"><ele>246.00000000000003</ele><time>2026-04-20T14:16:59.536Z</time></trkpt><trkpt lat="40.85825" lon="14.2174933"><ele>246.0</ele><time>2026-04-20T14:17:02.535Z</time></trkpt><trkpt lat="40.8583217" lon="14.2174767"><ele>246.0</ele><time>2026-04-20T14:17:05.536Z</time></trkpt><trkpt lat="40.8583917" lon="14.2174733"><ele>246.0</ele><time>2026-04-20T14:17:08.535Z</time></trkpt><trkpt lat="40.8584567" lon="14.2174683"><ele>246.0</ele><time>2026-04-20T14:17:11.536Z</time></trkpt><trkpt lat="40.8585267" lon="14.2174483"><ele>246.0</ele><time>2026-04-20T14:17:15.535Z</time></trkpt><trkpt lat="40.8586167" lon="14.2174517"><ele>246.0</ele><time>2026-04-20T14:17:19.536Z</time></trkpt><trkpt lat="40.8586983" lon="14.21745"><ele>247.71428571428575</ele><time>2026-04-20T14:17:22.535Z</time></trkpt><trkpt lat="40.8587483" lon="14.2173667"><ele>249.42857142857144</ele><time>2026-04-20T14:17:25.536Z</time></trkpt><trkpt lat="40.85879" lon="14.2172617"><ele>251.14285714285714</ele><time>2026-04-20T14:17:28.535Z</time></trkpt><trkpt lat="40.8587883" lon="14.2171733"><ele>252.85714285714286</ele><time>2026-04-20T14:17:30.537Z</time></trkpt><trkpt lat="40.85878" lon="14.2170783"><ele>254.57142857142856</ele><time>2026-04-20T14:17:33.536Z</time></trkpt><trkpt lat="40.858765" lon="14.21698"><ele>256.2857142857143</ele><time>2026-04-20T14:17:36.536Z</time></trkpt><trkpt lat="40.8587117" lon="14.216935"><ele>258.0</ele><time>2026-04-20T14:17:39.535Z</time></trkpt><trkpt lat="40.8586567" lon="14.21689"><ele>258.1428571428571</ele><time>2026-04-20T14:17:42.535Z</time></trkpt><trkpt lat="40.8586317" lon="14.2168017"><ele>258.2857142857143</ele><time>2026-04-20T14:17:46.536Z</time></trkpt><trkpt lat="40.858635" lon="14.2167083"><ele>258.42857142857144</ele><time>2026-04-20T14:17:49.537Z</time></trkpt><trkpt lat="40.858655" lon="14.216625"><ele>258.57142857142856</ele><time>2026-04-20T14:17:52.536Z</time></trkpt><trkpt lat="40.8587283" lon="14.2165883"><ele>258.7142857142857</ele><time>2026-04-20T14:17:56.535Z</time></trkpt><trkpt lat="40.8587967" lon="14.2166183"><ele>258.85714285714283</ele><time>2026-04-20T14:17:59.536Z</time></trkpt><trkpt lat="40.858875" lon="14.2166717"><ele>259.0</ele><time>2026-04-20T14:18:02.536Z</time></trkpt><trkpt lat="40.8589417" lon="14.2167417"><ele>259.0</ele><time>2026-04-20T14:18:05.537Z</time></trkpt><trkpt lat="40.859005" lon="14.2168283"><ele>259.0</ele><time>2026-04-20T14:18:08.535Z</time></trkpt><trkpt lat="40.8590633" lon="14.2169083"><ele>259.0</ele><time>2026-04-20T14:18:11.534Z</time></trkpt><trkpt lat="40.8591067" lon="14.2169917"><ele>259.0</ele><time>2026-04-20T14:18:14.536Z</time></trkpt><trkpt lat="40.8591467" lon="14.2170783"><ele>259.0</ele><time>2026-04-20T14:18:17.536Z</time></trkpt><trkpt lat="40.8591783" lon="14.217175"><ele>259.0</ele><time>2026-04-20T14:18:21.535Z</time></trkpt><trkpt lat="40.8591733" lon="14.217265"><ele>258.8333333333333</ele><time>2026-04-20T14:18:24.534Z</time></trkpt><trkpt lat="40.8591183" lon="14.217335"><ele>258.66666666666663</ele><time>2026-04-20T14:18:27.536Z</time></trkpt><trkpt lat="40.8590483" lon="14.2173867"><ele>258.5</ele><time>2026-04-20T14:18:30.535Z</time></trkpt><trkpt lat="40.8589817" lon="14.21745"><ele>258.3333333333333</ele><time>2026-04-20T14:18:33.535Z</time></trkpt><trkpt lat="40.85892" lon="14.2175667"><ele>258.1666666666667</ele><time>2026-04-20T14:18:37.536Z</time></trkpt><trkpt lat="40.858905" lon="14.21767"><ele>258.0</ele><time>2026-04-20T14:18:40.536Z</time></trkpt><trkpt lat="40.8589083" lon="14.2177783"><ele>258.0</ele><time>2026-04-20T14:18:43.536Z</time></trkpt><trkpt lat="40.8589567" lon="14.2178833"><ele>258.0</ele><time>2026-04-20T14:18:46.536Z</time></trkpt><trkpt lat="40.859015" lon="14.2179733"><ele>258.0</ele><time>2026-04-20T14:18:48.537Z</time></trkpt><trkpt lat="40.8590683" lon="14.2180217"><ele>258.0</ele><time>2026-04-20T14:18:50.536Z</time></trkpt><trkpt lat="40.8591367" lon="14.218085"><ele>258.0</ele><time>2026-04-20T14:18:53.536Z</time></trkpt><trkpt lat="40.8592267" lon="14.218095"><ele>258.0</ele><time>2026-04-20T14:18:56.535Z</time></trkpt><trkpt lat="40.859305" lon="14.21806"><ele>259.71428571428567</ele><time>2026-04-20T14:18:58.535Z</time></trkpt><trkpt lat="40.8593817" lon="14.21803"><ele>261.42857142857144</ele><time>2026-04-20T14:19:00.536Z</time></trkpt><trkpt lat="40.85945" lon="14.2180067"><ele>263.1428571428571</ele><time>2026-04-20T14:19:02.536Z</time></trkpt><trkpt lat="40.859515" lon="14.2180067"><ele>264.85714285714283</ele><time>2026-04-20T14:19:04.536Z</time></trkpt><trkpt lat="40.8595867" lon="14.2180117"><ele>266.57142857142856</ele><time>2026-04-20T14:19:06.537Z</time></trkpt><trkpt lat="40.8596517" lon="14.21801"><ele>268.2857142857143</ele><time>2026-04-20T14:19:08.534Z</time></trkpt><trkpt lat="40.859725" lon="14.2179983"><ele>270.0</ele><time>2026-04-20T14:19:10.535Z</time></trkpt><trkpt lat="40.8598" lon="14.2179817"><ele>270.0</ele><time>2026-04-20T14:19:12.535Z</time></trkpt><trkpt lat="40.8598833" lon="14.217955"><ele>270.0</ele><time>2026-04-20T14:19:14.535Z</time></trkpt><trkpt lat="40.8599533" lon="14.2179467"><ele>270.0</ele><time>2026-04-20T14:19:16.536Z</time></trkpt><trkpt lat="40.8600267" lon="14.2179617"><ele>270.0</ele><time>2026-04-20T14:19:19.536Z</time></trkpt><trkpt lat="40.860105" lon="14.2179567"><ele>270.0</ele><time>2026-04-20T14:19:22.534Z</time></trkpt><trkpt lat="40.860185" lon="14.217975"><ele>270.0</ele><time>2026-04-20T14:19:25.535Z</time></trkpt><trkpt lat="40.8602483" lon="14.2179933"><ele>271.1666666666667</ele><time>2026-04-20T14:19:27.535Z</time></trkpt><trkpt lat="40.860315" lon="14.2180017"><ele>272.3333333333333</ele><time>2026-04-20T14:19:29.535Z</time></trkpt><trkpt lat="40.86041" lon="14.2180083"><ele>273.5</ele><time>2026-04-20T14:19:32.536Z</time></trkpt><trkpt lat="40.860475" lon="14.2179967"><ele>274.66666666666663</ele><time>2026-04-20T14:19:34.536Z</time></trkpt><trkpt lat="40.8605533" lon="14.21801"><ele>275.8333333333333</ele><time>2026-04-20T14:19:37.535Z</time></trkpt><trkpt lat="40.860635" lon="14.2180217"><ele>277.0</ele><time>2026-04-20T14:19:40.536Z</time></trkpt><trkpt lat="40.8607283" lon="14.2180083"><ele>277.0</ele><time>2026-04-20T14:19:42.535Z</time></trkpt><trkpt lat="40.86079" lon="14.2179917"><ele>277.0</ele><time>2026-04-20T14:19:44.536Z</time></trkpt><trkpt lat="40.8608583" lon="14.2179817"><ele>277.0</ele><time>2026-04-20T14:19:46.536Z</time></trkpt><trkpt lat="40.8609217" lon="14.217995"><ele>277.0</ele><time>2026-04-20T14:19:48.535Z</time></trkpt><trkpt lat="40.8609983" lon="14.2180383"><ele>277.0</ele><time>2026-04-20T14:19:51.535Z</time></trkpt><trkpt lat="40.861075" lon="14.2180483"><ele>277.0</ele><time>2026-04-20T14:19:54.537Z</time></trkpt><trkpt lat="40.8611417" lon="14.21805"><ele>277.0</ele><time>2026-04-20T14:19:56.536Z</time></trkpt><trkpt lat="40.8612183" lon="14.218055"><ele>277.2857142857143</ele><time>2026-04-20T14:19:58.536Z</time></trkpt><trkpt lat="40.8612883" lon="14.2180433"><ele>277.57142857142856</ele><time>2026-04-20T14:20:00.535Z</time></trkpt><trkpt lat="40.86135" lon="14.218025"><ele>277.85714285714283</ele><time>2026-04-20T14:20:02.535Z</time></trkpt><trkpt lat="40.8614133" lon="14.2180167"><ele>278.1428571428571</ele><time>2026-04-20T14:20:04.535Z</time></trkpt><trkpt lat="40.8614967" lon="14.21802"><ele>278.42857142857144</ele><time>2026-04-20T14:20:06.536Z</time></trkpt><trkpt lat="40.8615633" lon="14.21802"><ele>278.71428571428567</ele><time>2026-04-20T14:20:08.535Z</time></trkpt><trkpt lat="40.861645" lon="14.21798"><ele>279.0</ele><time>2026-04-20T14:20:10.534Z</time></trkpt><trkpt lat="40.8617033" lon="14.21791"><ele>279.0</ele><time>2026-04-20T14:20:12.536Z</time></trkpt><trkpt lat="40.8617533" lon="14.2178217"><ele>279.0</ele><time>2026-04-20T14:20:14.536Z</time></trkpt><trkpt lat="40.8618133" lon="14.2177183"><ele>279.0</ele><time>2026-04-20T14:20:16.536Z</time></trkpt><trkpt lat="40.8618483" lon="14.2176467"><ele>279.0</ele><time>2026-04-20T14:20:18.535Z</time></trkpt><trkpt lat="40.8618433" lon="14.21756"><ele>279.0</ele><time>2026-04-20T14:20:20.536Z</time></trkpt><trkpt lat="40.8618317" lon="14.21746"><ele>279.0</ele><time>2026-04-20T14:20:22.536Z</time></trkpt><trkpt lat="40.861805" lon="14.21737"><ele>280.1666666666667</ele><time>2026-04-20T14:20:24.536Z</time></trkpt><trkpt lat="40.8617633" lon="14.217285"><ele>281.3333333333333</ele><time>2026-04-20T14:20:26.535Z</time></trkpt><trkpt lat="40.861725" lon="14.2172"><ele>282.5</ele><time>2026-04-20T14:20:28.536Z</time></trkpt><trkpt lat="40.8617167" lon="14.217105"><ele>283.66666666666663</ele><time>2026-04-20T14:20:30.536Z</time></trkpt><trkpt lat="40.8617017" lon="14.21701"><ele>284.8333333333333</ele><time>2026-04-20T14:20:32.536Z</time></trkpt><trkpt lat="40.8616867" lon="14.2169067"><ele>286.0</ele><time>2026-04-20T14:20:34.536Z</time></trkpt><trkpt lat="40.8616833" lon="14.2167983"><ele>286.0</ele><time>2026-04-20T14:20:36.536Z</time></trkpt><trkpt lat="40.86164" lon="14.2166867"><ele>286.0</ele><time>2026-04-20T14:20:38.536Z</time></trkpt><trkpt lat="40.861665" lon="14.216545"><ele>286.0</ele><time>2026-04-20T14:20:40.536Z</time></trkpt><trkpt lat="40.8616883" lon="14.2164367"><ele>286.0</ele><time>2026-04-20T14:20:42.536Z</time></trkpt><trkpt lat="40.8617133" lon="14.216355"><ele>286.0</ele><time>2026-04-20T14:20:44.536Z</time></trkpt><trkpt lat="40.8617883" lon="14.21629"><ele>286.0</ele><time>2026-04-20T14:20:47.536Z</time></trkpt><trkpt lat="40.8618667" lon="14.2163333"><ele>285.57142857142856</ele><time>2026-04-20T14:20:51.535Z</time></trkpt><trkpt lat="40.8619333" lon="14.2163817"><ele>285.1428571428571</ele><time>2026-04-20T14:20:55.535Z</time></trkpt><trkpt lat="40.8620117" lon="14.21642"><ele>284.7142857142857</ele><time>2026-04-20T14:20:58.536Z</time></trkpt><trkpt lat="40.862065" lon="14.2164717"><ele>284.2857142857143</ele><time>2026-04-20T14:21:00.537Z</time></trkpt><trkpt lat="40.8621267" lon="14.2165067"><ele>283.8571428571429</ele><time>2026-04-20T14:21:02.535Z</time></trkpt><trkpt lat="40.8621867" lon="14.2165517"><ele>283.42857142857144</ele><time>2026-04-20T14:21:04.536Z</time></trkpt><trkpt lat="40.86225" lon="14.2166017"><ele>283.0</ele><time>2026-04-20T14:21:07.535Z</time></trkpt><trkpt lat="40.8622967" lon="14.2166583"><ele>282.66666666666663</ele><time>2026-04-20T14:21:10.535Z</time></trkpt><trkpt lat="40.8623683" lon="14.21668"><ele>282.3333333333333</ele><time>2026-04-20T14:21:13.535Z</time></trkpt><trkpt lat="40.8624417" lon="14.21669"><ele>282.0</ele><time>2026-04-20T14:21:15.535Z</time></trkpt><trkpt lat="40.86251" lon="14.2167117"><ele>281.6666666666667</ele><time>2026-04-20T14:21:17.535Z</time></trkpt><trkpt lat="40.8625817" lon="14.2167767"><ele>281.33333333333337</ele><time>2026-04-20T14:21:20.536Z</time></trkpt><trkpt lat="40.8626133" lon="14.2168717"><ele>281.0</ele><time>2026-04-20T14:21:23.537Z</time></trkpt><trkpt lat="40.862615" lon="14.216975"><ele>281.0</ele><time>2026-04-20T14:21:26.536Z</time></trkpt><trkpt lat="40.8626033" lon="14.2170867"><ele>281.0</ele><time>2026-04-20T14:21:32.536Z</time></trkpt><trkpt lat="40.8625717" lon="14.217185"><ele>281.0</ele><time>2026-04-20T14:21:35.536Z</time></trkpt><trkpt lat="40.8625683" lon="14.2172733"><ele>281.0</ele><time>2026-04-20T14:21:38.536Z</time></trkpt><trkpt lat="40.8626133" lon="14.2173733"><ele>281.0</ele><time>2026-04-20T14:21:40.535Z</time></trkpt><trkpt lat="40.8626633" lon="14.2174583"><ele>281.0</ele><time>2026-04-20T14:21:42.535Z</time></trkpt><trkpt lat="40.8627167" lon="14.217545"><ele>281.6</ele><time>2026-04-20T14:21:44.536Z</time></trkpt><trkpt lat="40.86277" lon="14.2175917"><ele>282.20000000000005</ele><time>2026-04-20T14:21:46.535Z</time></trkpt><trkpt lat="40.86286" lon="14.21768"><ele>282.79999999999995</ele><time>2026-04-20T14:21:48.536Z</time></trkpt><trkpt lat="40.8629617" lon="14.21773"><ele>283.4</ele><time>2026-04-20T14:21:50.535Z</time></trkpt><trkpt lat="40.8630567" lon="14.2177617"><ele>284.0</ele><time>2026-04-20T14:21:53.537Z</time></trkpt><trkpt lat="40.8631267" lon="14.2177817"><ele>284.0</ele><time>2026-04-20T14:21:56.535Z</time></trkpt><trkpt lat="40.8631883" lon="14.2178233"><ele>284.0</ele><time>2026-04-20T14:21:59.536Z</time></trkpt><trkpt lat="40.86325" lon="14.21785"><ele>284.0</ele><time>2026-04-20T14:22:03.536Z</time></trkpt><trkpt lat="40.863295" lon="14.2179183"><ele>284.0</ele><time>2026-04-20T14:22:06.535Z</time></trkpt><trkpt lat="40.86336" lon="14.2179983"><ele>284.0</ele><time>2026-04-20T14:22:09.535Z</time></trkpt><trkpt lat="40.8634117" lon="14.2180833"><ele>284.0</ele><time>2026-04-20T14:22:11.535Z</time></trkpt><trkpt lat="40.86346" lon="14.2181767"><ele>284.2857142857143</ele><time>2026-04-20T14:22:13.535Z</time></trkpt><trkpt lat="40.8634967" lon="14.21826"><ele>284.57142857142856</ele><time>2026-04-20T14:22:15.535Z</time></trkpt><trkpt lat="40.8635333" lon="14.2183433"><ele>284.85714285714283</ele><time>2026-04-20T14:22:17.536Z</time></trkpt><trkpt lat="40.8635617" lon="14.21842"><ele>285.1428571428571</ele><time>2026-04-20T14:22:19.536Z</time></trkpt><trkpt lat="40.8635967" lon="14.21852"><ele>285.42857142857144</ele><time>2026-04-20T14:22:22.536Z</time></trkpt><trkpt lat="40.863625" lon="14.2186333"><ele>285.71428571428567</ele><time>2026-04-20T14:22:25.537Z</time></trkpt><trkpt lat="40.8636567" lon="14.2187083"><ele>286.0</ele><time>2026-04-20T14:22:27.537Z</time></trkpt><trkpt lat="40.8636917" lon="14.21881"><ele>285.99999999999994</ele><time>2026-04-20T14:22:30.536Z</time></trkpt><trkpt lat="40.8636783" lon="14.2188917"><ele>286.0</ele><time>2026-04-20T14:22:33.536Z</time></trkpt><trkpt lat="40.8636933" lon="14.218995"><ele>286.0</ele><time>2026-04-20T14:22:36.535Z</time></trkpt><trkpt lat="40.8637217" lon="14.21908"><ele>286.0</ele><time>2026-04-20T14:24:47.536Z</time></trkpt><trkpt lat="40.86366" lon="14.219125"><ele>286.0</ele><time>2026-04-20T14:24:53.535Z</time></trkpt><trkpt lat="40.86369" lon="14.2192133"><ele>285.99999999999994</ele><time>2026-04-20T14:24:56.536Z</time></trkpt><trkpt lat="40.863765" lon="14.21922"><ele>286.0</ele><time>2026-04-20T14:24:59.535Z</time></trkpt><trkpt lat="40.863825" lon="14.21914"><ele>286.0</ele><time>2026-04-20T14:25:03.536Z</time></trkpt><trkpt lat="40.863855" lon="14.2190183"><ele>286.0</ele><time>2026-04-20T14:25:06.536Z</time></trkpt><trkpt lat="40.8638733" lon="14.2189233"><ele>286.0</ele><time>2026-04-20T14:25:08.533Z</time></trkpt><trkpt lat="40.8639083" lon="14.2188483"><ele>286.0</ele><time>2026-04-20T14:25:10.535Z</time></trkpt><trkpt lat="40.8639567" lon="14.2187883"><ele>286.0</ele><time>2026-04-20T14:25:12.536Z</time></trkpt><trkpt lat="40.8640233" lon="14.2187333"><ele>286.0</ele><time>2026-04-20T14:25:14.536Z</time></trkpt><trkpt lat="40.86404" lon="14.2186433"><ele>285.99999999999994</ele><time>2026-04-20T14:25:16.536Z</time></trkpt><trkpt lat="40.8640567" lon="14.2185417"><ele>286.0</ele><time>2026-04-20T14:25:18.534Z</time></trkpt><trkpt lat="40.8640767" lon="14.2184367"><ele>286.0</ele><time>2026-04-20T14:25:20.536Z</time></trkpt><trkpt lat="40.8641033" lon="14.218345"><ele>286.0</ele><time>2026-04-20T14:25:22.537Z</time></trkpt><trkpt lat="40.8641217" lon="14.218255"><ele>286.0</ele><time>2026-04-20T14:25:24.536Z</time></trkpt><trkpt lat="40.8641383" lon="14.218165"><ele>285.99999999999994</ele><time>2026-04-20T14:25:26.537Z</time></trkpt><trkpt lat="40.8641517" lon="14.2180767"><ele>286.0</ele><time>2026-04-20T14:25:28.536Z</time></trkpt><trkpt lat="40.864165" lon="14.2179917"><ele>286.4285714285714</ele><time>2026-04-20T14:25:30.535Z</time></trkpt><trkpt lat="40.8641583" lon="14.2179"><ele>286.85714285714283</ele><time>2026-04-20T14:25:32.536Z</time></trkpt><trkpt lat="40.864145" lon="14.2178167"><ele>287.2857142857143</ele><time>2026-04-20T14:25:34.536Z</time></trkpt><trkpt lat="40.8641283" lon="14.217725"><ele>287.71428571428567</ele><time>2026-04-20T14:25:36.536Z</time></trkpt><trkpt lat="40.8641167" lon="14.21763"><ele>288.1428571428571</ele><time>2026-04-20T14:25:38.536Z</time></trkpt><trkpt lat="40.8640783" lon="14.2175467"><ele>288.57142857142856</ele><time>2026-04-20T14:25:40.536Z</time></trkpt><trkpt lat="40.8640367" lon="14.217465"><ele>289.0</ele><time>2026-04-20T14:25:42.536Z</time></trkpt><trkpt lat="40.8639983" lon="14.2173683"><ele>289.16666666666663</ele><time>2026-04-20T14:25:44.535Z</time></trkpt><trkpt lat="40.8639667" lon="14.217265"><ele>289.3333333333333</ele><time>2026-04-20T14:25:46.536Z</time></trkpt><trkpt lat="40.8639433" lon="14.2171617"><ele>289.5</ele><time>2026-04-20T14:25:48.536Z</time></trkpt><trkpt lat="40.8639267" lon="14.2170583"><ele>289.6666666666667</ele><time>2026-04-20T14:25:50.535Z</time></trkpt><trkpt lat="40.8639083" lon="14.216975"><ele>289.83333333333337</ele><time>2026-04-20T14:25:52.536Z</time></trkpt><trkpt lat="40.86389" lon="14.2168867"><ele>290.0</ele><time>2026-04-20T14:25:54.535Z</time></trkpt><trkpt lat="40.8638717" lon="14.216795"><ele>290.0</ele><time>2026-04-20T14:25:56.535Z</time></trkpt><trkpt lat="40.863855" lon="14.2167017"><ele>290.0</ele><time>2026-04-20T14:25:58.536Z</time></trkpt><trkpt lat="40.8638283" lon="14.2166033"><ele>290.0</ele><time>2026-04-20T14:26:00.536Z</time></trkpt><trkpt lat="40.8638233" lon="14.2165167"><ele>290.0</ele><time>2026-04-20T14:26:02.536Z</time></trkpt><trkpt lat="40.86381" lon="14.21643"><ele>290.0</ele><time>2026-04-20T14:26:04.535Z</time></trkpt><trkpt lat="40.8638017" lon="14.216325"><ele>290.0</ele><time>2026-04-20T14:26:07.536Z</time></trkpt><trkpt lat="40.8638" lon="14.2162033"><ele>291.1666666666667</ele><time>2026-04-20T14:26:10.536Z</time></trkpt><trkpt lat="40.86379" lon="14.2160833"><ele>292.33333333333337</ele><time>2026-04-20T14:26:13.535Z</time></trkpt><trkpt lat="40.8637833" lon="14.21598"><ele>293.5</ele><time>2026-04-20T14:26:16.535Z</time></trkpt><trkpt lat="40.8637817" lon="14.21588"><ele>294.6666666666667</ele><time>2026-04-20T14:26:19.536Z</time></trkpt><trkpt lat="40.8637633" lon="14.2157633"><ele>295.8333333333333</ele><time>2026-04-20T14:26:22.537Z</time></trkpt><trkpt lat="40.86375" lon="14.21564"><ele>297.0</ele><time>2026-04-20T14:26:25.536Z</time></trkpt><trkpt lat="40.863755" lon="14.215555"><ele>297.6666666666667</ele><time>2026-04-20T14:26:27.535Z</time></trkpt><trkpt lat="40.86376" lon="14.215465"><ele>298.3333333333333</ele><time>2026-04-20T14:26:29.536Z</time></trkpt><trkpt lat="40.8637567" lon="14.21538"><ele>299.0</ele><time>2026-04-20T14:26:31.537Z</time></trkpt><trkpt lat="40.8637617" lon="14.215255"><ele>299.66666666666663</ele><time>2026-04-20T14:26:34.537Z</time></trkpt><trkpt lat="40.8637633" lon="14.215135"><ele>300.3333333333333</ele><time>2026-04-20T14:26:37.538Z</time></trkpt><trkpt lat="40.863775" lon="14.2150283"><ele>301.0</ele><time>2026-04-20T14:26:39.537Z</time></trkpt><trkpt lat="40.8637733" lon="14.214905"><ele>301.0</ele><time>2026-04-20T14:26:41.535Z</time></trkpt><trkpt lat="40.86375" lon="14.2148183"><ele>301.0</ele><time>2026-04-20T14:26:43.535Z</time></trkpt><trkpt lat="40.8636983" lon="14.2147133"><ele>301.0</ele><time>2026-04-20T14:26:46.536Z</time></trkpt><trkpt lat="40.8636433" lon="14.2146183"><ele>301.0</ele><time>2026-04-20T14:26:49.538Z</time></trkpt><trkpt lat="40.8635767" lon="14.21454"><ele>301.0</ele><time>2026-04-20T14:26:52.536Z</time></trkpt><trkpt lat="40.863535" lon="14.2144717"><ele>301.0</ele><time>2026-04-20T14:26:54.536Z</time></trkpt><trkpt lat="40.8634933" lon="14.2144"><ele>301.66666666666663</ele><time>2026-04-20T14:26:56.535Z</time></trkpt><trkpt lat="40.86343" lon="14.214315"><ele>302.3333333333333</ele><time>2026-04-20T14:26:59.535Z</time></trkpt><trkpt lat="40.863375" lon="14.214235"><ele>303.0</ele><time>2026-04-20T14:27:02.536Z</time></trkpt><trkpt lat="40.86333" lon="14.2141733"><ele>303.6666666666667</ele><time>2026-04-20T14:27:04.536Z</time></trkpt><trkpt lat="40.86329" lon="14.2141017"><ele>304.33333333333337</ele><time>2026-04-20T14:27:06.535Z</time></trkpt><trkpt lat="40.86325" lon="14.214025"><ele>305.0</ele><time>2026-04-20T14:27:08.535Z</time></trkpt><trkpt lat="40.8631983" lon="14.2139483"><ele>305.7142857142857</ele><time>2026-04-20T14:27:10.537Z</time></trkpt><trkpt lat="40.8631683" lon="14.213875"><ele>306.4285714285714</ele><time>2026-04-20T14:27:12.536Z</time></trkpt><trkpt lat="40.8631333" lon="14.2137767"><ele>307.1428571428571</ele><time>2026-04-20T14:27:14.536Z</time></trkpt><trkpt lat="40.863095" lon="14.2136783"><ele>307.8571428571429</ele><time>2026-04-20T14:27:16.536Z</time></trkpt><trkpt lat="40.8630617" lon="14.213585"><ele>308.57142857142856</ele><time>2026-04-20T14:27:18.536Z</time></trkpt><trkpt lat="40.86302" lon="14.2135117"><ele>309.2857142857143</ele><time>2026-04-20T14:27:20.534Z</time></trkpt><trkpt lat="40.8629867" lon="14.2134333"><ele>310.0</ele><time>2026-04-20T14:27:22.536Z</time></trkpt><trkpt lat="40.862955" lon="14.2133467"><ele>310.0</ele><time>2026-04-20T14:27:24.534Z</time></trkpt><trkpt lat="40.8629283" lon="14.2132667"><ele>310.0</ele><time>2026-04-20T14:27:26.535Z</time></trkpt><trkpt lat="40.8629083" lon="14.2131833"><ele>310.0</ele><time>2026-04-20T14:27:28.535Z</time></trkpt><trkpt lat="40.8628933" lon="14.213095"><ele>310.0</ele><time>2026-04-20T14:27:30.536Z</time></trkpt><trkpt lat="40.862875" lon="14.2129767"><ele>310.0</ele><time>2026-04-20T14:27:33.536Z</time></trkpt><trkpt lat="40.862855" lon="14.21287"><ele>310.0</ele><time>2026-04-20T14:27:36.536Z</time></trkpt><trkpt lat="40.862845" lon="14.2127683"><ele>310.8571428571429</ele><time>2026-04-20T14:27:39.536Z</time></trkpt><trkpt lat="40.8628467" lon="14.2126767"><ele>311.7142857142857</ele><time>2026-04-20T14:27:42.535Z</time></trkpt><trkpt lat="40.8628583" lon="14.2125817"><ele>312.57142857142856</ele><time>2026-04-20T14:27:45.536Z</time></trkpt><trkpt lat="40.8628633" lon="14.2124883"><ele>313.42857142857144</ele><time>2026-04-20T14:27:48.536Z</time></trkpt><trkpt lat="40.8628583" lon="14.2124"><ele>314.2857142857143</ele><time>2026-04-20T14:27:51.535Z</time></trkpt><trkpt lat="40.86285" lon="14.2122967"><ele>315.14285714285717</ele><time>2026-04-20T14:27:55.537Z</time></trkpt><trkpt lat="40.8628517" lon="14.2122133"><ele>316.0</ele><time>2026-04-20T14:27:59.537Z</time></trkpt><trkpt lat="40.8628533" lon="14.212125"><ele>317.00000000000006</ele><time>2026-04-20T14:28:03.537Z</time></trkpt><trkpt lat="40.8628517" lon="14.212035"><ele>318.0</ele><time>2026-04-20T14:28:07.536Z</time></trkpt><trkpt lat="40.86288" lon="14.2119433"><ele>319.0</ele><time>2026-04-20T14:28:12.539Z</time></trkpt><trkpt lat="40.862905" lon="14.211845"><ele>320.0</ele><time>2026-04-20T14:28:17.533Z</time></trkpt><trkpt lat="40.862925" lon="14.2117533"><ele>321.0</ele><time>2026-04-20T14:28:22.536Z</time></trkpt><trkpt lat="40.8629467" lon="14.2116617"><ele>322.00000000000006</ele><time>2026-04-20T14:28:27.535Z</time></trkpt><trkpt lat="40.862965" lon="14.2115717"><ele>323.0</ele><time>2026-04-20T14:28:31.536Z</time></trkpt><trkpt lat="40.86298" lon="14.2114833"><ele>323.7142857142857</ele><time>2026-04-20T14:28:35.534Z</time></trkpt><trkpt lat="40.86301" lon="14.2113933"><ele>324.42857142857144</ele><time>2026-04-20T14:28:40.54Z</time></trkpt><trkpt lat="40.8630333" lon="14.211295"><ele>325.1428571428571</ele><time>2026-04-20T14:28:45.536Z</time></trkpt><trkpt lat="40.8630483" lon="14.2112017"><ele>325.8571428571429</ele><time>2026-04-20T14:28:50.536Z</time></trkpt><trkpt lat="40.8630717" lon="14.2111117"><ele>326.57142857142856</ele><time>2026-04-20T14:28:55.534Z</time></trkpt><trkpt lat="40.86309" lon="14.2110317"><ele>327.2857142857143</ele><time>2026-04-20T14:28:59.536Z</time></trkpt><trkpt lat="40.863095" lon="14.210935"><ele>328.0</ele><time>2026-04-20T14:29:03.535Z</time></trkpt><trkpt lat="40.8631217" lon="14.21083"><ele>327.99999999999994</ele><time>2026-04-20T14:29:07.534Z</time></trkpt><trkpt lat="40.863145" lon="14.2107467"><ele>328.0</ele><time>2026-04-20T14:29:10.534Z</time></trkpt><trkpt lat="40.8631617" lon="14.2106633"><ele>328.0</ele><time>2026-04-20T14:29:13.535Z</time></trkpt><trkpt lat="40.863175" lon="14.2105783"><ele>328.0</ele><time>2026-04-20T14:29:16.534Z</time></trkpt><trkpt lat="40.8631983" lon="14.2104833"><ele>328.0</ele><time>2026-04-20T14:29:19.535Z</time></trkpt><trkpt lat="40.8632183" lon="14.2104033"><ele>327.99999999999994</ele><time>2026-04-20T14:29:22.535Z</time></trkpt><trkpt lat="40.8632233" lon="14.210305"><ele>328.0</ele><time>2026-04-20T14:29:25.535Z</time></trkpt><trkpt lat="40.8632267" lon="14.2102033"><ele>328.0</ele><time>2026-04-20T14:29:28.536Z</time></trkpt><trkpt lat="40.863225" lon="14.2101017"><ele>328.0</ele><time>2026-04-20T14:29:31.534Z</time></trkpt><trkpt lat="40.8632183" lon="14.209995"><ele>328.0</ele><time>2026-04-20T14:29:34.534Z</time></trkpt><trkpt lat="40.86323" lon="14.2098917"><ele>328.0</ele><time>2026-04-20T14:29:37.534Z</time></trkpt><trkpt lat="40.863225" lon="14.2097917"><ele>328.0</ele><time>2026-04-20T14:29:40.534Z</time></trkpt><trkpt lat="40.8632317" lon="14.2096883"><ele>328.0</ele><time>2026-04-20T14:29:43.534Z</time></trkpt><trkpt lat="40.86323" lon="14.2095733"><ele>328.16666666666663</ele><time>2026-04-20T14:29:46.536Z</time></trkpt><trkpt lat="40.86323" lon="14.2094733"><ele>328.3333333333333</ele><time>2026-04-20T14:29:49.535Z</time></trkpt><trkpt lat="40.8632333" lon="14.20936"><ele>328.5</ele><time>2026-04-20T14:29:52.535Z</time></trkpt><trkpt lat="40.8632267" lon="14.2092417"><ele>328.6666666666667</ele><time>2026-04-20T14:29:55.537Z</time></trkpt><trkpt lat="40.86323" lon="14.20913"><ele>328.83333333333337</ele><time>2026-04-20T14:29:58.535Z</time></trkpt><trkpt lat="40.8632283" lon="14.2090183"><ele>329.0</ele><time>2026-04-20T14:30:01.534Z</time></trkpt><trkpt lat="40.8632333" lon="14.2089033"><ele>330.0</ele><time>2026-04-20T14:30:04.534Z</time></trkpt><trkpt lat="40.8632417" lon="14.2087917"><ele>331.0</ele><time>2026-04-20T14:30:07.534Z</time></trkpt><trkpt lat="40.863255" lon="14.2086967"><ele>332.0</ele><time>2026-04-20T14:30:10.536Z</time></trkpt><trkpt lat="40.8632533" lon="14.2085933"><ele>333.0</ele><time>2026-04-20T14:30:13.538Z</time></trkpt><trkpt lat="40.8632567" lon="14.2084933"><ele>334.0</ele><time>2026-04-20T14:30:16.535Z</time></trkpt><trkpt lat="40.8632683" lon="14.20841"><ele>335.0</ele><time>2026-04-20T14:30:19.536Z</time></trkpt><trkpt lat="40.8632917" lon="14.208315"><ele>335.0</ele><time>2026-04-20T14:30:23.536Z</time></trkpt><trkpt lat="40.8632983" lon="14.2082183"><ele>335.0</ele><time>2026-04-20T14:30:27.534Z</time></trkpt><trkpt lat="40.8632867" lon="14.20812"><ele>335.0</ele><time>2026-04-20T14:30:30.535Z</time></trkpt><trkpt lat="40.8633067" lon="14.2080267"><ele>335.0</ele><time>2026-04-20T14:30:34.535Z</time></trkpt><trkpt lat="40.8633083" lon="14.2079283"><ele>335.0</ele><time>2026-04-20T14:30:37.535Z</time></trkpt><trkpt lat="40.86333" lon="14.2078167"><ele>335.0</ele><time>2026-04-20T14:30:41.534Z</time></trkpt><trkpt lat="40.86333" lon="14.207725"><ele>335.57142857142856</ele><time>2026-04-20T14:30:44.535Z</time></trkpt><trkpt lat="40.8633433" lon="14.2076367"><ele>336.1428571428571</ele><time>2026-04-20T14:30:47.534Z</time></trkpt><trkpt lat="40.8633567" lon="14.2075533"><ele>336.71428571428567</ele><time>2026-04-20T14:30:50.534Z</time></trkpt><trkpt lat="40.8633683" lon="14.20746"><ele>337.2857142857143</ele><time>2026-04-20T14:30:54.537Z</time></trkpt><trkpt lat="40.8633617" lon="14.2073683"><ele>337.8571428571429</ele><time>2026-04-20T14:31:38.534Z</time></trkpt><trkpt lat="40.8633533" lon="14.2072833"><ele>338.4285714285714</ele><time>2026-04-20T14:31:41.534Z</time></trkpt><trkpt lat="40.8633517" lon="14.2071933"><ele>339.0</ele><time>2026-04-20T14:31:44.534Z</time></trkpt><trkpt lat="40.8633417" lon="14.207105"><ele>340.2857142857143</ele><time>2026-04-20T14:31:47.533Z</time></trkpt><trkpt lat="40.8633333" lon="14.2070167"><ele>341.5714285714286</ele><time>2026-04-20T14:31:50.536Z</time></trkpt><trkpt lat="40.8633333" lon="14.206925"><ele>342.8571428571429</ele><time>2026-04-20T14:31:53.534Z</time></trkpt><trkpt lat="40.863325" lon="14.2068383"><ele>344.1428571428571</ele><time>2026-04-20T14:31:56.534Z</time></trkpt><trkpt lat="40.8633083" lon="14.2067467"><ele>345.42857142857144</ele><time>2026-04-20T14:31:59.535Z</time></trkpt><trkpt lat="40.8632783" lon="14.2066417"><ele>346.7142857142857</ele><time>2026-04-20T14:32:03.535Z</time></trkpt><trkpt lat="40.86325" lon="14.2065567"><ele>348.0</ele><time>2026-04-20T14:32:06.533Z</time></trkpt><trkpt lat="40.8632217" lon="14.2064783"><ele>349.0</ele><time>2026-04-20T14:32:09.534Z</time></trkpt><trkpt lat="40.8631833" lon="14.2063983"><ele>350.0</ele><time>2026-04-20T14:32:12.535Z</time></trkpt><trkpt lat="40.8631467" lon="14.2063183"><ele>351.0</ele><time>2026-04-20T14:32:15.535Z</time></trkpt><trkpt lat="40.8631167" lon="14.20624"><ele>352.0</ele><time>2026-04-20T14:32:19.536Z</time></trkpt><trkpt lat="40.8630933" lon="14.2061417"><ele>353.0</ele><time>2026-04-20T14:32:23.534Z</time></trkpt><trkpt lat="40.8630767" lon="14.20606"><ele>354.0</ele><time>2026-04-20T14:32:26.534Z</time></trkpt><trkpt lat="40.86307" lon="14.2059733"><ele>355.0</ele><time>2026-04-20T14:32:29.535Z</time></trkpt><trkpt lat="40.8630683" lon="14.2058867"><ele>355.0</ele><time>2026-04-20T14:32:32.532Z</time></trkpt><trkpt lat="40.8630733" lon="14.2058017"><ele>355.0</ele><time>2026-04-20T14:32:35.532Z</time></trkpt><trkpt lat="40.8630733" lon="14.20571"><ele>355.0</ele><time>2026-04-20T14:32:39.535Z</time></trkpt><trkpt lat="40.8630683" lon="14.205625"><ele>355.0</ele><time>2026-04-20T14:32:42.535Z</time></trkpt><trkpt lat="40.8630683" lon="14.2055283"><ele>355.0</ele><time>2026-04-20T14:32:45.535Z</time></trkpt><trkpt lat="40.863075" lon="14.205445"><ele>355.0</ele><time>2026-04-20T14:32:48.534Z</time></trkpt><trkpt lat="40.8630733" lon="14.2053533"><ele>355.0</ele><time>2026-04-20T14:32:51.534Z</time></trkpt><trkpt lat="40.86307" lon="14.2052517"><ele>354.66666666666663</ele><time>2026-04-20T14:32:54.535Z</time></trkpt><trkpt lat="40.863065" lon="14.2051583"><ele>354.3333333333333</ele><time>2026-04-20T14:32:57.534Z</time></trkpt><trkpt lat="40.863055" lon="14.2050617"><ele>354.0</ele><time>2026-04-20T14:33:00.535Z</time></trkpt><trkpt lat="40.8630567" lon="14.2049583"><ele>353.6666666666667</ele><time>2026-04-20T14:33:03.531Z</time></trkpt><trkpt lat="40.8630567" lon="14.20485"><ele>353.33333333333337</ele><time>2026-04-20T14:33:06.533Z</time></trkpt><trkpt lat="40.8630567" lon="14.2047483"><ele>353.0</ele><time>2026-04-20T14:33:09.535Z</time></trkpt><trkpt lat="40.8630583" lon="14.2046433"><ele>353.57142857142856</ele><time>2026-04-20T14:33:12.534Z</time></trkpt><trkpt lat="40.8630633" lon="14.2045467"><ele>354.14285714285717</ele><time>2026-04-20T14:33:15.533Z</time></trkpt><trkpt lat="40.8630833" lon="14.20446"><ele>354.7142857142857</ele><time>2026-04-20T14:33:18.534Z</time></trkpt><trkpt lat="40.863095" lon="14.204365"><ele>355.2857142857143</ele><time>2026-04-20T14:33:21.535Z</time></trkpt><trkpt lat="40.8631033" lon="14.2042667"><ele>355.8571428571429</ele><time>2026-04-20T14:33:24.534Z</time></trkpt><trkpt lat="40.8631233" lon="14.204175"><ele>356.42857142857144</ele><time>2026-04-20T14:33:27.534Z</time></trkpt><trkpt lat="40.8631483" lon="14.2040933"><ele>357.0</ele><time>2026-04-20T14:33:30.535Z</time></trkpt><trkpt lat="40.8631717" lon="14.204"><ele>358.0</ele><time>2026-04-20T14:33:33.534Z</time></trkpt><trkpt lat="40.86319" lon="14.2038933"><ele>359.0</ele><time>2026-04-20T14:33:36.535Z</time></trkpt><trkpt lat="40.86321" lon="14.20378"><ele>360.0</ele><time>2026-04-20T14:33:39.533Z</time></trkpt><trkpt lat="40.8632433" lon="14.2036867"><ele>361.0</ele><time>2026-04-20T14:33:42.533Z</time></trkpt><trkpt lat="40.8632717" lon="14.2035967"><ele>362.0</ele><time>2026-04-20T14:33:45.535Z</time></trkpt><trkpt lat="40.863305" lon="14.203505"><ele>363.0</ele><time>2026-04-20T14:33:48.534Z</time></trkpt><trkpt lat="40.86333" lon="14.2034067"><ele>362.99999999999994</ele><time>2026-04-20T14:33:51.535Z</time></trkpt><trkpt lat="40.8633417" lon="14.2033033"><ele>363.0</ele><time>2026-04-20T14:33:54.535Z</time></trkpt><trkpt lat="40.8633367" lon="14.203205"><ele>363.0</ele><time>2026-04-20T14:33:57.536Z</time></trkpt><trkpt lat="40.8633333" lon="14.20311"><ele>363.0</ele><time>2026-04-20T14:34:00.535Z</time></trkpt><trkpt lat="40.8633167" lon="14.2030167"><ele>363.0</ele><time>2026-04-20T14:34:03.533Z</time></trkpt><trkpt lat="40.8632933" lon="14.2029283"><ele>362.99999999999994</ele><time>2026-04-20T14:34:06.537Z</time></trkpt><trkpt lat="40.8632717" lon="14.2028317"><ele>363.0</ele><time>2026-04-20T14:34:09.533Z</time></trkpt><trkpt lat="40.8632517" lon="14.2027333"><ele>363.5</ele><time>2026-04-20T14:34:12.533Z</time></trkpt><trkpt lat="40.8632317" lon="14.2026367"><ele>364.0</ele><time>2026-04-20T14:34:15.534Z</time></trkpt><trkpt lat="40.8632017" lon="14.20254"><ele>364.5</ele><time>2026-04-20T14:34:18.533Z</time></trkpt><trkpt lat="40.8631633" lon="14.2024467"><ele>365.0</ele><time>2026-04-20T14:34:21.535Z</time></trkpt><trkpt lat="40.86313" lon="14.2023533"><ele>365.5</ele><time>2026-04-20T14:34:24.535Z</time></trkpt><trkpt lat="40.8631" lon="14.20226"><ele>366.0</ele><time>2026-04-20T14:34:27.536Z</time></trkpt><trkpt lat="40.8630717" lon="14.20217"><ele>366.5</ele><time>2026-04-20T14:34:30.534Z</time></trkpt><trkpt lat="40.8630317" lon="14.2020883"><ele>367.0</ele><time>2026-04-20T14:34:33.535Z</time></trkpt><trkpt lat="40.863005" lon="14.2020067"><ele>367.5</ele><time>2026-04-20T14:34:36.534Z</time></trkpt><trkpt lat="40.8629683" lon="14.201915"><ele>368.0</ele><time>2026-04-20T14:34:39.535Z</time></trkpt><trkpt lat="40.86294" lon="14.2018217"><ele>368.5</ele><time>2026-04-20T14:34:42.535Z</time></trkpt><trkpt lat="40.862905" lon="14.2017233"><ele>369.0</ele><time>2026-04-20T14:34:45.533Z</time></trkpt><trkpt lat="40.862895" lon="14.2016283"><ele>369.0</ele><time>2026-04-20T14:34:48.534Z</time></trkpt><trkpt lat="40.8628983" lon="14.2015367"><ele>369.0</ele><time>2026-04-20T14:34:51.535Z</time></trkpt><trkpt lat="40.8629083" lon="14.2014267"><ele>369.0</ele><time>2026-04-20T14:34:54.534Z</time></trkpt><trkpt lat="40.8629117" lon="14.20132"><ele>369.0</ele><time>2026-04-20T14:34:57.534Z</time></trkpt><trkpt lat="40.8629233" lon="14.201215"><ele>369.0</ele><time>2026-04-20T14:35:00.536Z</time></trkpt><trkpt lat="40.8629317" lon="14.2011067"><ele>369.0</ele><time>2026-04-20T14:35:03.533Z</time></trkpt><trkpt lat="40.8629383" lon="14.2010083"><ele>369.3333333333333</ele><time>2026-04-20T14:35:06.534Z</time></trkpt><trkpt lat="40.8629483" lon="14.2008967"><ele>369.6666666666667</ele><time>2026-04-20T14:35:09.534Z</time></trkpt><trkpt lat="40.86296" lon="14.2007933"><ele>370.0</ele><time>2026-04-20T14:35:12.533Z</time></trkpt><trkpt lat="40.8629583" lon="14.200675"><ele>370.33333333333337</ele><time>2026-04-20T14:35:15.535Z</time></trkpt><trkpt lat="40.86298" lon="14.200575"><ele>370.6666666666667</ele><time>2026-04-20T14:35:18.534Z</time></trkpt><trkpt lat="40.863" lon="14.20046"><ele>371.0</ele><time>2026-04-20T14:35:21.534Z</time></trkpt><trkpt lat="40.86304" lon="14.2003533"><ele>372.0</ele><time>2026-04-20T14:35:24.533Z</time></trkpt><trkpt lat="40.8630917" lon="14.2002517"><ele>373.0</ele><time>2026-04-20T14:35:27.534Z</time></trkpt><trkpt lat="40.8631483" lon="14.2001533"><ele>374.0</ele><time>2026-04-20T14:35:30.534Z</time></trkpt><trkpt lat="40.8632017" lon="14.2000667"><ele>375.0</ele><time>2026-04-20T14:35:33.535Z</time></trkpt><trkpt lat="40.86325" lon="14.199975"><ele>376.0</ele><time>2026-04-20T14:35:36.535Z</time></trkpt><trkpt lat="40.8632983" lon="14.1998833"><ele>377.0</ele><time>2026-04-20T14:35:39.534Z</time></trkpt><trkpt lat="40.8633383" lon="14.1997883"><ele>377.83333333333337</ele><time>2026-04-20T14:35:42.535Z</time></trkpt><trkpt lat="40.8633617" lon="14.1997067"><ele>378.6666666666667</ele><time>2026-04-20T14:35:44.534Z</time></trkpt><trkpt lat="40.86339" lon="14.1996267"><ele>379.5</ele><time>2026-04-20T14:35:46.535Z</time></trkpt><trkpt lat="40.863445" lon="14.1995333"><ele>380.3333333333333</ele><time>2026-04-20T14:35:49.535Z</time></trkpt><trkpt lat="40.8634917" lon="14.19944"><ele>381.16666666666663</ele><time>2026-04-20T14:35:52.533Z</time></trkpt><trkpt lat="40.8635417" lon="14.1993367"><ele>382.0</ele><time>2026-04-20T14:35:55.535Z</time></trkpt><trkpt lat="40.863575" lon="14.1992633"><ele>382.0</ele><time>2026-04-20T14:35:57.535Z</time></trkpt><trkpt lat="40.8636317" lon="14.1991717"><ele>382.0</ele><time>2026-04-20T14:36:00.535Z</time></trkpt><trkpt lat="40.86369" lon="14.1990817"><ele>382.0</ele><time>2026-04-20T14:36:03.535Z</time></trkpt><trkpt lat="40.863735" lon="14.198985"><ele>382.0</ele><time>2026-04-20T14:36:06.534Z</time></trkpt><trkpt lat="40.863775" lon="14.1988867"><ele>382.0</ele><time>2026-04-20T14:36:09.534Z</time></trkpt><trkpt lat="40.8638183" lon="14.1987867"><ele>382.0</ele><time>2026-04-20T14:36:12.535Z</time></trkpt><trkpt lat="40.8638583" lon="14.198685"><ele>382.66666666666663</ele><time>2026-04-20T14:36:15.533Z</time></trkpt><trkpt lat="40.8638967" lon="14.198575"><ele>383.3333333333333</ele><time>2026-04-20T14:36:18.535Z</time></trkpt><trkpt lat="40.8639233" lon="14.1984967"><ele>384.0</ele><time>2026-04-20T14:36:20.535Z</time></trkpt><trkpt lat="40.8639517" lon="14.1983833"><ele>384.66666666666663</ele><time>2026-04-20T14:36:23.534Z</time></trkpt><trkpt lat="40.8639767" lon="14.1982633"><ele>385.3333333333333</ele><time>2026-04-20T14:36:26.534Z</time></trkpt><trkpt lat="40.8640017" lon="14.19817"><ele>386.0</ele><time>2026-04-20T14:36:28.535Z</time></trkpt><trkpt lat="40.8640217" lon="14.19809"><ele>386.4</ele><time>2026-04-20T14:36:30.534Z</time></trkpt><trkpt lat="40.8640417" lon="14.197975"><ele>386.8</ele><time>2026-04-20T14:36:33.535Z</time></trkpt><trkpt lat="40.864055" lon="14.1978567"><ele>387.2</ele><time>2026-04-20T14:36:36.534Z</time></trkpt><trkpt lat="40.8640667" lon="14.1977417"><ele>387.59999999999997</ele><time>2026-04-20T14:36:39.536Z</time></trkpt><trkpt lat="40.8640833" lon="14.1976267"><ele>388.0</ele><time>2026-04-20T14:36:42.534Z</time></trkpt><trkpt lat="40.8641033" lon="14.197505"><ele>388.0</ele><time>2026-04-20T14:36:45.533Z</time></trkpt><trkpt lat="40.8641233" lon="14.1974117"><ele>388.0</ele><time>2026-04-20T14:36:47.535Z</time></trkpt><trkpt lat="40.86413" lon="14.1973133"><ele>388.0</ele><time>2026-04-20T14:36:49.534Z</time></trkpt><trkpt lat="40.8641567" lon="14.1972233"><ele>388.0</ele><time>2026-04-20T14:36:51.535Z</time></trkpt><trkpt lat="40.864185" lon="14.1971383"><ele>388.0</ele><time>2026-04-20T14:36:53.536Z</time></trkpt><trkpt lat="40.864205" lon="14.1970467"><ele>388.0</ele><time>2026-04-20T14:36:55.536Z</time></trkpt><trkpt lat="40.8642217" lon="14.1969583"><ele>388.0</ele><time>2026-04-20T14:36:57.534Z</time></trkpt><trkpt lat="40.8642283" lon="14.19686"><ele>388.6666666666667</ele><time>2026-04-20T14:36:59.535Z</time></trkpt><trkpt lat="40.8642367" lon="14.1967667"><ele>389.33333333333337</ele><time>2026-04-20T14:37:01.536Z</time></trkpt><trkpt lat="40.864235" lon="14.1966767"><ele>390.0</ele><time>2026-04-20T14:37:03.534Z</time></trkpt><trkpt lat="40.86422" lon="14.1965583"><ele>390.66666666666663</ele><time>2026-04-20T14:37:06.535Z</time></trkpt><trkpt lat="40.8642083" lon="14.1964517"><ele>391.3333333333333</ele><time>2026-04-20T14:37:09.535Z</time></trkpt><trkpt lat="40.864205" lon="14.196335"><ele>392.0</ele><time>2026-04-20T14:37:12.535Z</time></trkpt><trkpt lat="40.8641967" lon="14.196235"><ele>393.16666666666663</ele><time>2026-04-20T14:37:15.534Z</time></trkpt><trkpt lat="40.864185" lon="14.19611"><ele>394.3333333333333</ele><time>2026-04-20T14:37:18.534Z</time></trkpt><trkpt lat="40.8641917" lon="14.1959983"><ele>395.5</ele><time>2026-04-20T14:37:21.535Z</time></trkpt><trkpt lat="40.8642117" lon="14.1959017"><ele>396.66666666666663</ele><time>2026-04-20T14:37:24.535Z</time></trkpt><trkpt lat="40.86422" lon="14.1957967"><ele>397.8333333333333</ele><time>2026-04-20T14:37:27.533Z</time></trkpt><trkpt lat="40.8642333" lon="14.19569"><ele>399.0</ele><time>2026-04-20T14:37:30.535Z</time></trkpt><trkpt lat="40.864245" lon="14.1955867"><ele>400.1666666666667</ele><time>2026-04-20T14:37:33.534Z</time></trkpt><trkpt lat="40.86424" lon="14.1954817"><ele>401.33333333333337</ele><time>2026-04-20T14:37:36.536Z</time></trkpt><trkpt lat="40.8642317" lon="14.1953733"><ele>402.5</ele><time>2026-04-20T14:37:39.534Z</time></trkpt><trkpt lat="40.8642317" lon="14.1952583"><ele>403.6666666666667</ele><time>2026-04-20T14:37:42.535Z</time></trkpt><trkpt lat="40.8642233" lon="14.195145"><ele>404.83333333333337</ele><time>2026-04-20T14:37:45.535Z</time></trkpt><trkpt lat="40.86422" lon="14.1950433"><ele>406.0</ele><time>2026-04-20T14:37:48.534Z</time></trkpt><trkpt lat="40.8642033" lon="14.1949433"><ele>406.0</ele><time>2026-04-20T14:37:51.536Z</time></trkpt><trkpt lat="40.8641867" lon="14.1948483"><ele>406.0</ele><time>2026-04-20T14:37:54.536Z</time></trkpt><trkpt lat="40.86417" lon="14.1947617"><ele>406.0</ele><time>2026-04-20T14:37:57.535Z</time></trkpt><trkpt lat="40.8641583" lon="14.194675"><ele>406.0</ele><time>2026-04-20T14:38:00.534Z</time></trkpt><trkpt lat="40.86414" lon="14.194585"><ele>406.0</ele><time>2026-04-20T14:38:03.535Z</time></trkpt><trkpt lat="40.8641233" lon="14.1944967"><ele>406.0</ele><time>2026-04-20T14:38:06.534Z</time></trkpt><trkpt lat="40.864105" lon="14.1943833"><ele>406.0</ele><time>2026-04-20T14:38:10.535Z</time></trkpt><trkpt lat="40.8640867" lon="14.19429"><ele>406.57142857142856</ele><time>2026-04-20T14:38:13.536Z</time></trkpt><trkpt lat="40.8640833" lon="14.1941967"><ele>407.1428571428571</ele><time>2026-04-20T14:38:16.535Z</time></trkpt><trkpt lat="40.86408" lon="14.1940967"><ele>407.7142857142857</ele><time>2026-04-20T14:38:19.535Z</time></trkpt><trkpt lat="40.86408" lon="14.19401"><ele>408.2857142857143</ele><time>2026-04-20T14:38:22.535Z</time></trkpt><trkpt lat="40.864075" lon="14.193915"><ele>408.85714285714283</ele><time>2026-04-20T14:38:25.535Z</time></trkpt><trkpt lat="40.8640717" lon="14.1938317"><ele>409.42857142857144</ele><time>2026-04-20T14:38:28.535Z</time></trkpt><trkpt lat="40.8640783" lon="14.19373"><ele>410.0</ele><time>2026-04-20T14:38:32.534Z</time></trkpt><trkpt lat="40.8640733" lon="14.1936217"><ele>410.5714285714286</ele><time>2026-04-20T14:38:36.536Z</time></trkpt><trkpt lat="40.8640583" lon="14.1935367"><ele>411.1428571428571</ele><time>2026-04-20T14:38:39.535Z</time></trkpt><trkpt lat="40.8640533" lon="14.1934517"><ele>411.7142857142857</ele><time>2026-04-20T14:38:42.535Z</time></trkpt><trkpt lat="40.86404" lon="14.1933633"><ele>412.28571428571433</ele><time>2026-04-20T14:38:45.535Z</time></trkpt><trkpt lat="40.864025" lon="14.19328"><ele>412.8571428571429</ele><time>2026-04-20T14:38:48.535Z</time></trkpt><trkpt lat="40.8640033" lon="14.1932"><ele>413.42857142857144</ele><time>2026-04-20T14:38:51.535Z</time></trkpt><trkpt lat="40.86396" lon="14.1931317"><ele>414.0</ele><time>2026-04-20T14:38:54.536Z</time></trkpt><trkpt lat="40.8639217" lon="14.1930433"><ele>414.42857142857144</ele><time>2026-04-20T14:38:58.533Z</time></trkpt><trkpt lat="40.86388" lon="14.1929533"><ele>414.8571428571429</ele><time>2026-04-20T14:39:02.535Z</time></trkpt><trkpt lat="40.8638533" lon="14.1928717"><ele>415.28571428571433</ele><time>2026-04-20T14:39:06.534Z</time></trkpt><trkpt lat="40.8638117" lon="14.192795"><ele>415.7142857142857</ele><time>2026-04-20T14:39:10.534Z</time></trkpt><trkpt lat="40.863755" lon="14.1927233"><ele>416.1428571428571</ele><time>2026-04-20T14:39:14.535Z</time></trkpt><trkpt lat="40.8637167" lon="14.1926567"><ele>416.5714285714286</ele><time>2026-04-20T14:39:17.535Z</time></trkpt><trkpt lat="40.8636767" lon="14.192565"><ele>417.0</ele><time>2026-04-20T14:39:21.535Z</time></trkpt><trkpt lat="40.8636533" lon="14.19246"><ele>417.0</ele><time>2026-04-20T14:39:25.535Z</time></trkpt><trkpt lat="40.8636267" lon="14.19238"><ele>417.0</ele><time>2026-04-20T14:39:28.535Z</time></trkpt><trkpt lat="40.8636217" lon="14.1922967"><ele>417.0</ele><time>2026-04-20T14:39:31.534Z</time></trkpt><trkpt lat="40.8636183" lon="14.1922083"><ele>417.0</ele><time>2026-04-20T14:39:34.535Z</time></trkpt><trkpt lat="40.8636333" lon="14.1921167"><ele>417.0</ele><time>2026-04-20T14:39:37.535Z</time></trkpt><trkpt lat="40.8636567" lon="14.19201"><ele>417.0</ele><time>2026-04-20T14:39:41.535Z</time></trkpt><trkpt lat="40.8636883" lon="14.19192"><ele>417.0</ele><time>2026-04-20T14:39:44.536Z</time></trkpt><trkpt lat="40.8637217" lon="14.1918417"><ele>417.42857142857144</ele><time>2026-04-20T14:39:47.535Z</time></trkpt><trkpt lat="40.8637583" lon="14.1917633"><ele>417.85714285714283</ele><time>2026-04-20T14:39:51.534Z</time></trkpt><trkpt lat="40.863795" lon="14.1916917"><ele>418.2857142857143</ele><time>2026-04-20T14:39:54.534Z</time></trkpt><trkpt lat="40.8638283" lon="14.1916183"><ele>418.7142857142857</ele><time>2026-04-20T14:39:57.535Z</time></trkpt><trkpt lat="40.863885" lon="14.1915417"><ele>419.1428571428571</ele><time>2026-04-20T14:40:01.534Z</time></trkpt><trkpt lat="40.8639383" lon="14.1914717"><ele>419.57142857142856</ele><time>2026-04-20T14:40:04.535Z</time></trkpt><trkpt lat="40.8639933" lon="14.1913933"><ele>420.0</ele><time>2026-04-20T14:40:08.536Z</time></trkpt><trkpt lat="40.8640483" lon="14.19132"><ele>420.7142857142857</ele><time>2026-04-20T14:40:12.535Z</time></trkpt><trkpt lat="40.8641117" lon="14.1912517"><ele>421.42857142857144</ele><time>2026-04-20T14:40:15.533Z</time></trkpt><trkpt lat="40.8641783" lon="14.191165"><ele>422.1428571428571</ele><time>2026-04-20T14:40:18.534Z</time></trkpt><trkpt lat="40.864225" lon="14.1911083"><ele>422.8571428571429</ele><time>2026-04-20T14:40:20.535Z</time></trkpt><trkpt lat="40.8642767" lon="14.1910533"><ele>423.57142857142856</ele><time>2026-04-20T14:40:22.536Z</time></trkpt><trkpt lat="40.8643117" lon="14.1909833"><ele>424.2857142857143</ele><time>2026-04-20T14:40:24.536Z</time></trkpt><trkpt lat="40.8643517" lon="14.190915"><ele>425.0</ele><time>2026-04-20T14:40:26.535Z</time></trkpt><trkpt lat="40.86435" lon="14.19082"><ele>425.0</ele><time>2026-04-20T14:40:29.535Z</time></trkpt><trkpt lat="40.86429" lon="14.1907667"><ele>425.0</ele><time>2026-04-20T14:40:32.535Z</time></trkpt><trkpt lat="40.86423" lon="14.1907317"><ele>425.0</ele><time>2026-04-20T14:40:35.535Z</time></trkpt><trkpt lat="40.8642067" lon="14.1906467"><ele>425.0</ele><time>2026-04-20T14:40:40.534Z</time></trkpt><trkpt lat="40.8642117" lon="14.190545"><ele>425.0</ele><time>2026-04-20T14:40:44.534Z</time></trkpt><trkpt lat="40.8641633" lon="14.19049"><ele>425.0</ele><time>2026-04-20T14:40:48.535Z</time></trkpt><trkpt lat="40.86407" lon="14.1905167"><ele>425.0</ele><time>2026-04-20T14:40:51.535Z</time></trkpt><trkpt lat="40.8640033" lon="14.1905267"><ele>425.57142857142856</ele><time>2026-04-20T14:40:53.536Z</time></trkpt><trkpt lat="40.863925" lon="14.1905467"><ele>426.1428571428571</ele><time>2026-04-20T14:40:56.536Z</time></trkpt><trkpt lat="40.8638617" lon="14.1905483"><ele>426.7142857142857</ele><time>2026-04-20T14:40:59.536Z</time></trkpt><trkpt lat="40.8637917" lon="14.1905367"><ele>427.2857142857143</ele><time>2026-04-20T14:41:03.536Z</time></trkpt><trkpt lat="40.8637283" lon="14.19054"><ele>427.8571428571429</ele><time>2026-04-20T14:41:06.536Z</time></trkpt><trkpt lat="40.863655" lon="14.1905817"><ele>428.42857142857144</ele><time>2026-04-20T14:41:09.535Z</time></trkpt><trkpt lat="40.8635933" lon="14.1906217"><ele>429.0</ele><time>2026-04-20T14:41:12.536Z</time></trkpt><trkpt lat="40.8635333" lon="14.19065"><ele>428.42857142857144</ele><time>2026-04-20T14:41:15.532Z</time></trkpt><trkpt lat="40.8634667" lon="14.19068"><ele>427.8571428571429</ele><time>2026-04-20T14:41:18.534Z</time></trkpt><trkpt lat="40.8633967" lon="14.190725"><ele>427.2857142857143</ele><time>2026-04-20T14:41:23.534Z</time></trkpt><trkpt lat="40.86334" lon="14.1907717"><ele>426.7142857142857</ele><time>2026-04-20T14:41:26.535Z</time></trkpt><trkpt lat="40.8632883" lon="14.190825"><ele>426.1428571428571</ele><time>2026-04-20T14:41:29.533Z</time></trkpt><trkpt lat="40.8632467" lon="14.1908917"><ele>425.57142857142856</ele><time>2026-04-20T14:41:32.536Z</time></trkpt><trkpt lat="40.8631967" lon="14.19097"><ele>425.0</ele><time>2026-04-20T14:41:35.536Z</time></trkpt><trkpt lat="40.8631817" lon="14.19107"><ele>426.2857142857143</ele><time>2026-04-20T14:41:38.535Z</time></trkpt><trkpt lat="40.8631567" lon="14.191155"><ele>427.57142857142856</ele><time>2026-04-20T14:41:41.536Z</time></trkpt><trkpt lat="40.8631133" lon="14.19122"><ele>428.8571428571429</ele><time>2026-04-20T14:41:44.534Z</time></trkpt><trkpt lat="40.8630517" lon="14.1912617"><ele>430.1428571428571</ele><time>2026-04-20T14:41:47.536Z</time></trkpt><trkpt lat="40.862975" lon="14.19128"><ele>431.42857142857144</ele><time>2026-04-20T14:41:50.536Z</time></trkpt><trkpt lat="40.8629083" lon="14.1912817"><ele>432.7142857142857</ele><time>2026-04-20T14:41:52.536Z</time></trkpt><trkpt lat="40.8628467" lon="14.19126"><ele>434.0</ele><time>2026-04-20T14:41:55.535Z</time></trkpt><trkpt lat="40.86278" lon="14.1912033"><ele>434.0</ele><time>2026-04-20T14:41:58.535Z</time></trkpt><trkpt lat="40.8627283" lon="14.19115"><ele>434.0</ele><time>2026-04-20T14:42:00.535Z</time></trkpt><trkpt lat="40.8626617" lon="14.1910917"><ele>434.0</ele><time>2026-04-20T14:42:04.535Z</time></trkpt><trkpt lat="40.86259" lon="14.191065"><ele>434.0</ele><time>2026-04-20T14:42:08.535Z</time></trkpt><trkpt lat="40.8625233" lon="14.1910283"><ele>434.0</ele><time>2026-04-20T14:42:10.534Z</time></trkpt><trkpt lat="40.8624383" lon="14.191"><ele>434.0</ele><time>2026-04-20T14:42:13.535Z</time></trkpt><trkpt lat="40.8623733" lon="14.191005"><ele>434.0</ele><time>2026-04-20T14:42:15.533Z</time></trkpt><trkpt lat="40.8622917" lon="14.1909967"><ele>434.8333333333333</ele><time>2026-04-20T14:42:17.535Z</time></trkpt><trkpt lat="40.862215" lon="14.19099"><ele>435.66666666666663</ele><time>2026-04-20T14:42:19.535Z</time></trkpt><trkpt lat="40.862145" lon="14.1909983"><ele>436.5</ele><time>2026-04-20T14:42:21.535Z</time></trkpt><trkpt lat="40.86207" lon="14.1910167"><ele>437.33333333333337</ele><time>2026-04-20T14:42:23.535Z</time></trkpt><trkpt lat="40.8619817" lon="14.1910467"><ele>438.1666666666667</ele><time>2026-04-20T14:42:25.533Z</time></trkpt><trkpt lat="40.8619167" lon="14.19109"><ele>439.0</ele><time>2026-04-20T14:42:27.535Z</time></trkpt><trkpt lat="40.8618783" lon="14.1911933"><ele>439.00000000000006</ele><time>2026-04-20T14:42:30.534Z</time></trkpt><trkpt lat="40.86185" lon="14.1912967"><ele>439.0</ele><time>2026-04-20T14:42:33.535Z</time></trkpt><trkpt lat="40.86181" lon="14.1913833"><ele>439.0</ele><time>2026-04-20T14:42:36.536Z</time></trkpt><trkpt lat="40.8617417" lon="14.1914517"><ele>439.0</ele><time>2026-04-20T14:42:39.535Z</time></trkpt><trkpt lat="40.86166" lon="14.1915033"><ele>439.00000000000006</ele><time>2026-04-20T14:42:42.535Z</time></trkpt><trkpt lat="40.861585" lon="14.1915117"><ele>439.0</ele><time>2026-04-20T14:42:45.534Z</time></trkpt><trkpt lat="40.8615133" lon="14.19152"><ele>440.0</ele><time>2026-04-20T14:42:48.535Z</time></trkpt><trkpt lat="40.8614433" lon="14.1915133"><ele>441.0</ele><time>2026-04-20T14:42:51.533Z</time></trkpt><trkpt lat="40.86138" lon="14.191515"><ele>442.0</ele><time>2026-04-20T14:42:54.534Z</time></trkpt><trkpt lat="40.8613167" lon="14.19154"><ele>443.0</ele><time>2026-04-20T14:42:57.535Z</time></trkpt><trkpt lat="40.861245" lon="14.19156"><ele>444.0</ele><time>2026-04-20T14:43:00.536Z</time></trkpt><trkpt lat="40.8611633" lon="14.1915667"><ele>445.0</ele><time>2026-04-20T14:43:03.536Z</time></trkpt><trkpt lat="40.861095" lon="14.1915783"><ele>446.0</ele><time>2026-04-20T14:43:06.534Z</time></trkpt><trkpt lat="40.8610283" lon="14.1915733"><ele>445.99999999999994</ele><time>2026-04-20T14:43:09.533Z</time></trkpt><trkpt lat="40.8609567" lon="14.1915567"><ele>446.0</ele><time>2026-04-20T14:43:12.535Z</time></trkpt><trkpt lat="40.8608733" lon="14.1915417"><ele>446.0</ele><time>2026-04-20T14:43:15.534Z</time></trkpt><trkpt lat="40.8607917" lon="14.191515"><ele>446.0</ele><time>2026-04-20T14:43:18.534Z</time></trkpt><trkpt lat="40.8607067" lon="14.1914983"><ele>445.99999999999994</ele><time>2026-04-20T14:43:21.534Z</time></trkpt><trkpt lat="40.8606367" lon="14.19148"><ele>446.0</ele><time>2026-04-20T14:43:24.534Z</time></trkpt><trkpt lat="40.8605667" lon="14.1914633"><ele>445.99999999999994</ele><time>2026-04-20T14:43:27.534Z</time></trkpt><trkpt lat="40.860495" lon="14.19144"><ele>446.0</ele><time>2026-04-20T14:43:30.535Z</time></trkpt><trkpt lat="40.8604217" lon="14.19141"><ele>446.0</ele><time>2026-04-20T14:43:33.534Z</time></trkpt><trkpt lat="40.8603483" lon="14.19139"><ele>446.0</ele><time>2026-04-20T14:43:36.534Z</time></trkpt><trkpt lat="40.86027" lon="14.1913783"><ele>445.99999999999994</ele><time>2026-04-20T14:43:39.534Z</time></trkpt><trkpt lat="40.8601783" lon="14.191375"><ele>446.0</ele><time>2026-04-20T14:43:42.534Z</time></trkpt><trkpt lat="40.8601083" lon="14.19138"><ele>446.99999999999994</ele><time>2026-04-20T14:43:44.535Z</time></trkpt><trkpt lat="40.8600317" lon="14.1913883"><ele>448.0</ele><time>2026-04-20T14:43:46.534Z</time></trkpt><trkpt lat="40.859945" lon="14.1914117"><ele>449.0</ele><time>2026-04-20T14:43:48.533Z</time></trkpt><trkpt lat="40.8598683" lon="14.1914467"><ele>450.0</ele><time>2026-04-20T14:43:50.535Z</time></trkpt><trkpt lat="40.859795" lon="14.1914867"><ele>450.99999999999994</ele><time>2026-04-20T14:43:52.535Z</time></trkpt><trkpt lat="40.8597133" lon="14.1915317"><ele>452.0</ele><time>2026-04-20T14:43:54.535Z</time></trkpt><trkpt lat="40.85963" lon="14.1915517"><ele>451.99999999999994</ele><time>2026-04-20T14:43:56.535Z</time></trkpt><trkpt lat="40.859545" lon="14.19156"><ele>452.0</ele><time>2026-04-20T14:43:58.535Z</time></trkpt><trkpt lat="40.85947" lon="14.19158"><ele>452.0</ele><time>2026-04-20T14:44:00.535Z</time></trkpt><trkpt lat="40.859405" lon="14.19158"><ele>452.0</ele><time>2026-04-20T14:44:02.535Z</time></trkpt><trkpt lat="40.8593433" lon="14.1916017"><ele>451.99999999999994</ele><time>2026-04-20T14:44:04.535Z</time></trkpt><trkpt lat="40.85927" lon="14.191605"><ele>452.0</ele><time>2026-04-20T14:44:06.535Z</time></trkpt><trkpt lat="40.8591833" lon="14.1915717"><ele>451.99999999999994</ele><time>2026-04-20T14:44:08.534Z</time></trkpt><trkpt lat="40.8590933" lon="14.1915467"><ele>452.0</ele><time>2026-04-20T14:44:10.535Z</time></trkpt><trkpt lat="40.8590067" lon="14.19152"><ele>452.0</ele><time>2026-04-20T14:44:12.535Z</time></trkpt><trkpt lat="40.85894" lon="14.1914683"><ele>452.0</ele><time>2026-04-20T14:44:14.534Z</time></trkpt><trkpt lat="40.858875" lon="14.1913933"><ele>451.99999999999994</ele><time>2026-04-20T14:44:16.536Z</time></trkpt><trkpt lat="40.858815" lon="14.19132"><ele>452.0</ele><time>2026-04-20T14:44:18.534Z</time></trkpt><trkpt lat="40.8587683" lon="14.1912483"><ele>448.99999999999994</ele><time>2026-04-20T14:44:20.534Z</time></trkpt><trkpt lat="40.85874" lon="14.191365"><ele>446.0</ele><time>2026-04-20T14:56:13.533Z</time></trkpt><trkpt lat="40.8587483" lon="14.19124"><ele>443.0</ele><time>2026-04-20T14:57:44.533Z</time></trkpt><trkpt lat="40.858825" lon="14.1912467"><ele>440.0</ele><time>2026-04-20T14:57:50.535Z</time></trkpt><trkpt lat="40.8588867" lon="14.1912867"><ele>436.99999999999994</ele><time>2026-04-20T14:57:54.534Z</time></trkpt><trkpt lat="40.858975" lon="14.191335"><ele>434.0</ele><time>2026-04-20T14:57:59.533Z</time></trkpt><trkpt lat="40.8590417" lon="14.1913967"><ele>433.99999999999994</ele><time>2026-04-20T14:58:02.532Z</time></trkpt><trkpt lat="40.8590967" lon="14.191445"><ele>434.0</ele><time>2026-04-20T14:58:04.533Z</time></trkpt><trkpt lat="40.859155" lon="14.191505"><ele>434.0</ele><time>2026-04-20T14:58:06.533Z</time></trkpt><trkpt lat="40.8592133" lon="14.1915433"><ele>434.0</ele><time>2026-04-20T14:58:08.532Z</time></trkpt><trkpt lat="40.8592917" lon="14.191555"><ele>433.99999999999994</ele><time>2026-04-20T14:58:10.532Z</time></trkpt><trkpt lat="40.8593767" lon="14.1915433"><ele>434.0</ele><time>2026-04-20T14:58:12.533Z</time></trkpt><trkpt lat="40.8594617" lon="14.1915283"><ele>434.66666666666663</ele><time>2026-04-20T14:58:14.534Z</time></trkpt><trkpt lat="40.8595467" lon="14.19151"><ele>435.3333333333333</ele><time>2026-04-20T14:58:16.534Z</time></trkpt><trkpt lat="40.85964" lon="14.19149"><ele>436.0</ele><time>2026-04-20T14:58:18.532Z</time></trkpt><trkpt lat="40.8597117" lon="14.191465"><ele>436.66666666666663</ele><time>2026-04-20T14:58:20.534Z</time></trkpt><trkpt lat="40.8597767" lon="14.1914433"><ele>437.3333333333333</ele><time>2026-04-20T14:58:23.533Z</time></trkpt><trkpt lat="40.8598917" lon="14.1914083"><ele>438.0</ele><time>2026-04-20T14:59:08.534Z</time></trkpt><trkpt lat="40.8599533" lon="14.1913883"><ele>438.0</ele><time>2026-04-20T14:59:11.534Z</time></trkpt><trkpt lat="40.86002" lon="14.1913783"><ele>437.99999999999994</ele><time>2026-04-20T14:59:14.534Z</time></trkpt><trkpt lat="40.860125" lon="14.1913983"><ele>437.99999999999994</ele><time>2026-04-20T14:59:21.532Z</time></trkpt><trkpt lat="40.8602583" lon="14.1914467"><ele>438.0</ele><time>2026-04-20T14:59:25.533Z</time></trkpt><trkpt lat="40.860335" lon="14.191455"><ele>438.0</ele><time>2026-04-20T14:59:27.533Z</time></trkpt><trkpt lat="40.8604067" lon="14.1914683"><ele>439.59999999999997</ele><time>2026-04-20T14:59:29.533Z</time></trkpt><trkpt lat="40.8604783" lon="14.191495"><ele>441.19999999999993</ele><time>2026-04-20T14:59:32.533Z</time></trkpt><trkpt lat="40.86057" lon="14.1915333"><ele>442.8</ele><time>2026-04-20T14:59:35.534Z</time></trkpt><trkpt lat="40.8606967" lon="14.1915583"><ele>444.4</ele><time>2026-04-20T14:59:38.533Z</time></trkpt><trkpt lat="40.8608367" lon="14.1915667"><ele>446.0</ele><time>2026-04-20T14:59:41.534Z</time></trkpt><trkpt lat="40.8609083" lon="14.1915617"><ele>446.0</ele><time>2026-04-20T14:59:43.533Z</time></trkpt><trkpt lat="40.86099" lon="14.1915817"><ele>446.0</ele><time>2026-04-20T14:59:46.534Z</time></trkpt><trkpt lat="40.8610633" lon="14.19161"><ele>446.0</ele><time>2026-04-20T14:59:49.535Z</time></trkpt><trkpt lat="40.8611267" lon="14.1916083"><ele>446.0</ele><time>2026-04-20T14:59:52.535Z</time></trkpt><trkpt lat="40.8611933" lon="14.1915817"><ele>446.0</ele><time>2026-04-20T14:59:55.534Z</time></trkpt><trkpt lat="40.8612667" lon="14.1915733"><ele>446.0</ele><time>2026-04-20T14:59:59.534Z</time></trkpt><trkpt lat="40.8613283" lon="14.1915983"><ele>446.0</ele><time>2026-04-20T15:00:34.534Z</time></trkpt><trkpt lat="40.8614083" lon="14.1915717"><ele>445.99999999999994</ele><time>2026-04-20T15:00:37.533Z</time></trkpt><trkpt lat="40.861495" lon="14.1916"><ele>446.0</ele><time>2026-04-20T15:00:39.534Z</time></trkpt><trkpt lat="40.8616117" lon="14.1916217"><ele>446.0</ele><time>2026-04-20T15:00:41.535Z</time></trkpt><trkpt lat="40.8616783" lon="14.1916167"><ele>446.0</ele><time>2026-04-20T15:00:42.535Z</time></trkpt><trkpt lat="40.861745" lon="14.1915933"><ele>445.99999999999994</ele><time>2026-04-20T15:00:43.533Z</time></trkpt><trkpt lat="40.86181" lon="14.19155"><ele>446.0</ele><time>2026-04-20T15:00:44.535Z</time></trkpt><trkpt lat="40.861865" lon="14.191485"><ele>444.8333333333333</ele><time>2026-04-20T15:00:45.535Z</time></trkpt><trkpt lat="40.8619017" lon="14.1913983"><ele>443.66666666666663</ele><time>2026-04-20T15:00:46.537Z</time></trkpt><trkpt lat="40.861925" lon="14.1913"><ele>442.5</ele><time>2026-04-20T15:00:47.533Z</time></trkpt><trkpt lat="40.86195" lon="14.1912033"><ele>441.33333333333337</ele><time>2026-04-20T15:00:48.535Z</time></trkpt><trkpt lat="40.8619933" lon="14.191115"><ele>440.1666666666667</ele><time>2026-04-20T15:00:49.534Z</time></trkpt><trkpt lat="40.8620367" lon="14.1910317"><ele>439.0</ele><time>2026-04-20T15:00:50.534Z</time></trkpt><trkpt lat="40.8621017" lon="14.1909817"><ele>439.0</ele><time>2026-04-20T15:00:51.533Z</time></trkpt><trkpt lat="40.8621817" lon="14.1909667"><ele>439.0</ele><time>2026-04-20T15:00:52.535Z</time></trkpt><trkpt lat="40.86227" lon="14.1909733"><ele>439.0</ele><time>2026-04-20T15:00:53.534Z</time></trkpt><trkpt lat="40.8623683" lon="14.19101"><ele>439.0</ele><time>2026-04-20T15:00:54.535Z</time></trkpt><trkpt lat="40.8624533" lon="14.191055"><ele>439.0</ele><time>2026-04-20T15:00:55.534Z</time></trkpt><trkpt lat="40.8625367" lon="14.1911133"><ele>438.1666666666667</ele><time>2026-04-20T15:00:56.533Z</time></trkpt><trkpt lat="40.8626167" lon="14.19119"><ele>437.33333333333337</ele><time>2026-04-20T15:00:57.534Z</time></trkpt><trkpt lat="40.8626967" lon="14.1912633"><ele>436.5</ele><time>2026-04-20T15:00:58.534Z</time></trkpt><trkpt lat="40.8627767" lon="14.1913233"><ele>435.66666666666663</ele><time>2026-04-20T15:00:59.534Z</time></trkpt><trkpt lat="40.8628533" lon="14.1913633"><ele>434.8333333333333</ele><time>2026-04-20T15:01:00.541Z</time></trkpt><trkpt lat="40.8629267" lon="14.1913783"><ele>434.0</ele><time>2026-04-20T15:01:01.533Z</time></trkpt><trkpt lat="40.8630517" lon="14.1913117"><ele>433.99999999999994</ele><time>2026-04-20T15:01:03.534Z</time></trkpt><trkpt lat="40.8631067" lon="14.1912333"><ele>434.0</ele><time>2026-04-20T15:01:04.535Z</time></trkpt><trkpt lat="40.8631533" lon="14.19114"><ele>434.0</ele><time>2026-04-20T15:01:05.533Z</time></trkpt><trkpt lat="40.86319" lon="14.1910383"><ele>434.0</ele><time>2026-04-20T15:01:06.533Z</time></trkpt><trkpt lat="40.8632267" lon="14.1909433"><ele>433.99999999999994</ele><time>2026-04-20T15:01:07.535Z</time></trkpt><trkpt lat="40.8632667" lon="14.1908667"><ele>434.0</ele><time>2026-04-20T15:01:08.535Z</time></trkpt><trkpt lat="40.863385" lon="14.1907833"><ele>433.0</ele><time>2026-04-20T15:01:10.535Z</time></trkpt><trkpt lat="40.8634733" lon="14.1907733"><ele>432.0</ele><time>2026-04-20T15:01:11.535Z</time></trkpt><trkpt lat="40.863565" lon="14.1907583"><ele>431.0</ele><time>2026-04-20T15:01:12.533Z</time></trkpt><trkpt lat="40.8636533" lon="14.1907317"><ele>430.0</ele><time>2026-04-20T15:01:13.534Z</time></trkpt><trkpt lat="40.8637417" lon="14.1906933"><ele>429.0</ele><time>2026-04-20T15:01:14.533Z</time></trkpt><trkpt lat="40.8638283" lon="14.1906517"><ele>429.0</ele><time>2026-04-20T15:01:15.532Z</time></trkpt><trkpt lat="40.8639183" lon="14.19061"><ele>429.0</ele><time>2026-04-20T15:01:16.535Z</time></trkpt><trkpt lat="40.8640033" lon="14.1905717"><ele>429.0</ele><time>2026-04-20T15:01:17.535Z</time></trkpt><trkpt lat="40.8640733" lon="14.1905367"><ele>429.0</ele><time>2026-04-20T15:01:18.534Z</time></trkpt><trkpt lat="40.8641583" lon="14.1904917"><ele>429.0</ele><time>2026-04-20T15:01:20.534Z</time></trkpt><trkpt lat="40.8642117" lon="14.1905467"><ele>429.0</ele><time>2026-04-20T15:01:23.535Z</time></trkpt><trkpt lat="40.8642033" lon="14.1906367"><ele>428.2</ele><time>2026-04-20T15:01:25.535Z</time></trkpt><trkpt lat="40.8642283" lon="14.19072"><ele>427.4</ele><time>2026-04-20T15:01:27.535Z</time></trkpt><trkpt lat="40.864305" lon="14.1907733"><ele>426.6</ele><time>2026-04-20T15:01:30.534Z</time></trkpt><trkpt lat="40.8643267" lon="14.1908683"><ele>425.8</ele><time>2026-04-20T15:01:33.534Z</time></trkpt><trkpt lat="40.8642483" lon="14.1909667"><ele>425.0</ele><time>2026-04-20T15:01:35.534Z</time></trkpt><trkpt lat="40.8641583" lon="14.1910583"><ele>425.0</ele><time>2026-04-20T15:01:37.533Z</time></trkpt><trkpt lat="40.8640817" lon="14.1911467"><ele>425.0</ele><time>2026-04-20T15:01:39.534Z</time></trkpt><trkpt lat="40.864005" lon="14.1912383"><ele>425.0</ele><time>2026-04-20T15:01:41.533Z</time></trkpt><trkpt lat="40.8639283" lon="14.1913283"><ele>425.0</ele><time>2026-04-20T15:01:43.535Z</time></trkpt><trkpt lat="40.863855" lon="14.1914233"><ele>425.0</ele><time>2026-04-20T15:01:45.535Z</time></trkpt><trkpt lat="40.8637767" lon="14.1915183"><ele>424.0</ele><time>2026-04-20T15:01:47.534Z</time></trkpt><trkpt lat="40.8637083" lon="14.1916167"><ele>423.0</ele><time>2026-04-20T15:01:49.533Z</time></trkpt><trkpt lat="40.8636567" lon="14.1917367"><ele>422.0</ele><time>2026-04-20T15:01:51.534Z</time></trkpt><trkpt lat="40.863615" lon="14.1918767"><ele>421.0</ele><time>2026-04-20T15:01:53.533Z</time></trkpt><trkpt lat="40.8635733" lon="14.1920367"><ele>420.0</ele><time>2026-04-20T15:01:55.533Z</time></trkpt><trkpt lat="40.86356" lon="14.192125"><ele>420.0</ele><time>2026-04-20T15:01:56.534Z</time></trkpt><trkpt lat="40.8635517" lon="14.1922167"><ele>420.0</ele><time>2026-04-20T15:01:57.534Z</time></trkpt><trkpt lat="40.863555" lon="14.1923217"><ele>420.0</ele><time>2026-04-20T15:01:58.534Z</time></trkpt><trkpt lat="40.8635717" lon="14.1924367"><ele>420.0</ele><time>2026-04-20T15:01:59.533Z</time></trkpt><trkpt lat="40.8636017" lon="14.1925533"><ele>420.0</ele><time>2026-04-20T15:02:00.533Z</time></trkpt><trkpt lat="40.8636483" lon="14.1926733"><ele>420.0</ele><time>2026-04-20T15:02:01.533Z</time></trkpt><trkpt lat="40.8637083" lon="14.1927917"><ele>419.25</ele><time>2026-04-20T15:02:02.534Z</time></trkpt><trkpt lat="40.86377" lon="14.192905"><ele>418.5</ele><time>2026-04-20T15:02:03.533Z</time></trkpt><trkpt lat="40.8638433" lon="14.19302"><ele>417.75</ele><time>2026-04-20T15:02:04.533Z</time></trkpt><trkpt lat="40.8639133" lon="14.1931417"><ele>417.0</ele><time>2026-04-20T15:02:05.534Z</time></trkpt><trkpt lat="40.8639633" lon="14.1932817"><ele>416.25</ele><time>2026-04-20T15:02:06.534Z</time></trkpt><trkpt lat="40.863995" lon="14.1934333"><ele>415.5</ele><time>2026-04-20T15:02:07.533Z</time></trkpt><trkpt lat="40.8640083" lon="14.1935983"><ele>414.75</ele><time>2026-04-20T15:02:08.534Z</time></trkpt><trkpt lat="40.8640233" lon="14.1937633"><ele>414.0</ele><time>2026-04-20T15:02:09.534Z</time></trkpt><trkpt lat="40.86404" lon="14.1939267"><ele>413.0</ele><time>2026-04-20T15:02:10.536Z</time></trkpt><trkpt lat="40.86406" lon="14.1940933"><ele>412.0</ele><time>2026-04-20T15:02:11.533Z</time></trkpt><trkpt lat="40.864075" lon="14.19426"><ele>411.0</ele><time>2026-04-20T15:02:12.535Z</time></trkpt><trkpt lat="40.8640917" lon="14.1944317"><ele>410.0</ele><time>2026-04-20T15:02:13.534Z</time></trkpt><trkpt lat="40.8641183" lon="14.1946033"><ele>410.0</ele><time>2026-04-20T15:02:14.534Z</time></trkpt><trkpt lat="40.864145" lon="14.1947733"><ele>410.0</ele><time>2026-04-20T15:02:15.534Z</time></trkpt><trkpt lat="40.8641733" lon="14.19494"><ele>410.0</ele><time>2026-04-20T15:02:16.534Z</time></trkpt><trkpt lat="40.8642017" lon="14.1951117"><ele>410.0</ele><time>2026-04-20T15:02:17.535Z</time></trkpt><trkpt lat="40.8642167" lon="14.195285"><ele>409.0</ele><time>2026-04-20T15:02:18.533Z</time></trkpt><trkpt lat="40.8642183" lon="14.1954583"><ele>408.0</ele><time>2026-04-20T15:02:19.534Z</time></trkpt><trkpt lat="40.8642033" lon="14.1956317"><ele>407.0</ele><time>2026-04-20T15:02:20.533Z</time></trkpt><trkpt lat="40.864185" lon="14.19581"><ele>406.0</ele><time>2026-04-20T15:02:21.534Z</time></trkpt><trkpt lat="40.8641683" lon="14.1959867"><ele>404.25</ele><time>2026-04-20T15:02:22.534Z</time></trkpt><trkpt lat="40.864155" lon="14.1961583"><ele>402.5</ele><time>2026-04-20T15:02:23.534Z</time></trkpt><trkpt lat="40.8641483" lon="14.196315"><ele>400.75</ele><time>2026-04-20T15:02:24.533Z</time></trkpt><trkpt lat="40.8641467" lon="14.1964633"><ele>399.0</ele><time>2026-04-20T15:02:25.533Z</time></trkpt><trkpt lat="40.8641483" lon="14.1966067"><ele>397.8333333333333</ele><time>2026-04-20T15:02:26.533Z</time></trkpt><trkpt lat="40.8641517" lon="14.1967383"><ele>396.66666666666663</ele><time>2026-04-20T15:02:27.533Z</time></trkpt><trkpt lat="40.864145" lon="14.19686"><ele>395.5</ele><time>2026-04-20T15:02:28.534Z</time></trkpt><trkpt lat="40.864135" lon="14.1969683"><ele>394.3333333333333</ele><time>2026-04-20T15:02:29.533Z</time></trkpt><trkpt lat="40.864125" lon="14.19706"><ele>393.16666666666663</ele><time>2026-04-20T15:02:30.533Z</time></trkpt><trkpt lat="40.8640967" lon="14.1971867"><ele>392.0</ele><time>2026-04-20T15:02:32.533Z</time></trkpt><trkpt lat="40.86408" lon="14.1972817"><ele>391.3333333333333</ele><time>2026-04-20T15:02:34.533Z</time></trkpt><trkpt lat="40.8640667" lon="14.1974283"><ele>390.66666666666663</ele><time>2026-04-20T15:03:09.534Z</time></trkpt><trkpt lat="40.8640467" lon="14.1975133"><ele>390.0</ele><time>2026-04-20T15:03:13.534Z</time></trkpt><trkpt lat="40.8640183" lon="14.19759"><ele>389.33333333333337</ele><time>2026-04-20T15:03:17.536Z</time></trkpt><trkpt lat="40.8639967" lon="14.1977017"><ele>388.6666666666667</ele><time>2026-04-20T15:03:20.534Z</time></trkpt><trkpt lat="40.8639817" lon="14.1978033"><ele>388.0</ele><time>2026-04-20T15:03:22.535Z</time></trkpt><trkpt lat="40.863955" lon="14.197925"><ele>388.00000000000006</ele><time>2026-04-20T15:03:24.535Z</time></trkpt><trkpt lat="40.8639383" lon="14.1980617"><ele>388.0</ele><time>2026-04-20T15:03:26.534Z</time></trkpt><trkpt lat="40.8639233" lon="14.1982233"><ele>388.0</ele><time>2026-04-20T15:03:28.535Z</time></trkpt><trkpt lat="40.86391" lon="14.198305"><ele>388.0</ele><time>2026-04-20T15:03:29.533Z</time></trkpt><trkpt lat="40.8638867" lon="14.19839"><ele>388.00000000000006</ele><time>2026-04-20T15:03:30.536Z</time></trkpt><trkpt lat="40.8638617" lon="14.1984733"><ele>388.0</ele><time>2026-04-20T15:03:31.535Z</time></trkpt><trkpt lat="40.8638283" lon="14.1985517"><ele>387.6666666666667</ele><time>2026-04-20T15:03:32.535Z</time></trkpt><trkpt lat="40.86379" lon="14.19863"><ele>387.33333333333337</ele><time>2026-04-20T15:03:33.536Z</time></trkpt><trkpt lat="40.8637517" lon="14.1987117"><ele>387.0</ele><time>2026-04-20T15:03:34.535Z</time></trkpt><trkpt lat="40.8637167" lon="14.1988017"><ele>386.66666666666663</ele><time>2026-04-20T15:03:35.536Z</time></trkpt><trkpt lat="40.8636767" lon="14.19889"><ele>386.3333333333333</ele><time>2026-04-20T15:03:36.535Z</time></trkpt><trkpt lat="40.8636367" lon="14.19898"><ele>386.0</ele><time>2026-04-20T15:03:37.535Z</time></trkpt><trkpt lat="40.8635917" lon="14.1990717"><ele>385.3333333333333</ele><time>2026-04-20T15:03:38.534Z</time></trkpt><trkpt lat="40.863545" lon="14.199165"><ele>384.66666666666663</ele><time>2026-04-20T15:03:39.536Z</time></trkpt><trkpt lat="40.8634983" lon="14.19926"><ele>384.0</ele><time>2026-04-20T15:03:40.535Z</time></trkpt><trkpt lat="40.8634533" lon="14.1993567"><ele>383.3333333333333</ele><time>2026-04-20T15:03:41.535Z</time></trkpt><trkpt lat="40.8634067" lon="14.1994517"><ele>382.66666666666663</ele><time>2026-04-20T15:03:42.534Z</time></trkpt><trkpt lat="40.8633583" lon="14.19955"><ele>382.0</ele><time>2026-04-20T15:03:43.534Z</time></trkpt><trkpt lat="40.8633083" lon="14.199655"><ele>382.0</ele><time>2026-04-20T15:03:44.534Z</time></trkpt><trkpt lat="40.8632567" lon="14.1997633"><ele>382.0</ele><time>2026-04-20T15:03:45.534Z</time></trkpt><trkpt lat="40.86321" lon="14.1998767"><ele>382.0</ele><time>2026-04-20T15:03:46.536Z</time></trkpt><trkpt lat="40.8631583" lon="14.19999"><ele>382.0</ele><time>2026-04-20T15:03:47.536Z</time></trkpt><trkpt lat="40.8631" lon="14.2000967"><ele>382.0</ele><time>2026-04-20T15:03:48.536Z</time></trkpt><trkpt lat="40.86304" lon="14.2002083"><ele>381.0</ele><time>2026-04-20T15:03:49.534Z</time></trkpt><trkpt lat="40.862985" lon="14.2003233"><ele>380.0</ele><time>2026-04-20T15:03:50.535Z</time></trkpt><trkpt lat="40.8629417" lon="14.2004483"><ele>379.0</ele><time>2026-04-20T15:03:51.534Z</time></trkpt><trkpt lat="40.8629167" lon="14.20058"><ele>378.0</ele><time>2026-04-20T15:03:52.534Z</time></trkpt><trkpt lat="40.8629033" lon="14.200715"><ele>377.0</ele><time>2026-04-20T15:03:53.536Z</time></trkpt><trkpt lat="40.862895" lon="14.2008533"><ele>375.8</ele><time>2026-04-20T15:03:54.536Z</time></trkpt><trkpt lat="40.8628883" lon="14.2009933"><ele>374.6</ele><time>2026-04-20T15:03:55.535Z</time></trkpt><trkpt lat="40.8628733" lon="14.2011333"><ele>373.40000000000003</ele><time>2026-04-20T15:03:56.534Z</time></trkpt><trkpt lat="40.8628617" lon="14.2012783"><ele>372.20000000000005</ele><time>2026-04-20T15:03:57.536Z</time></trkpt><trkpt lat="40.8628467" lon="14.201425"><ele>371.0</ele><time>2026-04-20T15:03:58.536Z</time></trkpt><trkpt lat="40.862835" lon="14.2015717"><ele>370.6</ele><time>2026-04-20T15:03:59.536Z</time></trkpt><trkpt lat="40.8628333" lon="14.2017083"><ele>370.20000000000005</ele><time>2026-04-20T15:04:00.535Z</time></trkpt><trkpt lat="40.8628583" lon="14.201845"><ele>369.79999999999995</ele><time>2026-04-20T15:04:01.538Z</time></trkpt><trkpt lat="40.8628983" lon="14.201975"><ele>369.4</ele><time>2026-04-20T15:04:02.534Z</time></trkpt><trkpt lat="40.8629417" lon="14.2020983"><ele>369.0</ele><time>2026-04-20T15:04:03.533Z</time></trkpt><trkpt lat="40.862985" lon="14.2022267"><ele>368.4</ele><time>2026-04-20T15:04:04.535Z</time></trkpt><trkpt lat="40.86303" lon="14.2023567"><ele>367.79999999999995</ele><time>2026-04-20T15:04:05.536Z</time></trkpt><trkpt lat="40.8630783" lon="14.2024867"><ele>367.20000000000005</ele><time>2026-04-20T15:04:06.534Z</time></trkpt><trkpt lat="40.8631167" lon="14.2026167"><ele>366.6</ele><time>2026-04-20T15:04:07.535Z</time></trkpt><trkpt lat="40.863155" lon="14.20275"><ele>366.0</ele><time>2026-04-20T15:04:08.535Z</time></trkpt><trkpt lat="40.863195" lon="14.20288"><ele>366.0</ele><time>2026-04-20T15:04:09.533Z</time></trkpt><trkpt lat="40.8632217" lon="14.2030183"><ele>366.0</ele><time>2026-04-20T15:04:10.534Z</time></trkpt><trkpt lat="40.8632433" lon="14.2031567"><ele>366.0</ele><time>2026-04-20T15:04:11.535Z</time></trkpt><trkpt lat="40.8632533" lon="14.2032883"><ele>366.0</ele><time>2026-04-20T15:04:12.535Z</time></trkpt><trkpt lat="40.86325" lon="14.20342"><ele>366.0</ele><time>2026-04-20T15:04:13.535Z</time></trkpt><trkpt lat="40.863225" lon="14.203545"><ele>365.4</ele><time>2026-04-20T15:04:14.534Z</time></trkpt><trkpt lat="40.86319" lon="14.2036717"><ele>364.8</ele><time>2026-04-20T15:04:15.533Z</time></trkpt><trkpt lat="40.8631467" lon="14.2037967"><ele>364.2</ele><time>2026-04-20T15:04:16.535Z</time></trkpt><trkpt lat="40.8631" lon="14.203925"><ele>363.59999999999997</ele><time>2026-04-20T15:04:17.536Z</time></trkpt><trkpt lat="40.8630617" lon="14.204055"><ele>363.0</ele><time>2026-04-20T15:04:18.535Z</time></trkpt><trkpt lat="40.8630317" lon="14.20419"><ele>361.79999999999995</ele><time>2026-04-20T15:04:19.536Z</time></trkpt><trkpt lat="40.8630017" lon="14.20432"><ele>360.6</ele><time>2026-04-20T15:04:20.534Z</time></trkpt><trkpt lat="40.8629733" lon="14.2044533"><ele>359.4</ele><time>2026-04-20T15:04:21.536Z</time></trkpt><trkpt lat="40.8629583" lon="14.204595"><ele>358.20000000000005</ele><time>2026-04-20T15:04:22.535Z</time></trkpt><trkpt lat="40.8629467" lon="14.2047383"><ele>357.0</ele><time>2026-04-20T15:04:23.536Z</time></trkpt><trkpt lat="40.8629417" lon="14.20488"><ele>356.20000000000005</ele><time>2026-04-20T15:04:24.535Z</time></trkpt><trkpt lat="40.8629483" lon="14.2050233"><ele>355.4</ele><time>2026-04-20T15:04:25.536Z</time></trkpt><trkpt lat="40.8629533" lon="14.205165"><ele>354.6</ele><time>2026-04-20T15:04:26.535Z</time></trkpt><trkpt lat="40.8629517" lon="14.2053083"><ele>353.79999999999995</ele><time>2026-04-20T15:04:27.536Z</time></trkpt><trkpt lat="40.862955" lon="14.20545"><ele>353.0</ele><time>2026-04-20T15:04:28.536Z</time></trkpt><trkpt lat="40.8629617" lon="14.20559"><ele>353.4</ele><time>2026-04-20T15:04:29.534Z</time></trkpt><trkpt lat="40.8629667" lon="14.2057317"><ele>353.79999999999995</ele><time>2026-04-20T15:04:30.536Z</time></trkpt><trkpt lat="40.862975" lon="14.205875"><ele>354.2</ele><time>2026-04-20T15:04:31.535Z</time></trkpt><trkpt lat="40.862985" lon="14.2060167"><ele>354.6</ele><time>2026-04-20T15:04:32.535Z</time></trkpt><trkpt lat="40.8630067" lon="14.206165"><ele>355.0</ele><time>2026-04-20T15:04:33.535Z</time></trkpt><trkpt lat="40.8630517" lon="14.2063083"><ele>355.0</ele><time>2026-04-20T15:04:34.535Z</time></trkpt><trkpt lat="40.863105" lon="14.20645"><ele>355.0</ele><time>2026-04-20T15:04:35.536Z</time></trkpt><trkpt lat="40.8631567" lon="14.2065967"><ele>355.0</ele><time>2026-04-20T15:04:36.536Z</time></trkpt><trkpt lat="40.8631967" lon="14.2067483"><ele>355.0</ele><time>2026-04-20T15:04:37.534Z</time></trkpt><trkpt lat="40.8632333" lon="14.2069083"><ele>353.25</ele><time>2026-04-20T15:04:38.536Z</time></trkpt><trkpt lat="40.8632583" lon="14.2070733"><ele>351.5</ele><time>2026-04-20T15:04:39.535Z</time></trkpt><trkpt lat="40.8632767" lon="14.2072383"><ele>349.75</ele><time>2026-04-20T15:04:40.535Z</time></trkpt><trkpt lat="40.8632783" lon="14.2074067"><ele>348.0</ele><time>2026-04-20T15:04:41.536Z</time></trkpt><trkpt lat="40.8632633" lon="14.2075783"><ele>345.75</ele><time>2026-04-20T15:04:42.536Z</time></trkpt><trkpt lat="40.86324" lon="14.20775"><ele>343.5</ele><time>2026-04-20T15:04:43.535Z</time></trkpt><trkpt lat="40.8632217" lon="14.20792"><ele>341.25</ele><time>2026-04-20T15:04:44.537Z</time></trkpt><trkpt lat="40.8632133" lon="14.2080867"><ele>339.0</ele><time>2026-04-20T15:04:45.535Z</time></trkpt><trkpt lat="40.8632083" lon="14.208255"><ele>338.0</ele><time>2026-04-20T15:04:46.536Z</time></trkpt><trkpt lat="40.8632033" lon="14.2084233"><ele>337.0</ele><time>2026-04-20T15:04:47.535Z</time></trkpt><trkpt lat="40.8631983" lon="14.2085917"><ele>336.0</ele><time>2026-04-20T15:04:48.536Z</time></trkpt><trkpt lat="40.8631983" lon="14.2087617"><ele>335.0</ele><time>2026-04-20T15:04:49.535Z</time></trkpt><trkpt lat="40.8632017" lon="14.2089217"><ele>333.8</ele><time>2026-04-20T15:04:50.533Z</time></trkpt><trkpt lat="40.863205" lon="14.2090717"><ele>332.6</ele><time>2026-04-20T15:04:51.534Z</time></trkpt><trkpt lat="40.8632067" lon="14.209215"><ele>331.4</ele><time>2026-04-20T15:04:52.533Z</time></trkpt><trkpt lat="40.863205" lon="14.2093517"><ele>330.2</ele><time>2026-04-20T15:04:53.536Z</time></trkpt><trkpt lat="40.8632033" lon="14.2094867"><ele>329.0</ele><time>2026-04-20T15:04:54.535Z</time></trkpt><trkpt lat="40.8632" lon="14.2096217"><ele>329.0</ele><time>2026-04-20T15:04:55.536Z</time></trkpt><trkpt lat="40.8631917" lon="14.20975"><ele>329.0</ele><time>2026-04-20T15:04:56.534Z</time></trkpt><trkpt lat="40.8631917" lon="14.2098683"><ele>329.0</ele><time>2026-04-20T15:04:57.534Z</time></trkpt><trkpt lat="40.8631933" lon="14.2099717"><ele>329.0</ele><time>2026-04-20T15:04:58.537Z</time></trkpt><trkpt lat="40.8631933" lon="14.2100667"><ele>329.0</ele><time>2026-04-20T15:04:59.536Z</time></trkpt><trkpt lat="40.8631933" lon="14.2101667"><ele>329.0</ele><time>2026-04-20T15:05:00.535Z</time></trkpt><trkpt lat="40.863195" lon="14.2102667"><ele>328.83333333333337</ele><time>2026-04-20T15:05:01.536Z</time></trkpt><trkpt lat="40.8631883" lon="14.2103683"><ele>328.6666666666667</ele><time>2026-04-20T15:05:02.536Z</time></trkpt><trkpt lat="40.8631783" lon="14.2104717"><ele>328.5</ele><time>2026-04-20T15:05:03.535Z</time></trkpt><trkpt lat="40.8631667" lon="14.21057"><ele>328.3333333333333</ele><time>2026-04-20T15:05:04.535Z</time></trkpt><trkpt lat="40.8631517" lon="14.210665"><ele>328.16666666666663</ele><time>2026-04-20T15:05:05.535Z</time></trkpt><trkpt lat="40.8631317" lon="14.2107633"><ele>328.0</ele><time>2026-04-20T15:05:06.535Z</time></trkpt><trkpt lat="40.8631117" lon="14.210865"><ele>328.0</ele><time>2026-04-20T15:05:07.536Z</time></trkpt><trkpt lat="40.863085" lon="14.2109717"><ele>328.0</ele><time>2026-04-20T15:05:08.536Z</time></trkpt><trkpt lat="40.86305" lon="14.2110817"><ele>328.0</ele><time>2026-04-20T15:05:09.535Z</time></trkpt><trkpt lat="40.8630117" lon="14.2112"><ele>328.0</ele><time>2026-04-20T15:05:10.535Z</time></trkpt><trkpt lat="40.862975" lon="14.2113283"><ele>328.0</ele><time>2026-04-20T15:05:11.537Z</time></trkpt><trkpt lat="40.8629367" lon="14.2114617"><ele>326.75</ele><time>2026-04-20T15:05:12.536Z</time></trkpt><trkpt lat="40.8628967" lon="14.211605"><ele>325.5</ele><time>2026-04-20T15:05:13.533Z</time></trkpt><trkpt lat="40.8628567" lon="14.211755"><ele>324.25</ele><time>2026-04-20T15:05:14.536Z</time></trkpt><trkpt lat="40.8628233" lon="14.2119167"><ele>323.0</ele><time>2026-04-20T15:05:15.537Z</time></trkpt><trkpt lat="40.8628" lon="14.21209"><ele>323.0</ele><time>2026-04-20T15:05:16.536Z</time></trkpt><trkpt lat="40.8627917" lon="14.2122667"><ele>323.0</ele><time>2026-04-20T15:05:17.536Z</time></trkpt><trkpt lat="40.8627883" lon="14.21245"><ele>323.0</ele><time>2026-04-20T15:05:18.535Z</time></trkpt><trkpt lat="40.8627917" lon="14.2126383"><ele>323.0</ele><time>2026-04-20T15:05:19.534Z</time></trkpt><trkpt lat="40.8628" lon="14.2128267"><ele>321.25</ele><time>2026-04-20T15:05:20.537Z</time></trkpt><trkpt lat="40.8628167" lon="14.2130133"><ele>319.5</ele><time>2026-04-20T15:05:21.534Z</time></trkpt><trkpt lat="40.8628483" lon="14.2131967"><ele>317.75</ele><time>2026-04-20T15:05:22.536Z</time></trkpt><trkpt lat="40.862895" lon="14.21337"><ele>316.0</ele><time>2026-04-20T15:05:23.537Z</time></trkpt><trkpt lat="40.8629533" lon="14.2135367"><ele>314.5</ele><time>2026-04-20T15:05:24.535Z</time></trkpt><trkpt lat="40.8630167" lon="14.213695"><ele>313.0</ele><time>2026-04-20T15:05:25.536Z</time></trkpt><trkpt lat="40.8630867" lon="14.2138517"><ele>311.5</ele><time>2026-04-20T15:05:26.536Z</time></trkpt><trkpt lat="40.8631617" lon="14.2140017"><ele>310.0</ele><time>2026-04-20T15:05:27.536Z</time></trkpt><trkpt lat="40.863245" lon="14.2141433"><ele>308.75</ele><time>2026-04-20T15:05:28.538Z</time></trkpt><trkpt lat="40.8633333" lon="14.2142783"><ele>307.5</ele><time>2026-04-20T15:05:29.535Z</time></trkpt><trkpt lat="40.8634183" lon="14.2143967"><ele>306.25</ele><time>2026-04-20T15:05:30.535Z</time></trkpt><trkpt lat="40.8635033" lon="14.214495"><ele>305.0</ele><time>2026-04-20T15:05:31.537Z</time></trkpt><trkpt lat="40.863585" lon="14.2145883"><ele>304.33333333333337</ele><time>2026-04-20T15:05:32.535Z</time></trkpt><trkpt lat="40.8636517" lon="14.2146783"><ele>303.6666666666667</ele><time>2026-04-20T15:05:33.534Z</time></trkpt><trkpt lat="40.8637033" lon="14.21476"><ele>303.0</ele><time>2026-04-20T15:05:34.535Z</time></trkpt><trkpt lat="40.8637383" lon="14.2148467"><ele>302.3333333333333</ele><time>2026-04-20T15:05:35.536Z</time></trkpt><trkpt lat="40.863745" lon="14.214935"><ele>301.66666666666663</ele><time>2026-04-20T15:05:36.536Z</time></trkpt><trkpt lat="40.8637333" lon="14.21503"><ele>301.0</ele><time>2026-04-20T15:05:37.535Z</time></trkpt><trkpt lat="40.8637217" lon="14.2151267"><ele>301.0</ele><time>2026-04-20T15:05:38.535Z</time></trkpt><trkpt lat="40.863715" lon="14.2152317"><ele>301.0</ele><time>2026-04-20T15:05:39.536Z</time></trkpt><trkpt lat="40.8637167" lon="14.21533"><ele>301.0</ele><time>2026-04-20T15:05:40.536Z</time></trkpt><trkpt lat="40.863715" lon="14.215435"><ele>301.0</ele><time>2026-04-20T15:05:41.536Z</time></trkpt><trkpt lat="40.8637133" lon="14.2155433"><ele>301.0</ele><time>2026-04-20T15:05:42.535Z</time></trkpt><trkpt lat="40.86372" lon="14.21565"><ele>301.0</ele><time>2026-04-20T15:05:43.536Z</time></trkpt><trkpt lat="40.86373" lon="14.2157667"><ele>300.3333333333333</ele><time>2026-04-20T15:05:44.535Z</time></trkpt><trkpt lat="40.8637383" lon="14.2158833"><ele>299.66666666666663</ele><time>2026-04-20T15:05:45.535Z</time></trkpt><trkpt lat="40.863745" lon="14.2160033"><ele>299.0</ele><time>2026-04-20T15:05:46.535Z</time></trkpt><trkpt lat="40.8637517" lon="14.2161233"><ele>298.3333333333333</ele><time>2026-04-20T15:05:47.535Z</time></trkpt><trkpt lat="40.86376" lon="14.21624"><ele>297.6666666666667</ele><time>2026-04-20T15:05:48.534Z</time></trkpt><trkpt lat="40.86377" lon="14.2163567"><ele>297.0</ele><time>2026-04-20T15:05:49.536Z</time></trkpt><trkpt lat="40.86378" lon="14.21647"><ele>295.8333333333333</ele><time>2026-04-20T15:05:50.536Z</time></trkpt><trkpt lat="40.86378" lon="14.216575"><ele>294.6666666666667</ele><time>2026-04-20T15:05:51.534Z</time></trkpt><trkpt lat="40.863785" lon="14.21668"><ele>293.5</ele><time>2026-04-20T15:05:52.535Z</time></trkpt><trkpt lat="40.8638033" lon="14.2167833"><ele>292.33333333333337</ele><time>2026-04-20T15:05:53.535Z</time></trkpt><trkpt lat="40.8638233" lon="14.2168833"><ele>291.1666666666667</ele><time>2026-04-20T15:05:54.535Z</time></trkpt><trkpt lat="40.8638417" lon="14.2169883"><ele>290.0</ele><time>2026-04-20T15:05:55.536Z</time></trkpt><trkpt lat="40.8638633" lon="14.21709"><ele>290.0</ele><time>2026-04-20T15:05:56.535Z</time></trkpt><trkpt lat="40.8638817" lon="14.2172017"><ele>290.0</ele><time>2026-04-20T15:05:57.533Z</time></trkpt><trkpt lat="40.8639067" lon="14.2173067"><ele>290.0</ele><time>2026-04-20T15:05:58.535Z</time></trkpt><trkpt lat="40.8639367" lon="14.21741"><ele>290.0</ele><time>2026-04-20T15:05:59.535Z</time></trkpt><trkpt lat="40.8639783" lon="14.21751"><ele>290.0</ele><time>2026-04-20T15:06:00.534Z</time></trkpt><trkpt lat="40.8640183" lon="14.2176117"><ele>290.0</ele><time>2026-04-20T15:06:01.535Z</time></trkpt><trkpt lat="40.8640533" lon="14.2177217"><ele>289.83333333333337</ele><time>2026-04-20T15:06:02.536Z</time></trkpt><trkpt lat="40.8640817" lon="14.2178317"><ele>289.6666666666667</ele><time>2026-04-20T15:06:03.533Z</time></trkpt><trkpt lat="40.8641" lon="14.217945"><ele>289.5</ele><time>2026-04-20T15:06:04.537Z</time></trkpt><trkpt lat="40.864115" lon="14.218055"><ele>289.3333333333333</ele><time>2026-04-20T15:06:05.535Z</time></trkpt><trkpt lat="40.8641117" lon="14.218175"><ele>289.16666666666663</ele><time>2026-04-20T15:06:06.536Z</time></trkpt><trkpt lat="40.8640983" lon="14.2182933"><ele>289.0</ele><time>2026-04-20T15:06:07.537Z</time></trkpt><trkpt lat="40.8640867" lon="14.2184067"><ele>288.4</ele><time>2026-04-20T15:06:08.534Z</time></trkpt><trkpt lat="40.8640767" lon="14.2185"><ele>287.79999999999995</ele><time>2026-04-20T15:06:09.536Z</time></trkpt><trkpt lat="40.864055" lon="14.218655"><ele>287.20000000000005</ele><time>2026-04-20T15:06:11.535Z</time></trkpt><trkpt lat="40.86402" lon="14.21879"><ele>286.6</ele><time>2026-04-20T15:06:13.536Z</time></trkpt><trkpt lat="40.8639867" lon="14.2189217"><ele>286.0</ele><time>2026-04-20T15:06:15.534Z</time></trkpt><trkpt lat="40.8639483" lon="14.2190483"><ele>285.5</ele><time>2026-04-20T15:06:17.535Z</time></trkpt><trkpt lat="40.8639083" lon="14.2191267"><ele>285.0</ele><time>2026-04-20T15:06:19.534Z</time></trkpt><trkpt lat="40.8638417" lon="14.2191833"><ele>284.5</ele><time>2026-04-20T15:06:22.535Z</time></trkpt><trkpt lat="40.863785" lon="14.219225"><ele>284.0</ele><time>2026-04-20T15:06:24.536Z</time></trkpt><trkpt lat="40.863705" lon="14.21926"><ele>283.5</ele><time>2026-04-20T15:06:27.536Z</time></trkpt><trkpt lat="40.863645" lon="14.219295"><ele>283.0</ele><time>2026-04-20T15:06:29.535Z</time></trkpt><trkpt lat="40.8635633" lon="14.219385"><ele>283.0</ele><time>2026-04-20T15:06:31.535Z</time></trkpt><trkpt lat="40.8635167" lon="14.2194433"><ele>283.0</ele><time>2026-04-20T15:06:32.536Z</time></trkpt><trkpt lat="40.86348" lon="14.2195133"><ele>283.0</ele><time>2026-04-20T15:06:33.534Z</time></trkpt><trkpt lat="40.8634383" lon="14.21958"><ele>283.0</ele><time>2026-04-20T15:06:34.535Z</time></trkpt><trkpt lat="40.8633517" lon="14.219685"><ele>283.0</ele><time>2026-04-20T15:06:36.535Z</time></trkpt><trkpt lat="40.8632533" lon="14.2197783"><ele>283.0</ele><time>2026-04-20T15:06:38.535Z</time></trkpt><trkpt lat="40.8632" lon="14.219825"><ele>282.42857142857144</ele><time>2026-04-20T15:06:39.534Z</time></trkpt><trkpt lat="40.86315" lon="14.2198833"><ele>281.8571428571429</ele><time>2026-04-20T15:06:40.537Z</time></trkpt><trkpt lat="40.8630933" lon="14.2199433"><ele>281.2857142857143</ele><time>2026-04-20T15:06:41.538Z</time></trkpt><trkpt lat="40.8630333" lon="14.2200033"><ele>280.7142857142857</ele><time>2026-04-20T15:06:42.536Z</time></trkpt><trkpt lat="40.8629733" lon="14.2200633"><ele>280.1428571428571</ele><time>2026-04-20T15:06:43.536Z</time></trkpt><trkpt lat="40.8629033" lon="14.2201117"><ele>279.57142857142856</ele><time>2026-04-20T15:06:44.534Z</time></trkpt><trkpt lat="40.862845" lon="14.2201667"><ele>279.0</ele><time>2026-04-20T15:06:45.535Z</time></trkpt><trkpt lat="40.8627983" lon="14.2202283"><ele>279.0</ele><time>2026-04-20T15:06:46.536Z</time></trkpt><trkpt lat="40.8627417" lon="14.2202883"><ele>279.0</ele><time>2026-04-20T15:06:47.535Z</time></trkpt><trkpt lat="40.862695" lon="14.2203533"><ele>279.0</ele><time>2026-04-20T15:06:48.535Z</time></trkpt><trkpt lat="40.86264" lon="14.2204183"><ele>279.0</ele><time>2026-04-20T15:06:49.533Z</time></trkpt><trkpt lat="40.8625783" lon="14.2204867"><ele>279.0</ele><time>2026-04-20T15:06:50.535Z</time></trkpt><trkpt lat="40.8625217" lon="14.220555"><ele>279.0</ele><time>2026-04-20T15:06:51.535Z</time></trkpt><trkpt lat="40.862455" lon="14.2206233"><ele>278.8</ele><time>2026-04-20T15:06:52.536Z</time></trkpt><trkpt lat="40.8623867" lon="14.2206933"><ele>278.59999999999997</ele><time>2026-04-20T15:06:53.538Z</time></trkpt><trkpt lat="40.8623117" lon="14.22076"><ele>278.4</ele><time>2026-04-20T15:06:54.537Z</time></trkpt><trkpt lat="40.8622367" lon="14.220835"><ele>278.2</ele><time>2026-04-20T15:06:55.535Z</time></trkpt><trkpt lat="40.8621517" lon="14.2209067"><ele>278.0</ele><time>2026-04-20T15:06:56.536Z</time></trkpt><trkpt lat="40.8620783" lon="14.220985"><ele>278.0</ele><time>2026-04-20T15:06:57.535Z</time></trkpt><trkpt lat="40.861995" lon="14.221055"><ele>278.0</ele><time>2026-04-20T15:06:58.535Z</time></trkpt><trkpt lat="40.8619117" lon="14.2211233"><ele>278.0</ele><time>2026-04-20T15:06:59.537Z</time></trkpt><trkpt lat="40.8618367" lon="14.2212033"><ele>278.0</ele><time>2026-04-20T15:07:00.536Z</time></trkpt><trkpt lat="40.8617667" lon="14.2212767"><ele>278.0</ele><time>2026-04-20T15:07:01.535Z</time></trkpt><trkpt lat="40.8616967" lon="14.2213567"><ele>277.2</ele><time>2026-04-20T15:07:02.536Z</time></trkpt><trkpt lat="40.8616233" lon="14.2214467"><ele>276.4</ele><time>2026-04-20T15:07:03.539Z</time></trkpt><trkpt lat="40.8615433" lon="14.2215333"><ele>275.59999999999997</ele><time>2026-04-20T15:07:04.536Z</time></trkpt><trkpt lat="40.8614667" lon="14.221615"><ele>274.8</ele><time>2026-04-20T15:07:05.535Z</time></trkpt><trkpt lat="40.8613833" lon="14.2217033"><ele>274.0</ele><time>2026-04-20T15:07:06.536Z</time></trkpt><trkpt lat="40.861295" lon="14.2217883"><ele>273.4</ele><time>2026-04-20T15:07:07.535Z</time></trkpt><trkpt lat="40.861215" lon="14.22188"><ele>272.79999999999995</ele><time>2026-04-20T15:07:08.535Z</time></trkpt><trkpt lat="40.861155" lon="14.2219867"><ele>272.20000000000005</ele><time>2026-04-20T15:07:09.536Z</time></trkpt><trkpt lat="40.8611183" lon="14.222115"><ele>271.6</ele><time>2026-04-20T15:07:10.537Z</time></trkpt><trkpt lat="40.8611" lon="14.2222417"><ele>271.0</ele><time>2026-04-20T15:07:11.536Z</time></trkpt><trkpt lat="40.8610983" lon="14.2223717"><ele>271.0</ele><time>2026-04-20T15:07:12.537Z</time></trkpt><trkpt lat="40.8611167" lon="14.2224867"><ele>271.0</ele><time>2026-04-20T15:07:13.535Z</time></trkpt><trkpt lat="40.8611417" lon="14.2226017"><ele>271.0</ele><time>2026-04-20T15:07:14.534Z</time></trkpt><trkpt lat="40.8611667" lon="14.22271"><ele>271.0</ele><time>2026-04-20T15:07:15.536Z</time></trkpt><trkpt lat="40.861195" lon="14.2228267"><ele>271.0</ele><time>2026-04-20T15:07:16.535Z</time></trkpt><trkpt lat="40.8612283" lon="14.2229267"><ele>271.0</ele><time>2026-04-20T15:07:17.537Z</time></trkpt><trkpt lat="40.8612583" lon="14.2230183"><ele>271.0</ele><time>2026-04-20T15:07:18.534Z</time></trkpt><trkpt lat="40.8612917" lon="14.2231583"><ele>271.0</ele><time>2026-04-20T15:07:20.535Z</time></trkpt><trkpt lat="40.8613383" lon="14.223295"><ele>271.0</ele><time>2026-04-20T15:07:22.535Z</time></trkpt><trkpt lat="40.8613867" lon="14.22343"><ele>271.0</ele><time>2026-04-20T15:07:24.536Z</time></trkpt><trkpt lat="40.8614333" lon="14.2235517"><ele>271.0</ele><time>2026-04-20T15:07:26.536Z</time></trkpt><trkpt lat="40.8614817" lon="14.2236867"><ele>271.0</ele><time>2026-04-20T15:07:28.536Z</time></trkpt><trkpt lat="40.8615333" lon="14.2238333"><ele>271.0</ele><time>2026-04-20T15:07:30.535Z</time></trkpt><trkpt lat="40.8615683" lon="14.2239833"><ele>271.0</ele><time>2026-04-20T15:07:32.534Z</time></trkpt><trkpt lat="40.8615817" lon="14.22415"><ele>271.0</ele><time>2026-04-20T15:07:34.535Z</time></trkpt><trkpt lat="40.8615883" lon="14.224235"><ele>271.0</ele><time>2026-04-20T15:07:35.535Z</time></trkpt><trkpt lat="40.86161" lon="14.2243233"><ele>270.42857142857144</ele><time>2026-04-20T15:07:36.534Z</time></trkpt><trkpt lat="40.8616333" lon="14.2244083"><ele>269.8571428571429</ele><time>2026-04-20T15:07:37.534Z</time></trkpt><trkpt lat="40.8616583" lon="14.224495"><ele>269.28571428571433</ele><time>2026-04-20T15:07:38.534Z</time></trkpt><trkpt lat="40.8616867" lon="14.2245867"><ele>268.7142857142857</ele><time>2026-04-20T15:07:39.534Z</time></trkpt><trkpt lat="40.8617117" lon="14.224675"><ele>268.14285714285717</ele><time>2026-04-20T15:07:40.534Z</time></trkpt><trkpt lat="40.8617383" lon="14.2247617"><ele>267.5714285714286</ele><time>2026-04-20T15:07:41.536Z</time></trkpt><trkpt lat="40.861765" lon="14.2248483"><ele>267.0</ele><time>2026-04-20T15:07:42.533Z</time></trkpt><trkpt lat="40.8617917" lon="14.22493"><ele>266.7142857142857</ele><time>2026-04-20T15:07:43.535Z</time></trkpt><trkpt lat="40.86182" lon="14.2250167"><ele>266.42857142857144</ele><time>2026-04-20T15:07:44.536Z</time></trkpt><trkpt lat="40.8618517" lon="14.2251"><ele>266.1428571428571</ele><time>2026-04-20T15:07:45.536Z</time></trkpt><trkpt lat="40.8618933" lon="14.22517"><ele>265.8571428571429</ele><time>2026-04-20T15:07:46.535Z</time></trkpt><trkpt lat="40.8619417" lon="14.22523"><ele>265.57142857142856</ele><time>2026-04-20T15:07:47.535Z</time></trkpt><trkpt lat="40.8619917" lon="14.2252817"><ele>265.2857142857143</ele><time>2026-04-20T15:07:48.536Z</time></trkpt><trkpt lat="40.8620467" lon="14.225335"><ele>265.0</ele><time>2026-04-20T15:07:49.535Z</time></trkpt><trkpt lat="40.86211" lon="14.22538"><ele>265.0</ele><time>2026-04-20T15:07:50.535Z</time></trkpt><trkpt lat="40.86217" lon="14.2254183"><ele>265.0</ele><time>2026-04-20T15:07:51.535Z</time></trkpt><trkpt lat="40.8622283" lon="14.2254583"><ele>265.0</ele><time>2026-04-20T15:07:52.536Z</time></trkpt><trkpt lat="40.8623283" lon="14.2255383"><ele>265.0</ele><time>2026-04-20T15:07:54.536Z</time></trkpt><trkpt lat="40.86244" lon="14.225575"><ele>265.0</ele><time>2026-04-20T15:07:56.534Z</time></trkpt><trkpt lat="40.86255" lon="14.2256033"><ele>264.2</ele><time>2026-04-20T15:07:58.538Z</time></trkpt><trkpt lat="40.862655" lon="14.22565"><ele>263.4</ele><time>2026-04-20T15:08:00.535Z</time></trkpt><trkpt lat="40.86274" lon="14.2256733"><ele>262.6</ele><time>2026-04-20T15:08:02.538Z</time></trkpt><trkpt lat="40.8628217" lon="14.2257183"><ele>261.8</ele><time>2026-04-20T15:08:04.535Z</time></trkpt><trkpt lat="40.86291" lon="14.2257683"><ele>261.0</ele><time>2026-04-20T15:08:06.534Z</time></trkpt><trkpt lat="40.8630217" lon="14.2258083"><ele>261.0</ele><time>2026-04-20T15:08:08.537Z</time></trkpt><trkpt lat="40.863085" lon="14.22582"><ele>261.0</ele><time>2026-04-20T15:08:09.534Z</time></trkpt><trkpt lat="40.8631483" lon="14.2258317"><ele>261.0</ele><time>2026-04-20T15:08:10.533Z</time></trkpt><trkpt lat="40.8632133" lon="14.2258517"><ele>261.0</ele><time>2026-04-20T15:08:11.535Z</time></trkpt><trkpt lat="40.863285" lon="14.225875"><ele>261.0</ele><time>2026-04-20T15:08:12.533Z</time></trkpt><trkpt lat="40.863355" lon="14.2259017"><ele>261.0</ele><time>2026-04-20T15:08:13.536Z</time></trkpt><trkpt lat="40.8634283" lon="14.2259317"><ele>261.0</ele><time>2026-04-20T15:08:14.533Z</time></trkpt><trkpt lat="40.863495" lon="14.2259667"><ele>260.8571428571429</ele><time>2026-04-20T15:08:15.537Z</time></trkpt><trkpt lat="40.8635533" lon="14.226015"><ele>260.7142857142857</ele><time>2026-04-20T15:08:16.537Z</time></trkpt><trkpt lat="40.8636083" lon="14.2260717"><ele>260.57142857142856</ele><time>2026-04-20T15:08:17.536Z</time></trkpt><trkpt lat="40.8636567" lon="14.22614"><ele>260.42857142857144</ele><time>2026-04-20T15:08:18.536Z</time></trkpt><trkpt lat="40.8636983" lon="14.2262183"><ele>260.2857142857143</ele><time>2026-04-20T15:08:19.537Z</time></trkpt><trkpt lat="40.8637383" lon="14.2263033"><ele>260.14285714285717</ele><time>2026-04-20T15:08:20.538Z</time></trkpt><trkpt lat="40.8637783" lon="14.2263933"><ele>260.0</ele><time>2026-04-20T15:08:21.534Z</time></trkpt><trkpt lat="40.8638233" lon="14.226485"><ele>259.1666666666667</ele><time>2026-04-20T15:08:22.536Z</time></trkpt><trkpt lat="40.8638783" lon="14.2265667"><ele>258.33333333333337</ele><time>2026-04-20T15:08:23.538Z</time></trkpt><trkpt lat="40.863935" lon="14.2266433"><ele>257.5</ele><time>2026-04-20T15:08:24.537Z</time></trkpt><trkpt lat="40.8639967" lon="14.2267133"><ele>256.6666666666667</ele><time>2026-04-20T15:08:25.538Z</time></trkpt><trkpt lat="40.8640667" lon="14.2267733"><ele>255.83333333333334</ele><time>2026-04-20T15:08:26.538Z</time></trkpt><trkpt lat="40.8641367" lon="14.2268283"><ele>255.0</ele><time>2026-04-20T15:08:27.537Z</time></trkpt><trkpt lat="40.8642083" lon="14.2268733"><ele>255.5</ele><time>2026-04-20T15:08:28.536Z</time></trkpt><trkpt lat="40.8642883" lon="14.2269117"><ele>256.0</ele><time>2026-04-20T15:08:29.537Z</time></trkpt><trkpt lat="40.8643683" lon="14.226945"><ele>256.5</ele><time>2026-04-20T15:08:30.537Z</time></trkpt><trkpt lat="40.86445" lon="14.2269783"><ele>257.0</ele><time>2026-04-20T15:08:31.536Z</time></trkpt><trkpt lat="40.8645317" lon="14.2270083"><ele>257.5</ele><time>2026-04-20T15:08:32.534Z</time></trkpt><trkpt lat="40.864615" lon="14.22704"><ele>258.0</ele><time>2026-04-20T15:08:33.538Z</time></trkpt><trkpt lat="40.8646967" lon="14.2270683"><ele>258.0</ele><time>2026-04-20T15:08:34.536Z</time></trkpt><trkpt lat="40.8647733" lon="14.227105"><ele>258.0</ele><time>2026-04-20T15:08:35.536Z</time></trkpt><trkpt lat="40.864855" lon="14.2271333"><ele>258.0</ele><time>2026-04-20T15:08:36.537Z</time></trkpt><trkpt lat="40.8649333" lon="14.227165"><ele>258.0</ele><time>2026-04-20T15:08:37.536Z</time></trkpt><trkpt lat="40.86501" lon="14.2271983"><ele>258.0</ele><time>2026-04-20T15:08:38.537Z</time></trkpt><trkpt lat="40.8650867" lon="14.227235"><ele>258.0</ele><time>2026-04-20T15:08:39.534Z</time></trkpt><trkpt lat="40.8651617" lon="14.2272717"><ele>258.1666666666667</ele><time>2026-04-20T15:08:40.536Z</time></trkpt><trkpt lat="40.8652367" lon="14.2273033"><ele>258.3333333333333</ele><time>2026-04-20T15:08:41.538Z</time></trkpt><trkpt lat="40.8653133" lon="14.2273317"><ele>258.5</ele><time>2026-04-20T15:08:42.536Z</time></trkpt><trkpt lat="40.8653867" lon="14.2273533"><ele>258.66666666666663</ele><time>2026-04-20T15:08:43.538Z</time></trkpt><trkpt lat="40.86546" lon="14.227375"><ele>258.8333333333333</ele><time>2026-04-20T15:08:44.536Z</time></trkpt><trkpt lat="40.86554" lon="14.2273917"><ele>259.0</ele><time>2026-04-20T15:08:45.536Z</time></trkpt><trkpt lat="40.86562" lon="14.227395"><ele>259.0</ele><time>2026-04-20T15:08:46.537Z</time></trkpt><trkpt lat="40.865705" lon="14.2273867"><ele>259.0</ele><time>2026-04-20T15:08:47.536Z</time></trkpt><trkpt lat="40.8657883" lon="14.2273733"><ele>259.0</ele><time>2026-04-20T15:08:48.536Z</time></trkpt><trkpt lat="40.8658783" lon="14.2273517"><ele>259.0</ele><time>2026-04-20T15:08:49.538Z</time></trkpt><trkpt lat="40.8659633" lon="14.2273233"><ele>259.0</ele><time>2026-04-20T15:08:50.538Z</time></trkpt><trkpt lat="40.8660483" lon="14.2272867"><ele>259.0</ele><time>2026-04-20T15:08:51.536Z</time></trkpt><trkpt lat="40.866135" lon="14.2272433"><ele>259.0</ele><time>2026-04-20T15:08:52.537Z</time></trkpt><trkpt lat="40.866215" lon="14.2272033"><ele>259.0</ele><time>2026-04-20T15:08:53.536Z</time></trkpt><trkpt lat="40.8662933" lon="14.2271667"><ele>259.0</ele><time>2026-04-20T15:08:54.534Z</time></trkpt><trkpt lat="40.8663717" lon="14.2271383"><ele>259.0</ele><time>2026-04-20T15:08:55.537Z</time></trkpt><trkpt lat="40.86645" lon="14.2271233"><ele>259.0</ele><time>2026-04-20T15:08:56.535Z</time></trkpt><trkpt lat="40.8665317" lon="14.22713"><ele>259.0</ele><time>2026-04-20T15:08:57.536Z</time></trkpt><trkpt lat="40.8666083" lon="14.2271483"><ele>259.0</ele><time>2026-04-20T15:08:58.535Z</time></trkpt><trkpt lat="40.8666883" lon="14.227175"><ele>259.0</ele><time>2026-04-20T15:08:59.535Z</time></trkpt><trkpt lat="40.8667683" lon="14.2272083"><ele>259.0</ele><time>2026-04-20T15:09:00.535Z</time></trkpt><trkpt lat="40.8668467" lon="14.2272433"><ele>259.0</ele><time>2026-04-20T15:09:01.536Z</time></trkpt><trkpt lat="40.8669267" lon="14.2272733"><ele>259.0</ele><time>2026-04-20T15:09:02.537Z</time></trkpt><trkpt lat="40.86701" lon="14.2272983"><ele>259.0</ele><time>2026-04-20T15:09:03.538Z</time></trkpt><trkpt lat="40.867095" lon="14.2273233"><ele>257.3333333333333</ele><time>2026-04-20T15:09:04.537Z</time></trkpt><trkpt lat="40.8671767" lon="14.2273533"><ele>255.66666666666666</ele><time>2026-04-20T15:09:05.536Z</time></trkpt><trkpt lat="40.8672583" lon="14.2273833"><ele>254.0</ele><time>2026-04-20T15:09:06.535Z</time></trkpt><trkpt lat="40.867345" lon="14.2274167"><ele>252.33333333333331</ele><time>2026-04-20T15:09:07.537Z</time></trkpt><trkpt lat="40.86743" lon="14.2274517"><ele>250.66666666666666</ele><time>2026-04-20T15:09:08.537Z</time></trkpt><trkpt lat="40.8675167" lon="14.2274917"><ele>249.0</ele><time>2026-04-20T15:09:09.536Z</time></trkpt><trkpt lat="40.8676033" lon="14.227535"><ele>249.39999999999998</ele><time>2026-04-20T15:09:10.536Z</time></trkpt><trkpt lat="40.86769" lon="14.22758"><ele>249.79999999999998</ele><time>2026-04-20T15:09:11.537Z</time></trkpt><trkpt lat="40.8677767" lon="14.22762"><ele>250.20000000000002</ele><time>2026-04-20T15:09:12.537Z</time></trkpt><trkpt lat="40.8678667" lon="14.227655"><ele>250.60000000000002</ele><time>2026-04-20T15:09:13.537Z</time></trkpt><trkpt lat="40.8679567" lon="14.2276933"><ele>251.0</ele><time>2026-04-20T15:09:14.537Z</time></trkpt><trkpt lat="40.868045" lon="14.2277317"><ele>251.00000000000003</ele><time>2026-04-20T15:09:15.536Z</time></trkpt><trkpt lat="40.86813" lon="14.2277683"><ele>251.0</ele><time>2026-04-20T15:09:16.536Z</time></trkpt><trkpt lat="40.8682133" lon="14.22781"><ele>251.0</ele><time>2026-04-20T15:09:17.536Z</time></trkpt><trkpt lat="40.8682883" lon="14.227855"><ele>251.0</ele><time>2026-04-20T15:09:18.535Z</time></trkpt><trkpt lat="40.868355" lon="14.22792"><ele>251.00000000000003</ele><time>2026-04-20T15:09:19.534Z</time></trkpt><trkpt lat="40.868415" lon="14.2279983"><ele>251.0</ele><time>2026-04-20T15:09:20.536Z</time></trkpt><trkpt lat="40.8684617" lon="14.2280933"><ele>248.8</ele><time>2026-04-20T15:09:21.537Z</time></trkpt><trkpt lat="40.8684967" lon="14.2281917"><ele>246.60000000000002</ele><time>2026-04-20T15:09:22.537Z</time></trkpt><trkpt lat="40.8685017" lon="14.22832"><ele>244.4</ele><time>2026-04-20T15:09:23.537Z</time></trkpt><trkpt lat="40.8684867" lon="14.22847"><ele>242.2</ele><time>2026-04-20T15:09:24.537Z</time></trkpt><trkpt lat="40.8684767" lon="14.2286033"><ele>240.0</ele><time>2026-04-20T15:09:25.538Z</time></trkpt><trkpt lat="40.868465" lon="14.22874"><ele>240.0</ele><time>2026-04-20T15:09:26.537Z</time></trkpt><trkpt lat="40.8684567" lon="14.22887"><ele>240.0</ele><time>2026-04-20T15:09:27.534Z</time></trkpt><trkpt lat="40.86845" lon="14.2289983"><ele>240.0</ele><time>2026-04-20T15:09:28.535Z</time></trkpt><trkpt lat="40.86844" lon="14.2291317"><ele>240.0</ele><time>2026-04-20T15:09:29.535Z</time></trkpt><trkpt lat="40.8684317" lon="14.2292667"><ele>240.0</ele><time>2026-04-20T15:09:30.535Z</time></trkpt><trkpt lat="40.8684267" lon="14.2293983"><ele>240.16666666666666</ele><time>2026-04-20T15:09:31.536Z</time></trkpt><trkpt lat="40.8684183" lon="14.2295283"><ele>240.33333333333331</ele><time>2026-04-20T15:09:32.535Z</time></trkpt><trkpt lat="40.8684133" lon="14.2296417"><ele>240.5</ele><time>2026-04-20T15:09:33.536Z</time></trkpt><trkpt lat="40.8684083" lon="14.229735"><ele>240.66666666666666</ele><time>2026-04-20T15:09:34.535Z</time></trkpt><trkpt lat="40.8684017" lon="14.22982"><ele>240.83333333333331</ele><time>2026-04-20T15:09:35.535Z</time></trkpt><trkpt lat="40.8683967" lon="14.2299083"><ele>241.0</ele><time>2026-04-20T15:09:36.536Z</time></trkpt><trkpt lat="40.8683883" lon="14.23"><ele>241.0</ele><time>2026-04-20T15:09:37.536Z</time></trkpt><trkpt lat="40.8683867" lon="14.230085"><ele>241.00000000000003</ele><time>2026-04-20T15:09:38.537Z</time></trkpt><trkpt lat="40.868385" lon="14.23018"><ele>241.0</ele><time>2026-04-20T15:09:39.535Z</time></trkpt><trkpt lat="40.86839" lon="14.2302767"><ele>241.0</ele><time>2026-04-20T15:09:40.536Z</time></trkpt><trkpt lat="40.8683883" lon="14.2303767"><ele>241.00000000000003</ele><time>2026-04-20T15:09:41.537Z</time></trkpt><trkpt lat="40.868385" lon="14.230475"><ele>241.0</ele><time>2026-04-20T15:09:42.536Z</time></trkpt><trkpt lat="40.8683817" lon="14.23057"><ele>241.0</ele><time>2026-04-20T15:09:43.536Z</time></trkpt><trkpt lat="40.86838" lon="14.2306583"><ele>239.25</ele><time>2026-04-20T15:09:44.535Z</time></trkpt><trkpt lat="40.868375" lon="14.23081"><ele>237.5</ele><time>2026-04-20T15:09:46.536Z</time></trkpt><trkpt lat="40.8683683" lon="14.23095"><ele>235.75</ele><time>2026-04-20T15:09:48.536Z</time></trkpt><trkpt lat="40.868365" lon="14.2310983"><ele>234.0</ele><time>2026-04-20T15:09:50.535Z</time></trkpt><trkpt lat="40.868365" lon="14.2312633"><ele>234.0</ele><time>2026-04-20T15:09:52.536Z</time></trkpt><trkpt lat="40.8683617" lon="14.2313583"><ele>234.0</ele><time>2026-04-20T15:09:53.537Z</time></trkpt><trkpt lat="40.8683533" lon="14.2314633"><ele>234.0</ele><time>2026-04-20T15:09:54.537Z</time></trkpt><trkpt lat="40.86834" lon="14.2315617"><ele>234.0</ele><time>2026-04-20T15:09:55.538Z</time></trkpt><trkpt lat="40.8683267" lon="14.2316583"><ele>234.0</ele><time>2026-04-20T15:09:56.536Z</time></trkpt><trkpt lat="40.8683133" lon="14.2317533"><ele>234.0</ele><time>2026-04-20T15:09:57.537Z</time></trkpt><trkpt lat="40.8683033" lon="14.2318533"><ele>232.16666666666666</ele><time>2026-04-20T15:09:58.534Z</time></trkpt><trkpt lat="40.868295" lon="14.2319567"><ele>230.33333333333331</ele><time>2026-04-20T15:09:59.534Z</time></trkpt><trkpt lat="40.86829" lon="14.2320633"><ele>228.5</ele><time>2026-04-20T15:10:00.538Z</time></trkpt><trkpt lat="40.868285" lon="14.2321717"><ele>226.66666666666666</ele><time>2026-04-20T15:10:01.536Z</time></trkpt><trkpt lat="40.8682783" lon="14.2322783"><ele>224.83333333333331</ele><time>2026-04-20T15:10:02.535Z</time></trkpt><trkpt lat="40.8682717" lon="14.2323767"><ele>223.0</ele><time>2026-04-20T15:10:03.535Z</time></trkpt><trkpt lat="40.86826" lon="14.23246"><ele>222.85714285714286</ele><time>2026-04-20T15:10:04.534Z</time></trkpt><trkpt lat="40.8682533" lon="14.2325433"><ele>222.71428571428572</ele><time>2026-04-20T15:10:05.534Z</time></trkpt><trkpt lat="40.86824" lon="14.2326267"><ele>222.57142857142856</ele><time>2026-04-20T15:10:06.536Z</time></trkpt><trkpt lat="40.868235" lon="14.2327233"><ele>222.42857142857144</ele><time>2026-04-20T15:10:07.536Z</time></trkpt><trkpt lat="40.8682283" lon="14.23282"><ele>222.2857142857143</ele><time>2026-04-20T15:10:08.536Z</time></trkpt><trkpt lat="40.8682333" lon="14.2329233"><ele>222.14285714285714</ele><time>2026-04-20T15:10:09.534Z</time></trkpt><trkpt lat="40.8682317" lon="14.2330283"><ele>222.0</ele><time>2026-04-20T15:10:10.535Z</time></trkpt><trkpt lat="40.8682267" lon="14.2331317"><ele>221.85714285714286</ele><time>2026-04-20T15:10:11.535Z</time></trkpt><trkpt lat="40.8682233" lon="14.2332283"><ele>221.71428571428572</ele><time>2026-04-20T15:10:12.536Z</time></trkpt><trkpt lat="40.8682217" lon="14.2333217"><ele>221.57142857142858</ele><time>2026-04-20T15:10:13.536Z</time></trkpt><trkpt lat="40.8682217" lon="14.2334183"><ele>221.42857142857144</ele><time>2026-04-20T15:10:14.535Z</time></trkpt><trkpt lat="40.8682217" lon="14.2335183"><ele>221.28571428571428</ele><time>2026-04-20T15:10:15.534Z</time></trkpt><trkpt lat="40.8682167" lon="14.233615"><ele>221.14285714285717</ele><time>2026-04-20T15:10:16.536Z</time></trkpt><trkpt lat="40.8682117" lon="14.2337067"><ele>221.0</ele><time>2026-04-20T15:10:17.536Z</time></trkpt><trkpt lat="40.8682067" lon="14.233795"><ele>221.0</ele><time>2026-04-20T15:10:18.536Z</time></trkpt><trkpt lat="40.8682067" lon="14.23388"><ele>221.00000000000003</ele><time>2026-04-20T15:10:19.536Z</time></trkpt><trkpt lat="40.8682083" lon="14.2340133"><ele>221.00000000000003</ele><time>2026-04-20T15:10:21.535Z</time></trkpt><trkpt lat="40.868195" lon="14.23412"><ele>221.0</ele><time>2026-04-20T15:10:23.536Z</time></trkpt><trkpt lat="40.8682183" lon="14.2342483"><ele>221.0</ele><time>2026-04-20T15:10:25.535Z</time></trkpt><trkpt lat="40.8682867" lon="14.2343883"><ele>220.71428571428572</ele><time>2026-04-20T15:10:27.534Z</time></trkpt><trkpt lat="40.86832" lon="14.2344667"><ele>220.42857142857144</ele><time>2026-04-20T15:10:28.533Z</time></trkpt><trkpt lat="40.868355" lon="14.2345433"><ele>220.14285714285717</ele><time>2026-04-20T15:10:29.537Z</time></trkpt><trkpt lat="40.86839" lon="14.2346233"><ele>219.85714285714286</ele><time>2026-04-20T15:10:30.536Z</time></trkpt><trkpt lat="40.8684283" lon="14.2347033"><ele>219.57142857142856</ele><time>2026-04-20T15:10:31.536Z</time></trkpt><trkpt lat="40.8684733" lon="14.23478"><ele>219.2857142857143</ele><time>2026-04-20T15:10:32.536Z</time></trkpt><trkpt lat="40.8685167" lon="14.23486"><ele>219.0</ele><time>2026-04-20T15:10:33.536Z</time></trkpt><trkpt lat="40.868565" lon="14.23494"><ele>218.85714285714286</ele><time>2026-04-20T15:10:34.536Z</time></trkpt><trkpt lat="40.8686083" lon="14.2350267"><ele>218.7142857142857</ele><time>2026-04-20T15:10:35.536Z</time></trkpt><trkpt lat="40.8686483" lon="14.2351217"><ele>218.57142857142856</ele><time>2026-04-20T15:10:36.535Z</time></trkpt><trkpt lat="40.8686917" lon="14.2352067"><ele>218.42857142857144</ele><time>2026-04-20T15:10:37.536Z</time></trkpt><trkpt lat="40.8687367" lon="14.23528"><ele>218.28571428571428</ele><time>2026-04-20T15:10:38.536Z</time></trkpt><trkpt lat="40.8687817" lon="14.2353467"><ele>218.14285714285714</ele><time>2026-04-20T15:10:39.536Z</time></trkpt><trkpt lat="40.8688233" lon="14.23541"><ele>218.0</ele><time>2026-04-20T15:10:40.536Z</time></trkpt><trkpt lat="40.86886" lon="14.23548"><ele>218.0</ele><time>2026-04-20T15:10:41.536Z</time></trkpt><trkpt lat="40.8688967" lon="14.23555"><ele>218.0</ele><time>2026-04-20T15:10:42.535Z</time></trkpt><trkpt lat="40.8689317" lon="14.2356267"><ele>218.0</ele><time>2026-04-20T15:10:43.534Z</time></trkpt><trkpt lat="40.8689717" lon="14.2357067"><ele>218.0</ele><time>2026-04-20T15:10:44.536Z</time></trkpt><trkpt lat="40.8690017" lon="14.2358033"><ele>218.0</ele><time>2026-04-20T15:10:45.536Z</time></trkpt><trkpt lat="40.8690433" lon="14.2358867"><ele>218.0</ele><time>2026-04-20T15:10:46.535Z</time></trkpt><trkpt lat="40.8690917" lon="14.23597"><ele>218.0</ele><time>2026-04-20T15:10:47.537Z</time></trkpt><trkpt lat="40.869145" lon="14.2360483"><ele>216.83333333333334</ele><time>2026-04-20T15:10:48.536Z</time></trkpt><trkpt lat="40.8691967" lon="14.2361317"><ele>215.66666666666669</ele><time>2026-04-20T15:10:49.535Z</time></trkpt><trkpt lat="40.8692483" lon="14.2362133"><ele>214.5</ele><time>2026-04-20T15:10:50.535Z</time></trkpt><trkpt lat="40.8693017" lon="14.2363"><ele>213.33333333333331</ele><time>2026-04-20T15:10:51.535Z</time></trkpt><trkpt lat="40.8693533" lon="14.23639"><ele>212.16666666666666</ele><time>2026-04-20T15:10:52.533Z</time></trkpt><trkpt lat="40.86941" lon="14.2364883"><ele>211.0</ele><time>2026-04-20T15:10:53.535Z</time></trkpt><trkpt lat="40.8694717" lon="14.23658"><ele>209.99999999999997</ele><time>2026-04-20T15:10:54.535Z</time></trkpt><trkpt lat="40.8695267" lon="14.236685"><ele>209.0</ele><time>2026-04-20T15:10:55.536Z</time></trkpt><trkpt lat="40.8695833" lon="14.2367917"><ele>208.0</ele><time>2026-04-20T15:10:56.535Z</time></trkpt><trkpt lat="40.8696283" lon="14.2368883"><ele>207.0</ele><time>2026-04-20T15:10:57.536Z</time></trkpt><trkpt lat="40.8696717" lon="14.236965"><ele>205.99999999999997</ele><time>2026-04-20T15:10:58.535Z</time></trkpt><trkpt lat="40.8697133" lon="14.2370383"><ele>205.0</ele><time>2026-04-20T15:10:59.536Z</time></trkpt><trkpt lat="40.869755" lon="14.23711"><ele>205.0</ele><time>2026-04-20T15:11:00.536Z</time></trkpt><trkpt lat="40.8697933" lon="14.2371883"><ele>205.0</ele><time>2026-04-20T15:11:01.536Z</time></trkpt><trkpt lat="40.86984" lon="14.23727"><ele>205.0</ele><time>2026-04-20T15:11:02.536Z</time></trkpt><trkpt lat="40.869885" lon="14.2373483"><ele>205.0</ele><time>2026-04-20T15:11:03.535Z</time></trkpt><trkpt lat="40.86993" lon="14.2374333"><ele>205.0</ele><time>2026-04-20T15:11:04.535Z</time></trkpt><trkpt lat="40.86997" lon="14.2375167"><ele>205.0</ele><time>2026-04-20T15:11:05.535Z</time></trkpt><trkpt lat="40.8700083" lon="14.2375933"><ele>205.0</ele><time>2026-04-20T15:11:06.535Z</time></trkpt><trkpt lat="40.8700517" lon="14.2376583"><ele>203.8</ele><time>2026-04-20T15:11:07.538Z</time></trkpt><trkpt lat="40.8701317" lon="14.2377717"><ele>202.6</ele><time>2026-04-20T15:11:09.533Z</time></trkpt><trkpt lat="40.870185" lon="14.2379067"><ele>201.39999999999998</ele><time>2026-04-20T15:11:11.536Z</time></trkpt><trkpt lat="40.8702517" lon="14.2380467"><ele>200.2</ele><time>2026-04-20T15:11:13.537Z</time></trkpt><trkpt lat="40.87029" lon="14.2381233"><ele>199.0</ele><time>2026-04-20T15:11:14.535Z</time></trkpt><trkpt lat="40.8703317" lon="14.2381983"><ele>198.66666666666666</ele><time>2026-04-20T15:11:15.535Z</time></trkpt><trkpt lat="40.870375" lon="14.2382767"><ele>198.33333333333331</ele><time>2026-04-20T15:11:16.535Z</time></trkpt><trkpt lat="40.8704167" lon="14.2383517"><ele>198.0</ele><time>2026-04-20T15:11:17.536Z</time></trkpt><trkpt lat="40.8704567" lon="14.2384367"><ele>197.66666666666669</ele><time>2026-04-20T15:11:18.535Z</time></trkpt><trkpt lat="40.8704983" lon="14.2385267"><ele>197.33333333333334</ele><time>2026-04-20T15:11:19.536Z</time></trkpt><trkpt lat="40.87054" lon="14.23861"><ele>197.0</ele><time>2026-04-20T15:11:20.536Z</time></trkpt><trkpt lat="40.8705833" lon="14.2386967"><ele>197.00000000000003</ele><time>2026-04-20T15:11:21.535Z</time></trkpt><trkpt lat="40.8706267" lon="14.2387733"><ele>197.0</ele><time>2026-04-20T15:11:22.536Z</time></trkpt><trkpt lat="40.870665" lon="14.2388467"><ele>197.0</ele><time>2026-04-20T15:11:23.536Z</time></trkpt><trkpt lat="40.870705" lon="14.2389183"><ele>197.0</ele><time>2026-04-20T15:11:24.536Z</time></trkpt><trkpt lat="40.8707417" lon="14.2389867"><ele>197.00000000000003</ele><time>2026-04-20T15:11:25.535Z</time></trkpt><trkpt lat="40.870825" lon="14.2391133"><ele>197.0</ele><time>2026-04-20T15:11:27.535Z</time></trkpt><trkpt lat="40.8708683" lon="14.23918"><ele>196.33333333333334</ele><time>2026-04-20T15:11:28.535Z</time></trkpt><trkpt lat="40.8709083" lon="14.2392567"><ele>195.66666666666669</ele><time>2026-04-20T15:11:29.538Z</time></trkpt><trkpt lat="40.8709467" lon="14.239335"><ele>195.0</ele><time>2026-04-20T15:11:30.537Z</time></trkpt><trkpt lat="40.8709867" lon="14.2394133"><ele>194.33333333333331</ele><time>2026-04-20T15:11:31.539Z</time></trkpt><trkpt lat="40.87103" lon="14.2394933"><ele>193.66666666666666</ele><time>2026-04-20T15:11:32.536Z</time></trkpt><trkpt lat="40.8710633" lon="14.2395683"><ele>193.0</ele><time>2026-04-20T15:11:33.536Z</time></trkpt><trkpt lat="40.8711267" lon="14.2396983"><ele>191.0</ele><time>2026-04-20T15:11:35.537Z</time></trkpt><trkpt lat="40.8711867" lon="14.2398067"><ele>189.0</ele><time>2026-04-20T15:11:37.535Z</time></trkpt><trkpt lat="40.8712317" lon="14.23992"><ele>187.0</ele><time>2026-04-20T15:11:39.535Z</time></trkpt><trkpt lat="40.8712683" lon="14.240065"><ele>185.0</ele><time>2026-04-20T15:11:41.536Z</time></trkpt><trkpt lat="40.8712983" lon="14.240145"><ele>183.0</ele><time>2026-04-20T15:11:42.537Z</time></trkpt><trkpt lat="40.871325" lon="14.24023"><ele>183.0</ele><time>2026-04-20T15:11:43.535Z</time></trkpt><trkpt lat="40.8713567" lon="14.2403167"><ele>183.0</ele><time>2026-04-20T15:11:44.537Z</time></trkpt><trkpt lat="40.871395" lon="14.240405"><ele>183.0</ele><time>2026-04-20T15:11:45.533Z</time></trkpt><trkpt lat="40.8714217" lon="14.2404833"><ele>183.0</ele><time>2026-04-20T15:11:46.536Z</time></trkpt><trkpt lat="40.871455" lon="14.2405767"><ele>183.0</ele><time>2026-04-20T15:11:47.536Z</time></trkpt><trkpt lat="40.8714767" lon="14.2406783"><ele>183.0</ele><time>2026-04-20T15:11:48.536Z</time></trkpt><trkpt lat="40.8715017" lon="14.240785"><ele>182.5</ele><time>2026-04-20T15:11:49.536Z</time></trkpt><trkpt lat="40.8715267" lon="14.2408917"><ele>182.0</ele><time>2026-04-20T15:11:50.536Z</time></trkpt><trkpt lat="40.8715533" lon="14.2410033"><ele>181.5</ele><time>2026-04-20T15:11:51.535Z</time></trkpt><trkpt lat="40.8715767" lon="14.24112"><ele>181.0</ele><time>2026-04-20T15:11:52.536Z</time></trkpt><trkpt lat="40.8715983" lon="14.2412333"><ele>180.5</ele><time>2026-04-20T15:11:53.535Z</time></trkpt><trkpt lat="40.8716183" lon="14.2413483"><ele>180.0</ele><time>2026-04-20T15:11:54.535Z</time></trkpt><trkpt lat="40.8716183" lon="14.2414667"><ele>179.8</ele><time>2026-04-20T15:11:55.536Z</time></trkpt><trkpt lat="40.8716133" lon="14.2415817"><ele>179.6</ele><time>2026-04-20T15:11:56.535Z</time></trkpt><trkpt lat="40.8716133" lon="14.2417017"><ele>179.39999999999998</ele><time>2026-04-20T15:11:57.536Z</time></trkpt><trkpt lat="40.8716133" lon="14.2418183"><ele>179.2</ele><time>2026-04-20T15:11:58.537Z</time></trkpt><trkpt lat="40.8716067" lon="14.241945"><ele>179.0</ele><time>2026-04-20T15:11:59.536Z</time></trkpt><trkpt lat="40.8715867" lon="14.2420783"><ele>179.0</ele><time>2026-04-20T15:12:00.537Z</time></trkpt><trkpt lat="40.8715667" lon="14.2422067"><ele>179.0</ele><time>2026-04-20T15:12:01.535Z</time></trkpt><trkpt lat="40.87155" lon="14.2423333"><ele>179.0</ele><time>2026-04-20T15:12:02.535Z</time></trkpt><trkpt lat="40.871535" lon="14.2424533"><ele>179.0</ele><time>2026-04-20T15:12:03.535Z</time></trkpt><trkpt lat="40.8715167" lon="14.24257"><ele>179.0</ele><time>2026-04-20T15:12:04.537Z</time></trkpt><trkpt lat="40.8714933" lon="14.242685"><ele>179.0</ele><time>2026-04-20T15:12:05.536Z</time></trkpt><trkpt lat="40.871465" lon="14.2427983"><ele>179.0</ele><time>2026-04-20T15:12:06.536Z</time></trkpt><trkpt lat="40.8714333" lon="14.2429083"><ele>179.0</ele><time>2026-04-20T15:12:07.535Z</time></trkpt><trkpt lat="40.8714083" lon="14.2430267"><ele>179.0</ele><time>2026-04-20T15:12:08.553Z</time></trkpt><trkpt lat="40.871385" lon="14.2431383"><ele>179.0</ele><time>2026-04-20T15:12:09.533Z</time></trkpt><trkpt lat="40.8713583" lon="14.2432483"><ele>179.0</ele><time>2026-04-20T15:12:10.532Z</time></trkpt><trkpt lat="40.8713383" lon="14.2433583"><ele>178.85714285714286</ele><time>2026-04-20T15:12:11.532Z</time></trkpt><trkpt lat="40.871315" lon="14.2434633"><ele>178.71428571428572</ele><time>2026-04-20T15:12:12.532Z</time></trkpt><trkpt lat="40.8712967" lon="14.2435633"><ele>178.57142857142856</ele><time>2026-04-20T15:12:13.533Z</time></trkpt><trkpt lat="40.871265" lon="14.243645"><ele>178.42857142857144</ele><time>2026-04-20T15:12:14.536Z</time></trkpt><trkpt lat="40.871235" lon="14.24373"><ele>178.28571428571428</ele><time>2026-04-20T15:12:15.535Z</time></trkpt><trkpt lat="40.871205" lon="14.24381"><ele>178.14285714285714</ele><time>2026-04-20T15:12:16.534Z</time></trkpt><trkpt lat="40.8711767" lon="14.243885"><ele>178.0</ele><time>2026-04-20T15:12:17.534Z</time></trkpt><trkpt lat="40.8711333" lon="14.2440233"><ele>177.0</ele><time>2026-04-20T15:12:19.532Z</time></trkpt><trkpt lat="40.8710917" lon="14.2441567"><ele>176.0</ele><time>2026-04-20T15:12:21.532Z</time></trkpt><trkpt lat="40.8710483" lon="14.24429"><ele>175.0</ele><time>2026-04-20T15:12:23.533Z</time></trkpt><trkpt lat="40.8710017" lon="14.2444167"><ele>174.0</ele><time>2026-04-20T15:12:25.533Z</time></trkpt><trkpt lat="40.87097" lon="14.2445533"><ele>173.0</ele><time>2026-04-20T15:12:27.533Z</time></trkpt><trkpt lat="40.8709533" lon="14.2446817"><ele>173.0</ele><time>2026-04-20T15:12:29.532Z</time></trkpt><trkpt lat="40.8709217" lon="14.2447583"><ele>173.0</ele><time>2026-04-20T15:12:31.532Z</time></trkpt><trkpt lat="40.8708733" lon="14.24486"><ele>173.0</ele><time>2026-04-20T15:12:34.532Z</time></trkpt><trkpt lat="40.870835" lon="14.24494"><ele>173.0</ele><time>2026-04-20T15:12:36.533Z</time></trkpt><trkpt lat="40.8708067" lon="14.2450433"><ele>173.0</ele><time>2026-04-20T15:12:38.534Z</time></trkpt><trkpt lat="40.87077" lon="14.2451633"><ele>173.0</ele><time>2026-04-20T15:12:40.533Z</time></trkpt><trkpt lat="40.8707317" lon="14.245275"><ele>173.0</ele><time>2026-04-20T15:12:42.533Z</time></trkpt><trkpt lat="40.8706983" lon="14.24538"><ele>173.0</ele><time>2026-04-20T15:12:44.532Z</time></trkpt><trkpt lat="40.8706683" lon="14.2455183"><ele>173.0</ele><time>2026-04-20T15:12:46.534Z</time></trkpt><trkpt lat="40.8706267" lon="14.2456567"><ele>173.0</ele><time>2026-04-20T15:12:48.534Z</time></trkpt><trkpt lat="40.8705933" lon="14.2458033"><ele>173.0</ele><time>2026-04-20T15:12:50.533Z</time></trkpt><trkpt lat="40.8705433" lon="14.2459467"><ele>173.0</ele><time>2026-04-20T15:12:52.534Z</time></trkpt><trkpt lat="40.8705133" lon="14.2460217"><ele>173.0</ele><time>2026-04-20T15:12:53.536Z</time></trkpt><trkpt lat="40.870465" lon="14.246155"><ele>173.0</ele><time>2026-04-20T15:12:55.534Z</time></trkpt><trkpt lat="40.8704133" lon="14.24629"><ele>173.0</ele><time>2026-04-20T15:12:57.533Z</time></trkpt><trkpt lat="40.8703717" lon="14.2464183"><ele>173.0</ele><time>2026-04-20T15:12:59.534Z</time></trkpt><trkpt lat="40.8703367" lon="14.246525"><ele>172.0</ele><time>2026-04-20T15:13:01.534Z</time></trkpt><trkpt lat="40.8703033" lon="14.2466267"><ele>171.0</ele><time>2026-04-20T15:13:03.534Z</time></trkpt><trkpt lat="40.8702583" lon="14.2467467"><ele>170.0</ele><time>2026-04-20T15:13:05.534Z</time></trkpt><trkpt lat="40.87021" lon="14.24688"><ele>169.0</ele><time>2026-04-20T15:13:07.535Z</time></trkpt><trkpt lat="40.8701733" lon="14.2470183"><ele>168.0</ele><time>2026-04-20T15:13:09.532Z</time></trkpt><trkpt lat="40.8701517" lon="14.2470967"><ele>168.0</ele><time>2026-04-20T15:13:10.533Z</time></trkpt><trkpt lat="40.8701283" lon="14.2471833"><ele>168.0</ele><time>2026-04-20T15:13:11.535Z</time></trkpt><trkpt lat="40.870105" lon="14.24727"><ele>168.0</ele><time>2026-04-20T15:13:12.533Z</time></trkpt><trkpt lat="40.8700783" lon="14.2473667"><ele>168.0</ele><time>2026-04-20T15:13:13.534Z</time></trkpt><trkpt lat="40.8700483" lon="14.2474617"><ele>168.0</ele><time>2026-04-20T15:13:14.534Z</time></trkpt><trkpt lat="40.87002" lon="14.2475567"><ele>168.0</ele><time>2026-04-20T15:13:15.533Z</time></trkpt><trkpt lat="40.8699817" lon="14.2476433"><ele>168.0</ele><time>2026-04-20T15:13:16.534Z</time></trkpt><trkpt lat="40.8699367" lon="14.247715"><ele>167.16666666666666</ele><time>2026-04-20T15:13:17.534Z</time></trkpt><trkpt lat="40.869875" lon="14.2477633"><ele>166.33333333333334</ele><time>2026-04-20T15:13:18.534Z</time></trkpt><trkpt lat="40.8697717" lon="14.2478017"><ele>165.5</ele><time>2026-04-20T15:13:20.535Z</time></trkpt><trkpt lat="40.86968" lon="14.2477883"><ele>164.66666666666669</ele><time>2026-04-20T15:13:22.536Z</time></trkpt><trkpt lat="40.8696" lon="14.2478"><ele>163.83333333333334</ele><time>2026-04-20T15:13:24.533Z</time></trkpt><trkpt lat="40.8695633" lon="14.2478867"><ele>163.0</ele><time>2026-04-20T15:13:26.533Z</time></trkpt><trkpt lat="40.8695567" lon="14.2479717"><ele>163.0</ele><time>2026-04-20T15:13:28.535Z</time></trkpt><trkpt lat="40.8695517" lon="14.2480717"><ele>163.0</ele><time>2026-04-20T15:13:31.533Z</time></trkpt><trkpt lat="40.8695233" lon="14.2481617"><ele>163.0</ele><time>2026-04-20T15:13:34.533Z</time></trkpt><trkpt lat="40.8694817" lon="14.2482567"><ele>163.0</ele><time>2026-04-20T15:13:37.535Z</time></trkpt><trkpt lat="40.86945" lon="14.2483567"><ele>163.0</ele><time>2026-04-20T15:13:40.532Z</time></trkpt><trkpt lat="40.8694167" lon="14.2484417"><ele>163.0</ele><time>2026-04-20T15:13:44.533Z</time></trkpt><trkpt lat="40.86938" lon="14.2485417"><ele>162.5</ele><time>2026-04-20T15:13:47.534Z</time></trkpt><trkpt lat="40.8693783" lon="14.2486267"><ele>162.0</ele><time>2026-04-20T15:13:49.535Z</time></trkpt><trkpt lat="40.8694017" lon="14.248705"><ele>161.5</ele><time>2026-04-20T15:13:51.534Z</time></trkpt><trkpt lat="40.8694517" lon="14.24879"><ele>161.0</ele><time>2026-04-20T15:13:54.532Z</time></trkpt><trkpt lat="40.8695283" lon="14.2488767"><ele>160.5</ele><time>2026-04-20T15:13:58.534Z</time></trkpt><trkpt lat="40.8695867" lon="14.2489583"><ele>160.0</ele><time>2026-04-20T15:14:00.538Z</time></trkpt><trkpt lat="40.8696417" lon="14.2490417"><ele>159.66666666666669</ele><time>2026-04-20T15:14:02.533Z</time></trkpt><trkpt lat="40.8696983" lon="14.2491117"><ele>159.33333333333334</ele><time>2026-04-20T15:14:04.532Z</time></trkpt><trkpt lat="40.869745" lon="14.2492283"><ele>159.0</ele><time>2026-04-20T15:14:06.534Z</time></trkpt><trkpt lat="40.8697867" lon="14.249305"><ele>158.66666666666666</ele><time>2026-04-20T15:14:08.533Z</time></trkpt><trkpt lat="40.8697667" lon="14.2493933"><ele>158.33333333333331</ele><time>2026-04-20T15:14:14.532Z</time></trkpt><trkpt lat="40.8697133" lon="14.24947"><ele>158.0</ele><time>2026-04-20T15:14:17.534Z</time></trkpt><trkpt lat="40.8696767" lon="14.2495517"><ele>158.0</ele><time>2026-04-20T15:14:19.539Z</time></trkpt><trkpt lat="40.869645" lon="14.2496583"><ele>158.0</ele><time>2026-04-20T15:14:21.533Z</time></trkpt><trkpt lat="40.8696317" lon="14.249785"><ele>158.0</ele><time>2026-04-20T15:14:23.533Z</time></trkpt><trkpt lat="40.86963" lon="14.2499283"><ele>158.0</ele><time>2026-04-20T15:14:25.534Z</time></trkpt><trkpt lat="40.8696467" lon="14.2500683"><ele>158.0</ele><time>2026-04-20T15:14:27.532Z</time></trkpt><trkpt lat="40.86966" lon="14.2501667"><ele>157.66666666666666</ele><time>2026-04-20T15:14:30.533Z</time></trkpt><trkpt lat="40.86967" lon="14.25027"><ele>157.33333333333331</ele><time>2026-04-20T15:14:35.535Z</time></trkpt><trkpt lat="40.8696983" lon="14.2503467"><ele>157.0</ele><time>2026-04-20T15:14:37.534Z</time></trkpt><trkpt lat="40.8697133" lon="14.25043"><ele>156.66666666666666</ele><time>2026-04-20T15:14:39.534Z</time></trkpt><trkpt lat="40.8696533" lon="14.2505133"><ele>156.33333333333334</ele><time>2026-04-20T15:14:42.535Z</time></trkpt><trkpt lat="40.86958" lon="14.250545"><ele>156.0</ele><time>2026-04-20T15:14:44.534Z</time></trkpt><trkpt lat="40.8695017" lon="14.2505317"><ele>156.0</ele><time>2026-04-20T15:14:46.534Z</time></trkpt><trkpt lat="40.8694233" lon="14.2504783"><ele>156.0</ele><time>2026-04-20T15:14:48.536Z</time></trkpt><trkpt lat="40.8693417" lon="14.2503983"><ele>156.0</ele><time>2026-04-20T15:14:50.533Z</time></trkpt><trkpt lat="40.8692583" lon="14.2503083"><ele>156.0</ele><time>2026-04-20T15:14:52.533Z</time></trkpt><trkpt lat="40.8691667" lon="14.250235"><ele>156.0</ele><time>2026-04-20T15:14:54.535Z</time></trkpt><trkpt lat="40.8690617" lon="14.2501783"><ele>155.42857142857144</ele><time>2026-04-20T15:14:56.535Z</time></trkpt><trkpt lat="40.8689467" lon="14.2501333"><ele>154.85714285714283</ele><time>2026-04-20T15:14:58.534Z</time></trkpt><trkpt lat="40.8688817" lon="14.2501117"><ele>154.28571428571428</ele><time>2026-04-20T15:14:59.534Z</time></trkpt><trkpt lat="40.8688183" lon="14.2500983"><ele>153.71428571428572</ele><time>2026-04-20T15:15:00.535Z</time></trkpt><trkpt lat="40.8687517" lon="14.250095"><ele>153.14285714285717</ele><time>2026-04-20T15:15:01.534Z</time></trkpt><trkpt lat="40.8686883" lon="14.25009"><ele>152.57142857142856</ele><time>2026-04-20T15:15:02.534Z</time></trkpt><trkpt lat="40.8686217" lon="14.25009"><ele>152.0</ele><time>2026-04-20T15:15:03.534Z</time></trkpt><trkpt lat="40.8685567" lon="14.2501017"><ele>152.0</ele><time>2026-04-20T15:15:04.533Z</time></trkpt><trkpt lat="40.86845" lon="14.2501717"><ele>152.0</ele><time>2026-04-20T15:15:06.534Z</time></trkpt><trkpt lat="40.8683883" lon="14.2503"><ele>152.0</ele><time>2026-04-20T15:15:08.536Z</time></trkpt><trkpt lat="40.8683417" lon="14.2504167"><ele>152.0</ele><time>2026-04-20T15:15:10.536Z</time></trkpt><trkpt lat="40.8683017" lon="14.2505183"><ele>152.0</ele><time>2026-04-20T15:15:12.535Z</time></trkpt><trkpt lat="40.8682567" lon="14.2506633"><ele>152.83333333333331</ele><time>2026-04-20T15:15:14.54Z</time></trkpt><trkpt lat="40.868195" lon="14.2508217"><ele>153.66666666666666</ele><time>2026-04-20T15:15:16.533Z</time></trkpt><trkpt lat="40.86815" lon="14.250885"><ele>154.5</ele><time>2026-04-20T15:15:17.533Z</time></trkpt><trkpt lat="40.8680933" lon="14.2509333"><ele>155.33333333333334</ele><time>2026-04-20T15:15:18.533Z</time></trkpt><trkpt lat="40.86803" lon="14.2509717"><ele>156.16666666666669</ele><time>2026-04-20T15:15:19.532Z</time></trkpt><trkpt lat="40.8679617" lon="14.2510067"><ele>157.0</ele><time>2026-04-20T15:15:20.533Z</time></trkpt><trkpt lat="40.8678917" lon="14.251045"><ele>157.0</ele><time>2026-04-20T15:15:21.535Z</time></trkpt><trkpt lat="40.8678233" lon="14.2510833"><ele>157.0</ele><time>2026-04-20T15:15:22.534Z</time></trkpt><trkpt lat="40.867755" lon="14.251125"><ele>157.0</ele><time>2026-04-20T15:15:23.534Z</time></trkpt><trkpt lat="40.8676867" lon="14.251185"><ele>157.0</ele><time>2026-04-20T15:15:24.534Z</time></trkpt><trkpt lat="40.8676233" lon="14.2512583"><ele>157.0</ele><time>2026-04-20T15:15:25.533Z</time></trkpt><trkpt lat="40.8675683" lon="14.2513433"><ele>157.0</ele><time>2026-04-20T15:15:26.533Z</time></trkpt><trkpt lat="40.8675133" lon="14.2514117"><ele>155.66666666666669</ele><time>2026-04-20T15:15:27.532Z</time></trkpt><trkpt lat="40.8674467" lon="14.2514667"><ele>154.33333333333334</ele><time>2026-04-20T15:15:28.534Z</time></trkpt><trkpt lat="40.8673717" lon="14.2515017"><ele>153.0</ele><time>2026-04-20T15:15:29.533Z</time></trkpt><trkpt lat="40.8672917" lon="14.2515217"><ele>151.66666666666666</ele><time>2026-04-20T15:15:30.534Z</time></trkpt><trkpt lat="40.8672117" lon="14.2515317"><ele>150.33333333333331</ele><time>2026-04-20T15:15:31.536Z</time></trkpt><trkpt lat="40.867135" lon="14.25153"><ele>149.0</ele><time>2026-04-20T15:15:32.534Z</time></trkpt><trkpt lat="40.86706" lon="14.2515283"><ele>149.0</ele><time>2026-04-20T15:15:33.535Z</time></trkpt><trkpt lat="40.866985" lon="14.2515267"><ele>149.0</ele><time>2026-04-20T15:15:34.534Z</time></trkpt><trkpt lat="40.8669117" lon="14.25154"><ele>149.0</ele><time>2026-04-20T15:15:35.533Z</time></trkpt><trkpt lat="40.866845" lon="14.25157"><ele>149.0</ele><time>2026-04-20T15:15:36.533Z</time></trkpt><trkpt lat="40.8667883" lon="14.2516233"><ele>149.0</ele><time>2026-04-20T15:15:37.535Z</time></trkpt><trkpt lat="40.8667417" lon="14.2516883"><ele>149.0</ele><time>2026-04-20T15:15:38.535Z</time></trkpt><trkpt lat="40.86668" lon="14.2518"><ele>149.0</ele><time>2026-04-20T15:15:40.533Z</time></trkpt><trkpt lat="40.8666317" lon="14.251865"><ele>149.0</ele><time>2026-04-20T15:16:04.533Z</time></trkpt><trkpt lat="40.866575" lon="14.25192"><ele>149.0</ele><time>2026-04-20T15:16:07.536Z</time></trkpt><trkpt lat="40.866505" lon="14.2519933"><ele>149.0</ele><time>2026-04-20T15:16:10.536Z</time></trkpt><trkpt lat="40.8664267" lon="14.2520483"><ele>149.0</ele><time>2026-04-20T15:16:13.535Z</time></trkpt><trkpt lat="40.86635" lon="14.2520517"><ele>149.0</ele><time>2026-04-20T15:16:16.544Z</time></trkpt><trkpt lat="40.866265" lon="14.2520767"><ele>149.0</ele><time>2026-04-20T15:16:19.534Z</time></trkpt><trkpt lat="40.8662033" lon="14.2521"><ele>149.0</ele><time>2026-04-20T15:16:21.534Z</time></trkpt><trkpt lat="40.866125" lon="14.25211"><ele>149.0</ele><time>2026-04-20T15:16:24.534Z</time></trkpt><trkpt lat="40.86606" lon="14.25214"><ele>149.0</ele><time>2026-04-20T15:16:27.535Z</time></trkpt><trkpt lat="40.86601" lon="14.2522167"><ele>149.0</ele><time>2026-04-20T15:16:30.535Z</time></trkpt><trkpt lat="40.8660333" lon="14.252315"><ele>149.0</ele><time>2026-04-20T15:16:32.533Z</time></trkpt><trkpt lat="40.8660883" lon="14.25241"><ele>148.2</ele><time>2026-04-20T15:16:34.535Z</time></trkpt><trkpt lat="40.8661483" lon="14.252505"><ele>147.4</ele><time>2026-04-20T15:16:36.535Z</time></trkpt><trkpt lat="40.8662017" lon="14.2525983"><ele>146.6</ele><time>2026-04-20T15:16:38.533Z</time></trkpt><trkpt lat="40.8662667" lon="14.2527067"><ele>145.8</ele><time>2026-04-20T15:16:40.534Z</time></trkpt><trkpt lat="40.8663417" lon="14.2528317"><ele>145.0</ele><time>2026-04-20T15:16:42.534Z</time></trkpt><trkpt lat="40.86639" lon="14.252895"><ele>145.0</ele><time>2026-04-20T15:16:43.534Z</time></trkpt><trkpt lat="40.8664467" lon="14.2529533"><ele>145.0</ele><time>2026-04-20T15:16:44.534Z</time></trkpt><trkpt lat="40.8665133" lon="14.2530017"><ele>145.0</ele><time>2026-04-20T15:16:45.534Z</time></trkpt><trkpt lat="40.8665817" lon="14.2530467"><ele>145.0</ele><time>2026-04-20T15:16:46.534Z</time></trkpt><trkpt lat="40.8666567" lon="14.2530683"><ele>145.0</ele><time>2026-04-20T15:16:47.533Z</time></trkpt><trkpt lat="40.8667367" lon="14.2530883"><ele>145.0</ele><time>2026-04-20T15:16:48.534Z</time></trkpt><trkpt lat="40.8668167" lon="14.253105"><ele>145.16666666666669</ele><time>2026-04-20T15:16:49.534Z</time></trkpt><trkpt lat="40.8669" lon="14.2531167"><ele>145.33333333333334</ele><time>2026-04-20T15:16:50.533Z</time></trkpt><trkpt lat="40.8669817" lon="14.2531333"><ele>145.5</ele><time>2026-04-20T15:16:51.533Z</time></trkpt><trkpt lat="40.8670683" lon="14.253145"><ele>145.66666666666666</ele><time>2026-04-20T15:16:52.533Z</time></trkpt><trkpt lat="40.8671567" lon="14.25315"><ele>145.83333333333331</ele><time>2026-04-20T15:16:53.533Z</time></trkpt><trkpt lat="40.8672467" lon="14.2531567"><ele>146.0</ele><time>2026-04-20T15:16:54.533Z</time></trkpt><trkpt lat="40.8673333" lon="14.253165"><ele>146.0</ele><time>2026-04-20T15:16:55.534Z</time></trkpt><trkpt lat="40.8674217" lon="14.2531783"><ele>146.0</ele><time>2026-04-20T15:16:56.534Z</time></trkpt><trkpt lat="40.86751" lon="14.2531933"><ele>146.0</ele><time>2026-04-20T15:16:57.533Z</time></trkpt><trkpt lat="40.8675967" lon="14.2532183"><ele>146.0</ele><time>2026-04-20T15:16:58.534Z</time></trkpt><trkpt lat="40.86768" lon="14.2532583"><ele>146.0</ele><time>2026-04-20T15:16:59.535Z</time></trkpt><trkpt lat="40.867755" lon="14.2533233"><ele>146.0</ele><time>2026-04-20T15:17:00.535Z</time></trkpt><trkpt lat="40.8678217" lon="14.2534"><ele>146.0</ele><time>2026-04-20T15:17:01.534Z</time></trkpt><trkpt lat="40.8678633" lon="14.2535017"><ele>146.0</ele><time>2026-04-20T15:17:02.534Z</time></trkpt><trkpt lat="40.8678983" lon="14.2536133"><ele>146.0</ele><time>2026-04-20T15:17:03.535Z</time></trkpt><trkpt lat="40.867945" lon="14.2537183"><ele>146.0</ele><time>2026-04-20T15:17:04.533Z</time></trkpt><trkpt lat="40.868005" lon="14.2538133"><ele>146.0</ele><time>2026-04-20T15:17:05.535Z</time></trkpt><trkpt lat="40.8680767" lon="14.2538883"><ele>146.0</ele><time>2026-04-20T15:17:06.535Z</time></trkpt><trkpt lat="40.8681567" lon="14.2539433"><ele>146.0</ele><time>2026-04-20T15:17:07.535Z</time></trkpt><trkpt lat="40.8682433" lon="14.253975"><ele>146.0</ele><time>2026-04-20T15:17:08.533Z</time></trkpt><trkpt lat="40.8683317" lon="14.2539983"><ele>146.0</ele><time>2026-04-20T15:17:09.534Z</time></trkpt><trkpt lat="40.8684167" lon="14.25401"><ele>146.0</ele><time>2026-04-20T15:17:10.534Z</time></trkpt><trkpt lat="40.8684983" lon="14.2540283"><ele>146.0</ele><time>2026-04-20T15:17:11.533Z</time></trkpt><trkpt lat="40.8685783" lon="14.25405"><ele>145.0</ele><time>2026-04-20T15:17:12.534Z</time></trkpt><trkpt lat="40.868655" lon="14.2540867"><ele>144.0</ele><time>2026-04-20T15:17:13.534Z</time></trkpt><trkpt lat="40.868725" lon="14.25414"><ele>143.0</ele><time>2026-04-20T15:17:14.536Z</time></trkpt><trkpt lat="40.8687883" lon="14.254205"><ele>142.0</ele><time>2026-04-20T15:17:15.533Z</time></trkpt><trkpt lat="40.8688517" lon="14.2542733"><ele>141.0</ele><time>2026-04-20T15:17:16.535Z</time></trkpt><trkpt lat="40.8689083" lon="14.2543433"><ele>140.0</ele><time>2026-04-20T15:17:17.533Z</time></trkpt><trkpt lat="40.8689617" lon="14.2544133"><ele>140.0</ele><time>2026-04-20T15:17:18.534Z</time></trkpt><trkpt lat="40.8690183" lon="14.254475"><ele>140.0</ele><time>2026-04-20T15:17:19.534Z</time></trkpt><trkpt lat="40.8690783" lon="14.25454"><ele>140.0</ele><time>2026-04-20T15:17:20.535Z</time></trkpt><trkpt lat="40.86914" lon="14.2546"><ele>140.0</ele><time>2026-04-20T15:17:21.534Z</time></trkpt><trkpt lat="40.8692067" lon="14.254655"><ele>140.0</ele><time>2026-04-20T15:17:22.535Z</time></trkpt><trkpt lat="40.8692717" lon="14.2546983"><ele>140.0</ele><time>2026-04-20T15:17:23.536Z</time></trkpt><trkpt lat="40.86935" lon="14.2547367"><ele>141.0</ele><time>2026-04-20T15:17:24.534Z</time></trkpt><trkpt lat="40.8694317" lon="14.2547567"><ele>142.0</ele><time>2026-04-20T15:17:25.534Z</time></trkpt><trkpt lat="40.869515" lon="14.2547883"><ele>143.0</ele><time>2026-04-20T15:17:26.535Z</time></trkpt><trkpt lat="40.869595" lon="14.2548317"><ele>144.0</ele><time>2026-04-20T15:17:27.534Z</time></trkpt><trkpt lat="40.86967" lon="14.2548883"><ele>145.0</ele><time>2026-04-20T15:17:28.534Z</time></trkpt><trkpt lat="40.8697317" lon="14.2549583"><ele>146.0</ele><time>2026-04-20T15:17:29.534Z</time></trkpt><trkpt lat="40.86977" lon="14.2550467"><ele>143.4</ele><time>2026-04-20T15:17:30.534Z</time></trkpt><trkpt lat="40.869785" lon="14.25515"><ele>140.8</ele><time>2026-04-20T15:17:31.535Z</time></trkpt><trkpt lat="40.8697733" lon="14.2552633"><ele>138.20000000000002</ele><time>2026-04-20T15:17:32.534Z</time></trkpt><trkpt lat="40.8697267" lon="14.2553833"><ele>135.6</ele><time>2026-04-20T15:17:33.535Z</time></trkpt><trkpt lat="40.8696783" lon="14.2554917"><ele>133.0</ele><time>2026-04-20T15:17:34.534Z</time></trkpt><trkpt lat="40.8696417" lon="14.2555967"><ele>133.0</ele><time>2026-04-20T15:17:35.534Z</time></trkpt><trkpt lat="40.8696117" lon="14.2557017"><ele>133.0</ele><time>2026-04-20T15:17:36.533Z</time></trkpt><trkpt lat="40.8695883" lon="14.25581"><ele>133.0</ele><time>2026-04-20T15:17:37.534Z</time></trkpt><trkpt lat="40.8695783" lon="14.2559233"><ele>133.0</ele><time>2026-04-20T15:17:38.535Z</time></trkpt><trkpt lat="40.8695867" lon="14.256035"><ele>133.0</ele><time>2026-04-20T15:17:39.534Z</time></trkpt><trkpt lat="40.8696133" lon="14.256145"><ele>133.0</ele><time>2026-04-20T15:17:40.534Z</time></trkpt><trkpt lat="40.869655" lon="14.25624"><ele>133.0</ele><time>2026-04-20T15:17:41.536Z</time></trkpt><trkpt lat="40.8697067" lon="14.2563317"><ele>133.0</ele><time>2026-04-20T15:17:42.537Z</time></trkpt><trkpt lat="40.8697717" lon="14.2564133"><ele>133.0</ele><time>2026-04-20T15:17:43.534Z</time></trkpt><trkpt lat="40.869845" lon="14.2564817"><ele>133.0</ele><time>2026-04-20T15:17:44.533Z</time></trkpt><trkpt lat="40.86992" lon="14.2565467"><ele>133.0</ele><time>2026-04-20T15:17:45.533Z</time></trkpt><trkpt lat="40.87" lon="14.25661"><ele>133.0</ele><time>2026-04-20T15:17:46.536Z</time></trkpt><trkpt lat="40.8700867" lon="14.25667"><ele>133.20000000000002</ele><time>2026-04-20T15:17:47.534Z</time></trkpt><trkpt lat="40.8701667" lon="14.25674"><ele>133.4</ele><time>2026-04-20T15:17:48.534Z</time></trkpt><trkpt lat="40.8702333" lon="14.2568333"><ele>133.60000000000002</ele><time>2026-04-20T15:17:49.534Z</time></trkpt><trkpt lat="40.870285" lon="14.2569417"><ele>133.8</ele><time>2026-04-20T15:17:50.535Z</time></trkpt><trkpt lat="40.87031" lon="14.2570633"><ele>134.0</ele><time>2026-04-20T15:17:51.533Z</time></trkpt><trkpt lat="40.87031" lon="14.257195"><ele>132.4</ele><time>2026-04-20T15:17:52.534Z</time></trkpt><trkpt lat="40.8702933" lon="14.25732"><ele>130.8</ele><time>2026-04-20T15:17:53.534Z</time></trkpt><trkpt lat="40.8702617" lon="14.2574433"><ele>129.2</ele><time>2026-04-20T15:17:54.535Z</time></trkpt><trkpt lat="40.870225" lon="14.257565"><ele>127.6</ele><time>2026-04-20T15:17:55.534Z</time></trkpt><trkpt lat="40.870185" lon="14.25767"><ele>126.0</ele><time>2026-04-20T15:17:56.533Z</time></trkpt><trkpt lat="40.8701583" lon="14.25776"><ele>126.0</ele><time>2026-04-20T15:17:57.534Z</time></trkpt><trkpt lat="40.870155" lon="14.25789"><ele>126.0</ele><time>2026-04-20T15:17:59.535Z</time></trkpt><trkpt lat="40.870205" lon="14.2580117"><ele>126.0</ele><time>2026-04-20T15:18:01.534Z</time></trkpt><trkpt lat="40.8702917" lon="14.2581017"><ele>126.0</ele><time>2026-04-20T15:18:03.534Z</time></trkpt><trkpt lat="40.8704033" lon="14.2581583"><ele>126.0</ele><time>2026-04-20T15:18:05.535Z</time></trkpt><trkpt lat="40.8705183" lon="14.2581967"><ele>125.25</ele><time>2026-04-20T15:18:07.535Z</time></trkpt><trkpt lat="40.87064" lon="14.2582167"><ele>124.5</ele><time>2026-04-20T15:18:09.533Z</time></trkpt><trkpt lat="40.87076" lon="14.2582467"><ele>123.75</ele><time>2026-04-20T15:18:11.533Z</time></trkpt><trkpt lat="40.8708817" lon="14.2582833"><ele>123.0</ele><time>2026-04-20T15:18:13.534Z</time></trkpt><trkpt lat="40.8709783" lon="14.258365"><ele>123.0</ele><time>2026-04-20T15:18:15.533Z</time></trkpt><trkpt lat="40.8710767" lon="14.2584717"><ele>123.00000000000001</ele><time>2026-04-20T15:18:17.534Z</time></trkpt><trkpt lat="40.87113" lon="14.25852"><ele>123.00000000000001</ele><time>2026-04-20T15:18:18.533Z</time></trkpt><trkpt lat="40.8712217" lon="14.258585"><ele>123.0</ele><time>2026-04-20T15:18:20.534Z</time></trkpt><trkpt lat="40.8713333" lon="14.2586317"><ele>123.0</ele><time>2026-04-20T15:18:22.534Z</time></trkpt><trkpt lat="40.8714583" lon="14.2586783"><ele>123.00000000000001</ele><time>2026-04-20T15:18:24.536Z</time></trkpt><trkpt lat="40.87153" lon="14.2586883"><ele>123.0</ele><time>2026-04-20T15:18:25.534Z</time></trkpt><trkpt lat="40.8716017" lon="14.258695"><ele>123.00000000000001</ele><time>2026-04-20T15:18:26.533Z</time></trkpt><trkpt lat="40.871675" lon="14.2587033"><ele>123.00000000000001</ele><time>2026-04-20T15:18:27.533Z</time></trkpt><trkpt lat="40.8717467" lon="14.258715"><ele>123.0</ele><time>2026-04-20T15:18:28.535Z</time></trkpt><trkpt lat="40.87182" lon="14.2587383"><ele>123.00000000000001</ele><time>2026-04-20T15:18:29.535Z</time></trkpt><trkpt lat="40.8718933" lon="14.25877"><ele>123.00000000000001</ele><time>2026-04-20T15:18:30.534Z</time></trkpt><trkpt lat="40.871965" lon="14.2588117"><ele>123.33333333333333</ele><time>2026-04-20T15:18:31.534Z</time></trkpt><trkpt lat="40.8720383" lon="14.2588583"><ele>123.66666666666666</ele><time>2026-04-20T15:18:32.535Z</time></trkpt><trkpt lat="40.8721033" lon="14.2589183"><ele>124.0</ele><time>2026-04-20T15:18:33.533Z</time></trkpt><trkpt lat="40.87216" lon="14.2589867"><ele>124.33333333333333</ele><time>2026-04-20T15:18:34.535Z</time></trkpt><trkpt lat="40.8722117" lon="14.25905"><ele>124.66666666666666</ele><time>2026-04-20T15:18:35.535Z</time></trkpt><trkpt lat="40.8722667" lon="14.2591233"><ele>125.0</ele><time>2026-04-20T15:18:36.536Z</time></trkpt><trkpt lat="40.8723167" lon="14.2592"><ele>123.83333333333333</ele><time>2026-04-20T15:18:37.534Z</time></trkpt><trkpt lat="40.8723617" lon="14.2592817"><ele>122.66666666666666</ele><time>2026-04-20T15:18:38.535Z</time></trkpt><trkpt lat="40.87241" lon="14.2593717"><ele>121.5</ele><time>2026-04-20T15:18:39.534Z</time></trkpt><trkpt lat="40.87246" lon="14.259465"><ele>120.33333333333334</ele><time>2026-04-20T15:18:40.534Z</time></trkpt><trkpt lat="40.8725083" lon="14.259565"><ele>119.16666666666667</ele><time>2026-04-20T15:18:41.535Z</time></trkpt><trkpt lat="40.8725583" lon="14.259675"><ele>118.0</ele><time>2026-04-20T15:18:42.534Z</time></trkpt><trkpt lat="40.87261" lon="14.2597933"><ele>116.4</ele><time>2026-04-20T15:18:43.535Z</time></trkpt><trkpt lat="40.872655" lon="14.2599117"><ele>114.80000000000001</ele><time>2026-04-20T15:18:44.534Z</time></trkpt><trkpt lat="40.8726883" lon="14.2600433"><ele>113.2</ele><time>2026-04-20T15:18:45.533Z</time></trkpt><trkpt lat="40.8727067" lon="14.2601867"><ele>111.6</ele><time>2026-04-20T15:18:46.533Z</time></trkpt><trkpt lat="40.8727033" lon="14.2603317"><ele>110.0</ele><time>2026-04-20T15:18:47.534Z</time></trkpt><trkpt lat="40.8726783" lon="14.2604783"><ele>110.0</ele><time>2026-04-20T15:18:48.533Z</time></trkpt><trkpt lat="40.8726383" lon="14.260615"><ele>110.0</ele><time>2026-04-20T15:18:49.535Z</time></trkpt><trkpt lat="40.8725883" lon="14.260745"><ele>110.0</ele><time>2026-04-20T15:18:50.534Z</time></trkpt><trkpt lat="40.8725417" lon="14.2608633"><ele>110.0</ele><time>2026-04-20T15:18:51.533Z</time></trkpt><trkpt lat="40.8725017" lon="14.2609867"><ele>110.0</ele><time>2026-04-20T15:18:52.534Z</time></trkpt><trkpt lat="40.8724817" lon="14.261115"><ele>107.66666666666666</ele><time>2026-04-20T15:18:53.535Z</time></trkpt><trkpt lat="40.8724867" lon="14.2612317"><ele>105.33333333333333</ele><time>2026-04-20T15:18:54.534Z</time></trkpt><trkpt lat="40.872515" lon="14.2613417"><ele>103.0</ele><time>2026-04-20T15:18:55.537Z</time></trkpt><trkpt lat="40.8725683" lon="14.2614333"><ele>100.66666666666666</ele><time>2026-04-20T15:18:56.535Z</time></trkpt><trkpt lat="40.872645" lon="14.2615033"><ele>98.33333333333333</ele><time>2026-04-20T15:18:57.534Z</time></trkpt><trkpt lat="40.8727367" lon="14.2615183"><ele>96.0</ele><time>2026-04-20T15:18:58.535Z</time></trkpt><trkpt lat="40.8728283" lon="14.26151"><ele>96.0</ele><time>2026-04-20T15:18:59.536Z</time></trkpt><trkpt lat="40.872915" lon="14.2614717"><ele>96.0</ele><time>2026-04-20T15:19:00.535Z</time></trkpt><trkpt lat="40.8729867" lon="14.2613983"><ele>96.0</ele><time>2026-04-20T15:19:01.535Z</time></trkpt><trkpt lat="40.8730433" lon="14.2613017"><ele>96.0</ele><time>2026-04-20T15:19:02.533Z</time></trkpt><trkpt lat="40.8730967" lon="14.2612033"><ele>96.0</ele><time>2026-04-20T15:19:03.535Z</time></trkpt><trkpt lat="40.8731533" lon="14.2611033"><ele>96.0</ele><time>2026-04-20T15:19:04.534Z</time></trkpt><trkpt lat="40.87322" lon="14.2610133"><ele>96.0</ele><time>2026-04-20T15:19:05.535Z</time></trkpt><trkpt lat="40.8733" lon="14.2609367"><ele>96.0</ele><time>2026-04-20T15:19:06.535Z</time></trkpt><trkpt lat="40.8733767" lon="14.26087"><ele>96.0</ele><time>2026-04-20T15:19:07.535Z</time></trkpt><trkpt lat="40.8734483" lon="14.2608117"><ele>96.0</ele><time>2026-04-20T15:19:08.535Z</time></trkpt><trkpt lat="40.8735233" lon="14.2607683"><ele>96.66666666666667</ele><time>2026-04-20T15:19:09.536Z</time></trkpt><trkpt lat="40.8736" lon="14.260745"><ele>97.33333333333334</ele><time>2026-04-20T15:19:10.533Z</time></trkpt><trkpt lat="40.8736783" lon="14.2607417"><ele>98.0</ele><time>2026-04-20T15:19:11.535Z</time></trkpt><trkpt lat="40.873765" lon="14.2607583"><ele>98.66666666666667</ele><time>2026-04-20T15:19:12.535Z</time></trkpt><trkpt lat="40.8738233" lon="14.2608267"><ele>99.33333333333334</ele><time>2026-04-20T15:19:13.535Z</time></trkpt><trkpt lat="40.87389" lon="14.26096"><ele>100.0</ele><time>2026-04-20T15:19:15.534Z</time></trkpt><trkpt lat="40.873885" lon="14.2610667"><ele>100.0</ele><time>2026-04-20T15:19:16.536Z</time></trkpt><trkpt lat="40.8738567" lon="14.26121"><ele>100.0</ele><time>2026-04-20T15:19:17.536Z</time></trkpt><trkpt lat="40.8738217" lon="14.2613767"><ele>100.0</ele><time>2026-04-20T15:19:18.534Z</time></trkpt><trkpt lat="40.873805" lon="14.2615333"><ele>100.0</ele><time>2026-04-20T15:19:19.535Z</time></trkpt><trkpt lat="40.87382" lon="14.261655"><ele>98.50000000000001</ele><time>2026-04-20T15:19:20.534Z</time></trkpt><trkpt lat="40.8738533" lon="14.2617617"><ele>97.0</ele><time>2026-04-20T15:19:21.534Z</time></trkpt><trkpt lat="40.8739067" lon="14.2618633"><ele>95.5</ele><time>2026-04-20T15:19:22.537Z</time></trkpt><trkpt lat="40.8739683" lon="14.26195"><ele>94.0</ele><time>2026-04-20T15:19:23.535Z</time></trkpt><trkpt lat="40.8740267" lon="14.2620267"><ele>92.5</ele><time>2026-04-20T15:19:24.539Z</time></trkpt><trkpt lat="40.8740983" lon="14.2620983"><ele>91.0</ele><time>2026-04-20T15:19:25.534Z</time></trkpt><trkpt lat="40.8741733" lon="14.2621633"><ele>91.0</ele><time>2026-04-20T15:19:26.535Z</time></trkpt><trkpt lat="40.8742567" lon="14.2622217"><ele>91.0</ele><time>2026-04-20T15:19:27.533Z</time></trkpt><trkpt lat="40.8743367" lon="14.2622833"><ele>91.0</ele><time>2026-04-20T15:19:28.535Z</time></trkpt><trkpt lat="40.874415" lon="14.26235"><ele>91.0</ele><time>2026-04-20T15:19:29.534Z</time></trkpt><trkpt lat="40.8744833" lon="14.262425"><ele>91.0</ele><time>2026-04-20T15:19:30.534Z</time></trkpt><trkpt lat="40.8745383" lon="14.26251"><ele>86.83333333333333</ele><time>2026-04-20T15:19:31.536Z</time></trkpt><trkpt lat="40.874575" lon="14.2626033"><ele>82.66666666666666</ele><time>2026-04-20T15:19:32.535Z</time></trkpt><trkpt lat="40.8745983" lon="14.2627"><ele>78.5</ele><time>2026-04-20T15:19:33.534Z</time></trkpt><trkpt lat="40.8746083" lon="14.2628033"><ele>74.33333333333333</ele><time>2026-04-20T15:19:34.535Z</time></trkpt><trkpt lat="40.8746033" lon="14.2628867"><ele>70.16666666666667</ele><time>2026-04-20T15:19:35.535Z</time></trkpt><trkpt lat="40.87451" lon="14.262975"><ele>66.0</ele><time>2026-04-20T15:19:37.536Z</time></trkpt><trkpt lat="40.8743917" lon="14.2629583"><ele>66.0</ele><time>2026-04-20T15:19:39.533Z</time></trkpt><trkpt lat="40.8743333" lon="14.2629067"><ele>66.0</ele><time>2026-04-20T15:19:40.535Z</time></trkpt><trkpt lat="40.8742683" lon="14.2628317"><ele>66.0</ele><time>2026-04-20T15:19:41.535Z</time></trkpt><trkpt lat="40.8742117" lon="14.2627433"><ele>66.0</ele><time>2026-04-20T15:19:42.534Z</time></trkpt><trkpt lat="40.874155" lon="14.2626417"><ele>66.0</ele><time>2026-04-20T15:19:43.536Z</time></trkpt><trkpt lat="40.8741033" lon="14.262545"><ele>66.0</ele><time>2026-04-20T15:19:44.535Z</time></trkpt><trkpt lat="40.8740433" lon="14.2624417"><ele>67.39999999999999</ele><time>2026-04-20T15:19:45.533Z</time></trkpt><trkpt lat="40.8739883" lon="14.2623467"><ele>68.8</ele><time>2026-04-20T15:19:46.535Z</time></trkpt><trkpt lat="40.8739333" lon="14.262255"><ele>70.19999999999999</ele><time>2026-04-20T15:19:47.534Z</time></trkpt><trkpt lat="40.87386" lon="14.2621833"><ele>71.6</ele><time>2026-04-20T15:19:48.535Z</time></trkpt><trkpt lat="40.8737733" lon="14.2621317"><ele>73.0</ele><time>2026-04-20T15:19:49.536Z</time></trkpt><trkpt lat="40.8736733" lon="14.26208"><ele>72.5</ele><time>2026-04-20T15:19:50.534Z</time></trkpt><trkpt lat="40.8735783" lon="14.262055"><ele>72.0</ele><time>2026-04-20T15:19:51.533Z</time></trkpt><trkpt lat="40.8734867" lon="14.2620567"><ele>71.5</ele><time>2026-04-20T15:19:52.535Z</time></trkpt><trkpt lat="40.87342" lon="14.2620867"><ele>71.0</ele><time>2026-04-20T15:19:53.533Z</time></trkpt><trkpt lat="40.8733667" lon="14.2621367"><ele>70.5</ele><time>2026-04-20T15:19:54.537Z</time></trkpt><trkpt lat="40.8733333" lon="14.2622183"><ele>70.0</ele><time>2026-04-20T15:19:55.534Z</time></trkpt><trkpt lat="40.873315" lon="14.2623133"><ele>70.0</ele><time>2026-04-20T15:19:56.534Z</time></trkpt><trkpt lat="40.8733217" lon="14.2624183"><ele>70.0</ele><time>2026-04-20T15:19:57.533Z</time></trkpt><trkpt lat="40.8733433" lon="14.2625267"><ele>70.0</ele><time>2026-04-20T15:19:58.535Z</time></trkpt><trkpt lat="40.8733533" lon="14.2626283"><ele>70.0</ele><time>2026-04-20T15:19:59.535Z</time></trkpt><trkpt lat="40.8733517" lon="14.262735"><ele>70.0</ele><time>2026-04-20T15:20:00.534Z</time></trkpt><trkpt lat="40.873355" lon="14.2628583"><ele>70.0</ele><time>2026-04-20T15:20:01.535Z</time></trkpt><trkpt lat="40.8733383" lon="14.262975"><ele>70.0</ele><time>2026-04-20T15:20:02.534Z</time></trkpt><trkpt lat="40.87331" lon="14.2630867"><ele>70.0</ele><time>2026-04-20T15:20:03.534Z</time></trkpt><trkpt lat="40.873275" lon="14.263195"><ele>70.0</ele><time>2026-04-20T15:20:04.534Z</time></trkpt><trkpt lat="40.87323" lon="14.263285"><ele>70.0</ele><time>2026-04-20T15:20:05.534Z</time></trkpt><trkpt lat="40.873175" lon="14.263385"><ele>70.0</ele><time>2026-04-20T15:20:06.534Z</time></trkpt><trkpt lat="40.8731083" lon="14.2634833"><ele>69.2</ele><time>2026-04-20T15:20:07.535Z</time></trkpt><trkpt lat="40.8730417" lon="14.26357"><ele>68.4</ele><time>2026-04-20T15:20:08.534Z</time></trkpt><trkpt lat="40.8729783" lon="14.2636583"><ele>67.6</ele><time>2026-04-20T15:20:09.534Z</time></trkpt><trkpt lat="40.8729083" lon="14.2637367"><ele>66.8</ele><time>2026-04-20T15:20:10.534Z</time></trkpt><trkpt lat="40.8728367" lon="14.26382"><ele>66.0</ele><time>2026-04-20T15:20:11.533Z</time></trkpt><trkpt lat="40.872765" lon="14.2638883"><ele>66.0</ele><time>2026-04-20T15:20:12.534Z</time></trkpt><trkpt lat="40.8726817" lon="14.2639367"><ele>66.0</ele><time>2026-04-20T15:20:13.535Z</time></trkpt><trkpt lat="40.8725983" lon="14.2639783"><ele>66.0</ele><time>2026-04-20T15:20:14.534Z</time></trkpt><trkpt lat="40.8725067" lon="14.2640133"><ele>66.0</ele><time>2026-04-20T15:20:15.534Z</time></trkpt><trkpt lat="40.8724133" lon="14.2640167"><ele>66.0</ele><time>2026-04-20T15:20:16.535Z</time></trkpt><trkpt lat="40.87232" lon="14.2640017"><ele>66.39999999999999</ele><time>2026-04-20T15:20:17.534Z</time></trkpt><trkpt lat="40.87223" lon="14.263975"><ele>66.8</ele><time>2026-04-20T15:20:18.533Z</time></trkpt><trkpt lat="40.87214" lon="14.2639283"><ele>67.19999999999999</ele><time>2026-04-20T15:20:19.536Z</time></trkpt><trkpt lat="40.8720583" lon="14.2638717"><ele>67.6</ele><time>2026-04-20T15:20:20.535Z</time></trkpt><trkpt lat="40.871975" lon="14.26381"><ele>68.0</ele><time>2026-04-20T15:20:21.534Z</time></trkpt><trkpt lat="40.8718983" lon="14.2637367"><ele>68.0</ele><time>2026-04-20T15:20:22.534Z</time></trkpt><trkpt lat="40.871815" lon="14.26365"><ele>68.0</ele><time>2026-04-20T15:20:23.533Z</time></trkpt><trkpt lat="40.8717383" lon="14.263565"><ele>68.0</ele><time>2026-04-20T15:20:24.534Z</time></trkpt><trkpt lat="40.8716633" lon="14.2634817"><ele>68.0</ele><time>2026-04-20T15:20:25.534Z</time></trkpt><trkpt lat="40.8715917" lon="14.263405"><ele>68.0</ele><time>2026-04-20T15:20:26.534Z</time></trkpt><trkpt lat="40.87152" lon="14.263335"><ele>66.5</ele><time>2026-04-20T15:20:27.534Z</time></trkpt><trkpt lat="40.8714467" lon="14.2632817"><ele>65.0</ele><time>2026-04-20T15:20:28.533Z</time></trkpt><trkpt lat="40.8713667" lon="14.2632567"><ele>63.5</ele><time>2026-04-20T15:20:29.535Z</time></trkpt><trkpt lat="40.8712933" lon="14.2632583"><ele>62.0</ele><time>2026-04-20T15:20:30.534Z</time></trkpt><trkpt lat="40.8712217" lon="14.263305"><ele>60.50000000000001</ele><time>2026-04-20T15:20:31.535Z</time></trkpt><trkpt lat="40.871165" lon="14.2633583"><ele>59.0</ele><time>2026-04-20T15:20:32.533Z</time></trkpt><trkpt lat="40.87111" lon="14.26343"><ele>59.0</ele><time>2026-04-20T15:20:33.534Z</time></trkpt><trkpt lat="40.871075" lon="14.2635233"><ele>59.00000000000001</ele><time>2026-04-20T15:20:34.535Z</time></trkpt><trkpt lat="40.87106" lon="14.2636417"><ele>59.00000000000001</ele><time>2026-04-20T15:20:35.534Z</time></trkpt><trkpt lat="40.8710733" lon="14.263785"><ele>59.0</ele><time>2026-04-20T15:20:36.533Z</time></trkpt><trkpt lat="40.8711133" lon="14.2639433"><ele>59.0</ele><time>2026-04-20T15:20:37.539Z</time></trkpt><trkpt lat="40.87115" lon="14.264085"><ele>58.00000000000001</ele><time>2026-04-20T15:20:38.533Z</time></trkpt><trkpt lat="40.87119" lon="14.2641933"><ele>57.0</ele><time>2026-04-20T15:20:39.533Z</time></trkpt><trkpt lat="40.8712083" lon="14.2643333"><ele>56.0</ele><time>2026-04-20T15:20:40.535Z</time></trkpt><trkpt lat="40.8712367" lon="14.26443"><ele>55.0</ele><time>2026-04-20T15:20:41.534Z</time></trkpt><trkpt lat="40.8712717" lon="14.26452"><ele>54.00000000000001</ele><time>2026-04-20T15:20:42.536Z</time></trkpt><trkpt lat="40.8713183" lon="14.2646133"><ele>53.0</ele><time>2026-04-20T15:20:43.533Z</time></trkpt><trkpt lat="40.8713717" lon="14.2647017"><ele>51.4</ele><time>2026-04-20T15:20:44.535Z</time></trkpt><trkpt lat="40.871425" lon="14.2647933"><ele>49.8</ele><time>2026-04-20T15:20:45.534Z</time></trkpt><trkpt lat="40.871495" lon="14.2648717"><ele>48.2</ele><time>2026-04-20T15:20:46.534Z</time></trkpt><trkpt lat="40.8715767" lon="14.2649383"><ele>46.6</ele><time>2026-04-20T15:20:47.533Z</time></trkpt><trkpt lat="40.8716567" lon="14.2649917"><ele>45.0</ele><time>2026-04-20T15:20:48.535Z</time></trkpt><trkpt lat="40.8717433" lon="14.2650267"><ele>44.833333333333336</ele><time>2026-04-20T15:20:49.534Z</time></trkpt><trkpt lat="40.8718333" lon="14.2650467"><ele>44.666666666666664</ele><time>2026-04-20T15:20:50.534Z</time></trkpt><trkpt lat="40.8719217" lon="14.2650533"><ele>44.5</ele><time>2026-04-20T15:20:51.533Z</time></trkpt><trkpt lat="40.8720033" lon="14.2650467"><ele>44.33333333333333</ele><time>2026-04-20T15:20:52.535Z</time></trkpt><trkpt lat="40.8720867" lon="14.2650583"><ele>44.166666666666664</ele><time>2026-04-20T15:20:53.533Z</time></trkpt><trkpt lat="40.8721583" lon="14.26508"><ele>44.0</ele><time>2026-04-20T15:20:54.534Z</time></trkpt><trkpt lat="40.87222" lon="14.2651133"><ele>44.0</ele><time>2026-04-20T15:20:55.535Z</time></trkpt><trkpt lat="40.8723133" lon="14.2651767"><ele>44.0</ele><time>2026-04-20T15:20:57.534Z</time></trkpt><trkpt lat="40.8723567" lon="14.26527"><ele>44.0</ele><time>2026-04-20T15:20:59.534Z</time></trkpt><trkpt lat="40.872375" lon="14.26537"><ele>44.0</ele><time>2026-04-20T15:21:01.534Z</time></trkpt><trkpt lat="40.8723967" lon="14.2654517"><ele>44.0</ele><time>2026-04-20T15:21:03.534Z</time></trkpt><trkpt lat="40.87248" lon="14.265485"><ele>44.0</ele><time>2026-04-20T15:21:06.535Z</time></trkpt><trkpt lat="40.8725667" lon="14.2654483"><ele>44.6</ele><time>2026-04-20T15:21:08.534Z</time></trkpt><trkpt lat="40.8726567" lon="14.2653833"><ele>45.2</ele><time>2026-04-20T15:21:10.533Z</time></trkpt><trkpt lat="40.8727483" lon="14.2652933"><ele>45.800000000000004</ele><time>2026-04-20T15:21:12.533Z</time></trkpt><trkpt lat="40.8728367" lon="14.26521"><ele>46.400000000000006</ele><time>2026-04-20T15:21:14.533Z</time></trkpt><trkpt lat="40.8729317" lon="14.26513"><ele>47.0</ele><time>2026-04-20T15:21:16.534Z</time></trkpt><trkpt lat="40.8730133" lon="14.265075"><ele>47.0</ele><time>2026-04-20T15:21:18.534Z</time></trkpt><trkpt lat="40.873085" lon="14.2650383"><ele>47.0</ele><time>2026-04-20T15:21:20.533Z</time></trkpt><trkpt lat="40.8731633" lon="14.2649967"><ele>47.0</ele><time>2026-04-20T15:21:22.534Z</time></trkpt><trkpt lat="40.873255" lon="14.2649633"><ele>47.0</ele><time>2026-04-20T15:21:24.534Z</time></trkpt><trkpt lat="40.87336" lon="14.2649267"><ele>47.0</ele><time>2026-04-20T15:21:26.534Z</time></trkpt><trkpt lat="40.8734783" lon="14.2649017"><ele>46.857142857142854</ele><time>2026-04-20T15:21:28.533Z</time></trkpt><trkpt lat="40.8735433" lon="14.2648967"><ele>46.71428571428571</ele><time>2026-04-20T15:21:29.534Z</time></trkpt><trkpt lat="40.8736133" lon="14.2648883"><ele>46.57142857142857</ele><time>2026-04-20T15:21:30.533Z</time></trkpt><trkpt lat="40.8736817" lon="14.2648817"><ele>46.42857142857143</ele><time>2026-04-20T15:21:31.533Z</time></trkpt><trkpt lat="40.8737483" lon="14.26488"><ele>46.285714285714285</ele><time>2026-04-20T15:21:32.533Z</time></trkpt><trkpt lat="40.8738183" lon="14.264875"><ele>46.142857142857146</ele><time>2026-04-20T15:21:33.533Z</time></trkpt><trkpt lat="40.873885" lon="14.2648683"><ele>46.0</ele><time>2026-04-20T15:21:34.534Z</time></trkpt><trkpt lat="40.8739483" lon="14.2648567"><ele>46.0</ele><time>2026-04-20T15:21:35.533Z</time></trkpt><trkpt lat="40.8740117" lon="14.2648533"><ele>46.0</ele><time>2026-04-20T15:21:36.534Z</time></trkpt><trkpt lat="40.87408" lon="14.2648683"><ele>46.0</ele><time>2026-04-20T15:21:37.533Z</time></trkpt><trkpt lat="40.8741433" lon="14.26489"><ele>46.0</ele><time>2026-04-20T15:21:38.533Z</time></trkpt><trkpt lat="40.8742017" lon="14.264925"><ele>46.0</ele><time>2026-04-20T15:21:39.533Z</time></trkpt><trkpt lat="40.874295" lon="14.26499"><ele>46.0</ele><time>2026-04-20T15:21:41.534Z</time></trkpt><trkpt lat="40.874365" lon="14.2650517"><ele>46.16666666666667</ele><time>2026-04-20T15:21:43.534Z</time></trkpt><trkpt lat="40.8744167" lon="14.2651"><ele>46.333333333333336</ele><time>2026-04-20T15:21:45.533Z</time></trkpt><trkpt lat="40.8744683" lon="14.2651533"><ele>46.5</ele><time>2026-04-20T15:21:48.532Z</time></trkpt><trkpt lat="40.8745483" lon="14.2651967"><ele>46.666666666666664</ele><time>2026-04-20T15:21:53.533Z</time></trkpt><trkpt lat="40.8746333" lon="14.26523"><ele>46.83333333333333</ele><time>2026-04-20T15:21:56.534Z</time></trkpt><trkpt lat="40.874705" lon="14.265265"><ele>47.0</ele><time>2026-04-20T15:21:58.533Z</time></trkpt><trkpt lat="40.8747833" lon="14.265305"><ele>47.0</ele><time>2026-04-20T15:22:00.534Z</time></trkpt><trkpt lat="40.8748733" lon="14.2653483"><ele>47.0</ele><time>2026-04-20T15:22:02.533Z</time></trkpt><trkpt lat="40.8749583" lon="14.2653917"><ele>47.0</ele><time>2026-04-20T15:22:04.533Z</time></trkpt><trkpt lat="40.8750533" lon="14.2654383"><ele>47.0</ele><time>2026-04-20T15:22:06.534Z</time></trkpt><trkpt lat="40.8751383" lon="14.2654867"><ele>47.0</ele><time>2026-04-20T15:22:08.534Z</time></trkpt><trkpt lat="40.8752233" lon="14.26552"><ele>47.6</ele><time>2026-04-20T15:22:10.535Z</time></trkpt><trkpt lat="40.8753017" lon="14.265575"><ele>48.2</ele><time>2026-04-20T15:22:12.534Z</time></trkpt><trkpt lat="40.87539" lon="14.2656133"><ele>48.8</ele><time>2026-04-20T15:22:14.532Z</time></trkpt><trkpt lat="40.8754733" lon="14.2656383"><ele>49.4</ele><time>2026-04-20T15:22:16.533Z</time></trkpt><trkpt lat="40.8755667" lon="14.2656467"><ele>50.0</ele><time>2026-04-20T15:22:18.533Z</time></trkpt><trkpt lat="40.8756683" lon="14.26565"><ele>50.2</ele><time>2026-04-20T15:22:20.534Z</time></trkpt><trkpt lat="40.8757733" lon="14.2656517"><ele>50.4</ele><time>2026-04-20T15:22:22.534Z</time></trkpt><trkpt lat="40.8758717" lon="14.2656517"><ele>50.599999999999994</ele><time>2026-04-20T15:22:24.535Z</time></trkpt><trkpt lat="40.8759683" lon="14.2656467"><ele>50.8</ele><time>2026-04-20T15:22:26.533Z</time></trkpt><trkpt lat="40.8760633" lon="14.2656483"><ele>51.0</ele><time>2026-04-20T15:22:28.534Z</time></trkpt><trkpt lat="40.8761617" lon="14.2656333"><ele>51.0</ele><time>2026-04-20T15:22:30.533Z</time></trkpt><trkpt lat="40.8762617" lon="14.2656267"><ele>51.0</ele><time>2026-04-20T15:22:32.536Z</time></trkpt><trkpt lat="40.8763667" lon="14.265605"><ele>51.0</ele><time>2026-04-20T15:22:34.533Z</time></trkpt><trkpt lat="40.87647" lon="14.265575"><ele>51.0</ele><time>2026-04-20T15:22:36.533Z</time></trkpt><trkpt lat="40.8765817" lon="14.2655867"><ele>51.0</ele><time>2026-04-20T15:22:38.534Z</time></trkpt><trkpt lat="40.8766783" lon="14.2655983"><ele>51.5</ele><time>2026-04-20T15:22:40.533Z</time></trkpt><trkpt lat="40.8767867" lon="14.2656283"><ele>52.0</ele><time>2026-04-20T15:22:42.533Z</time></trkpt><trkpt lat="40.8768833" lon="14.2656817"><ele>52.5</ele><time>2026-04-20T15:22:44.534Z</time></trkpt><trkpt lat="40.8769967" lon="14.26574"><ele>53.0</ele><time>2026-04-20T15:22:46.534Z</time></trkpt><trkpt lat="40.8771133" lon="14.2657933"><ele>53.0</ele><time>2026-04-20T15:22:48.533Z</time></trkpt><trkpt lat="40.8772217" lon="14.2658417"><ele>53.0</ele><time>2026-04-20T15:22:50.534Z</time></trkpt><trkpt lat="40.87733" lon="14.26589"><ele>53.0</ele><time>2026-04-20T15:22:52.535Z</time></trkpt><trkpt lat="40.87739" lon="14.2659183"><ele>53.0</ele><time>2026-04-20T15:22:53.537Z</time></trkpt><trkpt lat="40.8774933" lon="14.2659767"><ele>53.0</ele><time>2026-04-20T15:22:55.535Z</time></trkpt><trkpt lat="40.8775967" lon="14.266035"><ele>54.599999999999994</ele><time>2026-04-20T15:22:57.535Z</time></trkpt><trkpt lat="40.8776933" lon="14.2661017"><ele>56.199999999999996</ele><time>2026-04-20T15:22:59.534Z</time></trkpt><trkpt lat="40.8777733" lon="14.266185"><ele>57.8</ele><time>2026-04-20T15:23:01.533Z</time></trkpt><trkpt lat="40.877835" lon="14.2662933"><ele>59.4</ele><time>2026-04-20T15:23:03.534Z</time></trkpt><trkpt lat="40.8778867" lon="14.2663933"><ele>61.0</ele><time>2026-04-20T15:23:05.534Z</time></trkpt><trkpt lat="40.8779333" lon="14.26649"><ele>61.49999999999999</ele><time>2026-04-20T15:23:07.534Z</time></trkpt><trkpt lat="40.8779767" lon="14.2665917"><ele>62.0</ele><time>2026-04-20T15:23:09.534Z</time></trkpt><trkpt lat="40.8780283" lon="14.2666883"><ele>62.5</ele><time>2026-04-20T15:23:11.534Z</time></trkpt><trkpt lat="40.87808" lon="14.2667867"><ele>63.0</ele><time>2026-04-20T15:23:13.535Z</time></trkpt><trkpt lat="40.8781317" lon="14.2668833"><ele>63.49999999999999</ele><time>2026-04-20T15:23:15.534Z</time></trkpt><trkpt lat="40.87818" lon="14.266985"><ele>64.0</ele><time>2026-04-20T15:23:17.534Z</time></trkpt><trkpt lat="40.8782333" lon="14.26708"><ele>63.99999999999999</ele><time>2026-04-20T15:23:19.534Z</time></trkpt><trkpt lat="40.87829" lon="14.2671717"><ele>64.0</ele><time>2026-04-20T15:23:21.534Z</time></trkpt><trkpt lat="40.87835" lon="14.26726"><ele>64.0</ele><time>2026-04-20T15:23:23.534Z</time></trkpt><trkpt lat="40.8784017" lon="14.2673583"><ele>64.0</ele><time>2026-04-20T15:23:25.535Z</time></trkpt><trkpt lat="40.8784567" lon="14.26746"><ele>63.99999999999999</ele><time>2026-04-20T15:23:27.535Z</time></trkpt><trkpt lat="40.8785117" lon="14.2675433"><ele>64.0</ele><time>2026-04-20T15:23:29.533Z</time></trkpt><trkpt lat="40.8785667" lon="14.2676167"><ele>65.2</ele><time>2026-04-20T15:23:31.535Z</time></trkpt><trkpt lat="40.8786383" lon="14.267675"><ele>66.4</ele><time>2026-04-20T15:23:33.534Z</time></trkpt><trkpt lat="40.87872" lon="14.2677217"><ele>67.6</ele><time>2026-04-20T15:23:35.535Z</time></trkpt><trkpt lat="40.8788167" lon="14.267745"><ele>68.8</ele><time>2026-04-20T15:23:37.534Z</time></trkpt><trkpt lat="40.878915" lon="14.2677533"><ele>70.0</ele><time>2026-04-20T15:23:39.533Z</time></trkpt><trkpt lat="40.87901" lon="14.2677183"><ele>70.0</ele><time>2026-04-20T15:23:41.534Z</time></trkpt><trkpt lat="40.8790967" lon="14.2676517"><ele>70.0</ele><time>2026-04-20T15:23:43.536Z</time></trkpt><trkpt lat="40.879175" lon="14.2675717"><ele>70.0</ele><time>2026-04-20T15:23:45.534Z</time></trkpt><trkpt lat="40.879245" lon="14.2674817"><ele>70.0</ele><time>2026-04-20T15:23:47.535Z</time></trkpt><trkpt lat="40.8793183" lon="14.2673933"><ele>70.0</ele><time>2026-04-20T15:23:49.535Z</time></trkpt><trkpt lat="40.8794" lon="14.267295"><ele>72.4</ele><time>2026-04-20T15:23:51.533Z</time></trkpt><trkpt lat="40.8794783" lon="14.2672083"><ele>74.8</ele><time>2026-04-20T15:23:53.534Z</time></trkpt><trkpt lat="40.87957" lon="14.267135"><ele>77.19999999999999</ele><time>2026-04-20T15:23:55.537Z</time></trkpt><trkpt lat="40.8796517" lon="14.2670767"><ele>79.6</ele><time>2026-04-20T15:23:57.534Z</time></trkpt><trkpt lat="40.879735" lon="14.26704"><ele>82.0</ele><time>2026-04-20T15:23:59.539Z</time></trkpt><trkpt lat="40.87982" lon="14.2670183"><ele>82.0</ele><time>2026-04-20T15:24:01.535Z</time></trkpt><trkpt lat="40.879915" lon="14.2670283"><ele>82.0</ele><time>2026-04-20T15:24:03.534Z</time></trkpt><trkpt lat="40.880015" lon="14.2670417"><ele>82.0</ele><time>2026-04-20T15:24:06.534Z</time></trkpt><trkpt lat="40.8800817" lon="14.2670917"><ele>82.0</ele><time>2026-04-20T15:24:08.536Z</time></trkpt><trkpt lat="40.8801433" lon="14.2671483"><ele>82.0</ele><time>2026-04-20T15:24:10.535Z</time></trkpt><trkpt lat="40.8802017" lon="14.2672067"><ele>82.0</ele><time>2026-04-20T15:24:12.535Z</time></trkpt><trkpt lat="40.880265" lon="14.2672767"><ele>80.5</ele><time>2026-04-20T15:24:14.536Z</time></trkpt><trkpt lat="40.880325" lon="14.2673483"><ele>79.0</ele><time>2026-04-20T15:24:16.535Z</time></trkpt><trkpt lat="40.88039" lon="14.2674167"><ele>77.5</ele><time>2026-04-20T15:24:18.537Z</time></trkpt><trkpt lat="40.880455" lon="14.267485"><ele>76.0</ele><time>2026-04-20T15:24:20.535Z</time></trkpt><trkpt lat="40.8805233" lon="14.2675533"><ele>74.5</ele><time>2026-04-20T15:24:22.537Z</time></trkpt><trkpt lat="40.8805867" lon="14.2676317"><ele>73.0</ele><time>2026-04-20T15:24:24.536Z</time></trkpt><trkpt lat="40.88065" lon="14.267705"><ele>73.0</ele><time>2026-04-20T15:24:26.535Z</time></trkpt><trkpt lat="40.88071" lon="14.2677733"><ele>73.0</ele><time>2026-04-20T15:24:28.535Z</time></trkpt><trkpt lat="40.8807617" lon="14.2678483"><ele>73.0</ele><time>2026-04-20T15:24:30.537Z</time></trkpt><trkpt lat="40.8808217" lon="14.2679217"><ele>73.0</ele><time>2026-04-20T15:24:32.535Z</time></trkpt><trkpt lat="40.880875" lon="14.267985"><ele>73.0</ele><time>2026-04-20T15:24:34.536Z</time></trkpt><trkpt lat="40.88092" lon="14.2680633"><ele>73.0</ele><time>2026-04-20T15:24:36.536Z</time></trkpt><trkpt lat="40.88098" lon="14.2681167"><ele>73.66666666666666</ele><time>2026-04-20T15:24:38.537Z</time></trkpt><trkpt lat="40.88105" lon="14.2681383"><ele>74.33333333333333</ele><time>2026-04-20T15:24:40.536Z</time></trkpt><trkpt lat="40.8811217" lon="14.2681383"><ele>75.0</ele><time>2026-04-20T15:24:42.537Z</time></trkpt><trkpt lat="40.8811883" lon="14.268105"><ele>75.66666666666667</ele><time>2026-04-20T15:24:44.535Z</time></trkpt><trkpt lat="40.8812533" lon="14.2680383"><ele>76.33333333333334</ele><time>2026-04-20T15:24:46.536Z</time></trkpt><trkpt lat="40.8813083" lon="14.26796"><ele>77.0</ele><time>2026-04-20T15:24:48.535Z</time></trkpt><trkpt lat="40.8813517" lon="14.26785"><ele>77.0</ele><time>2026-04-20T15:24:50.535Z</time></trkpt><trkpt lat="40.8813867" lon="14.267735"><ele>77.0</ele><time>2026-04-20T15:24:52.536Z</time></trkpt><trkpt lat="40.8814217" lon="14.2676283"><ele>77.0</ele><time>2026-04-20T15:24:54.535Z</time></trkpt><trkpt lat="40.8814533" lon="14.2675233"><ele>77.0</ele><time>2026-04-20T15:24:56.535Z</time></trkpt><trkpt lat="40.8814667" lon="14.2674317"><ele>77.0</ele><time>2026-04-20T15:24:58.534Z</time></trkpt><trkpt lat="40.88147" lon="14.267325"><ele>77.0</ele><time>2026-04-20T15:25:00.537Z</time></trkpt><trkpt lat="40.881465" lon="14.2672167"><ele>75.8</ele><time>2026-04-20T15:25:02.536Z</time></trkpt><trkpt lat="40.8814533" lon="14.2670917"><ele>74.6</ele><time>2026-04-20T15:25:04.536Z</time></trkpt><trkpt lat="40.8814433" lon="14.2669683"><ele>73.39999999999999</ele><time>2026-04-20T15:25:06.534Z</time></trkpt><trkpt lat="40.88144" lon="14.2668317"><ele>72.2</ele><time>2026-04-20T15:25:08.535Z</time></trkpt><trkpt lat="40.881435" lon="14.2667033"><ele>71.0</ele><time>2026-04-20T15:25:10.538Z</time></trkpt><trkpt lat="40.8814433" lon="14.2665783"><ele>71.0</ele><time>2026-04-20T15:25:12.536Z</time></trkpt><trkpt lat="40.8814567" lon="14.2664567"><ele>71.0</ele><time>2026-04-20T15:25:14.537Z</time></trkpt><trkpt lat="40.8814733" lon="14.2663233"><ele>71.0</ele><time>2026-04-20T15:25:16.537Z</time></trkpt><trkpt lat="40.8814867" lon="14.2661917"><ele>71.0</ele><time>2026-04-20T15:25:18.537Z</time></trkpt><trkpt lat="40.881495" lon="14.2660467"><ele>71.0</ele><time>2026-04-20T15:25:20.537Z</time></trkpt><trkpt lat="40.8815033" lon="14.2659017"><ele>71.39999999999999</ele><time>2026-04-20T15:25:22.537Z</time></trkpt><trkpt lat="40.8815117" lon="14.26576"><ele>71.8</ele><time>2026-04-20T15:25:24.537Z</time></trkpt><trkpt lat="40.88152" lon="14.2656117"><ele>72.19999999999999</ele><time>2026-04-20T15:25:26.537Z</time></trkpt><trkpt lat="40.8815483" lon="14.2654717"><ele>72.6</ele><time>2026-04-20T15:25:28.538Z</time></trkpt><trkpt lat="40.88159" lon="14.2653317"><ele>73.0</ele><time>2026-04-20T15:25:30.538Z</time></trkpt><trkpt lat="40.8816433" lon="14.2652017"><ele>73.0</ele><time>2026-04-20T15:25:32.536Z</time></trkpt><trkpt lat="40.88171" lon="14.2650833"><ele>73.0</ele><time>2026-04-20T15:25:34.538Z</time></trkpt><trkpt lat="40.8817833" lon="14.2649667"><ele>73.0</ele><time>2026-04-20T15:25:36.538Z</time></trkpt><trkpt lat="40.8818567" lon="14.264855"><ele>73.0</ele><time>2026-04-20T15:25:38.536Z</time></trkpt><trkpt lat="40.88194" lon="14.264755"><ele>73.0</ele><time>2026-04-20T15:25:40.538Z</time></trkpt><trkpt lat="40.8820317" lon="14.2646633"><ele>73.0</ele><time>2026-04-20T15:25:42.537Z</time></trkpt><trkpt lat="40.88213" lon="14.2645883"><ele>73.0</ele><time>2026-04-20T15:25:44.536Z</time></trkpt><trkpt lat="40.8822417" lon="14.26453"><ele>73.0</ele><time>2026-04-20T15:25:46.536Z</time></trkpt><trkpt lat="40.8823617" lon="14.2645167"><ele>73.0</ele><time>2026-04-20T15:25:48.537Z</time></trkpt><trkpt lat="40.882425" lon="14.264535"><ele>73.0</ele><time>2026-04-20T15:25:49.535Z</time></trkpt><trkpt lat="40.8824833" lon="14.2645667"><ele>73.0</ele><time>2026-04-20T15:25:50.536Z</time></trkpt><trkpt lat="40.88258" lon="14.26464"><ele>73.0</ele><time>2026-04-20T15:25:52.537Z</time></trkpt><trkpt lat="40.8826567" lon="14.2647417"><ele>73.0</ele><time>2026-04-20T15:25:54.535Z</time></trkpt><trkpt lat="40.8827083" lon="14.2648583"><ele>74.5</ele><time>2026-04-20T15:25:56.536Z</time></trkpt><trkpt lat="40.8827433" lon="14.2649767"><ele>76.0</ele><time>2026-04-20T15:25:58.536Z</time></trkpt><trkpt lat="40.8827583" lon="14.26508"><ele>77.5</ele><time>2026-04-20T15:26:00.536Z</time></trkpt><trkpt lat="40.8827683" lon="14.2651833"><ele>79.0</ele><time>2026-04-20T15:26:02.535Z</time></trkpt><trkpt lat="40.8827633" lon="14.2652883"><ele>80.5</ele><time>2026-04-20T15:26:04.534Z</time></trkpt><trkpt lat="40.8827333" lon="14.265385"><ele>82.0</ele><time>2026-04-20T15:26:06.535Z</time></trkpt><trkpt lat="40.8827033" lon="14.2654833"><ele>81.99999999999999</ele><time>2026-04-20T15:26:08.535Z</time></trkpt><trkpt lat="40.88267" lon="14.2655667"><ele>82.0</ele><time>2026-04-20T15:26:10.536Z</time></trkpt><trkpt lat="40.8826333" lon="14.2656467"><ele>82.0</ele><time>2026-04-20T15:26:12.537Z</time></trkpt><trkpt lat="40.8825933" lon="14.26572"><ele>82.0</ele><time>2026-04-20T15:26:14.535Z</time></trkpt><trkpt lat="40.8825583" lon="14.2657967"><ele>82.0</ele><time>2026-04-20T15:26:16.536Z</time></trkpt><trkpt lat="40.8825183" lon="14.26589"><ele>81.99999999999999</ele><time>2026-04-20T15:26:18.537Z</time></trkpt><trkpt lat="40.8824883" lon="14.26598"><ele>82.0</ele><time>2026-04-20T15:26:20.537Z</time></trkpt><trkpt lat="40.8824483" lon="14.2660633"><ele>82.16666666666666</ele><time>2026-04-20T15:26:22.537Z</time></trkpt><trkpt lat="40.8824117" lon="14.26615"><ele>82.33333333333333</ele><time>2026-04-20T15:26:24.538Z</time></trkpt><trkpt lat="40.88239" lon="14.266245"><ele>82.5</ele><time>2026-04-20T15:26:26.538Z</time></trkpt><trkpt lat="40.8823683" lon="14.266355"><ele>82.66666666666667</ele><time>2026-04-20T15:26:28.535Z</time></trkpt><trkpt lat="40.88235" lon="14.26646"><ele>82.83333333333334</ele><time>2026-04-20T15:26:30.536Z</time></trkpt><trkpt lat="40.8823367" lon="14.2665633"><ele>83.0</ele><time>2026-04-20T15:26:32.535Z</time></trkpt><trkpt lat="40.8823333" lon="14.26667"><ele>83.85714285714285</ele><time>2026-04-20T15:26:34.536Z</time></trkpt><trkpt lat="40.88233" lon="14.2667733"><ele>84.71428571428572</ele><time>2026-04-20T15:26:36.535Z</time></trkpt><trkpt lat="40.8823283" lon="14.26688"><ele>85.57142857142857</ele><time>2026-04-20T15:26:38.537Z</time></trkpt><trkpt lat="40.88234" lon="14.26698"><ele>86.42857142857142</ele><time>2026-04-20T15:26:40.536Z</time></trkpt><trkpt lat="40.8823567" lon="14.26707"><ele>87.28571428571428</ele><time>2026-04-20T15:26:42.536Z</time></trkpt><trkpt lat="40.8823733" lon="14.26716"><ele>88.14285714285714</ele><time>2026-04-20T15:26:44.535Z</time></trkpt><trkpt lat="40.8823933" lon="14.2672467"><ele>89.0</ele><time>2026-04-20T15:26:46.537Z</time></trkpt><trkpt lat="40.8824083" lon="14.26734"><ele>90.0</ele><time>2026-04-20T15:26:48.534Z</time></trkpt><trkpt lat="40.8824333" lon="14.2674433"><ele>91.0</ele><time>2026-04-20T15:26:50.535Z</time></trkpt><trkpt lat="40.8824683" lon="14.2675433"><ele>92.0</ele><time>2026-04-20T15:26:52.536Z</time></trkpt><trkpt lat="40.88252" lon="14.267635"><ele>93.0</ele><time>2026-04-20T15:26:54.536Z</time></trkpt><trkpt lat="40.8825667" lon="14.26772"><ele>94.0</ele><time>2026-04-20T15:26:56.535Z</time></trkpt><trkpt lat="40.8826083" lon="14.2678017"><ele>95.0</ele><time>2026-04-20T15:26:58.535Z</time></trkpt><trkpt lat="40.8826517" lon="14.2678883"><ele>95.16666666666667</ele><time>2026-04-20T15:27:00.536Z</time></trkpt><trkpt lat="40.882685" lon="14.2679967"><ele>95.33333333333334</ele><time>2026-04-20T15:27:02.536Z</time></trkpt><trkpt lat="40.8827283" lon="14.2680833"><ele>95.5</ele><time>2026-04-20T15:27:04.536Z</time></trkpt><trkpt lat="40.8827683" lon="14.2681733"><ele>95.66666666666667</ele><time>2026-04-20T15:27:06.536Z</time></trkpt><trkpt lat="40.882805" lon="14.268245"><ele>95.83333333333333</ele><time>2026-04-20T15:27:08.536Z</time></trkpt><trkpt lat="40.8828583" lon="14.2683317"><ele>96.0</ele><time>2026-04-20T15:27:11.536Z</time></trkpt><trkpt lat="40.8829033" lon="14.2684383"><ele>96.0</ele><time>2026-04-20T15:27:14.535Z</time></trkpt><trkpt lat="40.8829033" lon="14.2685567"><ele>96.0</ele><time>2026-04-20T15:27:17.535Z</time></trkpt><trkpt lat="40.8828567" lon="14.2686533"><ele>96.0</ele><time>2026-04-20T15:27:20.536Z</time></trkpt><trkpt lat="40.8828033" lon="14.268755"><ele>96.0</ele><time>2026-04-20T15:27:23.533Z</time></trkpt><trkpt lat="40.882775" lon="14.2688317"><ele>96.0</ele><time>2026-04-20T15:27:25.536Z</time></trkpt><trkpt lat="40.8827383" lon="14.2689167"><ele>96.0</ele><time>2026-04-20T15:27:27.532Z</time></trkpt><trkpt lat="40.8827067" lon="14.2689917"><ele>96.0</ele><time>2026-04-20T15:27:29.533Z</time></trkpt><trkpt lat="40.8826583" lon="14.2690633"><ele>96.0</ele><time>2026-04-20T15:27:31.533Z</time></trkpt><trkpt lat="40.8826167" lon="14.2691433"><ele>96.0</ele><time>2026-04-20T15:27:33.532Z</time></trkpt><trkpt lat="40.882555" lon="14.2692283"><ele>96.0</ele><time>2026-04-20T15:27:35.533Z</time></trkpt><trkpt lat="40.8824967" lon="14.2693133"><ele>96.0</ele><time>2026-04-20T15:27:37.532Z</time></trkpt><trkpt lat="40.8824583" lon="14.2693983"><ele>96.0</ele><time>2026-04-20T15:27:39.532Z</time></trkpt><trkpt lat="40.88241" lon="14.269485"><ele>96.0</ele><time>2026-04-20T15:27:41.533Z</time></trkpt><trkpt lat="40.88237" lon="14.2695867"><ele>96.0</ele><time>2026-04-20T15:27:43.534Z</time></trkpt><trkpt lat="40.8823233" lon="14.2696867"><ele>96.0</ele><time>2026-04-20T15:27:45.535Z</time></trkpt><trkpt lat="40.8822633" lon="14.2697767"><ele>96.0</ele><time>2026-04-20T15:27:47.533Z</time></trkpt><trkpt lat="40.882235" lon="14.2698983"><ele>96.0</ele><time>2026-04-20T15:27:49.534Z</time></trkpt><trkpt lat="40.882215" lon="14.2700017"><ele>96.0</ele><time>2026-04-20T15:27:51.534Z</time></trkpt><trkpt lat="40.8821917" lon="14.27013"><ele>95.8</ele><time>2026-04-20T15:27:53.534Z</time></trkpt><trkpt lat="40.882185" lon="14.2702633"><ele>95.6</ele><time>2026-04-20T15:27:55.535Z</time></trkpt><trkpt lat="40.8821783" lon="14.2703917"><ele>95.4</ele><time>2026-04-20T15:27:57.536Z</time></trkpt><trkpt lat="40.882165" lon="14.2705233"><ele>95.2</ele><time>2026-04-20T15:27:59.534Z</time></trkpt><trkpt lat="40.8821517" lon="14.27066"><ele>95.0</ele><time>2026-04-20T15:28:01.536Z</time></trkpt><trkpt lat="40.882145" lon="14.270785"><ele>94.8</ele><time>2026-04-20T15:28:03.534Z</time></trkpt><trkpt lat="40.8821667" lon="14.270915"><ele>94.6</ele><time>2026-04-20T15:28:05.535Z</time></trkpt><trkpt lat="40.8821817" lon="14.2710583"><ele>94.4</ele><time>2026-04-20T15:28:07.533Z</time></trkpt><trkpt lat="40.8821867" lon="14.2711933"><ele>94.2</ele><time>2026-04-20T15:28:09.536Z</time></trkpt><trkpt lat="40.88215" lon="14.27132"><ele>94.0</ele><time>2026-04-20T15:28:11.535Z</time></trkpt><trkpt lat="40.8821317" lon="14.2714217"><ele>93.6</ele><time>2026-04-20T15:28:13.535Z</time></trkpt><trkpt lat="40.882195" lon="14.27147"><ele>93.2</ele><time>2026-04-20T15:28:16.535Z</time></trkpt><trkpt lat="40.8821683" lon="14.2715583"><ele>92.8</ele><time>2026-04-20T15:28:20.534Z</time></trkpt><trkpt lat="40.8820917" lon="14.271615"><ele>92.39999999999999</ele><time>2026-04-20T15:28:22.533Z</time></trkpt><trkpt lat="40.88201" lon="14.2717133"><ele>92.0</ele><time>2026-04-20T15:28:24.541Z</time></trkpt><trkpt lat="40.8819433" lon="14.2718533"><ele>92.0</ele><time>2026-04-20T15:28:26.534Z</time></trkpt><trkpt lat="40.8819483" lon="14.2720067"><ele>92.0</ele><time>2026-04-20T15:28:28.535Z</time></trkpt><trkpt lat="40.88199" lon="14.2720783"><ele>92.0</ele><time>2026-04-20T15:28:29.535Z</time></trkpt><trkpt lat="40.88205" lon="14.2721333"><ele>92.0</ele><time>2026-04-20T15:28:30.537Z</time></trkpt><trkpt lat="40.8821133" lon="14.2721833"><ele>92.0</ele><time>2026-04-20T15:28:31.535Z</time></trkpt><trkpt lat="40.88218" lon="14.27224"><ele>92.0</ele><time>2026-04-20T15:28:32.535Z</time></trkpt><trkpt lat="40.8822467" lon="14.272305"><ele>92.16666666666667</ele><time>2026-04-20T15:28:33.534Z</time></trkpt><trkpt lat="40.8823183" lon="14.272365"><ele>92.33333333333334</ele><time>2026-04-20T15:28:34.537Z</time></trkpt><trkpt lat="40.8823967" lon="14.27242"><ele>92.5</ele><time>2026-04-20T15:28:35.535Z</time></trkpt><trkpt lat="40.882475" lon="14.27247"><ele>92.66666666666667</ele><time>2026-04-20T15:28:36.534Z</time></trkpt><trkpt lat="40.88255" lon="14.2725317"><ele>92.83333333333333</ele><time>2026-04-20T15:28:37.534Z</time></trkpt><trkpt lat="40.8826233" lon="14.2725967"><ele>93.0</ele><time>2026-04-20T15:28:38.533Z</time></trkpt><trkpt lat="40.8826967" lon="14.2726617"><ele>93.16666666666667</ele><time>2026-04-20T15:28:39.536Z</time></trkpt><trkpt lat="40.8827683" lon="14.2727283"><ele>93.33333333333333</ele><time>2026-04-20T15:28:40.535Z</time></trkpt><trkpt lat="40.8828433" lon="14.2727933"><ele>93.5</ele><time>2026-04-20T15:28:41.539Z</time></trkpt><trkpt lat="40.882915" lon="14.2728617"><ele>93.66666666666666</ele><time>2026-04-20T15:28:42.534Z</time></trkpt><trkpt lat="40.8829783" lon="14.27294"><ele>93.83333333333333</ele><time>2026-04-20T15:28:43.534Z</time></trkpt><trkpt lat="40.8830433" lon="14.2730267"><ele>94.0</ele><time>2026-04-20T15:28:44.534Z</time></trkpt><trkpt lat="40.8831117" lon="14.2731067"><ele>94.0</ele><time>2026-04-20T15:28:45.534Z</time></trkpt><trkpt lat="40.8831817" lon="14.273185"><ele>94.0</ele><time>2026-04-20T15:28:46.536Z</time></trkpt><trkpt lat="40.8832533" lon="14.27326"><ele>94.0</ele><time>2026-04-20T15:28:47.534Z</time></trkpt><trkpt lat="40.883325" lon="14.2733333"><ele>94.0</ele><time>2026-04-20T15:28:48.534Z</time></trkpt><trkpt lat="40.8833967" lon="14.2734067"><ele>94.0</ele><time>2026-04-20T15:28:49.535Z</time></trkpt><trkpt lat="40.8834683" lon="14.2734833"><ele>94.0</ele><time>2026-04-20T15:28:50.534Z</time></trkpt><trkpt lat="40.88354" lon="14.2735567"><ele>94.0</ele><time>2026-04-20T15:28:51.534Z</time></trkpt><trkpt lat="40.883615" lon="14.273625"><ele>94.0</ele><time>2026-04-20T15:28:52.535Z</time></trkpt><trkpt lat="40.88369" lon="14.273695"><ele>94.0</ele><time>2026-04-20T15:28:53.534Z</time></trkpt><trkpt lat="40.883765" lon="14.273765"><ele>94.0</ele><time>2026-04-20T15:28:54.534Z</time></trkpt><trkpt lat="40.88384" lon="14.2738367"><ele>94.0</ele><time>2026-04-20T15:28:55.536Z</time></trkpt><trkpt lat="40.8839167" lon="14.2739133"><ele>94.0</ele><time>2026-04-20T15:28:56.534Z</time></trkpt><trkpt lat="40.8839933" lon="14.2739917"><ele>94.0</ele><time>2026-04-20T15:28:57.534Z</time></trkpt><trkpt lat="40.8840717" lon="14.27407"><ele>94.0</ele><time>2026-04-20T15:28:58.534Z</time></trkpt><trkpt lat="40.8841517" lon="14.2741417"><ele>94.0</ele><time>2026-04-20T15:28:59.535Z</time></trkpt><trkpt lat="40.88423" lon="14.2742133"><ele>93.4</ele><time>2026-04-20T15:29:00.535Z</time></trkpt><trkpt lat="40.8843067" lon="14.27429"><ele>92.80000000000001</ele><time>2026-04-20T15:29:01.534Z</time></trkpt><trkpt lat="40.8843783" lon="14.2743733"><ele>92.19999999999999</ele><time>2026-04-20T15:29:02.535Z</time></trkpt><trkpt lat="40.8844533" lon="14.2744533"><ele>91.6</ele><time>2026-04-20T15:29:03.534Z</time></trkpt><trkpt lat="40.8845267" lon="14.2745317"><ele>91.0</ele><time>2026-04-20T15:29:04.535Z</time></trkpt><trkpt lat="40.8846033" lon="14.274605"><ele>91.0</ele><time>2026-04-20T15:29:05.535Z</time></trkpt><trkpt lat="40.88468" lon="14.2746783"><ele>91.0</ele><time>2026-04-20T15:29:06.535Z</time></trkpt><trkpt lat="40.8847583" lon="14.274755"><ele>91.0</ele><time>2026-04-20T15:29:07.534Z</time></trkpt><trkpt lat="40.8848317" lon="14.274835"><ele>91.0</ele><time>2026-04-20T15:29:08.534Z</time></trkpt><trkpt lat="40.8849033" lon="14.2749117"><ele>91.0</ele><time>2026-04-20T15:29:09.534Z</time></trkpt><trkpt lat="40.884975" lon="14.27499"><ele>91.16666666666666</ele><time>2026-04-20T15:29:10.534Z</time></trkpt><trkpt lat="40.8850433" lon="14.2750667"><ele>91.33333333333333</ele><time>2026-04-20T15:29:11.535Z</time></trkpt><trkpt lat="40.8851133" lon="14.2751383"><ele>91.5</ele><time>2026-04-20T15:29:12.535Z</time></trkpt><trkpt lat="40.885185" lon="14.27521"><ele>91.66666666666667</ele><time>2026-04-20T15:29:13.534Z</time></trkpt><trkpt lat="40.88526" lon="14.2752767"><ele>91.83333333333334</ele><time>2026-04-20T15:29:14.534Z</time></trkpt><trkpt lat="40.8853317" lon="14.2753433"><ele>92.0</ele><time>2026-04-20T15:29:15.534Z</time></trkpt><trkpt lat="40.8854033" lon="14.2754083"><ele>92.0</ele><time>2026-04-20T15:29:16.534Z</time></trkpt><trkpt lat="40.8854733" lon="14.2754767"><ele>92.0</ele><time>2026-04-20T15:29:17.533Z</time></trkpt><trkpt lat="40.8855483" lon="14.2755367"><ele>92.0</ele><time>2026-04-20T15:29:18.535Z</time></trkpt><trkpt lat="40.8856217" lon="14.2755967"><ele>92.0</ele><time>2026-04-20T15:29:19.535Z</time></trkpt><trkpt lat="40.8856917" lon="14.2756567"><ele>92.0</ele><time>2026-04-20T15:29:20.534Z</time></trkpt><trkpt lat="40.885765" lon="14.2757117"><ele>92.0</ele><time>2026-04-20T15:29:21.533Z</time></trkpt><trkpt lat="40.885835" lon="14.2757517"><ele>91.6</ele><time>2026-04-20T15:29:22.534Z</time></trkpt><trkpt lat="40.8859" lon="14.27578"><ele>91.19999999999999</ele><time>2026-04-20T15:29:23.533Z</time></trkpt><trkpt lat="40.8859633" lon="14.2757883"><ele>90.8</ele><time>2026-04-20T15:29:24.534Z</time></trkpt><trkpt lat="40.8860717" lon="14.2757733"><ele>90.4</ele><time>2026-04-20T15:29:26.535Z</time></trkpt><trkpt lat="40.88617" lon="14.275815"><ele>90.0</ele><time>2026-04-20T15:29:28.534Z</time></trkpt><trkpt lat="40.8862683" lon="14.2758883"><ele>90.0</ele><time>2026-04-20T15:29:30.533Z</time></trkpt><trkpt lat="40.8863617" lon="14.2759717"><ele>90.0</ele><time>2026-04-20T15:29:32.533Z</time></trkpt><trkpt lat="40.8864533" lon="14.27606"><ele>90.0</ele><time>2026-04-20T15:29:34.535Z</time></trkpt><trkpt lat="40.8865633" lon="14.2761467"><ele>90.0</ele><time>2026-04-20T15:29:36.534Z</time></trkpt><trkpt lat="40.88662" lon="14.2761933"><ele>90.0</ele><time>2026-04-20T15:29:37.534Z</time></trkpt><trkpt lat="40.8866783" lon="14.2762367"><ele>90.0</ele><time>2026-04-20T15:29:38.534Z</time></trkpt><trkpt lat="40.8867367" lon="14.2762817"><ele>90.0</ele><time>2026-04-20T15:29:39.534Z</time></trkpt><trkpt lat="40.8867917" lon="14.2763267"><ele>90.0</ele><time>2026-04-20T15:29:40.534Z</time></trkpt><trkpt lat="40.886845" lon="14.2763733"><ele>90.0</ele><time>2026-04-20T15:29:41.534Z</time></trkpt><trkpt lat="40.8869017" lon="14.276415"><ele>90.0</ele><time>2026-04-20T15:29:42.534Z</time></trkpt><trkpt lat="40.8870117" lon="14.2764833"><ele>90.0</ele><time>2026-04-20T15:29:44.534Z</time></trkpt><trkpt lat="40.8871133" lon="14.2765483"><ele>89.8</ele><time>2026-04-20T15:29:46.535Z</time></trkpt><trkpt lat="40.8872017" lon="14.27662"><ele>89.6</ele><time>2026-04-20T15:29:48.535Z</time></trkpt><trkpt lat="40.8872917" lon="14.2766883"><ele>89.4</ele><time>2026-04-20T15:29:50.534Z</time></trkpt><trkpt lat="40.88737" lon="14.2767467"><ele>89.2</ele><time>2026-04-20T15:29:52.535Z</time></trkpt><trkpt lat="40.8874533" lon="14.276805"><ele>89.0</ele><time>2026-04-20T15:29:54.535Z</time></trkpt><trkpt lat="40.88756" lon="14.2768767"><ele>89.14285714285714</ele><time>2026-04-20T15:29:56.534Z</time></trkpt><trkpt lat="40.8876167" lon="14.276915"><ele>89.28571428571428</ele><time>2026-04-20T15:29:57.534Z</time></trkpt><trkpt lat="40.88768" lon="14.2769517"><ele>89.42857142857142</ele><time>2026-04-20T15:29:58.537Z</time></trkpt><trkpt lat="40.8877483" lon="14.2769883"><ele>89.57142857142857</ele><time>2026-04-20T15:29:59.533Z</time></trkpt><trkpt lat="40.8878167" lon="14.2770317"><ele>89.71428571428572</ele><time>2026-04-20T15:30:00.535Z</time></trkpt><trkpt lat="40.8878867" lon="14.2770817"><ele>89.85714285714285</ele><time>2026-04-20T15:30:01.534Z</time></trkpt><trkpt lat="40.8879617" lon="14.2771317"><ele>90.0</ele><time>2026-04-20T15:30:02.533Z</time></trkpt><trkpt lat="40.8880333" lon="14.2771783"><ele>90.0</ele><time>2026-04-20T15:30:03.536Z</time></trkpt><trkpt lat="40.8881017" lon="14.277225"><ele>90.0</ele><time>2026-04-20T15:30:04.533Z</time></trkpt><trkpt lat="40.8881633" lon="14.277275"><ele>90.0</ele><time>2026-04-20T15:30:05.534Z</time></trkpt><trkpt lat="40.888225" lon="14.2773233"><ele>90.0</ele><time>2026-04-20T15:30:06.533Z</time></trkpt><trkpt lat="40.888285" lon="14.2773717"><ele>90.0</ele><time>2026-04-20T15:30:07.534Z</time></trkpt><trkpt lat="40.8883767" lon="14.277455"><ele>90.0</ele><time>2026-04-20T15:30:09.533Z</time></trkpt><trkpt lat="40.888455" lon="14.2775333"><ele>90.0</ele><time>2026-04-20T15:30:11.534Z</time></trkpt><trkpt lat="40.8885383" lon="14.2776217"><ele>90.0</ele><time>2026-04-20T15:30:13.533Z</time></trkpt><trkpt lat="40.8885933" lon="14.277665"><ele>90.0</ele><time>2026-04-20T15:30:14.534Z</time></trkpt><trkpt lat="40.8886517" lon="14.2777117"><ele>90.0</ele><time>2026-04-20T15:30:15.534Z</time></trkpt><trkpt lat="40.88871" lon="14.2777567"><ele>90.0</ele><time>2026-04-20T15:30:16.534Z</time></trkpt><trkpt lat="40.88877" lon="14.277795"><ele>90.0</ele><time>2026-04-20T15:30:17.533Z</time></trkpt><trkpt lat="40.8888267" lon="14.27784"><ele>90.0</ele><time>2026-04-20T15:30:18.533Z</time></trkpt><trkpt lat="40.8889217" lon="14.2779183"><ele>90.0</ele><time>2026-04-20T15:30:20.533Z</time></trkpt><trkpt lat="40.8889867" lon="14.2779533"><ele>90.0</ele><time>2026-04-20T15:30:23.533Z</time></trkpt><trkpt lat="40.88906" lon="14.2779433"><ele>90.0</ele><time>2026-04-20T15:30:27.532Z</time></trkpt><trkpt lat="40.889145" lon="14.277985"><ele>90.0</ele><time>2026-04-20T15:30:30.533Z</time></trkpt><trkpt lat="40.8892217" lon="14.2780367"><ele>90.0</ele><time>2026-04-20T15:30:32.534Z</time></trkpt><trkpt lat="40.8893317" lon="14.2780817"><ele>90.0</ele><time>2026-04-20T15:30:34.533Z</time></trkpt><trkpt lat="40.8893933" lon="14.2781017"><ele>89.66666666666667</ele><time>2026-04-20T15:30:35.533Z</time></trkpt><trkpt lat="40.8894633" lon="14.2781133"><ele>89.33333333333333</ele><time>2026-04-20T15:30:36.533Z</time></trkpt><trkpt lat="40.8895333" lon="14.2781367"><ele>89.0</ele><time>2026-04-20T15:30:37.534Z</time></trkpt><trkpt lat="40.889605" lon="14.2781633"><ele>88.66666666666666</ele><time>2026-04-20T15:30:38.533Z</time></trkpt><trkpt lat="40.889675" lon="14.278195"><ele>88.33333333333333</ele><time>2026-04-20T15:30:39.533Z</time></trkpt><trkpt lat="40.8897533" lon="14.27823"><ele>88.0</ele><time>2026-04-20T15:30:40.533Z</time></trkpt><trkpt lat="40.88984" lon="14.2782567"><ele>88.0</ele><time>2026-04-20T15:30:41.534Z</time></trkpt><trkpt lat="40.8899267" lon="14.27829"><ele>88.0</ele><time>2026-04-20T15:30:42.534Z</time></trkpt><trkpt lat="40.890015" lon="14.2783233"><ele>88.0</ele><time>2026-04-20T15:30:43.533Z</time></trkpt><trkpt lat="40.8900983" lon="14.2783617"><ele>88.0</ele><time>2026-04-20T15:30:44.534Z</time></trkpt><trkpt lat="40.89018" lon="14.278405"><ele>88.0</ele><time>2026-04-20T15:30:45.533Z</time></trkpt><trkpt lat="40.8902567" lon="14.2784417"><ele>88.0</ele><time>2026-04-20T15:30:46.534Z</time></trkpt><trkpt lat="40.8903367" lon="14.2784833"><ele>88.83333333333333</ele><time>2026-04-20T15:30:47.533Z</time></trkpt><trkpt lat="40.8904117" lon="14.27852"><ele>89.66666666666666</ele><time>2026-04-20T15:30:48.534Z</time></trkpt><trkpt lat="40.8904817" lon="14.27856"><ele>90.5</ele><time>2026-04-20T15:30:49.533Z</time></trkpt><trkpt lat="40.8905517" lon="14.2785933"><ele>91.33333333333333</ele><time>2026-04-20T15:30:50.533Z</time></trkpt><trkpt lat="40.8906217" lon="14.278625"><ele>92.16666666666667</ele><time>2026-04-20T15:30:51.533Z</time></trkpt><trkpt lat="40.890685" lon="14.2786483"><ele>93.0</ele><time>2026-04-20T15:30:52.534Z</time></trkpt><trkpt lat="40.89078" lon="14.278705"><ele>93.0</ele><time>2026-04-20T15:30:54.533Z</time></trkpt><trkpt lat="40.8908583" lon="14.2787633"><ele>93.0</ele><time>2026-04-20T15:30:56.533Z</time></trkpt><trkpt lat="40.8909333" lon="14.2788117"><ele>93.0</ele><time>2026-04-20T15:30:58.533Z</time></trkpt><trkpt lat="40.8910067" lon="14.27885"><ele>93.0</ele><time>2026-04-20T15:31:00.536Z</time></trkpt><trkpt lat="40.891095" lon="14.278895"><ele>93.0</ele><time>2026-04-20T15:31:03.532Z</time></trkpt><trkpt lat="40.8911733" lon="14.2789233"><ele>93.0</ele><time>2026-04-20T15:31:05.536Z</time></trkpt><trkpt lat="40.89126" lon="14.2789467"><ele>92.5</ele><time>2026-04-20T15:31:07.533Z</time></trkpt><trkpt lat="40.891355" lon="14.278985"><ele>92.0</ele><time>2026-04-20T15:31:09.533Z</time></trkpt><trkpt lat="40.89147" lon="14.2790483"><ele>91.5</ele><time>2026-04-20T15:31:11.533Z</time></trkpt><trkpt lat="40.8915283" lon="14.2790833"><ele>91.0</ele><time>2026-04-20T15:31:12.533Z</time></trkpt><trkpt lat="40.8915883" lon="14.279115"><ele>90.5</ele><time>2026-04-20T15:31:13.533Z</time></trkpt><trkpt lat="40.89165" lon="14.2791467"><ele>90.0</ele><time>2026-04-20T15:31:14.533Z</time></trkpt><trkpt lat="40.8917483" lon="14.279225"><ele>90.0</ele><time>2026-04-20T15:31:16.534Z</time></trkpt><trkpt lat="40.8918167" lon="14.2792783"><ele>90.0</ele><time>2026-04-20T15:31:18.533Z</time></trkpt><trkpt lat="40.8917483" lon="14.2793883"><ele>90.0</ele><time>2026-04-20T15:31:22.533Z</time></trkpt><trkpt lat="40.8916517" lon="14.2794817"><ele>90.0</ele><time>2026-04-20T15:31:24.534Z</time></trkpt><trkpt lat="40.8915967" lon="14.2795383"><ele>90.0</ele><time>2026-04-20T15:31:25.532Z</time></trkpt><trkpt lat="40.8915383" lon="14.279595"><ele>90.0</ele><time>2026-04-20T15:31:26.533Z</time></trkpt><trkpt lat="40.8914833" lon="14.2796517"><ele>90.0</ele><time>2026-04-20T15:31:27.533Z</time></trkpt><trkpt lat="40.8914267" lon="14.27971"><ele>90.0</ele><time>2026-04-20T15:31:28.533Z</time></trkpt><trkpt lat="40.891365" lon="14.2797733"><ele>90.0</ele><time>2026-04-20T15:31:29.533Z</time></trkpt><trkpt lat="40.8912983" lon="14.279835"><ele>90.0</ele><time>2026-04-20T15:31:30.533Z</time></trkpt><trkpt lat="40.891235" lon="14.27989"><ele>90.0</ele><time>2026-04-20T15:31:31.533Z</time></trkpt><trkpt lat="40.89117" lon="14.279945"><ele>90.0</ele><time>2026-04-20T15:31:32.531Z</time></trkpt><trkpt lat="40.8911067" lon="14.28"><ele>89.57142857142857</ele><time>2026-04-20T15:31:33.533Z</time></trkpt><trkpt lat="40.89105" lon="14.2800517"><ele>89.14285714285715</ele><time>2026-04-20T15:31:34.533Z</time></trkpt><trkpt lat="40.89099" lon="14.2801083"><ele>88.71428571428572</ele><time>2026-04-20T15:31:35.533Z</time></trkpt><trkpt lat="40.8909317" lon="14.28017"><ele>88.28571428571428</ele><time>2026-04-20T15:31:36.533Z</time></trkpt><trkpt lat="40.8908733" lon="14.2802333"><ele>87.85714285714286</ele><time>2026-04-20T15:31:37.533Z</time></trkpt><trkpt lat="40.89081" lon="14.28029"><ele>87.42857142857143</ele><time>2026-04-20T15:31:38.533Z</time></trkpt><trkpt lat="40.8907433" lon="14.28034"><ele>87.0</ele><time>2026-04-20T15:31:39.533Z</time></trkpt><trkpt lat="40.8906767" lon="14.280395"><ele>86.83333333333333</ele><time>2026-04-20T15:31:40.533Z</time></trkpt><trkpt lat="40.8906117" lon="14.2804467"><ele>86.66666666666667</ele><time>2026-04-20T15:31:41.534Z</time></trkpt><trkpt lat="40.8905433" lon="14.2805033"><ele>86.5</ele><time>2026-04-20T15:31:42.533Z</time></trkpt><trkpt lat="40.8904783" lon="14.28056"><ele>86.33333333333334</ele><time>2026-04-20T15:31:43.533Z</time></trkpt><trkpt lat="40.890415" lon="14.2806167"><ele>86.16666666666667</ele><time>2026-04-20T15:31:44.532Z</time></trkpt><trkpt lat="40.89035" lon="14.2806767"><ele>86.0</ele><time>2026-04-20T15:31:45.533Z</time></trkpt><trkpt lat="40.8902933" lon="14.2807367"><ele>85.8</ele><time>2026-04-20T15:31:46.532Z</time></trkpt><trkpt lat="40.8902317" lon="14.2807917"><ele>85.6</ele><time>2026-04-20T15:31:47.532Z</time></trkpt><trkpt lat="40.8901783" lon="14.2808483"><ele>85.4</ele><time>2026-04-20T15:31:48.533Z</time></trkpt><trkpt lat="40.8901217" lon="14.2809817"><ele>85.2</ele><time>2026-04-20T15:31:50.532Z</time></trkpt><trkpt lat="40.8901567" lon="14.2811283"><ele>85.0</ele><time>2026-04-20T15:31:52.532Z</time></trkpt><trkpt lat="40.89022" lon="14.2811967"><ele>85.0</ele><time>2026-04-20T15:31:53.535Z</time></trkpt><trkpt lat="40.890275" lon="14.2812617"><ele>85.0</ele><time>2026-04-20T15:31:54.532Z</time></trkpt><trkpt lat="40.8903283" lon="14.28133"><ele>85.0</ele><time>2026-04-20T15:31:55.533Z</time></trkpt><trkpt lat="40.8903817" lon="14.2814"><ele>85.0</ele><time>2026-04-20T15:31:56.532Z</time></trkpt><trkpt lat="40.890435" lon="14.2814717"><ele>85.0</ele><time>2026-04-20T15:31:57.533Z</time></trkpt><trkpt lat="40.8904917" lon="14.281535"><ele>85.0</ele><time>2026-04-20T15:31:58.533Z</time></trkpt><trkpt lat="40.8905417" lon="14.2816033"><ele>85.0</ele><time>2026-04-20T15:31:59.533Z</time></trkpt><trkpt lat="40.8905867" lon="14.2816733"><ele>85.16666666666666</ele><time>2026-04-20T15:32:00.532Z</time></trkpt><trkpt lat="40.89063" lon="14.28175"><ele>85.33333333333333</ele><time>2026-04-20T15:32:01.534Z</time></trkpt><trkpt lat="40.89068" lon="14.28182"><ele>85.5</ele><time>2026-04-20T15:32:02.533Z</time></trkpt><trkpt lat="40.89073" lon="14.281895"><ele>85.66666666666667</ele><time>2026-04-20T15:32:03.533Z</time></trkpt><trkpt lat="40.8907817" lon="14.2819717"><ele>85.83333333333334</ele><time>2026-04-20T15:32:04.533Z</time></trkpt><trkpt lat="40.890825" lon="14.28206"><ele>86.0</ele><time>2026-04-20T15:32:05.532Z</time></trkpt><trkpt lat="40.8908733" lon="14.2821433"><ele>86.16666666666667</ele><time>2026-04-20T15:32:06.533Z</time></trkpt><trkpt lat="40.89093" lon="14.282215"><ele>86.33333333333334</ele><time>2026-04-20T15:32:07.533Z</time></trkpt><trkpt lat="40.89099" lon="14.282285"><ele>86.5</ele><time>2026-04-20T15:32:08.533Z</time></trkpt><trkpt lat="40.891045" lon="14.2823583"><ele>86.66666666666667</ele><time>2026-04-20T15:32:09.533Z</time></trkpt><trkpt lat="40.8910967" lon="14.28243"><ele>86.83333333333333</ele><time>2026-04-20T15:32:10.532Z</time></trkpt><trkpt lat="40.8911517" lon="14.28249"><ele>87.0</ele><time>2026-04-20T15:32:11.533Z</time></trkpt><trkpt lat="40.8912317" lon="14.2825817"><ele>87.0</ele><time>2026-04-20T15:32:13.533Z</time></trkpt><trkpt lat="40.8912617" lon="14.2826667"><ele>87.0</ele><time>2026-04-20T15:32:17.533Z</time></trkpt><trkpt lat="40.891195" lon="14.2827433"><ele>87.0</ele><time>2026-04-20T15:32:19.532Z</time></trkpt><trkpt lat="40.8911217" lon="14.28284"><ele>87.0</ele><time>2026-04-20T15:32:21.532Z</time></trkpt><trkpt lat="40.8911233" lon="14.28296"><ele>87.0</ele><time>2026-04-20T15:32:23.533Z</time></trkpt><trkpt lat="40.891185" lon="14.28307"><ele>86.57142857142857</ele><time>2026-04-20T15:32:25.538Z</time></trkpt><trkpt lat="40.8912333" lon="14.2831283"><ele>86.14285714285714</ele><time>2026-04-20T15:32:26.534Z</time></trkpt><trkpt lat="40.8912917" lon="14.2831767"><ele>85.71428571428572</ele><time>2026-04-20T15:32:27.533Z</time></trkpt><trkpt lat="40.891355" lon="14.283215"><ele>85.28571428571428</ele><time>2026-04-20T15:32:28.534Z</time></trkpt><trkpt lat="40.8914183" lon="14.2832533"><ele>84.85714285714286</ele><time>2026-04-20T15:32:29.533Z</time></trkpt><trkpt lat="40.8914817" lon="14.2832933"><ele>84.42857142857143</ele><time>2026-04-20T15:32:30.533Z</time></trkpt><trkpt lat="40.8915517" lon="14.28334"><ele>84.0</ele><time>2026-04-20T15:32:31.533Z</time></trkpt><trkpt lat="40.8916217" lon="14.2833883"><ele>84.0</ele><time>2026-04-20T15:32:32.532Z</time></trkpt><trkpt lat="40.8916933" lon="14.28343"><ele>84.0</ele><time>2026-04-20T15:32:33.535Z</time></trkpt><trkpt lat="40.89176" lon="14.2834783"><ele>84.0</ele><time>2026-04-20T15:32:34.532Z</time></trkpt><trkpt lat="40.8918267" lon="14.28353"><ele>84.0</ele><time>2026-04-20T15:32:35.533Z</time></trkpt><trkpt lat="40.89189" lon="14.28359"><ele>84.0</ele><time>2026-04-20T15:32:36.532Z</time></trkpt><trkpt lat="40.8919533" lon="14.283655"><ele>84.0</ele><time>2026-04-20T15:32:37.532Z</time></trkpt><trkpt lat="40.89203" lon="14.2837183"><ele>84.16666666666667</ele><time>2026-04-20T15:32:38.532Z</time></trkpt><trkpt lat="40.8920983" lon="14.2837833"><ele>84.33333333333333</ele><time>2026-04-20T15:32:39.532Z</time></trkpt><trkpt lat="40.8921617" lon="14.2838517"><ele>84.5</ele><time>2026-04-20T15:32:40.533Z</time></trkpt><trkpt lat="40.8922283" lon="14.2839233"><ele>84.66666666666666</ele><time>2026-04-20T15:32:41.533Z</time></trkpt><trkpt lat="40.8923" lon="14.2839933"><ele>84.83333333333333</ele><time>2026-04-20T15:32:42.533Z</time></trkpt><trkpt lat="40.8923683" lon="14.2840617"><ele>85.0</ele><time>2026-04-20T15:32:43.532Z</time></trkpt><trkpt lat="40.8924383" lon="14.2841333"><ele>85.2</ele><time>2026-04-20T15:32:44.533Z</time></trkpt><trkpt lat="40.8925033" lon="14.2842167"><ele>85.4</ele><time>2026-04-20T15:32:45.533Z</time></trkpt><trkpt lat="40.8925583" lon="14.2843167"><ele>85.6</ele><time>2026-04-20T15:32:46.533Z</time></trkpt><trkpt lat="40.8926167" lon="14.284415"><ele>85.8</ele><time>2026-04-20T15:32:47.533Z</time></trkpt><trkpt lat="40.892675" lon="14.2845083"><ele>86.0</ele><time>2026-04-20T15:32:48.532Z</time></trkpt><trkpt lat="40.8927333" lon="14.284605"><ele>86.0</ele><time>2026-04-20T15:32:49.534Z</time></trkpt><trkpt lat="40.8927967" lon="14.2846983"><ele>86.0</ele><time>2026-04-20T15:32:50.533Z</time></trkpt><trkpt lat="40.8928583" lon="14.2847867"><ele>86.0</ele><time>2026-04-20T15:32:51.533Z</time></trkpt><trkpt lat="40.8929183" lon="14.2848717"><ele>86.0</ele><time>2026-04-20T15:32:52.531Z</time></trkpt><trkpt lat="40.89297" lon="14.2849617"><ele>86.0</ele><time>2026-04-20T15:32:53.532Z</time></trkpt><trkpt lat="40.8930133" lon="14.285055"><ele>86.0</ele><time>2026-04-20T15:32:54.533Z</time></trkpt><trkpt lat="40.8930567" lon="14.2851517"><ele>85.83333333333334</ele><time>2026-04-20T15:32:55.533Z</time></trkpt><trkpt lat="40.8931017" lon="14.2852467"><ele>85.66666666666667</ele><time>2026-04-20T15:32:56.533Z</time></trkpt><trkpt lat="40.8931417" lon="14.2853433"><ele>85.5</ele><time>2026-04-20T15:32:57.532Z</time></trkpt><trkpt lat="40.8931817" lon="14.2854433"><ele>85.33333333333333</ele><time>2026-04-20T15:32:58.532Z</time></trkpt><trkpt lat="40.8932183" lon="14.28555"><ele>85.16666666666666</ele><time>2026-04-20T15:32:59.532Z</time></trkpt><trkpt lat="40.8932617" lon="14.285665"><ele>85.0</ele><time>2026-04-20T15:33:00.532Z</time></trkpt><trkpt lat="40.89331" lon="14.28578"><ele>84.4</ele><time>2026-04-20T15:33:01.534Z</time></trkpt><trkpt lat="40.8933433" lon="14.2859067"><ele>83.8</ele><time>2026-04-20T15:33:02.533Z</time></trkpt><trkpt lat="40.8933767" lon="14.2860433"><ele>83.19999999999999</ele><time>2026-04-20T15:33:03.533Z</time></trkpt><trkpt lat="40.8934133" lon="14.2861683"><ele>82.6</ele><time>2026-04-20T15:33:04.534Z</time></trkpt><trkpt lat="40.8934433" lon="14.2863017"><ele>82.0</ele><time>2026-04-20T15:33:05.533Z</time></trkpt><trkpt lat="40.8934767" lon="14.2864367"><ele>81.6</ele><time>2026-04-20T15:33:06.533Z</time></trkpt><trkpt lat="40.8935117" lon="14.286565"><ele>81.19999999999999</ele><time>2026-04-20T15:33:07.534Z</time></trkpt><trkpt lat="40.8935483" lon="14.2866817"><ele>80.8</ele><time>2026-04-20T15:33:08.533Z</time></trkpt><trkpt lat="40.8935833" lon="14.2868"><ele>80.4</ele><time>2026-04-20T15:33:09.532Z</time></trkpt><trkpt lat="40.89362" lon="14.286915"><ele>80.0</ele><time>2026-04-20T15:33:10.533Z</time></trkpt><trkpt lat="40.8936567" lon="14.2870283"><ele>80.0</ele><time>2026-04-20T15:33:11.534Z</time></trkpt><trkpt lat="40.8936917" lon="14.2871317"><ele>80.0</ele><time>2026-04-20T15:33:12.533Z</time></trkpt><trkpt lat="40.893725" lon="14.2872283"><ele>80.0</ele><time>2026-04-20T15:33:13.533Z</time></trkpt><trkpt lat="40.893755" lon="14.2873167"><ele>80.0</ele><time>2026-04-20T15:33:14.534Z</time></trkpt><trkpt lat="40.8937967" lon="14.287465"><ele>80.0</ele><time>2026-04-20T15:33:16.532Z</time></trkpt><trkpt lat="40.8937633" lon="14.287575"><ele>80.0</ele><time>2026-04-20T15:33:18.533Z</time></trkpt><trkpt lat="40.893685" lon="14.287595"><ele>80.0</ele><time>2026-04-20T15:33:19.533Z</time></trkpt><trkpt lat="40.8936183" lon="14.2877067"><ele>80.0</ele><time>2026-04-20T15:33:21.533Z</time></trkpt><trkpt lat="40.8936333" lon="14.2878283"><ele>80.0</ele><time>2026-04-20T15:33:23.533Z</time></trkpt><trkpt lat="40.89368" lon="14.2879333"><ele>80.0</ele><time>2026-04-20T15:33:26.535Z</time></trkpt><trkpt lat="40.8937706" lon="14.2878982"><ele>80.0</ele><time>2026-04-20T15:34:20.675Z</time></trkpt><trkpt lat="40.8938909" lon="14.287869"><ele>80.0</ele><time>2026-04-20T15:35:10.812Z</time></trkpt><trkpt lat="40.8937409" lon="14.2878043"><ele>80.0</ele><time>2026-04-20T15:35:57.847Z</time></trkpt></trkseg></trk></gpx>